<?xml version="1.0" encoding="UTF-8" standalone="no" ?>
<gpx xmlns="http://www.topografix.com/GPX/1/1" xmlns:xsi="http://www.w3.org/2001/XMLSchema-instance" xsi:schemaLocation="http://www.topografix.com/GPX/1/1 http://www.topografix.com/GPX/1/1/gpx.xsd" version="1.1" creator="VisuGPX - https://www.visugpx.com">
  <metadata>
    <name>Course à pied le midi</name>
  </metadata>
  <trk>
    <name><![CDATA[Course à pied le midi_1]]></name>
    <trkseg>
      <trkpt lat="43.64759" lon="1.37623">
        <ele>150</ele>
        <time>2024-06-19T10:04:42Z</time>
      </trkpt>
      <trkpt lat="43.64762" lon="1.37622">
        <ele>150</ele>
        <time>2024-06-19T10:04:43Z</time>
      </trkpt>
      <trkpt lat="43.64766" lon="1.37621">
        <ele>150</ele>
        <time>2024-06-19T10:04:44Z</time>
      </trkpt>
      <trkpt lat="43.64766" lon="1.37621">
        <ele>150</ele>
        <time>2024-06-19T10:04:45Z</time>
      </trkpt>
      <trkpt lat="43.64769" lon="1.37618">
        <ele>150</ele>
        <time>2024-06-19T10:04:46Z</time>
      </trkpt>
      <trkpt lat="43.64771" lon="1.37616">
        <ele>150</ele>
        <time>2024-06-19T10:04:47Z</time>
      </trkpt>
      <trkpt lat="43.64773" lon="1.37615">
        <ele>150</ele>
        <time>2024-06-19T10:04:48Z</time>
      </trkpt>
      <trkpt lat="43.64776" lon="1.37614">
        <ele>150</ele>
        <time>2024-06-19T10:04:49Z</time>
      </trkpt>
      <trkpt lat="43.64778" lon="1.37613">
        <ele>151</ele>
        <time>2024-06-19T10:04:50Z</time>
      </trkpt>
      <trkpt lat="43.64778" lon="1.37613">
        <ele>151</ele>
        <time>2024-06-19T10:04:51Z</time>
      </trkpt>
      <trkpt lat="43.64781" lon="1.37611">
        <ele>151</ele>
        <time>2024-06-19T10:04:52Z</time>
      </trkpt>
      <trkpt lat="43.64781" lon="1.37611">
        <ele>151</ele>
        <time>2024-06-19T10:04:53Z</time>
      </trkpt>
      <trkpt lat="43.64784" lon="1.3761">
        <ele>151</ele>
        <time>2024-06-19T10:04:54Z</time>
      </trkpt>
      <trkpt lat="43.64784" lon="1.3761">
        <ele>151</ele>
        <time>2024-06-19T10:04:55Z</time>
      </trkpt>
      <trkpt lat="43.64787" lon="1.37608">
        <ele>151</ele>
        <time>2024-06-19T10:04:56Z</time>
      </trkpt>
      <trkpt lat="43.64787" lon="1.37608">
        <ele>151</ele>
        <time>2024-06-19T10:04:57Z</time>
      </trkpt>
      <trkpt lat="43.6479" lon="1.37606">
        <ele>151</ele>
        <time>2024-06-19T10:04:58Z</time>
      </trkpt>
      <trkpt lat="43.64791" lon="1.37605">
        <ele>151</ele>
        <time>2024-06-19T10:04:59Z</time>
      </trkpt>
      <trkpt lat="43.64793" lon="1.37605">
        <ele>151</ele>
        <time>2024-06-19T10:05:00Z</time>
      </trkpt>
      <trkpt lat="43.64795" lon="1.37604">
        <ele>151</ele>
        <time>2024-06-19T10:05:01Z</time>
      </trkpt>
      <trkpt lat="43.64797" lon="1.37604">
        <ele>151</ele>
        <time>2024-06-19T10:05:02Z</time>
      </trkpt>
      <trkpt lat="43.64801" lon="1.37605">
        <ele>151</ele>
        <time>2024-06-19T10:05:03Z</time>
      </trkpt>
      <trkpt lat="43.64804" lon="1.37606">
        <ele>150</ele>
        <time>2024-06-19T10:05:04Z</time>
      </trkpt>
      <trkpt lat="43.64807" lon="1.37607">
        <ele>150</ele>
        <time>2024-06-19T10:05:05Z</time>
      </trkpt>
      <trkpt lat="43.64807" lon="1.37607">
        <ele>150</ele>
        <time>2024-06-19T10:05:06Z</time>
      </trkpt>
      <trkpt lat="43.64813" lon="1.3761">
        <ele>150</ele>
        <time>2024-06-19T10:05:07Z</time>
      </trkpt>
      <trkpt lat="43.64814" lon="1.37611">
        <ele>150</ele>
        <time>2024-06-19T10:05:08Z</time>
      </trkpt>
      <trkpt lat="43.64816" lon="1.37612">
        <ele>150</ele>
        <time>2024-06-19T10:05:09Z</time>
      </trkpt>
      <trkpt lat="43.64819" lon="1.37614">
        <ele>150</ele>
        <time>2024-06-19T10:05:10Z</time>
      </trkpt>
      <trkpt lat="43.64821" lon="1.37615">
        <ele>150</ele>
        <time>2024-06-19T10:05:11Z</time>
      </trkpt>
      <trkpt lat="43.64823" lon="1.37618">
        <ele>150</ele>
        <time>2024-06-19T10:05:12Z</time>
      </trkpt>
      <trkpt lat="43.64825" lon="1.37619">
        <ele>150</ele>
        <time>2024-06-19T10:05:13Z</time>
      </trkpt>
      <trkpt lat="43.64826" lon="1.37621">
        <ele>150</ele>
        <time>2024-06-19T10:05:14Z</time>
      </trkpt>
      <trkpt lat="43.64826" lon="1.37621">
        <ele>150</ele>
        <time>2024-06-19T10:05:15Z</time>
      </trkpt>
      <trkpt lat="43.64828" lon="1.37623">
        <ele>150</ele>
        <time>2024-06-19T10:05:16Z</time>
      </trkpt>
      <trkpt lat="43.64829" lon="1.37624">
        <ele>150</ele>
        <time>2024-06-19T10:05:17Z</time>
      </trkpt>
      <trkpt lat="43.6483" lon="1.37626">
        <ele>150</ele>
        <time>2024-06-19T10:05:18Z</time>
      </trkpt>
      <trkpt lat="43.64832" lon="1.37628">
        <ele>150</ele>
        <time>2024-06-19T10:05:19Z</time>
      </trkpt>
      <trkpt lat="43.64834" lon="1.37631">
        <ele>150</ele>
        <time>2024-06-19T10:05:20Z</time>
      </trkpt>
      <trkpt lat="43.64836" lon="1.37633">
        <ele>150</ele>
        <time>2024-06-19T10:05:21Z</time>
      </trkpt>
      <trkpt lat="43.64838" lon="1.37635">
        <ele>150</ele>
        <time>2024-06-19T10:05:22Z</time>
      </trkpt>
      <trkpt lat="43.6484" lon="1.37638">
        <ele>150</ele>
        <time>2024-06-19T10:05:23Z</time>
      </trkpt>
      <trkpt lat="43.64842" lon="1.3764">
        <ele>150</ele>
        <time>2024-06-19T10:05:24Z</time>
      </trkpt>
      <trkpt lat="43.64844" lon="1.37641">
        <ele>150</ele>
        <time>2024-06-19T10:05:25Z</time>
      </trkpt>
      <trkpt lat="43.64846" lon="1.37643">
        <ele>150</ele>
        <time>2024-06-19T10:05:26Z</time>
      </trkpt>
      <trkpt lat="43.64848" lon="1.37645">
        <ele>150</ele>
        <time>2024-06-19T10:05:27Z</time>
      </trkpt>
      <trkpt lat="43.6485" lon="1.37647">
        <ele>150</ele>
        <time>2024-06-19T10:05:28Z</time>
      </trkpt>
      <trkpt lat="43.64852" lon="1.37648">
        <ele>150</ele>
        <time>2024-06-19T10:05:29Z</time>
      </trkpt>
      <trkpt lat="43.64854" lon="1.3765">
        <ele>150</ele>
        <time>2024-06-19T10:05:30Z</time>
      </trkpt>
      <trkpt lat="43.64856" lon="1.37651">
        <ele>150</ele>
        <time>2024-06-19T10:05:31Z</time>
      </trkpt>
      <trkpt lat="43.64859" lon="1.37652">
        <ele>150</ele>
        <time>2024-06-19T10:05:32Z</time>
      </trkpt>
      <trkpt lat="43.64862" lon="1.37654">
        <ele>150</ele>
        <time>2024-06-19T10:05:33Z</time>
      </trkpt>
      <trkpt lat="43.64864" lon="1.37655">
        <ele>150</ele>
        <time>2024-06-19T10:05:34Z</time>
      </trkpt>
      <trkpt lat="43.64865" lon="1.37657">
        <ele>150</ele>
        <time>2024-06-19T10:05:35Z</time>
      </trkpt>
      <trkpt lat="43.64867" lon="1.37659">
        <ele>150</ele>
        <time>2024-06-19T10:05:36Z</time>
      </trkpt>
      <trkpt lat="43.6487" lon="1.37661">
        <ele>150</ele>
        <time>2024-06-19T10:05:37Z</time>
      </trkpt>
      <trkpt lat="43.64872" lon="1.37663">
        <ele>150</ele>
        <time>2024-06-19T10:05:38Z</time>
      </trkpt>
      <trkpt lat="43.64874" lon="1.37666">
        <ele>150</ele>
        <time>2024-06-19T10:05:39Z</time>
      </trkpt>
      <trkpt lat="43.64874" lon="1.37666">
        <ele>150</ele>
        <time>2024-06-19T10:05:40Z</time>
      </trkpt>
      <trkpt lat="43.64876" lon="1.37668">
        <ele>150</ele>
        <time>2024-06-19T10:05:41Z</time>
      </trkpt>
      <trkpt lat="43.64878" lon="1.37671">
        <ele>150</ele>
        <time>2024-06-19T10:05:42Z</time>
      </trkpt>
      <trkpt lat="43.64879" lon="1.37673">
        <ele>150</ele>
        <time>2024-06-19T10:05:43Z</time>
      </trkpt>
      <trkpt lat="43.64881" lon="1.37676">
        <ele>149</ele>
        <time>2024-06-19T10:05:44Z</time>
      </trkpt>
      <trkpt lat="43.64882" lon="1.37679">
        <ele>149</ele>
        <time>2024-06-19T10:05:45Z</time>
      </trkpt>
      <trkpt lat="43.64884" lon="1.37682">
        <ele>150</ele>
        <time>2024-06-19T10:05:46Z</time>
      </trkpt>
      <trkpt lat="43.64885" lon="1.37685">
        <ele>150</ele>
        <time>2024-06-19T10:05:47Z</time>
      </trkpt>
      <trkpt lat="43.64886" lon="1.37688">
        <ele>150</ele>
        <time>2024-06-19T10:05:48Z</time>
      </trkpt>
      <trkpt lat="43.64889" lon="1.37696">
        <ele>150</ele>
        <time>2024-06-19T10:05:49Z</time>
      </trkpt>
      <trkpt lat="43.64889" lon="1.37697">
        <ele>150</ele>
        <time>2024-06-19T10:05:50Z</time>
      </trkpt>
      <trkpt lat="43.64889" lon="1.37697">
        <ele>150</ele>
        <time>2024-06-19T10:05:51Z</time>
      </trkpt>
      <trkpt lat="43.64892" lon="1.37705">
        <ele>150</ele>
        <time>2024-06-19T10:05:52Z</time>
      </trkpt>
      <trkpt lat="43.64892" lon="1.37706">
        <ele>150</ele>
        <time>2024-06-19T10:05:53Z</time>
      </trkpt>
      <trkpt lat="43.64893" lon="1.37709">
        <ele>150</ele>
        <time>2024-06-19T10:05:54Z</time>
      </trkpt>
      <trkpt lat="43.64894" lon="1.37712">
        <ele>149</ele>
        <time>2024-06-19T10:05:55Z</time>
      </trkpt>
      <trkpt lat="43.64895" lon="1.37715">
        <ele>149</ele>
        <time>2024-06-19T10:05:56Z</time>
      </trkpt>
      <trkpt lat="43.64895" lon="1.37715">
        <ele>149</ele>
        <time>2024-06-19T10:05:57Z</time>
      </trkpt>
      <trkpt lat="43.64897" lon="1.37721">
        <ele>149</ele>
        <time>2024-06-19T10:05:58Z</time>
      </trkpt>
      <trkpt lat="43.64897" lon="1.37721">
        <ele>150</ele>
        <time>2024-06-19T10:05:59Z</time>
      </trkpt>
      <trkpt lat="43.64898" lon="1.37726">
        <ele>150</ele>
        <time>2024-06-19T10:06:00Z</time>
      </trkpt>
      <trkpt lat="43.64898" lon="1.37726">
        <ele>150</ele>
        <time>2024-06-19T10:06:01Z</time>
      </trkpt>
      <trkpt lat="43.64901" lon="1.37733">
        <ele>150</ele>
        <time>2024-06-19T10:06:02Z</time>
      </trkpt>
      <trkpt lat="43.64901" lon="1.37735">
        <ele>150</ele>
        <time>2024-06-19T10:06:03Z</time>
      </trkpt>
      <trkpt lat="43.64902" lon="1.37737">
        <ele>150</ele>
        <time>2024-06-19T10:06:04Z</time>
      </trkpt>
      <trkpt lat="43.64903" lon="1.3774">
        <ele>150</ele>
        <time>2024-06-19T10:06:05Z</time>
      </trkpt>
      <trkpt lat="43.64903" lon="1.37744">
        <ele>150</ele>
        <time>2024-06-19T10:06:06Z</time>
      </trkpt>
      <trkpt lat="43.64904" lon="1.37747">
        <ele>150</ele>
        <time>2024-06-19T10:06:07Z</time>
      </trkpt>
      <trkpt lat="43.64905" lon="1.3775">
        <ele>149</ele>
        <time>2024-06-19T10:06:08Z</time>
      </trkpt>
      <trkpt lat="43.64906" lon="1.37752">
        <ele>149</ele>
        <time>2024-06-19T10:06:09Z</time>
      </trkpt>
      <trkpt lat="43.64907" lon="1.37755">
        <ele>149</ele>
        <time>2024-06-19T10:06:10Z</time>
      </trkpt>
      <trkpt lat="43.64908" lon="1.37758">
        <ele>150</ele>
        <time>2024-06-19T10:06:11Z</time>
      </trkpt>
      <trkpt lat="43.64909" lon="1.37761">
        <ele>150</ele>
        <time>2024-06-19T10:06:12Z</time>
      </trkpt>
      <trkpt lat="43.6491" lon="1.37764">
        <ele>150</ele>
        <time>2024-06-19T10:06:13Z</time>
      </trkpt>
      <trkpt lat="43.6491" lon="1.37767">
        <ele>149</ele>
        <time>2024-06-19T10:06:14Z</time>
      </trkpt>
      <trkpt lat="43.64911" lon="1.3777">
        <ele>149</ele>
        <time>2024-06-19T10:06:15Z</time>
      </trkpt>
      <trkpt lat="43.64911" lon="1.3777">
        <ele>149</ele>
        <time>2024-06-19T10:06:16Z</time>
      </trkpt>
      <trkpt lat="43.64912" lon="1.37777">
        <ele>149</ele>
        <time>2024-06-19T10:06:17Z</time>
      </trkpt>
      <trkpt lat="43.64912" lon="1.3778">
        <ele>149</ele>
        <time>2024-06-19T10:06:18Z</time>
      </trkpt>
      <trkpt lat="43.64913" lon="1.37783">
        <ele>149</ele>
        <time>2024-06-19T10:06:19Z</time>
      </trkpt>
      <trkpt lat="43.64913" lon="1.37786">
        <ele>149</ele>
        <time>2024-06-19T10:06:20Z</time>
      </trkpt>
      <trkpt lat="43.64914" lon="1.37789">
        <ele>149</ele>
        <time>2024-06-19T10:06:21Z</time>
      </trkpt>
      <trkpt lat="43.64915" lon="1.37792">
        <ele>150</ele>
        <time>2024-06-19T10:06:22Z</time>
      </trkpt>
      <trkpt lat="43.64916" lon="1.37794">
        <ele>150</ele>
        <time>2024-06-19T10:06:23Z</time>
      </trkpt>
      <trkpt lat="43.64917" lon="1.37797">
        <ele>150</ele>
        <time>2024-06-19T10:06:24Z</time>
      </trkpt>
      <trkpt lat="43.64918" lon="1.37801">
        <ele>149</ele>
        <time>2024-06-19T10:06:25Z</time>
      </trkpt>
      <trkpt lat="43.64918" lon="1.37804">
        <ele>149</ele>
        <time>2024-06-19T10:06:26Z</time>
      </trkpt>
      <trkpt lat="43.64918" lon="1.37807">
        <ele>149</ele>
        <time>2024-06-19T10:06:27Z</time>
      </trkpt>
      <trkpt lat="43.64918" lon="1.3781">
        <ele>149</ele>
        <time>2024-06-19T10:06:28Z</time>
      </trkpt>
      <trkpt lat="43.64918" lon="1.3781">
        <ele>149</ele>
        <time>2024-06-19T10:06:29Z</time>
      </trkpt>
      <trkpt lat="43.64919" lon="1.37814">
        <ele>149</ele>
        <time>2024-06-19T10:06:30Z</time>
      </trkpt>
      <trkpt lat="43.64919" lon="1.37817">
        <ele>149</ele>
        <time>2024-06-19T10:06:31Z</time>
      </trkpt>
      <trkpt lat="43.6492" lon="1.37821">
        <ele>149</ele>
        <time>2024-06-19T10:06:32Z</time>
      </trkpt>
      <trkpt lat="43.64921" lon="1.37824">
        <ele>149</ele>
        <time>2024-06-19T10:06:33Z</time>
      </trkpt>
      <trkpt lat="43.64921" lon="1.37828">
        <ele>149</ele>
        <time>2024-06-19T10:06:34Z</time>
      </trkpt>
      <trkpt lat="43.64922" lon="1.37833">
        <ele>149</ele>
        <time>2024-06-19T10:06:35Z</time>
      </trkpt>
      <trkpt lat="43.64922" lon="1.37835">
        <ele>149</ele>
        <time>2024-06-19T10:06:36Z</time>
      </trkpt>
      <trkpt lat="43.64923" lon="1.37839">
        <ele>149</ele>
        <time>2024-06-19T10:06:37Z</time>
      </trkpt>
      <trkpt lat="43.64924" lon="1.37842">
        <ele>149</ele>
        <time>2024-06-19T10:06:38Z</time>
      </trkpt>
      <trkpt lat="43.64924" lon="1.37846">
        <ele>149</ele>
        <time>2024-06-19T10:06:39Z</time>
      </trkpt>
      <trkpt lat="43.64925" lon="1.37849">
        <ele>149</ele>
        <time>2024-06-19T10:06:40Z</time>
      </trkpt>
      <trkpt lat="43.64925" lon="1.37852">
        <ele>149</ele>
        <time>2024-06-19T10:06:41Z</time>
      </trkpt>
      <trkpt lat="43.64925" lon="1.37855">
        <ele>149</ele>
        <time>2024-06-19T10:06:42Z</time>
      </trkpt>
      <trkpt lat="43.64925" lon="1.37858">
        <ele>149</ele>
        <time>2024-06-19T10:06:43Z</time>
      </trkpt>
      <trkpt lat="43.64926" lon="1.37861">
        <ele>149</ele>
        <time>2024-06-19T10:06:44Z</time>
      </trkpt>
      <trkpt lat="43.64927" lon="1.37865">
        <ele>149</ele>
        <time>2024-06-19T10:06:45Z</time>
      </trkpt>
      <trkpt lat="43.64927" lon="1.37865">
        <ele>149</ele>
        <time>2024-06-19T10:06:46Z</time>
      </trkpt>
      <trkpt lat="43.64929" lon="1.37873">
        <ele>149</ele>
        <time>2024-06-19T10:06:47Z</time>
      </trkpt>
      <trkpt lat="43.64929" lon="1.37874">
        <ele>149</ele>
        <time>2024-06-19T10:06:48Z</time>
      </trkpt>
      <trkpt lat="43.64929" lon="1.37874">
        <ele>149</ele>
        <time>2024-06-19T10:06:49Z</time>
      </trkpt>
      <trkpt lat="43.64929" lon="1.37877">
        <ele>149</ele>
        <time>2024-06-19T10:06:50Z</time>
      </trkpt>
      <trkpt lat="43.6493" lon="1.3788">
        <ele>149</ele>
        <time>2024-06-19T10:06:51Z</time>
      </trkpt>
      <trkpt lat="43.64931" lon="1.37883">
        <ele>149</ele>
        <time>2024-06-19T10:06:52Z</time>
      </trkpt>
      <trkpt lat="43.64931" lon="1.37886">
        <ele>149</ele>
        <time>2024-06-19T10:06:53Z</time>
      </trkpt>
      <trkpt lat="43.64932" lon="1.37889">
        <ele>149</ele>
        <time>2024-06-19T10:06:54Z</time>
      </trkpt>
      <trkpt lat="43.64934" lon="1.37895">
        <ele>149</ele>
        <time>2024-06-19T10:06:55Z</time>
      </trkpt>
      <trkpt lat="43.64935" lon="1.37899">
        <ele>149</ele>
        <time>2024-06-19T10:06:56Z</time>
      </trkpt>
      <trkpt lat="43.64936" lon="1.37902">
        <ele>149</ele>
        <time>2024-06-19T10:06:57Z</time>
      </trkpt>
      <trkpt lat="43.64938" lon="1.37905">
        <ele>149</ele>
        <time>2024-06-19T10:06:58Z</time>
      </trkpt>
      <trkpt lat="43.64939" lon="1.37908">
        <ele>149</ele>
        <time>2024-06-19T10:06:59Z</time>
      </trkpt>
      <trkpt lat="43.64939" lon="1.37911">
        <ele>149</ele>
        <time>2024-06-19T10:07:00Z</time>
      </trkpt>
      <trkpt lat="43.6494" lon="1.37913">
        <ele>149</ele>
        <time>2024-06-19T10:07:01Z</time>
      </trkpt>
      <trkpt lat="43.64941" lon="1.37917">
        <ele>148</ele>
        <time>2024-06-19T10:07:02Z</time>
      </trkpt>
      <trkpt lat="43.64942" lon="1.3792">
        <ele>149</ele>
        <time>2024-06-19T10:07:03Z</time>
      </trkpt>
      <trkpt lat="43.64943" lon="1.37923">
        <ele>149</ele>
        <time>2024-06-19T10:07:04Z</time>
      </trkpt>
      <trkpt lat="43.64943" lon="1.37926">
        <ele>149</ele>
        <time>2024-06-19T10:07:05Z</time>
      </trkpt>
      <trkpt lat="43.64944" lon="1.37929">
        <ele>149</ele>
        <time>2024-06-19T10:07:06Z</time>
      </trkpt>
      <trkpt lat="43.64944" lon="1.37932">
        <ele>149</ele>
        <time>2024-06-19T10:07:07Z</time>
      </trkpt>
      <trkpt lat="43.64944" lon="1.37936">
        <ele>149</ele>
        <time>2024-06-19T10:07:08Z</time>
      </trkpt>
      <trkpt lat="43.64944" lon="1.37939">
        <ele>149</ele>
        <time>2024-06-19T10:07:09Z</time>
      </trkpt>
      <trkpt lat="43.64945" lon="1.37942">
        <ele>149</ele>
        <time>2024-06-19T10:07:10Z</time>
      </trkpt>
      <trkpt lat="43.64945" lon="1.37944">
        <ele>149</ele>
        <time>2024-06-19T10:07:11Z</time>
      </trkpt>
      <trkpt lat="43.64945" lon="1.37947">
        <ele>149</ele>
        <time>2024-06-19T10:07:12Z</time>
      </trkpt>
      <trkpt lat="43.64947" lon="1.37954">
        <ele>149</ele>
        <time>2024-06-19T10:07:14Z</time>
      </trkpt>
      <trkpt lat="43.64947" lon="1.37954">
        <ele>149</ele>
        <time>2024-06-19T10:07:15Z</time>
      </trkpt>
      <trkpt lat="43.64947" lon="1.37958">
        <ele>149</ele>
        <time>2024-06-19T10:07:16Z</time>
      </trkpt>
      <trkpt lat="43.64948" lon="1.37962">
        <ele>149</ele>
        <time>2024-06-19T10:07:17Z</time>
      </trkpt>
      <trkpt lat="43.64948" lon="1.37966">
        <ele>149</ele>
        <time>2024-06-19T10:07:18Z</time>
      </trkpt>
      <trkpt lat="43.64949" lon="1.3797">
        <ele>149</ele>
        <time>2024-06-19T10:07:19Z</time>
      </trkpt>
      <trkpt lat="43.6495" lon="1.37974">
        <ele>149</ele>
        <time>2024-06-19T10:07:20Z</time>
      </trkpt>
      <trkpt lat="43.64951" lon="1.37979">
        <ele>148</ele>
        <time>2024-06-19T10:07:21Z</time>
      </trkpt>
      <trkpt lat="43.64952" lon="1.37982">
        <ele>148</ele>
        <time>2024-06-19T10:07:22Z</time>
      </trkpt>
      <trkpt lat="43.64954" lon="1.37985">
        <ele>148</ele>
        <time>2024-06-19T10:07:23Z</time>
      </trkpt>
      <trkpt lat="43.64955" lon="1.37987">
        <ele>148</ele>
        <time>2024-06-19T10:07:24Z</time>
      </trkpt>
      <trkpt lat="43.64956" lon="1.3799">
        <ele>148</ele>
        <time>2024-06-19T10:07:25Z</time>
      </trkpt>
      <trkpt lat="43.64958" lon="1.37993">
        <ele>148</ele>
        <time>2024-06-19T10:07:26Z</time>
      </trkpt>
      <trkpt lat="43.64959" lon="1.37995">
        <ele>148</ele>
        <time>2024-06-19T10:07:27Z</time>
      </trkpt>
      <trkpt lat="43.64961" lon="1.37998">
        <ele>148</ele>
        <time>2024-06-19T10:07:28Z</time>
      </trkpt>
      <trkpt lat="43.64962" lon="1.38">
        <ele>148</ele>
        <time>2024-06-19T10:07:29Z</time>
      </trkpt>
      <trkpt lat="43.64963" lon="1.38002">
        <ele>148</ele>
        <time>2024-06-19T10:07:30Z</time>
      </trkpt>
      <trkpt lat="43.64964" lon="1.38005">
        <ele>148</ele>
        <time>2024-06-19T10:07:31Z</time>
      </trkpt>
      <trkpt lat="43.64965" lon="1.38008">
        <ele>148</ele>
        <time>2024-06-19T10:07:32Z</time>
      </trkpt>
      <trkpt lat="43.64966" lon="1.38011">
        <ele>148</ele>
        <time>2024-06-19T10:07:33Z</time>
      </trkpt>
      <trkpt lat="43.64966" lon="1.38013">
        <ele>148</ele>
        <time>2024-06-19T10:07:34Z</time>
      </trkpt>
      <trkpt lat="43.64967" lon="1.38016">
        <ele>149</ele>
        <time>2024-06-19T10:07:35Z</time>
      </trkpt>
      <trkpt lat="43.64968" lon="1.38019">
        <ele>149</ele>
        <time>2024-06-19T10:07:36Z</time>
      </trkpt>
      <trkpt lat="43.64969" lon="1.38022">
        <ele>149</ele>
        <time>2024-06-19T10:07:37Z</time>
      </trkpt>
      <trkpt lat="43.6497" lon="1.38024">
        <ele>149</ele>
        <time>2024-06-19T10:07:38Z</time>
      </trkpt>
      <trkpt lat="43.64971" lon="1.38027">
        <ele>149</ele>
        <time>2024-06-19T10:07:39Z</time>
      </trkpt>
      <trkpt lat="43.64971" lon="1.38027">
        <ele>149</ele>
        <time>2024-06-19T10:07:40Z</time>
      </trkpt>
      <trkpt lat="43.64974" lon="1.38034">
        <ele>149</ele>
        <time>2024-06-19T10:07:41Z</time>
      </trkpt>
      <trkpt lat="43.64974" lon="1.38036">
        <ele>149</ele>
        <time>2024-06-19T10:07:42Z</time>
      </trkpt>
      <trkpt lat="43.64975" lon="1.38039">
        <ele>149</ele>
        <time>2024-06-19T10:07:43Z</time>
      </trkpt>
      <trkpt lat="43.64975" lon="1.38039">
        <ele>149</ele>
        <time>2024-06-19T10:07:44Z</time>
      </trkpt>
      <trkpt lat="43.64976" lon="1.38042">
        <ele>149</ele>
        <time>2024-06-19T10:07:45Z</time>
      </trkpt>
      <trkpt lat="43.64977" lon="1.38045">
        <ele>149</ele>
        <time>2024-06-19T10:07:46Z</time>
      </trkpt>
      <trkpt lat="43.64978" lon="1.38048">
        <ele>149</ele>
        <time>2024-06-19T10:07:47Z</time>
      </trkpt>
      <trkpt lat="43.64979" lon="1.38051">
        <ele>149</ele>
        <time>2024-06-19T10:07:48Z</time>
      </trkpt>
      <trkpt lat="43.6498" lon="1.38054">
        <ele>149</ele>
        <time>2024-06-19T10:07:49Z</time>
      </trkpt>
      <trkpt lat="43.64981" lon="1.38057">
        <ele>149</ele>
        <time>2024-06-19T10:07:50Z</time>
      </trkpt>
      <trkpt lat="43.64982" lon="1.3806">
        <ele>149</ele>
        <time>2024-06-19T10:07:51Z</time>
      </trkpt>
      <trkpt lat="43.64983" lon="1.38063">
        <ele>149</ele>
        <time>2024-06-19T10:07:52Z</time>
      </trkpt>
      <trkpt lat="43.64984" lon="1.38065">
        <ele>149</ele>
        <time>2024-06-19T10:07:53Z</time>
      </trkpt>
      <trkpt lat="43.64986" lon="1.38069">
        <ele>149</ele>
        <time>2024-06-19T10:07:54Z</time>
      </trkpt>
      <trkpt lat="43.64987" lon="1.38073">
        <ele>149</ele>
        <time>2024-06-19T10:07:55Z</time>
      </trkpt>
      <trkpt lat="43.64989" lon="1.38077">
        <ele>149</ele>
        <time>2024-06-19T10:07:56Z</time>
      </trkpt>
      <trkpt lat="43.6499" lon="1.3808">
        <ele>149</ele>
        <time>2024-06-19T10:07:57Z</time>
      </trkpt>
      <trkpt lat="43.64991" lon="1.38083">
        <ele>149</ele>
        <time>2024-06-19T10:07:58Z</time>
      </trkpt>
      <trkpt lat="43.64992" lon="1.38086">
        <ele>149</ele>
        <time>2024-06-19T10:07:59Z</time>
      </trkpt>
      <trkpt lat="43.64993" lon="1.38088">
        <ele>149</ele>
        <time>2024-06-19T10:08:00Z</time>
      </trkpt>
      <trkpt lat="43.64994" lon="1.38091">
        <ele>149</ele>
        <time>2024-06-19T10:08:01Z</time>
      </trkpt>
      <trkpt lat="43.64995" lon="1.38093">
        <ele>149</ele>
        <time>2024-06-19T10:08:02Z</time>
      </trkpt>
      <trkpt lat="43.64996" lon="1.38096">
        <ele>149</ele>
        <time>2024-06-19T10:08:03Z</time>
      </trkpt>
      <trkpt lat="43.64997" lon="1.38099">
        <ele>149</ele>
        <time>2024-06-19T10:08:04Z</time>
      </trkpt>
      <trkpt lat="43.64998" lon="1.38102">
        <ele>149</ele>
        <time>2024-06-19T10:08:05Z</time>
      </trkpt>
      <trkpt lat="43.64998" lon="1.38102">
        <ele>149</ele>
        <time>2024-06-19T10:08:06Z</time>
      </trkpt>
      <trkpt lat="43.65" lon="1.38105">
        <ele>149</ele>
        <time>2024-06-19T10:08:07Z</time>
      </trkpt>
      <trkpt lat="43.65001" lon="1.38109">
        <ele>149</ele>
        <time>2024-06-19T10:08:08Z</time>
      </trkpt>
      <trkpt lat="43.65003" lon="1.38112">
        <ele>149</ele>
        <time>2024-06-19T10:08:09Z</time>
      </trkpt>
      <trkpt lat="43.65003" lon="1.38112">
        <ele>149</ele>
        <time>2024-06-19T10:08:10Z</time>
      </trkpt>
      <trkpt lat="43.65006" lon="1.38118">
        <ele>149</ele>
        <time>2024-06-19T10:08:11Z</time>
      </trkpt>
      <trkpt lat="43.65007" lon="1.38121">
        <ele>149</ele>
        <time>2024-06-19T10:08:12Z</time>
      </trkpt>
      <trkpt lat="43.65007" lon="1.38125">
        <ele>149</ele>
        <time>2024-06-19T10:08:13Z</time>
      </trkpt>
      <trkpt lat="43.65008" lon="1.38129">
        <ele>149</ele>
        <time>2024-06-19T10:08:14Z</time>
      </trkpt>
      <trkpt lat="43.65009" lon="1.38132">
        <ele>149</ele>
        <time>2024-06-19T10:08:15Z</time>
      </trkpt>
      <trkpt lat="43.6501" lon="1.38136">
        <ele>149</ele>
        <time>2024-06-19T10:08:16Z</time>
      </trkpt>
      <trkpt lat="43.6501" lon="1.38136">
        <ele>149</ele>
        <time>2024-06-19T10:08:17Z</time>
      </trkpt>
      <trkpt lat="43.65011" lon="1.38142">
        <ele>149</ele>
        <time>2024-06-19T10:08:18Z</time>
      </trkpt>
      <trkpt lat="43.6501" lon="1.38146">
        <ele>149</ele>
        <time>2024-06-19T10:08:19Z</time>
      </trkpt>
      <trkpt lat="43.6501" lon="1.3815">
        <ele>149</ele>
        <time>2024-06-19T10:08:20Z</time>
      </trkpt>
      <trkpt lat="43.65009" lon="1.38154">
        <ele>150</ele>
        <time>2024-06-19T10:08:21Z</time>
      </trkpt>
      <trkpt lat="43.65009" lon="1.38154">
        <ele>150</ele>
        <time>2024-06-19T10:08:22Z</time>
      </trkpt>
      <trkpt lat="43.65007" lon="1.38159">
        <ele>150</ele>
        <time>2024-06-19T10:08:23Z</time>
      </trkpt>
      <trkpt lat="43.65005" lon="1.38164">
        <ele>150</ele>
        <time>2024-06-19T10:08:24Z</time>
      </trkpt>
      <trkpt lat="43.65004" lon="1.38169">
        <ele>150</ele>
        <time>2024-06-19T10:08:25Z</time>
      </trkpt>
      <trkpt lat="43.65003" lon="1.38172">
        <ele>150</ele>
        <time>2024-06-19T10:08:26Z</time>
      </trkpt>
      <trkpt lat="43.65003" lon="1.38172">
        <ele>150</ele>
        <time>2024-06-19T10:08:27Z</time>
      </trkpt>
      <trkpt lat="43.65005" lon="1.38177">
        <ele>150</ele>
        <time>2024-06-19T10:08:28Z</time>
      </trkpt>
      <trkpt lat="43.65005" lon="1.38177">
        <ele>149</ele>
        <time>2024-06-19T10:08:29Z</time>
      </trkpt>
      <trkpt lat="43.65006" lon="1.38181">
        <ele>149</ele>
        <time>2024-06-19T10:08:30Z</time>
      </trkpt>
      <trkpt lat="43.65006" lon="1.38181">
        <ele>149</ele>
        <time>2024-06-19T10:08:31Z</time>
      </trkpt>
      <trkpt lat="43.65007" lon="1.38186">
        <ele>149</ele>
        <time>2024-06-19T10:08:32Z</time>
      </trkpt>
      <trkpt lat="43.65007" lon="1.38188">
        <ele>149</ele>
        <time>2024-06-19T10:08:33Z</time>
      </trkpt>
      <trkpt lat="43.65008" lon="1.38191">
        <ele>149</ele>
        <time>2024-06-19T10:08:34Z</time>
      </trkpt>
      <trkpt lat="43.65009" lon="1.38194">
        <ele>149</ele>
        <time>2024-06-19T10:08:35Z</time>
      </trkpt>
      <trkpt lat="43.6501" lon="1.38197">
        <ele>150</ele>
        <time>2024-06-19T10:08:36Z</time>
      </trkpt>
      <trkpt lat="43.6501" lon="1.38201">
        <ele>150</ele>
        <time>2024-06-19T10:08:37Z</time>
      </trkpt>
      <trkpt lat="43.6501" lon="1.38201">
        <ele>150</ele>
        <time>2024-06-19T10:08:38Z</time>
      </trkpt>
      <trkpt lat="43.65013" lon="1.38209">
        <ele>150</ele>
        <time>2024-06-19T10:08:39Z</time>
      </trkpt>
      <trkpt lat="43.65013" lon="1.3821">
        <ele>150</ele>
        <time>2024-06-19T10:08:40Z</time>
      </trkpt>
      <trkpt lat="43.65014" lon="1.38213">
        <ele>150</ele>
        <time>2024-06-19T10:08:41Z</time>
      </trkpt>
      <trkpt lat="43.65015" lon="1.38216">
        <ele>150</ele>
        <time>2024-06-19T10:08:42Z</time>
      </trkpt>
      <trkpt lat="43.65017" lon="1.38219">
        <ele>150</ele>
        <time>2024-06-19T10:08:43Z</time>
      </trkpt>
      <trkpt lat="43.65018" lon="1.38222">
        <ele>150</ele>
        <time>2024-06-19T10:08:44Z</time>
      </trkpt>
      <trkpt lat="43.65019" lon="1.38225">
        <ele>150</ele>
        <time>2024-06-19T10:08:45Z</time>
      </trkpt>
      <trkpt lat="43.65022" lon="1.38228">
        <ele>150</ele>
        <time>2024-06-19T10:08:46Z</time>
      </trkpt>
      <trkpt lat="43.65023" lon="1.38231">
        <ele>150</ele>
        <time>2024-06-19T10:08:47Z</time>
      </trkpt>
      <trkpt lat="43.65023" lon="1.38231">
        <ele>150</ele>
        <time>2024-06-19T10:08:48Z</time>
      </trkpt>
      <trkpt lat="43.65025" lon="1.38237">
        <ele>150</ele>
        <time>2024-06-19T10:08:49Z</time>
      </trkpt>
      <trkpt lat="43.65025" lon="1.38241">
        <ele>150</ele>
        <time>2024-06-19T10:08:50Z</time>
      </trkpt>
      <trkpt lat="43.65025" lon="1.38244">
        <ele>150</ele>
        <time>2024-06-19T10:08:51Z</time>
      </trkpt>
      <trkpt lat="43.65025" lon="1.38248">
        <ele>150</ele>
        <time>2024-06-19T10:08:52Z</time>
      </trkpt>
      <trkpt lat="43.65025" lon="1.38252">
        <ele>150</ele>
        <time>2024-06-19T10:08:53Z</time>
      </trkpt>
      <trkpt lat="43.65026" lon="1.38255">
        <ele>150</ele>
        <time>2024-06-19T10:08:54Z</time>
      </trkpt>
      <trkpt lat="43.65026" lon="1.38258">
        <ele>150</ele>
        <time>2024-06-19T10:08:55Z</time>
      </trkpt>
      <trkpt lat="43.65026" lon="1.38262">
        <ele>150</ele>
        <time>2024-06-19T10:08:56Z</time>
      </trkpt>
      <trkpt lat="43.65027" lon="1.38265">
        <ele>150</ele>
        <time>2024-06-19T10:08:57Z</time>
      </trkpt>
      <trkpt lat="43.65027" lon="1.38268">
        <ele>150</ele>
        <time>2024-06-19T10:08:58Z</time>
      </trkpt>
      <trkpt lat="43.65028" lon="1.38271">
        <ele>150</ele>
        <time>2024-06-19T10:08:59Z</time>
      </trkpt>
      <trkpt lat="43.65029" lon="1.38274">
        <ele>150</ele>
        <time>2024-06-19T10:09:00Z</time>
      </trkpt>
      <trkpt lat="43.65029" lon="1.38277">
        <ele>150</ele>
        <time>2024-06-19T10:09:01Z</time>
      </trkpt>
      <trkpt lat="43.6503" lon="1.3828">
        <ele>150</ele>
        <time>2024-06-19T10:09:02Z</time>
      </trkpt>
      <trkpt lat="43.65031" lon="1.38283">
        <ele>150</ele>
        <time>2024-06-19T10:09:03Z</time>
      </trkpt>
      <trkpt lat="43.65032" lon="1.38285">
        <ele>150</ele>
        <time>2024-06-19T10:09:04Z</time>
      </trkpt>
      <trkpt lat="43.65034" lon="1.38289">
        <ele>150</ele>
        <time>2024-06-19T10:09:05Z</time>
      </trkpt>
      <trkpt lat="43.65035" lon="1.38291">
        <ele>150</ele>
        <time>2024-06-19T10:09:06Z</time>
      </trkpt>
      <trkpt lat="43.65035" lon="1.38291">
        <ele>150</ele>
        <time>2024-06-19T10:09:07Z</time>
      </trkpt>
      <trkpt lat="43.65038" lon="1.38297">
        <ele>150</ele>
        <time>2024-06-19T10:09:08Z</time>
      </trkpt>
      <trkpt lat="43.65039" lon="1.383">
        <ele>150</ele>
        <time>2024-06-19T10:09:09Z</time>
      </trkpt>
      <trkpt lat="43.6504" lon="1.38303">
        <ele>150</ele>
        <time>2024-06-19T10:09:10Z</time>
      </trkpt>
      <trkpt lat="43.65042" lon="1.38306">
        <ele>150</ele>
        <time>2024-06-19T10:09:11Z</time>
      </trkpt>
      <trkpt lat="43.65044" lon="1.38308">
        <ele>149</ele>
        <time>2024-06-19T10:09:12Z</time>
      </trkpt>
      <trkpt lat="43.65045" lon="1.38312">
        <ele>149</ele>
        <time>2024-06-19T10:09:13Z</time>
      </trkpt>
      <trkpt lat="43.65046" lon="1.38315">
        <ele>150</ele>
        <time>2024-06-19T10:09:14Z</time>
      </trkpt>
      <trkpt lat="43.65047" lon="1.38318">
        <ele>150</ele>
        <time>2024-06-19T10:09:15Z</time>
      </trkpt>
      <trkpt lat="43.65049" lon="1.38321">
        <ele>149</ele>
        <time>2024-06-19T10:09:16Z</time>
      </trkpt>
      <trkpt lat="43.6505" lon="1.38324">
        <ele>149</ele>
        <time>2024-06-19T10:09:17Z</time>
      </trkpt>
      <trkpt lat="43.6505" lon="1.38324">
        <ele>149</ele>
        <time>2024-06-19T10:09:18Z</time>
      </trkpt>
      <trkpt lat="43.65053" lon="1.38329">
        <ele>149</ele>
        <time>2024-06-19T10:09:19Z</time>
      </trkpt>
      <trkpt lat="43.65054" lon="1.38332">
        <ele>149</ele>
        <time>2024-06-19T10:09:20Z</time>
      </trkpt>
      <trkpt lat="43.65055" lon="1.38335">
        <ele>149</ele>
        <time>2024-06-19T10:09:21Z</time>
      </trkpt>
      <trkpt lat="43.65057" lon="1.38338">
        <ele>149</ele>
        <time>2024-06-19T10:09:22Z</time>
      </trkpt>
      <trkpt lat="43.65058" lon="1.38341">
        <ele>149</ele>
        <time>2024-06-19T10:09:23Z</time>
      </trkpt>
      <trkpt lat="43.6506" lon="1.38344">
        <ele>149</ele>
        <time>2024-06-19T10:09:24Z</time>
      </trkpt>
      <trkpt lat="43.65061" lon="1.38347">
        <ele>149</ele>
        <time>2024-06-19T10:09:25Z</time>
      </trkpt>
      <trkpt lat="43.65062" lon="1.3835">
        <ele>149</ele>
        <time>2024-06-19T10:09:26Z</time>
      </trkpt>
      <trkpt lat="43.65063" lon="1.38353">
        <ele>149</ele>
        <time>2024-06-19T10:09:27Z</time>
      </trkpt>
      <trkpt lat="43.65064" lon="1.38356">
        <ele>149</ele>
        <time>2024-06-19T10:09:28Z</time>
      </trkpt>
      <trkpt lat="43.65065" lon="1.3836">
        <ele>149</ele>
        <time>2024-06-19T10:09:29Z</time>
      </trkpt>
      <trkpt lat="43.65066" lon="1.38363">
        <ele>149</ele>
        <time>2024-06-19T10:09:30Z</time>
      </trkpt>
      <trkpt lat="43.65067" lon="1.38367">
        <ele>149</ele>
        <time>2024-06-19T10:09:31Z</time>
      </trkpt>
      <trkpt lat="43.65067" lon="1.3837">
        <ele>149</ele>
        <time>2024-06-19T10:09:32Z</time>
      </trkpt>
      <trkpt lat="43.65069" lon="1.38374">
        <ele>149</ele>
        <time>2024-06-19T10:09:33Z</time>
      </trkpt>
      <trkpt lat="43.65069" lon="1.38377">
        <ele>149</ele>
        <time>2024-06-19T10:09:34Z</time>
      </trkpt>
      <trkpt lat="43.6507" lon="1.3838">
        <ele>149</ele>
        <time>2024-06-19T10:09:35Z</time>
      </trkpt>
      <trkpt lat="43.65071" lon="1.38384">
        <ele>149</ele>
        <time>2024-06-19T10:09:36Z</time>
      </trkpt>
      <trkpt lat="43.65073" lon="1.38387">
        <ele>149</ele>
        <time>2024-06-19T10:09:37Z</time>
      </trkpt>
      <trkpt lat="43.65074" lon="1.38389">
        <ele>149</ele>
        <time>2024-06-19T10:09:38Z</time>
      </trkpt>
      <trkpt lat="43.65076" lon="1.38392">
        <ele>149</ele>
        <time>2024-06-19T10:09:39Z</time>
      </trkpt>
      <trkpt lat="43.65078" lon="1.38395">
        <ele>149</ele>
        <time>2024-06-19T10:09:40Z</time>
      </trkpt>
      <trkpt lat="43.65078" lon="1.38395">
        <ele>149</ele>
        <time>2024-06-19T10:09:41Z</time>
      </trkpt>
      <trkpt lat="43.6508" lon="1.38401">
        <ele>149</ele>
        <time>2024-06-19T10:09:42Z</time>
      </trkpt>
      <trkpt lat="43.65081" lon="1.38404">
        <ele>149</ele>
        <time>2024-06-19T10:09:43Z</time>
      </trkpt>
      <trkpt lat="43.65082" lon="1.38408">
        <ele>149</ele>
        <time>2024-06-19T10:09:44Z</time>
      </trkpt>
      <trkpt lat="43.65083" lon="1.38411">
        <ele>149</ele>
        <time>2024-06-19T10:09:45Z</time>
      </trkpt>
      <trkpt lat="43.65085" lon="1.38414">
        <ele>149</ele>
        <time>2024-06-19T10:09:46Z</time>
      </trkpt>
      <trkpt lat="43.65086" lon="1.38416">
        <ele>149</ele>
        <time>2024-06-19T10:09:47Z</time>
      </trkpt>
      <trkpt lat="43.65087" lon="1.3842">
        <ele>149</ele>
        <time>2024-06-19T10:09:48Z</time>
      </trkpt>
      <trkpt lat="43.65088" lon="1.38423">
        <ele>149</ele>
        <time>2024-06-19T10:09:49Z</time>
      </trkpt>
      <trkpt lat="43.65089" lon="1.38426">
        <ele>149</ele>
        <time>2024-06-19T10:09:50Z</time>
      </trkpt>
      <trkpt lat="43.6509" lon="1.38429">
        <ele>149</ele>
        <time>2024-06-19T10:09:51Z</time>
      </trkpt>
      <trkpt lat="43.6509" lon="1.38432">
        <ele>149</ele>
        <time>2024-06-19T10:09:52Z</time>
      </trkpt>
      <trkpt lat="43.65091" lon="1.38435">
        <ele>149</ele>
        <time>2024-06-19T10:09:53Z</time>
      </trkpt>
      <trkpt lat="43.65092" lon="1.38438">
        <ele>149</ele>
        <time>2024-06-19T10:09:54Z</time>
      </trkpt>
      <trkpt lat="43.65093" lon="1.3844">
        <ele>149</ele>
        <time>2024-06-19T10:09:55Z</time>
      </trkpt>
      <trkpt lat="43.65094" lon="1.38444">
        <ele>149</ele>
        <time>2024-06-19T10:09:56Z</time>
      </trkpt>
      <trkpt lat="43.65094" lon="1.38446">
        <ele>149</ele>
        <time>2024-06-19T10:09:57Z</time>
      </trkpt>
      <trkpt lat="43.65095" lon="1.38449">
        <ele>149</ele>
        <time>2024-06-19T10:09:58Z</time>
      </trkpt>
      <trkpt lat="43.65095" lon="1.38453">
        <ele>149</ele>
        <time>2024-06-19T10:09:59Z</time>
      </trkpt>
      <trkpt lat="43.65096" lon="1.38455">
        <ele>149</ele>
        <time>2024-06-19T10:10:00Z</time>
      </trkpt>
      <trkpt lat="43.65096" lon="1.38459">
        <ele>149</ele>
        <time>2024-06-19T10:10:01Z</time>
      </trkpt>
      <trkpt lat="43.65096" lon="1.38461">
        <ele>149</ele>
        <time>2024-06-19T10:10:02Z</time>
      </trkpt>
      <trkpt lat="43.65097" lon="1.38465">
        <ele>149</ele>
        <time>2024-06-19T10:10:03Z</time>
      </trkpt>
      <trkpt lat="43.65098" lon="1.38468">
        <ele>149</ele>
        <time>2024-06-19T10:10:04Z</time>
      </trkpt>
      <trkpt lat="43.65099" lon="1.38471">
        <ele>149</ele>
        <time>2024-06-19T10:10:05Z</time>
      </trkpt>
      <trkpt lat="43.65101" lon="1.38474">
        <ele>149</ele>
        <time>2024-06-19T10:10:06Z</time>
      </trkpt>
      <trkpt lat="43.65102" lon="1.38477">
        <ele>149</ele>
        <time>2024-06-19T10:10:07Z</time>
      </trkpt>
      <trkpt lat="43.65103" lon="1.3848">
        <ele>149</ele>
        <time>2024-06-19T10:10:08Z</time>
      </trkpt>
      <trkpt lat="43.65105" lon="1.38483">
        <ele>149</ele>
        <time>2024-06-19T10:10:09Z</time>
      </trkpt>
      <trkpt lat="43.65106" lon="1.38486">
        <ele>149</ele>
        <time>2024-06-19T10:10:10Z</time>
      </trkpt>
      <trkpt lat="43.65107" lon="1.3849">
        <ele>149</ele>
        <time>2024-06-19T10:10:11Z</time>
      </trkpt>
      <trkpt lat="43.65108" lon="1.38492">
        <ele>149</ele>
        <time>2024-06-19T10:10:12Z</time>
      </trkpt>
      <trkpt lat="43.65109" lon="1.38496">
        <ele>149</ele>
        <time>2024-06-19T10:10:13Z</time>
      </trkpt>
      <trkpt lat="43.6511" lon="1.385">
        <ele>149</ele>
        <time>2024-06-19T10:10:14Z</time>
      </trkpt>
      <trkpt lat="43.65111" lon="1.38503">
        <ele>149</ele>
        <time>2024-06-19T10:10:15Z</time>
      </trkpt>
      <trkpt lat="43.6511" lon="1.38506">
        <ele>149</ele>
        <time>2024-06-19T10:10:16Z</time>
      </trkpt>
      <trkpt lat="43.65109" lon="1.3851">
        <ele>149</ele>
        <time>2024-06-19T10:10:17Z</time>
      </trkpt>
      <trkpt lat="43.65108" lon="1.38513">
        <ele>149</ele>
        <time>2024-06-19T10:10:18Z</time>
      </trkpt>
      <trkpt lat="43.65106" lon="1.38516">
        <ele>149</ele>
        <time>2024-06-19T10:10:19Z</time>
      </trkpt>
      <trkpt lat="43.65106" lon="1.38519">
        <ele>149</ele>
        <time>2024-06-19T10:10:20Z</time>
      </trkpt>
      <trkpt lat="43.65104" lon="1.38522">
        <ele>149</ele>
        <time>2024-06-19T10:10:21Z</time>
      </trkpt>
      <trkpt lat="43.65103" lon="1.38525">
        <ele>149</ele>
        <time>2024-06-19T10:10:22Z</time>
      </trkpt>
      <trkpt lat="43.65104" lon="1.38529">
        <ele>149</ele>
        <time>2024-06-19T10:10:23Z</time>
      </trkpt>
      <trkpt lat="43.65105" lon="1.38532">
        <ele>149</ele>
        <time>2024-06-19T10:10:24Z</time>
      </trkpt>
      <trkpt lat="43.65106" lon="1.38534">
        <ele>149</ele>
        <time>2024-06-19T10:10:25Z</time>
      </trkpt>
      <trkpt lat="43.65108" lon="1.38536">
        <ele>149</ele>
        <time>2024-06-19T10:10:26Z</time>
      </trkpt>
      <trkpt lat="43.6511" lon="1.38538">
        <ele>149</ele>
        <time>2024-06-19T10:10:27Z</time>
      </trkpt>
      <trkpt lat="43.65112" lon="1.38539">
        <ele>149</ele>
        <time>2024-06-19T10:10:28Z</time>
      </trkpt>
      <trkpt lat="43.65114" lon="1.3854">
        <ele>149</ele>
        <time>2024-06-19T10:10:29Z</time>
      </trkpt>
      <trkpt lat="43.65115" lon="1.38542">
        <ele>148</ele>
        <time>2024-06-19T10:10:30Z</time>
      </trkpt>
      <trkpt lat="43.65117" lon="1.38544">
        <ele>149</ele>
        <time>2024-06-19T10:10:31Z</time>
      </trkpt>
      <trkpt lat="43.65118" lon="1.38548">
        <ele>149</ele>
        <time>2024-06-19T10:10:32Z</time>
      </trkpt>
      <trkpt lat="43.65119" lon="1.38551">
        <ele>149</ele>
        <time>2024-06-19T10:10:33Z</time>
      </trkpt>
      <trkpt lat="43.6512" lon="1.38554">
        <ele>149</ele>
        <time>2024-06-19T10:10:34Z</time>
      </trkpt>
      <trkpt lat="43.65121" lon="1.38557">
        <ele>149</ele>
        <time>2024-06-19T10:10:35Z</time>
      </trkpt>
      <trkpt lat="43.65122" lon="1.38561">
        <ele>149</ele>
        <time>2024-06-19T10:10:36Z</time>
      </trkpt>
      <trkpt lat="43.65123" lon="1.38565">
        <ele>149</ele>
        <time>2024-06-19T10:10:37Z</time>
      </trkpt>
      <trkpt lat="43.65123" lon="1.38565">
        <ele>149</ele>
        <time>2024-06-19T10:10:38Z</time>
      </trkpt>
      <trkpt lat="43.65125" lon="1.38572">
        <ele>149</ele>
        <time>2024-06-19T10:10:39Z</time>
      </trkpt>
      <trkpt lat="43.65126" lon="1.38575">
        <ele>149</ele>
        <time>2024-06-19T10:10:40Z</time>
      </trkpt>
      <trkpt lat="43.65127" lon="1.38578">
        <ele>149</ele>
        <time>2024-06-19T10:10:41Z</time>
      </trkpt>
      <trkpt lat="43.65127" lon="1.38578">
        <ele>149</ele>
        <time>2024-06-19T10:10:42Z</time>
      </trkpt>
      <trkpt lat="43.65129" lon="1.38585">
        <ele>149</ele>
        <time>2024-06-19T10:10:43Z</time>
      </trkpt>
      <trkpt lat="43.65129" lon="1.38588">
        <ele>149</ele>
        <time>2024-06-19T10:10:44Z</time>
      </trkpt>
      <trkpt lat="43.6513" lon="1.38592">
        <ele>149</ele>
        <time>2024-06-19T10:10:45Z</time>
      </trkpt>
      <trkpt lat="43.6513" lon="1.38595">
        <ele>148</ele>
        <time>2024-06-19T10:10:46Z</time>
      </trkpt>
      <trkpt lat="43.65131" lon="1.38598">
        <ele>148</ele>
        <time>2024-06-19T10:10:47Z</time>
      </trkpt>
      <trkpt lat="43.65132" lon="1.38601">
        <ele>149</ele>
        <time>2024-06-19T10:10:48Z</time>
      </trkpt>
      <trkpt lat="43.65134" lon="1.38604">
        <ele>149</ele>
        <time>2024-06-19T10:10:49Z</time>
      </trkpt>
      <trkpt lat="43.65136" lon="1.38606">
        <ele>149</ele>
        <time>2024-06-19T10:10:50Z</time>
      </trkpt>
      <trkpt lat="43.65137" lon="1.38609">
        <ele>148</ele>
        <time>2024-06-19T10:10:51Z</time>
      </trkpt>
      <trkpt lat="43.65138" lon="1.38612">
        <ele>148</ele>
        <time>2024-06-19T10:10:52Z</time>
      </trkpt>
      <trkpt lat="43.6514" lon="1.38615">
        <ele>148</ele>
        <time>2024-06-19T10:10:53Z</time>
      </trkpt>
      <trkpt lat="43.6514" lon="1.38618">
        <ele>148</ele>
        <time>2024-06-19T10:10:54Z</time>
      </trkpt>
      <trkpt lat="43.65141" lon="1.38621">
        <ele>148</ele>
        <time>2024-06-19T10:10:55Z</time>
      </trkpt>
      <trkpt lat="43.65142" lon="1.38624">
        <ele>148</ele>
        <time>2024-06-19T10:10:56Z</time>
      </trkpt>
      <trkpt lat="43.65142" lon="1.38627">
        <ele>148</ele>
        <time>2024-06-19T10:10:57Z</time>
      </trkpt>
      <trkpt lat="43.65142" lon="1.38627">
        <ele>148</ele>
        <time>2024-06-19T10:10:58Z</time>
      </trkpt>
      <trkpt lat="43.65144" lon="1.38634">
        <ele>148</ele>
        <time>2024-06-19T10:10:59Z</time>
      </trkpt>
      <trkpt lat="43.65145" lon="1.38637">
        <ele>148</ele>
        <time>2024-06-19T10:11:00Z</time>
      </trkpt>
      <trkpt lat="43.65145" lon="1.38637">
        <ele>148</ele>
        <time>2024-06-19T10:11:01Z</time>
      </trkpt>
      <trkpt lat="43.65147" lon="1.38643">
        <ele>148</ele>
        <time>2024-06-19T10:11:02Z</time>
      </trkpt>
      <trkpt lat="43.65148" lon="1.38646">
        <ele>148</ele>
        <time>2024-06-19T10:11:03Z</time>
      </trkpt>
      <trkpt lat="43.65149" lon="1.38649">
        <ele>148</ele>
        <time>2024-06-19T10:11:04Z</time>
      </trkpt>
      <trkpt lat="43.6515" lon="1.38652">
        <ele>148</ele>
        <time>2024-06-19T10:11:05Z</time>
      </trkpt>
      <trkpt lat="43.65151" lon="1.38656">
        <ele>148</ele>
        <time>2024-06-19T10:11:06Z</time>
      </trkpt>
      <trkpt lat="43.65153" lon="1.38658">
        <ele>148</ele>
        <time>2024-06-19T10:11:07Z</time>
      </trkpt>
      <trkpt lat="43.65154" lon="1.38661">
        <ele>148</ele>
        <time>2024-06-19T10:11:08Z</time>
      </trkpt>
      <trkpt lat="43.65155" lon="1.38665">
        <ele>149</ele>
        <time>2024-06-19T10:11:09Z</time>
      </trkpt>
      <trkpt lat="43.65156" lon="1.38668">
        <ele>149</ele>
        <time>2024-06-19T10:11:10Z</time>
      </trkpt>
      <trkpt lat="43.65157" lon="1.38671">
        <ele>149</ele>
        <time>2024-06-19T10:11:11Z</time>
      </trkpt>
      <trkpt lat="43.65158" lon="1.38674">
        <ele>149</ele>
        <time>2024-06-19T10:11:12Z</time>
      </trkpt>
      <trkpt lat="43.65159" lon="1.38677">
        <ele>149</ele>
        <time>2024-06-19T10:11:13Z</time>
      </trkpt>
      <trkpt lat="43.6516" lon="1.3868">
        <ele>149</ele>
        <time>2024-06-19T10:11:14Z</time>
      </trkpt>
      <trkpt lat="43.6516" lon="1.38683">
        <ele>149</ele>
        <time>2024-06-19T10:11:15Z</time>
      </trkpt>
      <trkpt lat="43.65161" lon="1.38685">
        <ele>149</ele>
        <time>2024-06-19T10:11:16Z</time>
      </trkpt>
      <trkpt lat="43.65161" lon="1.38688">
        <ele>149</ele>
        <time>2024-06-19T10:11:17Z</time>
      </trkpt>
      <trkpt lat="43.65162" lon="1.38691">
        <ele>149</ele>
        <time>2024-06-19T10:11:18Z</time>
      </trkpt>
      <trkpt lat="43.65162" lon="1.38691">
        <ele>149</ele>
        <time>2024-06-19T10:11:19Z</time>
      </trkpt>
      <trkpt lat="43.65163" lon="1.38694">
        <ele>149</ele>
        <time>2024-06-19T10:11:20Z</time>
      </trkpt>
      <trkpt lat="43.65165" lon="1.38699">
        <ele>149</ele>
        <time>2024-06-19T10:11:21Z</time>
      </trkpt>
      <trkpt lat="43.65166" lon="1.38702">
        <ele>149</ele>
        <time>2024-06-19T10:11:22Z</time>
      </trkpt>
      <trkpt lat="43.65167" lon="1.38704">
        <ele>149</ele>
        <time>2024-06-19T10:11:23Z</time>
      </trkpt>
      <trkpt lat="43.65169" lon="1.38707">
        <ele>149</ele>
        <time>2024-06-19T10:11:24Z</time>
      </trkpt>
      <trkpt lat="43.6517" lon="1.3871">
        <ele>149</ele>
        <time>2024-06-19T10:11:25Z</time>
      </trkpt>
      <trkpt lat="43.65171" lon="1.38713">
        <ele>149</ele>
        <time>2024-06-19T10:11:26Z</time>
      </trkpt>
      <trkpt lat="43.65173" lon="1.38717">
        <ele>149</ele>
        <time>2024-06-19T10:11:27Z</time>
      </trkpt>
      <trkpt lat="43.65174" lon="1.3872">
        <ele>149</ele>
        <time>2024-06-19T10:11:28Z</time>
      </trkpt>
      <trkpt lat="43.65175" lon="1.38723">
        <ele>149</ele>
        <time>2024-06-19T10:11:29Z</time>
      </trkpt>
      <trkpt lat="43.65176" lon="1.38726">
        <ele>149</ele>
        <time>2024-06-19T10:11:30Z</time>
      </trkpt>
      <trkpt lat="43.65177" lon="1.38729">
        <ele>149</ele>
        <time>2024-06-19T10:11:31Z</time>
      </trkpt>
      <trkpt lat="43.65178" lon="1.38733">
        <ele>149</ele>
        <time>2024-06-19T10:11:32Z</time>
      </trkpt>
      <trkpt lat="43.65179" lon="1.38736">
        <ele>149</ele>
        <time>2024-06-19T10:11:33Z</time>
      </trkpt>
      <trkpt lat="43.6518" lon="1.38739">
        <ele>149</ele>
        <time>2024-06-19T10:11:34Z</time>
      </trkpt>
      <trkpt lat="43.65181" lon="1.38742">
        <ele>149</ele>
        <time>2024-06-19T10:11:35Z</time>
      </trkpt>
      <trkpt lat="43.65181" lon="1.38745">
        <ele>149</ele>
        <time>2024-06-19T10:11:36Z</time>
      </trkpt>
      <trkpt lat="43.65182" lon="1.38748">
        <ele>149</ele>
        <time>2024-06-19T10:11:37Z</time>
      </trkpt>
      <trkpt lat="43.65183" lon="1.38751">
        <ele>149</ele>
        <time>2024-06-19T10:11:38Z</time>
      </trkpt>
      <trkpt lat="43.65185" lon="1.38754">
        <ele>149</ele>
        <time>2024-06-19T10:11:39Z</time>
      </trkpt>
      <trkpt lat="43.65185" lon="1.38754">
        <ele>149</ele>
        <time>2024-06-19T10:11:40Z</time>
      </trkpt>
      <trkpt lat="43.6519" lon="1.3876">
        <ele>149</ele>
        <time>2024-06-19T10:11:41Z</time>
      </trkpt>
      <trkpt lat="43.65192" lon="1.38763">
        <ele>148</ele>
        <time>2024-06-19T10:11:42Z</time>
      </trkpt>
      <trkpt lat="43.65193" lon="1.38766">
        <ele>148</ele>
        <time>2024-06-19T10:11:43Z</time>
      </trkpt>
      <trkpt lat="43.65195" lon="1.38769">
        <ele>148</ele>
        <time>2024-06-19T10:11:44Z</time>
      </trkpt>
      <trkpt lat="43.65196" lon="1.38772">
        <ele>148</ele>
        <time>2024-06-19T10:11:45Z</time>
      </trkpt>
      <trkpt lat="43.65198" lon="1.38775">
        <ele>148</ele>
        <time>2024-06-19T10:11:46Z</time>
      </trkpt>
      <trkpt lat="43.65199" lon="1.38777">
        <ele>148</ele>
        <time>2024-06-19T10:11:47Z</time>
      </trkpt>
      <trkpt lat="43.65201" lon="1.3878">
        <ele>148</ele>
        <time>2024-06-19T10:11:48Z</time>
      </trkpt>
      <trkpt lat="43.65203" lon="1.38782">
        <ele>148</ele>
        <time>2024-06-19T10:11:49Z</time>
      </trkpt>
      <trkpt lat="43.65204" lon="1.38785">
        <ele>148</ele>
        <time>2024-06-19T10:11:50Z</time>
      </trkpt>
      <trkpt lat="43.65206" lon="1.38787">
        <ele>148</ele>
        <time>2024-06-19T10:11:51Z</time>
      </trkpt>
      <trkpt lat="43.65207" lon="1.3879">
        <ele>148</ele>
        <time>2024-06-19T10:11:52Z</time>
      </trkpt>
      <trkpt lat="43.65208" lon="1.38793">
        <ele>148</ele>
        <time>2024-06-19T10:11:53Z</time>
      </trkpt>
      <trkpt lat="43.6521" lon="1.38796">
        <ele>148</ele>
        <time>2024-06-19T10:11:54Z</time>
      </trkpt>
      <trkpt lat="43.65211" lon="1.38798">
        <ele>148</ele>
        <time>2024-06-19T10:11:55Z</time>
      </trkpt>
      <trkpt lat="43.65213" lon="1.38801">
        <ele>148</ele>
        <time>2024-06-19T10:11:56Z</time>
      </trkpt>
      <trkpt lat="43.65215" lon="1.38804">
        <ele>148</ele>
        <time>2024-06-19T10:11:57Z</time>
      </trkpt>
      <trkpt lat="43.65216" lon="1.38806">
        <ele>148</ele>
        <time>2024-06-19T10:11:58Z</time>
      </trkpt>
      <trkpt lat="43.65218" lon="1.38809">
        <ele>148</ele>
        <time>2024-06-19T10:11:59Z</time>
      </trkpt>
      <trkpt lat="43.6522" lon="1.38811">
        <ele>148</ele>
        <time>2024-06-19T10:12:00Z</time>
      </trkpt>
      <trkpt lat="43.65222" lon="1.38813">
        <ele>147</ele>
        <time>2024-06-19T10:12:01Z</time>
      </trkpt>
      <trkpt lat="43.65224" lon="1.38816">
        <ele>147</ele>
        <time>2024-06-19T10:12:02Z</time>
      </trkpt>
      <trkpt lat="43.65225" lon="1.38819">
        <ele>147</ele>
        <time>2024-06-19T10:12:03Z</time>
      </trkpt>
      <trkpt lat="43.65228" lon="1.38821">
        <ele>147</ele>
        <time>2024-06-19T10:12:04Z</time>
      </trkpt>
      <trkpt lat="43.6523" lon="1.38824">
        <ele>147</ele>
        <time>2024-06-19T10:12:05Z</time>
      </trkpt>
      <trkpt lat="43.65232" lon="1.38826">
        <ele>147</ele>
        <time>2024-06-19T10:12:06Z</time>
      </trkpt>
      <trkpt lat="43.65234" lon="1.38828">
        <ele>147</ele>
        <time>2024-06-19T10:12:07Z</time>
      </trkpt>
      <trkpt lat="43.65235" lon="1.38831">
        <ele>147</ele>
        <time>2024-06-19T10:12:08Z</time>
      </trkpt>
      <trkpt lat="43.65237" lon="1.38834">
        <ele>147</ele>
        <time>2024-06-19T10:12:09Z</time>
      </trkpt>
      <trkpt lat="43.65239" lon="1.38836">
        <ele>147</ele>
        <time>2024-06-19T10:12:10Z</time>
      </trkpt>
      <trkpt lat="43.65241" lon="1.38839">
        <ele>147</ele>
        <time>2024-06-19T10:12:11Z</time>
      </trkpt>
      <trkpt lat="43.65243" lon="1.38842">
        <ele>147</ele>
        <time>2024-06-19T10:12:12Z</time>
      </trkpt>
      <trkpt lat="43.65244" lon="1.38844">
        <ele>147</ele>
        <time>2024-06-19T10:12:13Z</time>
      </trkpt>
      <trkpt lat="43.65246" lon="1.38847">
        <ele>147</ele>
        <time>2024-06-19T10:12:14Z</time>
      </trkpt>
      <trkpt lat="43.65247" lon="1.3885">
        <ele>146</ele>
        <time>2024-06-19T10:12:15Z</time>
      </trkpt>
      <trkpt lat="43.65249" lon="1.38853">
        <ele>146</ele>
        <time>2024-06-19T10:12:16Z</time>
      </trkpt>
      <trkpt lat="43.65249" lon="1.38853">
        <ele>146</ele>
        <time>2024-06-19T10:12:17Z</time>
      </trkpt>
      <trkpt lat="43.65251" lon="1.38856">
        <ele>146</ele>
        <time>2024-06-19T10:12:18Z</time>
      </trkpt>
      <trkpt lat="43.65254" lon="1.38861">
        <ele>146</ele>
        <time>2024-06-19T10:12:19Z</time>
      </trkpt>
      <trkpt lat="43.65256" lon="1.38864">
        <ele>145</ele>
        <time>2024-06-19T10:12:20Z</time>
      </trkpt>
      <trkpt lat="43.65257" lon="1.38866">
        <ele>145</ele>
        <time>2024-06-19T10:12:21Z</time>
      </trkpt>
      <trkpt lat="43.65258" lon="1.38869">
        <ele>145</ele>
        <time>2024-06-19T10:12:22Z</time>
      </trkpt>
      <trkpt lat="43.6526" lon="1.38871">
        <ele>145</ele>
        <time>2024-06-19T10:12:23Z</time>
      </trkpt>
      <trkpt lat="43.65262" lon="1.38873">
        <ele>145</ele>
        <time>2024-06-19T10:12:24Z</time>
      </trkpt>
      <trkpt lat="43.65263" lon="1.38876">
        <ele>144</ele>
        <time>2024-06-19T10:12:25Z</time>
      </trkpt>
      <trkpt lat="43.65265" lon="1.38878">
        <ele>144</ele>
        <time>2024-06-19T10:12:26Z</time>
      </trkpt>
      <trkpt lat="43.65267" lon="1.38881">
        <ele>144</ele>
        <time>2024-06-19T10:12:27Z</time>
      </trkpt>
      <trkpt lat="43.6527" lon="1.38882">
        <ele>144</ele>
        <time>2024-06-19T10:12:28Z</time>
      </trkpt>
      <trkpt lat="43.65272" lon="1.38884">
        <ele>144</ele>
        <time>2024-06-19T10:12:29Z</time>
      </trkpt>
      <trkpt lat="43.65274" lon="1.38887">
        <ele>143</ele>
        <time>2024-06-19T10:12:30Z</time>
      </trkpt>
      <trkpt lat="43.65276" lon="1.3889">
        <ele>143</ele>
        <time>2024-06-19T10:12:31Z</time>
      </trkpt>
      <trkpt lat="43.65278" lon="1.38893">
        <ele>142</ele>
        <time>2024-06-19T10:12:32Z</time>
      </trkpt>
      <trkpt lat="43.6528" lon="1.38896">
        <ele>142</ele>
        <time>2024-06-19T10:12:33Z</time>
      </trkpt>
      <trkpt lat="43.65282" lon="1.38899">
        <ele>142</ele>
        <time>2024-06-19T10:12:34Z</time>
      </trkpt>
      <trkpt lat="43.65283" lon="1.38901">
        <ele>142</ele>
        <time>2024-06-19T10:12:35Z</time>
      </trkpt>
      <trkpt lat="43.65284" lon="1.38904">
        <ele>142</ele>
        <time>2024-06-19T10:12:36Z</time>
      </trkpt>
      <trkpt lat="43.65286" lon="1.38907">
        <ele>142</ele>
        <time>2024-06-19T10:12:37Z</time>
      </trkpt>
      <trkpt lat="43.65287" lon="1.3891">
        <ele>142</ele>
        <time>2024-06-19T10:12:38Z</time>
      </trkpt>
      <trkpt lat="43.65289" lon="1.38912">
        <ele>142</ele>
        <time>2024-06-19T10:12:39Z</time>
      </trkpt>
      <trkpt lat="43.65291" lon="1.38914">
        <ele>141</ele>
        <time>2024-06-19T10:12:40Z</time>
      </trkpt>
      <trkpt lat="43.65293" lon="1.38915">
        <ele>141</ele>
        <time>2024-06-19T10:12:41Z</time>
      </trkpt>
      <trkpt lat="43.65296" lon="1.38917">
        <ele>141</ele>
        <time>2024-06-19T10:12:42Z</time>
      </trkpt>
      <trkpt lat="43.65298" lon="1.38918">
        <ele>141</ele>
        <time>2024-06-19T10:12:43Z</time>
      </trkpt>
      <trkpt lat="43.653" lon="1.38919">
        <ele>141</ele>
        <time>2024-06-19T10:12:44Z</time>
      </trkpt>
      <trkpt lat="43.65302" lon="1.38921">
        <ele>141</ele>
        <time>2024-06-19T10:12:45Z</time>
      </trkpt>
      <trkpt lat="43.65302" lon="1.38921">
        <ele>141</ele>
        <time>2024-06-19T10:12:46Z</time>
      </trkpt>
      <trkpt lat="43.65307" lon="1.38925">
        <ele>140</ele>
        <time>2024-06-19T10:12:47Z</time>
      </trkpt>
      <trkpt lat="43.65308" lon="1.38926">
        <ele>140</ele>
        <time>2024-06-19T10:12:48Z</time>
      </trkpt>
      <trkpt lat="43.6531" lon="1.3893">
        <ele>139</ele>
        <time>2024-06-19T10:12:49Z</time>
      </trkpt>
      <trkpt lat="43.65311" lon="1.38934">
        <ele>138</ele>
        <time>2024-06-19T10:12:50Z</time>
      </trkpt>
      <trkpt lat="43.65313" lon="1.38938">
        <ele>138</ele>
        <time>2024-06-19T10:12:51Z</time>
      </trkpt>
      <trkpt lat="43.65314" lon="1.38942">
        <ele>138</ele>
        <time>2024-06-19T10:12:52Z</time>
      </trkpt>
      <trkpt lat="43.65315" lon="1.38946">
        <ele>137</ele>
        <time>2024-06-19T10:12:53Z</time>
      </trkpt>
      <trkpt lat="43.65316" lon="1.3895">
        <ele>137</ele>
        <time>2024-06-19T10:12:54Z</time>
      </trkpt>
      <trkpt lat="43.65318" lon="1.38954">
        <ele>136</ele>
        <time>2024-06-19T10:12:55Z</time>
      </trkpt>
      <trkpt lat="43.65319" lon="1.38957">
        <ele>136</ele>
        <time>2024-06-19T10:12:56Z</time>
      </trkpt>
      <trkpt lat="43.65321" lon="1.38961">
        <ele>136</ele>
        <time>2024-06-19T10:12:57Z</time>
      </trkpt>
      <trkpt lat="43.65323" lon="1.38965">
        <ele>136</ele>
        <time>2024-06-19T10:12:58Z</time>
      </trkpt>
      <trkpt lat="43.65324" lon="1.38969">
        <ele>135</ele>
        <time>2024-06-19T10:12:59Z</time>
      </trkpt>
      <trkpt lat="43.65325" lon="1.38973">
        <ele>135</ele>
        <time>2024-06-19T10:13:00Z</time>
      </trkpt>
      <trkpt lat="43.65327" lon="1.38976">
        <ele>135</ele>
        <time>2024-06-19T10:13:01Z</time>
      </trkpt>
      <trkpt lat="43.65329" lon="1.38979">
        <ele>135</ele>
        <time>2024-06-19T10:13:02Z</time>
      </trkpt>
      <trkpt lat="43.6533" lon="1.38983">
        <ele>134</ele>
        <time>2024-06-19T10:13:03Z</time>
      </trkpt>
      <trkpt lat="43.65331" lon="1.38986">
        <ele>134</ele>
        <time>2024-06-19T10:13:04Z</time>
      </trkpt>
      <trkpt lat="43.65332" lon="1.3899">
        <ele>134</ele>
        <time>2024-06-19T10:13:05Z</time>
      </trkpt>
      <trkpt lat="43.65331" lon="1.38994">
        <ele>134</ele>
        <time>2024-06-19T10:13:06Z</time>
      </trkpt>
      <trkpt lat="43.65329" lon="1.38999">
        <ele>134</ele>
        <time>2024-06-19T10:13:07Z</time>
      </trkpt>
      <trkpt lat="43.65328" lon="1.39003">
        <ele>133</ele>
        <time>2024-06-19T10:13:08Z</time>
      </trkpt>
      <trkpt lat="43.65326" lon="1.39007">
        <ele>133</ele>
        <time>2024-06-19T10:13:09Z</time>
      </trkpt>
      <trkpt lat="43.65324" lon="1.39011">
        <ele>133</ele>
        <time>2024-06-19T10:13:10Z</time>
      </trkpt>
      <trkpt lat="43.65322" lon="1.39015">
        <ele>132</ele>
        <time>2024-06-19T10:13:11Z</time>
      </trkpt>
      <trkpt lat="43.6532" lon="1.39019">
        <ele>132</ele>
        <time>2024-06-19T10:13:12Z</time>
      </trkpt>
      <trkpt lat="43.65319" lon="1.39023">
        <ele>132</ele>
        <time>2024-06-19T10:13:13Z</time>
      </trkpt>
      <trkpt lat="43.65319" lon="1.39023">
        <ele>132</ele>
        <time>2024-06-19T10:13:14Z</time>
      </trkpt>
      <trkpt lat="43.65316" lon="1.3903">
        <ele>132</ele>
        <time>2024-06-19T10:13:15Z</time>
      </trkpt>
      <trkpt lat="43.65314" lon="1.39033">
        <ele>132</ele>
        <time>2024-06-19T10:13:16Z</time>
      </trkpt>
      <trkpt lat="43.65312" lon="1.39036">
        <ele>132</ele>
        <time>2024-06-19T10:13:17Z</time>
      </trkpt>
      <trkpt lat="43.65309" lon="1.39039">
        <ele>131</ele>
        <time>2024-06-19T10:13:18Z</time>
      </trkpt>
      <trkpt lat="43.65306" lon="1.39041">
        <ele>131</ele>
        <time>2024-06-19T10:13:19Z</time>
      </trkpt>
      <trkpt lat="43.65303" lon="1.39043">
        <ele>131</ele>
        <time>2024-06-19T10:13:20Z</time>
      </trkpt>
      <trkpt lat="43.653" lon="1.39044">
        <ele>131</ele>
        <time>2024-06-19T10:13:21Z</time>
      </trkpt>
      <trkpt lat="43.65297" lon="1.39044">
        <ele>131</ele>
        <time>2024-06-19T10:13:22Z</time>
      </trkpt>
      <trkpt lat="43.65294" lon="1.39042">
        <ele>131</ele>
        <time>2024-06-19T10:13:23Z</time>
      </trkpt>
      <trkpt lat="43.65291" lon="1.39041">
        <ele>131</ele>
        <time>2024-06-19T10:13:24Z</time>
      </trkpt>
      <trkpt lat="43.65288" lon="1.3904">
        <ele>131</ele>
        <time>2024-06-19T10:13:25Z</time>
      </trkpt>
      <trkpt lat="43.65286" lon="1.3904">
        <ele>131</ele>
        <time>2024-06-19T10:13:26Z</time>
      </trkpt>
      <trkpt lat="43.65283" lon="1.39039">
        <ele>131</ele>
        <time>2024-06-19T10:13:27Z</time>
      </trkpt>
      <trkpt lat="43.65281" lon="1.39039">
        <ele>131</ele>
        <time>2024-06-19T10:13:28Z</time>
      </trkpt>
      <trkpt lat="43.65278" lon="1.39039">
        <ele>131</ele>
        <time>2024-06-19T10:13:29Z</time>
      </trkpt>
      <trkpt lat="43.65275" lon="1.39038">
        <ele>131</ele>
        <time>2024-06-19T10:13:30Z</time>
      </trkpt>
      <trkpt lat="43.65272" lon="1.39038">
        <ele>131</ele>
        <time>2024-06-19T10:13:31Z</time>
      </trkpt>
      <trkpt lat="43.6527" lon="1.39037">
        <ele>131</ele>
        <time>2024-06-19T10:13:32Z</time>
      </trkpt>
      <trkpt lat="43.65267" lon="1.39037">
        <ele>131</ele>
        <time>2024-06-19T10:13:33Z</time>
      </trkpt>
      <trkpt lat="43.65264" lon="1.39037">
        <ele>132</ele>
        <time>2024-06-19T10:13:34Z</time>
      </trkpt>
      <trkpt lat="43.65262" lon="1.39037">
        <ele>132</ele>
        <time>2024-06-19T10:13:35Z</time>
      </trkpt>
      <trkpt lat="43.65259" lon="1.39037">
        <ele>132</ele>
        <time>2024-06-19T10:13:36Z</time>
      </trkpt>
      <trkpt lat="43.65256" lon="1.39036">
        <ele>132</ele>
        <time>2024-06-19T10:13:37Z</time>
      </trkpt>
      <trkpt lat="43.65254" lon="1.39036">
        <ele>132</ele>
        <time>2024-06-19T10:13:38Z</time>
      </trkpt>
      <trkpt lat="43.65251" lon="1.39036">
        <ele>132</ele>
        <time>2024-06-19T10:13:39Z</time>
      </trkpt>
      <trkpt lat="43.65248" lon="1.39035">
        <ele>132</ele>
        <time>2024-06-19T10:13:40Z</time>
      </trkpt>
      <trkpt lat="43.65246" lon="1.39034">
        <ele>131</ele>
        <time>2024-06-19T10:13:41Z</time>
      </trkpt>
      <trkpt lat="43.65243" lon="1.39033">
        <ele>131</ele>
        <time>2024-06-19T10:13:42Z</time>
      </trkpt>
      <trkpt lat="43.6524" lon="1.39031">
        <ele>131</ele>
        <time>2024-06-19T10:13:43Z</time>
      </trkpt>
      <trkpt lat="43.65238" lon="1.3903">
        <ele>131</ele>
        <time>2024-06-19T10:13:44Z</time>
      </trkpt>
      <trkpt lat="43.65235" lon="1.39028">
        <ele>131</ele>
        <time>2024-06-19T10:13:45Z</time>
      </trkpt>
      <trkpt lat="43.65235" lon="1.39028">
        <ele>131</ele>
        <time>2024-06-19T10:13:46Z</time>
      </trkpt>
      <trkpt lat="43.6523" lon="1.39025">
        <ele>131</ele>
        <time>2024-06-19T10:13:47Z</time>
      </trkpt>
      <trkpt lat="43.65228" lon="1.39023">
        <ele>131</ele>
        <time>2024-06-19T10:13:48Z</time>
      </trkpt>
      <trkpt lat="43.65225" lon="1.39022">
        <ele>131</ele>
        <time>2024-06-19T10:13:49Z</time>
      </trkpt>
      <trkpt lat="43.65223" lon="1.3902">
        <ele>131</ele>
        <time>2024-06-19T10:13:50Z</time>
      </trkpt>
      <trkpt lat="43.6522" lon="1.39019">
        <ele>132</ele>
        <time>2024-06-19T10:13:51Z</time>
      </trkpt>
      <trkpt lat="43.65217" lon="1.39018">
        <ele>132</ele>
        <time>2024-06-19T10:13:52Z</time>
      </trkpt>
      <trkpt lat="43.65215" lon="1.39018">
        <ele>132</ele>
        <time>2024-06-19T10:13:53Z</time>
      </trkpt>
      <trkpt lat="43.65212" lon="1.39018">
        <ele>132</ele>
        <time>2024-06-19T10:13:54Z</time>
      </trkpt>
      <trkpt lat="43.6521" lon="1.39018">
        <ele>132</ele>
        <time>2024-06-19T10:13:55Z</time>
      </trkpt>
      <trkpt lat="43.65207" lon="1.39017">
        <ele>132</ele>
        <time>2024-06-19T10:13:56Z</time>
      </trkpt>
      <trkpt lat="43.65205" lon="1.39017">
        <ele>132</ele>
        <time>2024-06-19T10:13:57Z</time>
      </trkpt>
      <trkpt lat="43.65202" lon="1.39017">
        <ele>132</ele>
        <time>2024-06-19T10:13:58Z</time>
      </trkpt>
      <trkpt lat="43.652" lon="1.39017">
        <ele>132</ele>
        <time>2024-06-19T10:13:59Z</time>
      </trkpt>
      <trkpt lat="43.65197" lon="1.39017">
        <ele>132</ele>
        <time>2024-06-19T10:14:00Z</time>
      </trkpt>
      <trkpt lat="43.65195" lon="1.39017">
        <ele>132</ele>
        <time>2024-06-19T10:14:01Z</time>
      </trkpt>
      <trkpt lat="43.65192" lon="1.39017">
        <ele>132</ele>
        <time>2024-06-19T10:14:02Z</time>
      </trkpt>
      <trkpt lat="43.6519" lon="1.39017">
        <ele>132</ele>
        <time>2024-06-19T10:14:03Z</time>
      </trkpt>
      <trkpt lat="43.65187" lon="1.39017">
        <ele>132</ele>
        <time>2024-06-19T10:14:04Z</time>
      </trkpt>
      <trkpt lat="43.65185" lon="1.39017">
        <ele>132</ele>
        <time>2024-06-19T10:14:05Z</time>
      </trkpt>
      <trkpt lat="43.65182" lon="1.39017">
        <ele>132</ele>
        <time>2024-06-19T10:14:06Z</time>
      </trkpt>
      <trkpt lat="43.6518" lon="1.39017">
        <ele>132</ele>
        <time>2024-06-19T10:14:07Z</time>
      </trkpt>
      <trkpt lat="43.65177" lon="1.39017">
        <ele>131</ele>
        <time>2024-06-19T10:14:08Z</time>
      </trkpt>
      <trkpt lat="43.65175" lon="1.39017">
        <ele>131</ele>
        <time>2024-06-19T10:14:09Z</time>
      </trkpt>
      <trkpt lat="43.65172" lon="1.39017">
        <ele>132</ele>
        <time>2024-06-19T10:14:10Z</time>
      </trkpt>
      <trkpt lat="43.6517" lon="1.39017">
        <ele>132</ele>
        <time>2024-06-19T10:14:11Z</time>
      </trkpt>
      <trkpt lat="43.65167" lon="1.39017">
        <ele>132</ele>
        <time>2024-06-19T10:14:12Z</time>
      </trkpt>
      <trkpt lat="43.65164" lon="1.39017">
        <ele>132</ele>
        <time>2024-06-19T10:14:13Z</time>
      </trkpt>
      <trkpt lat="43.65162" lon="1.39017">
        <ele>132</ele>
        <time>2024-06-19T10:14:14Z</time>
      </trkpt>
      <trkpt lat="43.65159" lon="1.39018">
        <ele>132</ele>
        <time>2024-06-19T10:14:15Z</time>
      </trkpt>
      <trkpt lat="43.65157" lon="1.39018">
        <ele>132</ele>
        <time>2024-06-19T10:14:16Z</time>
      </trkpt>
      <trkpt lat="43.65154" lon="1.39019">
        <ele>133</ele>
        <time>2024-06-19T10:14:17Z</time>
      </trkpt>
      <trkpt lat="43.65152" lon="1.39019">
        <ele>133</ele>
        <time>2024-06-19T10:14:18Z</time>
      </trkpt>
      <trkpt lat="43.65149" lon="1.39019">
        <ele>132</ele>
        <time>2024-06-19T10:14:19Z</time>
      </trkpt>
      <trkpt lat="43.65146" lon="1.39019">
        <ele>133</ele>
        <time>2024-06-19T10:14:20Z</time>
      </trkpt>
      <trkpt lat="43.65144" lon="1.39019">
        <ele>133</ele>
        <time>2024-06-19T10:14:21Z</time>
      </trkpt>
      <trkpt lat="43.65141" lon="1.39019">
        <ele>132</ele>
        <time>2024-06-19T10:14:22Z</time>
      </trkpt>
      <trkpt lat="43.65139" lon="1.39019">
        <ele>132</ele>
        <time>2024-06-19T10:14:23Z</time>
      </trkpt>
      <trkpt lat="43.65136" lon="1.39019">
        <ele>132</ele>
        <time>2024-06-19T10:14:24Z</time>
      </trkpt>
      <trkpt lat="43.65136" lon="1.39019">
        <ele>132</ele>
        <time>2024-06-19T10:14:25Z</time>
      </trkpt>
      <trkpt lat="43.65131" lon="1.39019">
        <ele>132</ele>
        <time>2024-06-19T10:14:26Z</time>
      </trkpt>
      <trkpt lat="43.65128" lon="1.39018">
        <ele>132</ele>
        <time>2024-06-19T10:14:27Z</time>
      </trkpt>
      <trkpt lat="43.65126" lon="1.39018">
        <ele>132</ele>
        <time>2024-06-19T10:14:28Z</time>
      </trkpt>
      <trkpt lat="43.65123" lon="1.39018">
        <ele>132</ele>
        <time>2024-06-19T10:14:29Z</time>
      </trkpt>
      <trkpt lat="43.65123" lon="1.39018">
        <ele>132</ele>
        <time>2024-06-19T10:14:30Z</time>
      </trkpt>
      <trkpt lat="43.65118" lon="1.39018">
        <ele>132</ele>
        <time>2024-06-19T10:14:31Z</time>
      </trkpt>
      <trkpt lat="43.65115" lon="1.39018">
        <ele>132</ele>
        <time>2024-06-19T10:14:32Z</time>
      </trkpt>
      <trkpt lat="43.65113" lon="1.39017">
        <ele>132</ele>
        <time>2024-06-19T10:14:33Z</time>
      </trkpt>
      <trkpt lat="43.6511" lon="1.39017">
        <ele>132</ele>
        <time>2024-06-19T10:14:34Z</time>
      </trkpt>
      <trkpt lat="43.65108" lon="1.39017">
        <ele>132</ele>
        <time>2024-06-19T10:14:35Z</time>
      </trkpt>
      <trkpt lat="43.65105" lon="1.39017">
        <ele>132</ele>
        <time>2024-06-19T10:14:36Z</time>
      </trkpt>
      <trkpt lat="43.65102" lon="1.39017">
        <ele>132</ele>
        <time>2024-06-19T10:14:37Z</time>
      </trkpt>
      <trkpt lat="43.651" lon="1.39016">
        <ele>132</ele>
        <time>2024-06-19T10:14:38Z</time>
      </trkpt>
      <trkpt lat="43.65097" lon="1.39017">
        <ele>132</ele>
        <time>2024-06-19T10:14:39Z</time>
      </trkpt>
      <trkpt lat="43.65095" lon="1.39017">
        <ele>132</ele>
        <time>2024-06-19T10:14:40Z</time>
      </trkpt>
      <trkpt lat="43.65092" lon="1.39018">
        <ele>132</ele>
        <time>2024-06-19T10:14:41Z</time>
      </trkpt>
      <trkpt lat="43.6509" lon="1.39019">
        <ele>132</ele>
        <time>2024-06-19T10:14:42Z</time>
      </trkpt>
      <trkpt lat="43.65087" lon="1.3902">
        <ele>132</ele>
        <time>2024-06-19T10:14:43Z</time>
      </trkpt>
      <trkpt lat="43.65087" lon="1.3902">
        <ele>132</ele>
        <time>2024-06-19T10:14:44Z</time>
      </trkpt>
      <trkpt lat="43.65083" lon="1.39022">
        <ele>132</ele>
        <time>2024-06-19T10:14:45Z</time>
      </trkpt>
      <trkpt lat="43.6508" lon="1.39024">
        <ele>132</ele>
        <time>2024-06-19T10:14:46Z</time>
      </trkpt>
      <trkpt lat="43.65078" lon="1.39026">
        <ele>132</ele>
        <time>2024-06-19T10:14:47Z</time>
      </trkpt>
      <trkpt lat="43.65076" lon="1.39028">
        <ele>132</ele>
        <time>2024-06-19T10:14:48Z</time>
      </trkpt>
      <trkpt lat="43.65076" lon="1.39028">
        <ele>133</ele>
        <time>2024-06-19T10:14:49Z</time>
      </trkpt>
      <trkpt lat="43.65072" lon="1.39032">
        <ele>133</ele>
        <time>2024-06-19T10:14:50Z</time>
      </trkpt>
      <trkpt lat="43.65071" lon="1.39035">
        <ele>133</ele>
        <time>2024-06-19T10:14:51Z</time>
      </trkpt>
      <trkpt lat="43.6507" lon="1.39038">
        <ele>132</ele>
        <time>2024-06-19T10:14:52Z</time>
      </trkpt>
      <trkpt lat="43.65069" lon="1.39042">
        <ele>132</ele>
        <time>2024-06-19T10:14:53Z</time>
      </trkpt>
      <trkpt lat="43.65068" lon="1.39046">
        <ele>132</ele>
        <time>2024-06-19T10:14:54Z</time>
      </trkpt>
      <trkpt lat="43.65068" lon="1.39049">
        <ele>132</ele>
        <time>2024-06-19T10:14:55Z</time>
      </trkpt>
      <trkpt lat="43.65069" lon="1.39053">
        <ele>132</ele>
        <time>2024-06-19T10:14:56Z</time>
      </trkpt>
      <trkpt lat="43.65069" lon="1.39057">
        <ele>132</ele>
        <time>2024-06-19T10:14:57Z</time>
      </trkpt>
      <trkpt lat="43.65069" lon="1.39061">
        <ele>132</ele>
        <time>2024-06-19T10:14:58Z</time>
      </trkpt>
      <trkpt lat="43.6507" lon="1.39065">
        <ele>132</ele>
        <time>2024-06-19T10:14:59Z</time>
      </trkpt>
      <trkpt lat="43.6507" lon="1.39068">
        <ele>132</ele>
        <time>2024-06-19T10:15:00Z</time>
      </trkpt>
      <trkpt lat="43.65071" lon="1.39072">
        <ele>132</ele>
        <time>2024-06-19T10:15:01Z</time>
      </trkpt>
      <trkpt lat="43.65071" lon="1.39076">
        <ele>132</ele>
        <time>2024-06-19T10:15:02Z</time>
      </trkpt>
      <trkpt lat="43.65071" lon="1.3908">
        <ele>132</ele>
        <time>2024-06-19T10:15:03Z</time>
      </trkpt>
      <trkpt lat="43.65072" lon="1.39083">
        <ele>132</ele>
        <time>2024-06-19T10:15:04Z</time>
      </trkpt>
      <trkpt lat="43.65072" lon="1.39087">
        <ele>132</ele>
        <time>2024-06-19T10:15:05Z</time>
      </trkpt>
      <trkpt lat="43.65073" lon="1.3909">
        <ele>132</ele>
        <time>2024-06-19T10:15:06Z</time>
      </trkpt>
      <trkpt lat="43.65073" lon="1.39094">
        <ele>132</ele>
        <time>2024-06-19T10:15:07Z</time>
      </trkpt>
      <trkpt lat="43.65073" lon="1.39094">
        <ele>132</ele>
        <time>2024-06-19T10:15:08Z</time>
      </trkpt>
      <trkpt lat="43.65075" lon="1.39101">
        <ele>132</ele>
        <time>2024-06-19T10:15:09Z</time>
      </trkpt>
      <trkpt lat="43.65075" lon="1.39105">
        <ele>132</ele>
        <time>2024-06-19T10:15:10Z</time>
      </trkpt>
      <trkpt lat="43.65076" lon="1.39108">
        <ele>133</ele>
        <time>2024-06-19T10:15:11Z</time>
      </trkpt>
      <trkpt lat="43.65076" lon="1.39112">
        <ele>133</ele>
        <time>2024-06-19T10:15:12Z</time>
      </trkpt>
      <trkpt lat="43.65076" lon="1.39115">
        <ele>133</ele>
        <time>2024-06-19T10:15:13Z</time>
      </trkpt>
      <trkpt lat="43.65075" lon="1.39119">
        <ele>133</ele>
        <time>2024-06-19T10:15:14Z</time>
      </trkpt>
      <trkpt lat="43.65075" lon="1.39123">
        <ele>133</ele>
        <time>2024-06-19T10:15:15Z</time>
      </trkpt>
      <trkpt lat="43.65074" lon="1.39126">
        <ele>133</ele>
        <time>2024-06-19T10:15:16Z</time>
      </trkpt>
      <trkpt lat="43.65073" lon="1.39129">
        <ele>133</ele>
        <time>2024-06-19T10:15:17Z</time>
      </trkpt>
      <trkpt lat="43.65071" lon="1.39132">
        <ele>133</ele>
        <time>2024-06-19T10:15:18Z</time>
      </trkpt>
      <trkpt lat="43.6507" lon="1.39135">
        <ele>133</ele>
        <time>2024-06-19T10:15:19Z</time>
      </trkpt>
      <trkpt lat="43.65068" lon="1.39138">
        <ele>133</ele>
        <time>2024-06-19T10:15:20Z</time>
      </trkpt>
      <trkpt lat="43.65066" lon="1.3914">
        <ele>133</ele>
        <time>2024-06-19T10:15:21Z</time>
      </trkpt>
      <trkpt lat="43.65064" lon="1.39141">
        <ele>133</ele>
        <time>2024-06-19T10:15:22Z</time>
      </trkpt>
      <trkpt lat="43.65061" lon="1.39143">
        <ele>133</ele>
        <time>2024-06-19T10:15:23Z</time>
      </trkpt>
      <trkpt lat="43.65059" lon="1.39144">
        <ele>133</ele>
        <time>2024-06-19T10:15:24Z</time>
      </trkpt>
      <trkpt lat="43.65056" lon="1.39145">
        <ele>133</ele>
        <time>2024-06-19T10:15:25Z</time>
      </trkpt>
      <trkpt lat="43.65053" lon="1.39146">
        <ele>133</ele>
        <time>2024-06-19T10:15:26Z</time>
      </trkpt>
      <trkpt lat="43.65051" lon="1.39147">
        <ele>133</ele>
        <time>2024-06-19T10:15:27Z</time>
      </trkpt>
      <trkpt lat="43.65048" lon="1.39147">
        <ele>133</ele>
        <time>2024-06-19T10:15:28Z</time>
      </trkpt>
      <trkpt lat="43.65046" lon="1.39148">
        <ele>133</ele>
        <time>2024-06-19T10:15:29Z</time>
      </trkpt>
      <trkpt lat="43.65043" lon="1.39149">
        <ele>133</ele>
        <time>2024-06-19T10:15:30Z</time>
      </trkpt>
      <trkpt lat="43.65041" lon="1.3915">
        <ele>133</ele>
        <time>2024-06-19T10:15:31Z</time>
      </trkpt>
      <trkpt lat="43.65038" lon="1.3915">
        <ele>133</ele>
        <time>2024-06-19T10:15:32Z</time>
      </trkpt>
      <trkpt lat="43.65035" lon="1.39151">
        <ele>133</ele>
        <time>2024-06-19T10:15:33Z</time>
      </trkpt>
      <trkpt lat="43.65032" lon="1.39151">
        <ele>133</ele>
        <time>2024-06-19T10:15:34Z</time>
      </trkpt>
      <trkpt lat="43.6503" lon="1.39152">
        <ele>133</ele>
        <time>2024-06-19T10:15:35Z</time>
      </trkpt>
      <trkpt lat="43.65027" lon="1.39152">
        <ele>133</ele>
        <time>2024-06-19T10:15:36Z</time>
      </trkpt>
      <trkpt lat="43.65024" lon="1.39152">
        <ele>133</ele>
        <time>2024-06-19T10:15:37Z</time>
      </trkpt>
      <trkpt lat="43.65022" lon="1.39153">
        <ele>133</ele>
        <time>2024-06-19T10:15:38Z</time>
      </trkpt>
      <trkpt lat="43.65019" lon="1.39153">
        <ele>133</ele>
        <time>2024-06-19T10:15:39Z</time>
      </trkpt>
      <trkpt lat="43.65017" lon="1.39154">
        <ele>133</ele>
        <time>2024-06-19T10:15:40Z</time>
      </trkpt>
      <trkpt lat="43.65014" lon="1.39154">
        <ele>133</ele>
        <time>2024-06-19T10:15:41Z</time>
      </trkpt>
      <trkpt lat="43.65011" lon="1.39154">
        <ele>133</ele>
        <time>2024-06-19T10:15:42Z</time>
      </trkpt>
      <trkpt lat="43.65009" lon="1.39154">
        <ele>133</ele>
        <time>2024-06-19T10:15:43Z</time>
      </trkpt>
      <trkpt lat="43.65006" lon="1.39154">
        <ele>133</ele>
        <time>2024-06-19T10:15:44Z</time>
      </trkpt>
      <trkpt lat="43.65004" lon="1.39155">
        <ele>133</ele>
        <time>2024-06-19T10:15:45Z</time>
      </trkpt>
      <trkpt lat="43.65004" lon="1.39155">
        <ele>133</ele>
        <time>2024-06-19T10:15:46Z</time>
      </trkpt>
      <trkpt lat="43.64998" lon="1.39156">
        <ele>133</ele>
        <time>2024-06-19T10:15:47Z</time>
      </trkpt>
      <trkpt lat="43.64996" lon="1.39156">
        <ele>133</ele>
        <time>2024-06-19T10:15:48Z</time>
      </trkpt>
      <trkpt lat="43.64993" lon="1.39157">
        <ele>133</ele>
        <time>2024-06-19T10:15:49Z</time>
      </trkpt>
      <trkpt lat="43.64991" lon="1.39157">
        <ele>133</ele>
        <time>2024-06-19T10:15:50Z</time>
      </trkpt>
      <trkpt lat="43.64988" lon="1.39157">
        <ele>133</ele>
        <time>2024-06-19T10:15:51Z</time>
      </trkpt>
      <trkpt lat="43.64985" lon="1.39157">
        <ele>133</ele>
        <time>2024-06-19T10:15:52Z</time>
      </trkpt>
      <trkpt lat="43.64982" lon="1.39158">
        <ele>133</ele>
        <time>2024-06-19T10:15:53Z</time>
      </trkpt>
      <trkpt lat="43.6498" lon="1.39159">
        <ele>133</ele>
        <time>2024-06-19T10:15:54Z</time>
      </trkpt>
      <trkpt lat="43.64977" lon="1.39159">
        <ele>133</ele>
        <time>2024-06-19T10:15:55Z</time>
      </trkpt>
      <trkpt lat="43.64974" lon="1.39159">
        <ele>133</ele>
        <time>2024-06-19T10:15:56Z</time>
      </trkpt>
      <trkpt lat="43.64972" lon="1.3916">
        <ele>133</ele>
        <time>2024-06-19T10:15:57Z</time>
      </trkpt>
      <trkpt lat="43.64969" lon="1.3916">
        <ele>133</ele>
        <time>2024-06-19T10:15:58Z</time>
      </trkpt>
      <trkpt lat="43.64966" lon="1.3916">
        <ele>133</ele>
        <time>2024-06-19T10:15:59Z</time>
      </trkpt>
      <trkpt lat="43.64964" lon="1.3916">
        <ele>133</ele>
        <time>2024-06-19T10:16:00Z</time>
      </trkpt>
      <trkpt lat="43.64961" lon="1.39159">
        <ele>133</ele>
        <time>2024-06-19T10:16:01Z</time>
      </trkpt>
      <trkpt lat="43.64959" lon="1.39158">
        <ele>133</ele>
        <time>2024-06-19T10:16:02Z</time>
      </trkpt>
      <trkpt lat="43.64957" lon="1.39155">
        <ele>133</ele>
        <time>2024-06-19T10:16:03Z</time>
      </trkpt>
      <trkpt lat="43.64955" lon="1.39152">
        <ele>133</ele>
        <time>2024-06-19T10:16:04Z</time>
      </trkpt>
      <trkpt lat="43.64955" lon="1.39152">
        <ele>133</ele>
        <time>2024-06-19T10:16:05Z</time>
      </trkpt>
      <trkpt lat="43.64952" lon="1.39146">
        <ele>133</ele>
        <time>2024-06-19T10:16:06Z</time>
      </trkpt>
      <trkpt lat="43.64951" lon="1.39143">
        <ele>133</ele>
        <time>2024-06-19T10:16:07Z</time>
      </trkpt>
      <trkpt lat="43.64951" lon="1.39139">
        <ele>133</ele>
        <time>2024-06-19T10:16:08Z</time>
      </trkpt>
      <trkpt lat="43.6495" lon="1.39135">
        <ele>133</ele>
        <time>2024-06-19T10:16:09Z</time>
      </trkpt>
      <trkpt lat="43.64949" lon="1.39132">
        <ele>133</ele>
        <time>2024-06-19T10:16:10Z</time>
      </trkpt>
      <trkpt lat="43.64948" lon="1.39128">
        <ele>133</ele>
        <time>2024-06-19T10:16:11Z</time>
      </trkpt>
      <trkpt lat="43.64947" lon="1.39125">
        <ele>133</ele>
        <time>2024-06-19T10:16:12Z</time>
      </trkpt>
      <trkpt lat="43.64945" lon="1.39122">
        <ele>133</ele>
        <time>2024-06-19T10:16:13Z</time>
      </trkpt>
      <trkpt lat="43.64943" lon="1.3912">
        <ele>133</ele>
        <time>2024-06-19T10:16:14Z</time>
      </trkpt>
      <trkpt lat="43.64941" lon="1.39119">
        <ele>133</ele>
        <time>2024-06-19T10:16:15Z</time>
      </trkpt>
      <trkpt lat="43.64939" lon="1.39117">
        <ele>133</ele>
        <time>2024-06-19T10:16:16Z</time>
      </trkpt>
      <trkpt lat="43.64936" lon="1.39117">
        <ele>133</ele>
        <time>2024-06-19T10:16:17Z</time>
      </trkpt>
      <trkpt lat="43.64936" lon="1.39117">
        <ele>133</ele>
        <time>2024-06-19T10:16:18Z</time>
      </trkpt>
      <trkpt lat="43.64931" lon="1.39116">
        <ele>132</ele>
        <time>2024-06-19T10:16:19Z</time>
      </trkpt>
      <trkpt lat="43.64928" lon="1.39116">
        <ele>132</ele>
        <time>2024-06-19T10:16:20Z</time>
      </trkpt>
      <trkpt lat="43.64926" lon="1.39116">
        <ele>132</ele>
        <time>2024-06-19T10:16:21Z</time>
      </trkpt>
      <trkpt lat="43.64923" lon="1.39116">
        <ele>132</ele>
        <time>2024-06-19T10:16:22Z</time>
      </trkpt>
      <trkpt lat="43.64921" lon="1.39116">
        <ele>132</ele>
        <time>2024-06-19T10:16:23Z</time>
      </trkpt>
      <trkpt lat="43.64921" lon="1.39116">
        <ele>133</ele>
        <time>2024-06-19T10:16:24Z</time>
      </trkpt>
      <trkpt lat="43.64916" lon="1.39115">
        <ele>133</ele>
        <time>2024-06-19T10:16:25Z</time>
      </trkpt>
      <trkpt lat="43.64913" lon="1.39115">
        <ele>133</ele>
        <time>2024-06-19T10:16:26Z</time>
      </trkpt>
      <trkpt lat="43.6491" lon="1.39115">
        <ele>133</ele>
        <time>2024-06-19T10:16:27Z</time>
      </trkpt>
      <trkpt lat="43.64907" lon="1.39115">
        <ele>133</ele>
        <time>2024-06-19T10:16:28Z</time>
      </trkpt>
      <trkpt lat="43.64905" lon="1.39116">
        <ele>133</ele>
        <time>2024-06-19T10:16:29Z</time>
      </trkpt>
      <trkpt lat="43.64902" lon="1.39116">
        <ele>133</ele>
        <time>2024-06-19T10:16:30Z</time>
      </trkpt>
      <trkpt lat="43.649" lon="1.39116">
        <ele>133</ele>
        <time>2024-06-19T10:16:31Z</time>
      </trkpt>
      <trkpt lat="43.64897" lon="1.39117">
        <ele>133</ele>
        <time>2024-06-19T10:16:32Z</time>
      </trkpt>
      <trkpt lat="43.64895" lon="1.39117">
        <ele>133</ele>
        <time>2024-06-19T10:16:33Z</time>
      </trkpt>
      <trkpt lat="43.64892" lon="1.39118">
        <ele>133</ele>
        <time>2024-06-19T10:16:34Z</time>
      </trkpt>
      <trkpt lat="43.6489" lon="1.39118">
        <ele>133</ele>
        <time>2024-06-19T10:16:35Z</time>
      </trkpt>
      <trkpt lat="43.64887" lon="1.39119">
        <ele>133</ele>
        <time>2024-06-19T10:16:36Z</time>
      </trkpt>
      <trkpt lat="43.64887" lon="1.39119">
        <ele>133</ele>
        <time>2024-06-19T10:16:37Z</time>
      </trkpt>
      <trkpt lat="43.64882" lon="1.3912">
        <ele>133</ele>
        <time>2024-06-19T10:16:38Z</time>
      </trkpt>
      <trkpt lat="43.64879" lon="1.39121">
        <ele>133</ele>
        <time>2024-06-19T10:16:39Z</time>
      </trkpt>
      <trkpt lat="43.64877" lon="1.39122">
        <ele>133</ele>
        <time>2024-06-19T10:16:40Z</time>
      </trkpt>
      <trkpt lat="43.64874" lon="1.39123">
        <ele>133</ele>
        <time>2024-06-19T10:16:41Z</time>
      </trkpt>
      <trkpt lat="43.64872" lon="1.39124">
        <ele>133</ele>
        <time>2024-06-19T10:16:42Z</time>
      </trkpt>
      <trkpt lat="43.64869" lon="1.39125">
        <ele>133</ele>
        <time>2024-06-19T10:16:43Z</time>
      </trkpt>
      <trkpt lat="43.64867" lon="1.39125">
        <ele>133</ele>
        <time>2024-06-19T10:16:44Z</time>
      </trkpt>
      <trkpt lat="43.64864" lon="1.39126">
        <ele>133</ele>
        <time>2024-06-19T10:16:45Z</time>
      </trkpt>
      <trkpt lat="43.64862" lon="1.39127">
        <ele>133</ele>
        <time>2024-06-19T10:16:46Z</time>
      </trkpt>
      <trkpt lat="43.64859" lon="1.39127">
        <ele>133</ele>
        <time>2024-06-19T10:16:47Z</time>
      </trkpt>
      <trkpt lat="43.64857" lon="1.39128">
        <ele>133</ele>
        <time>2024-06-19T10:16:48Z</time>
      </trkpt>
      <trkpt lat="43.64854" lon="1.39129">
        <ele>133</ele>
        <time>2024-06-19T10:16:49Z</time>
      </trkpt>
      <trkpt lat="43.64852" lon="1.3913">
        <ele>133</ele>
        <time>2024-06-19T10:16:50Z</time>
      </trkpt>
      <trkpt lat="43.64849" lon="1.3913">
        <ele>133</ele>
        <time>2024-06-19T10:16:51Z</time>
      </trkpt>
      <trkpt lat="43.64847" lon="1.39131">
        <ele>133</ele>
        <time>2024-06-19T10:16:52Z</time>
      </trkpt>
      <trkpt lat="43.64844" lon="1.39133">
        <ele>133</ele>
        <time>2024-06-19T10:16:53Z</time>
      </trkpt>
      <trkpt lat="43.64842" lon="1.39134">
        <ele>133</ele>
        <time>2024-06-19T10:16:54Z</time>
      </trkpt>
      <trkpt lat="43.64839" lon="1.39136">
        <ele>133</ele>
        <time>2024-06-19T10:16:55Z</time>
      </trkpt>
      <trkpt lat="43.64837" lon="1.39137">
        <ele>133</ele>
        <time>2024-06-19T10:16:56Z</time>
      </trkpt>
      <trkpt lat="43.64835" lon="1.39139">
        <ele>133</ele>
        <time>2024-06-19T10:16:57Z</time>
      </trkpt>
      <trkpt lat="43.64832" lon="1.3914">
        <ele>132</ele>
        <time>2024-06-19T10:16:58Z</time>
      </trkpt>
      <trkpt lat="43.6483" lon="1.39142">
        <ele>132</ele>
        <time>2024-06-19T10:16:59Z</time>
      </trkpt>
      <trkpt lat="43.64828" lon="1.39144">
        <ele>132</ele>
        <time>2024-06-19T10:17:00Z</time>
      </trkpt>
      <trkpt lat="43.64825" lon="1.39145">
        <ele>132</ele>
        <time>2024-06-19T10:17:01Z</time>
      </trkpt>
      <trkpt lat="43.64822" lon="1.39146">
        <ele>132</ele>
        <time>2024-06-19T10:17:02Z</time>
      </trkpt>
      <trkpt lat="43.6482" lon="1.39148">
        <ele>132</ele>
        <time>2024-06-19T10:17:03Z</time>
      </trkpt>
      <trkpt lat="43.64817" lon="1.39149">
        <ele>132</ele>
        <time>2024-06-19T10:17:04Z</time>
      </trkpt>
      <trkpt lat="43.64815" lon="1.3915">
        <ele>132</ele>
        <time>2024-06-19T10:17:05Z</time>
      </trkpt>
      <trkpt lat="43.64812" lon="1.39152">
        <ele>132</ele>
        <time>2024-06-19T10:17:06Z</time>
      </trkpt>
      <trkpt lat="43.6481" lon="1.39154">
        <ele>133</ele>
        <time>2024-06-19T10:17:07Z</time>
      </trkpt>
      <trkpt lat="43.64808" lon="1.39155">
        <ele>133</ele>
        <time>2024-06-19T10:17:08Z</time>
      </trkpt>
      <trkpt lat="43.64805" lon="1.39157">
        <ele>133</ele>
        <time>2024-06-19T10:17:09Z</time>
      </trkpt>
      <trkpt lat="43.64803" lon="1.39159">
        <ele>133</ele>
        <time>2024-06-19T10:17:10Z</time>
      </trkpt>
      <trkpt lat="43.64803" lon="1.39159">
        <ele>133</ele>
        <time>2024-06-19T10:17:11Z</time>
      </trkpt>
      <trkpt lat="43.64798" lon="1.39162">
        <ele>133</ele>
        <time>2024-06-19T10:17:12Z</time>
      </trkpt>
      <trkpt lat="43.64796" lon="1.39163">
        <ele>133</ele>
        <time>2024-06-19T10:17:13Z</time>
      </trkpt>
      <trkpt lat="43.64794" lon="1.39165">
        <ele>133</ele>
        <time>2024-06-19T10:17:14Z</time>
      </trkpt>
      <trkpt lat="43.64791" lon="1.39167">
        <ele>133</ele>
        <time>2024-06-19T10:17:15Z</time>
      </trkpt>
      <trkpt lat="43.64791" lon="1.39167">
        <ele>133</ele>
        <time>2024-06-19T10:17:16Z</time>
      </trkpt>
      <trkpt lat="43.64786" lon="1.3917">
        <ele>133</ele>
        <time>2024-06-19T10:17:17Z</time>
      </trkpt>
      <trkpt lat="43.64784" lon="1.39172">
        <ele>133</ele>
        <time>2024-06-19T10:17:18Z</time>
      </trkpt>
      <trkpt lat="43.64781" lon="1.39173">
        <ele>133</ele>
        <time>2024-06-19T10:17:19Z</time>
      </trkpt>
      <trkpt lat="43.64779" lon="1.39175">
        <ele>133</ele>
        <time>2024-06-19T10:17:20Z</time>
      </trkpt>
      <trkpt lat="43.64776" lon="1.39176">
        <ele>133</ele>
        <time>2024-06-19T10:17:21Z</time>
      </trkpt>
      <trkpt lat="43.64774" lon="1.39178">
        <ele>133</ele>
        <time>2024-06-19T10:17:22Z</time>
      </trkpt>
      <trkpt lat="43.64772" lon="1.39179">
        <ele>133</ele>
        <time>2024-06-19T10:17:23Z</time>
      </trkpt>
      <trkpt lat="43.64769" lon="1.39181">
        <ele>133</ele>
        <time>2024-06-19T10:17:24Z</time>
      </trkpt>
      <trkpt lat="43.64767" lon="1.39183">
        <ele>133</ele>
        <time>2024-06-19T10:17:25Z</time>
      </trkpt>
      <trkpt lat="43.64764" lon="1.39184">
        <ele>133</ele>
        <time>2024-06-19T10:17:26Z</time>
      </trkpt>
      <trkpt lat="43.64762" lon="1.39185">
        <ele>133</ele>
        <time>2024-06-19T10:17:27Z</time>
      </trkpt>
      <trkpt lat="43.64759" lon="1.39187">
        <ele>133</ele>
        <time>2024-06-19T10:17:28Z</time>
      </trkpt>
      <trkpt lat="43.64757" lon="1.39188">
        <ele>133</ele>
        <time>2024-06-19T10:17:29Z</time>
      </trkpt>
      <trkpt lat="43.64755" lon="1.3919">
        <ele>133</ele>
        <time>2024-06-19T10:17:30Z</time>
      </trkpt>
      <trkpt lat="43.64753" lon="1.39191">
        <ele>133</ele>
        <time>2024-06-19T10:17:31Z</time>
      </trkpt>
      <trkpt lat="43.6475" lon="1.39193">
        <ele>133</ele>
        <time>2024-06-19T10:17:32Z</time>
      </trkpt>
      <trkpt lat="43.64748" lon="1.39194">
        <ele>133</ele>
        <time>2024-06-19T10:17:33Z</time>
      </trkpt>
      <trkpt lat="43.64748" lon="1.39194">
        <ele>133</ele>
        <time>2024-06-19T10:17:34Z</time>
      </trkpt>
      <trkpt lat="43.64743" lon="1.39198">
        <ele>133</ele>
        <time>2024-06-19T10:17:35Z</time>
      </trkpt>
      <trkpt lat="43.64741" lon="1.39199">
        <ele>133</ele>
        <time>2024-06-19T10:17:36Z</time>
      </trkpt>
      <trkpt lat="43.64738" lon="1.39201">
        <ele>133</ele>
        <time>2024-06-19T10:17:37Z</time>
      </trkpt>
      <trkpt lat="43.64736" lon="1.39203">
        <ele>133</ele>
        <time>2024-06-19T10:17:38Z</time>
      </trkpt>
      <trkpt lat="43.64734" lon="1.39205">
        <ele>133</ele>
        <time>2024-06-19T10:17:39Z</time>
      </trkpt>
      <trkpt lat="43.64731" lon="1.39207">
        <ele>133</ele>
        <time>2024-06-19T10:17:40Z</time>
      </trkpt>
      <trkpt lat="43.64729" lon="1.39209">
        <ele>133</ele>
        <time>2024-06-19T10:17:41Z</time>
      </trkpt>
      <trkpt lat="43.64726" lon="1.3921">
        <ele>133</ele>
        <time>2024-06-19T10:17:42Z</time>
      </trkpt>
      <trkpt lat="43.64724" lon="1.39212">
        <ele>133</ele>
        <time>2024-06-19T10:17:43Z</time>
      </trkpt>
      <trkpt lat="43.64722" lon="1.39213">
        <ele>133</ele>
        <time>2024-06-19T10:17:44Z</time>
      </trkpt>
      <trkpt lat="43.64719" lon="1.39215">
        <ele>133</ele>
        <time>2024-06-19T10:17:45Z</time>
      </trkpt>
      <trkpt lat="43.64717" lon="1.39216">
        <ele>133</ele>
        <time>2024-06-19T10:17:46Z</time>
      </trkpt>
      <trkpt lat="43.64715" lon="1.39218">
        <ele>133</ele>
        <time>2024-06-19T10:17:47Z</time>
      </trkpt>
      <trkpt lat="43.64712" lon="1.39219">
        <ele>133</ele>
        <time>2024-06-19T10:17:48Z</time>
      </trkpt>
      <trkpt lat="43.64709" lon="1.3922">
        <ele>133</ele>
        <time>2024-06-19T10:17:49Z</time>
      </trkpt>
      <trkpt lat="43.64707" lon="1.39222">
        <ele>133</ele>
        <time>2024-06-19T10:17:50Z</time>
      </trkpt>
      <trkpt lat="43.64704" lon="1.39223">
        <ele>133</ele>
        <time>2024-06-19T10:17:51Z</time>
      </trkpt>
      <trkpt lat="43.64702" lon="1.39224">
        <ele>133</ele>
        <time>2024-06-19T10:17:52Z</time>
      </trkpt>
      <trkpt lat="43.64702" lon="1.39224">
        <ele>133</ele>
        <time>2024-06-19T10:17:53Z</time>
      </trkpt>
      <trkpt lat="43.64697" lon="1.39227">
        <ele>133</ele>
        <time>2024-06-19T10:17:54Z</time>
      </trkpt>
      <trkpt lat="43.64694" lon="1.39229">
        <ele>133</ele>
        <time>2024-06-19T10:17:55Z</time>
      </trkpt>
      <trkpt lat="43.64692" lon="1.3923">
        <ele>133</ele>
        <time>2024-06-19T10:17:56Z</time>
      </trkpt>
      <trkpt lat="43.6469" lon="1.39232">
        <ele>133</ele>
        <time>2024-06-19T10:17:57Z</time>
      </trkpt>
      <trkpt lat="43.64688" lon="1.39233">
        <ele>133</ele>
        <time>2024-06-19T10:17:58Z</time>
      </trkpt>
      <trkpt lat="43.64685" lon="1.39234">
        <ele>133</ele>
        <time>2024-06-19T10:17:59Z</time>
      </trkpt>
      <trkpt lat="43.64683" lon="1.39236">
        <ele>133</ele>
        <time>2024-06-19T10:18:00Z</time>
      </trkpt>
      <trkpt lat="43.6468" lon="1.39238">
        <ele>133</ele>
        <time>2024-06-19T10:18:01Z</time>
      </trkpt>
      <trkpt lat="43.64678" lon="1.39239">
        <ele>133</ele>
        <time>2024-06-19T10:18:02Z</time>
      </trkpt>
      <trkpt lat="43.64676" lon="1.39241">
        <ele>133</ele>
        <time>2024-06-19T10:18:03Z</time>
      </trkpt>
      <trkpt lat="43.64673" lon="1.39242">
        <ele>133</ele>
        <time>2024-06-19T10:18:04Z</time>
      </trkpt>
      <trkpt lat="43.64671" lon="1.39244">
        <ele>133</ele>
        <time>2024-06-19T10:18:05Z</time>
      </trkpt>
      <trkpt lat="43.64668" lon="1.39246">
        <ele>133</ele>
        <time>2024-06-19T10:18:06Z</time>
      </trkpt>
      <trkpt lat="43.64666" lon="1.39247">
        <ele>133</ele>
        <time>2024-06-19T10:18:07Z</time>
      </trkpt>
      <trkpt lat="43.64663" lon="1.39249">
        <ele>132</ele>
        <time>2024-06-19T10:18:08Z</time>
      </trkpt>
      <trkpt lat="43.64661" lon="1.3925">
        <ele>132</ele>
        <time>2024-06-19T10:18:09Z</time>
      </trkpt>
      <trkpt lat="43.64658" lon="1.39251">
        <ele>132</ele>
        <time>2024-06-19T10:18:10Z</time>
      </trkpt>
      <trkpt lat="43.64656" lon="1.39252">
        <ele>132</ele>
        <time>2024-06-19T10:18:11Z</time>
      </trkpt>
      <trkpt lat="43.64656" lon="1.39252">
        <ele>132</ele>
        <time>2024-06-19T10:18:12Z</time>
      </trkpt>
      <trkpt lat="43.64651" lon="1.39254">
        <ele>133</ele>
        <time>2024-06-19T10:18:13Z</time>
      </trkpt>
      <trkpt lat="43.64648" lon="1.39255">
        <ele>133</ele>
        <time>2024-06-19T10:18:14Z</time>
      </trkpt>
      <trkpt lat="43.64646" lon="1.39257">
        <ele>133</ele>
        <time>2024-06-19T10:18:15Z</time>
      </trkpt>
      <trkpt lat="43.64644" lon="1.39258">
        <ele>133</ele>
        <time>2024-06-19T10:18:16Z</time>
      </trkpt>
      <trkpt lat="43.64641" lon="1.39259">
        <ele>133</ele>
        <time>2024-06-19T10:18:17Z</time>
      </trkpt>
      <trkpt lat="43.64641" lon="1.39259">
        <ele>133</ele>
        <time>2024-06-19T10:18:18Z</time>
      </trkpt>
      <trkpt lat="43.64636" lon="1.39262">
        <ele>133</ele>
        <time>2024-06-19T10:18:19Z</time>
      </trkpt>
      <trkpt lat="43.64633" lon="1.39264">
        <ele>133</ele>
        <time>2024-06-19T10:18:20Z</time>
      </trkpt>
      <trkpt lat="43.64631" lon="1.39265">
        <ele>133</ele>
        <time>2024-06-19T10:18:21Z</time>
      </trkpt>
      <trkpt lat="43.64628" lon="1.39267">
        <ele>133</ele>
        <time>2024-06-19T10:18:22Z</time>
      </trkpt>
      <trkpt lat="43.64626" lon="1.39268">
        <ele>133</ele>
        <time>2024-06-19T10:18:23Z</time>
      </trkpt>
      <trkpt lat="43.64624" lon="1.39269">
        <ele>133</ele>
        <time>2024-06-19T10:18:24Z</time>
      </trkpt>
      <trkpt lat="43.64621" lon="1.3927">
        <ele>133</ele>
        <time>2024-06-19T10:18:25Z</time>
      </trkpt>
      <trkpt lat="43.64619" lon="1.39271">
        <ele>133</ele>
        <time>2024-06-19T10:18:26Z</time>
      </trkpt>
      <trkpt lat="43.64616" lon="1.39271">
        <ele>133</ele>
        <time>2024-06-19T10:18:27Z</time>
      </trkpt>
      <trkpt lat="43.64613" lon="1.39273">
        <ele>133</ele>
        <time>2024-06-19T10:18:28Z</time>
      </trkpt>
      <trkpt lat="43.64611" lon="1.39274">
        <ele>133</ele>
        <time>2024-06-19T10:18:29Z</time>
      </trkpt>
      <trkpt lat="43.64608" lon="1.39276">
        <ele>133</ele>
        <time>2024-06-19T10:18:30Z</time>
      </trkpt>
      <trkpt lat="43.64605" lon="1.39277">
        <ele>133</ele>
        <time>2024-06-19T10:18:31Z</time>
      </trkpt>
      <trkpt lat="43.64602" lon="1.39278">
        <ele>133</ele>
        <time>2024-06-19T10:18:32Z</time>
      </trkpt>
      <trkpt lat="43.646" lon="1.39279">
        <ele>133</ele>
        <time>2024-06-19T10:18:33Z</time>
      </trkpt>
      <trkpt lat="43.64597" lon="1.3928">
        <ele>133</ele>
        <time>2024-06-19T10:18:34Z</time>
      </trkpt>
      <trkpt lat="43.64595" lon="1.39281">
        <ele>133</ele>
        <time>2024-06-19T10:18:35Z</time>
      </trkpt>
      <trkpt lat="43.64592" lon="1.39283">
        <ele>133</ele>
        <time>2024-06-19T10:18:36Z</time>
      </trkpt>
      <trkpt lat="43.6459" lon="1.39284">
        <ele>134</ele>
        <time>2024-06-19T10:18:37Z</time>
      </trkpt>
      <trkpt lat="43.64587" lon="1.39284">
        <ele>134</ele>
        <time>2024-06-19T10:18:38Z</time>
      </trkpt>
      <trkpt lat="43.64585" lon="1.39285">
        <ele>134</ele>
        <time>2024-06-19T10:18:39Z</time>
      </trkpt>
      <trkpt lat="43.64582" lon="1.39286">
        <ele>133</ele>
        <time>2024-06-19T10:18:40Z</time>
      </trkpt>
      <trkpt lat="43.6458" lon="1.39287">
        <ele>133</ele>
        <time>2024-06-19T10:18:41Z</time>
      </trkpt>
      <trkpt lat="43.64577" lon="1.39287">
        <ele>133</ele>
        <time>2024-06-19T10:18:42Z</time>
      </trkpt>
      <trkpt lat="43.64575" lon="1.39288">
        <ele>133</ele>
        <time>2024-06-19T10:18:43Z</time>
      </trkpt>
      <trkpt lat="43.64572" lon="1.39289">
        <ele>133</ele>
        <time>2024-06-19T10:18:44Z</time>
      </trkpt>
      <trkpt lat="43.64569" lon="1.3929">
        <ele>133</ele>
        <time>2024-06-19T10:18:45Z</time>
      </trkpt>
      <trkpt lat="43.64567" lon="1.39291">
        <ele>133</ele>
        <time>2024-06-19T10:18:46Z</time>
      </trkpt>
      <trkpt lat="43.64564" lon="1.39291">
        <ele>133</ele>
        <time>2024-06-19T10:18:47Z</time>
      </trkpt>
      <trkpt lat="43.64562" lon="1.39292">
        <ele>133</ele>
        <time>2024-06-19T10:18:48Z</time>
      </trkpt>
      <trkpt lat="43.64559" lon="1.39293">
        <ele>133</ele>
        <time>2024-06-19T10:18:49Z</time>
      </trkpt>
      <trkpt lat="43.64557" lon="1.39294">
        <ele>133</ele>
        <time>2024-06-19T10:18:50Z</time>
      </trkpt>
      <trkpt lat="43.64554" lon="1.39296">
        <ele>133</ele>
        <time>2024-06-19T10:18:51Z</time>
      </trkpt>
      <trkpt lat="43.64552" lon="1.39297">
        <ele>133</ele>
        <time>2024-06-19T10:18:52Z</time>
      </trkpt>
      <trkpt lat="43.64549" lon="1.39298">
        <ele>133</ele>
        <time>2024-06-19T10:18:53Z</time>
      </trkpt>
      <trkpt lat="43.64547" lon="1.393">
        <ele>133</ele>
        <time>2024-06-19T10:18:54Z</time>
      </trkpt>
      <trkpt lat="43.64544" lon="1.393">
        <ele>133</ele>
        <time>2024-06-19T10:18:55Z</time>
      </trkpt>
      <trkpt lat="43.64544" lon="1.393">
        <ele>133</ele>
        <time>2024-06-19T10:18:56Z</time>
      </trkpt>
      <trkpt lat="43.64539" lon="1.39301">
        <ele>133</ele>
        <time>2024-06-19T10:18:57Z</time>
      </trkpt>
      <trkpt lat="43.64536" lon="1.39302">
        <ele>133</ele>
        <time>2024-06-19T10:18:58Z</time>
      </trkpt>
      <trkpt lat="43.64533" lon="1.39303">
        <ele>133</ele>
        <time>2024-06-19T10:18:59Z</time>
      </trkpt>
      <trkpt lat="43.64531" lon="1.39304">
        <ele>133</ele>
        <time>2024-06-19T10:19:00Z</time>
      </trkpt>
      <trkpt lat="43.64528" lon="1.39305">
        <ele>133</ele>
        <time>2024-06-19T10:19:01Z</time>
      </trkpt>
      <trkpt lat="43.64525" lon="1.39306">
        <ele>133</ele>
        <time>2024-06-19T10:19:02Z</time>
      </trkpt>
      <trkpt lat="43.64522" lon="1.39306">
        <ele>133</ele>
        <time>2024-06-19T10:19:03Z</time>
      </trkpt>
      <trkpt lat="43.6452" lon="1.39307">
        <ele>133</ele>
        <time>2024-06-19T10:19:04Z</time>
      </trkpt>
      <trkpt lat="43.64517" lon="1.39308">
        <ele>133</ele>
        <time>2024-06-19T10:19:05Z</time>
      </trkpt>
      <trkpt lat="43.64515" lon="1.39308">
        <ele>133</ele>
        <time>2024-06-19T10:19:06Z</time>
      </trkpt>
      <trkpt lat="43.64512" lon="1.39308">
        <ele>133</ele>
        <time>2024-06-19T10:19:07Z</time>
      </trkpt>
      <trkpt lat="43.64512" lon="1.39308">
        <ele>133</ele>
        <time>2024-06-19T10:19:08Z</time>
      </trkpt>
      <trkpt lat="43.64507" lon="1.39309">
        <ele>133</ele>
        <time>2024-06-19T10:19:09Z</time>
      </trkpt>
      <trkpt lat="43.64504" lon="1.39309">
        <ele>133</ele>
        <time>2024-06-19T10:19:10Z</time>
      </trkpt>
      <trkpt lat="43.64502" lon="1.39309">
        <ele>133</ele>
        <time>2024-06-19T10:19:11Z</time>
      </trkpt>
      <trkpt lat="43.64499" lon="1.39309">
        <ele>133</ele>
        <time>2024-06-19T10:19:12Z</time>
      </trkpt>
      <trkpt lat="43.64496" lon="1.39309">
        <ele>133</ele>
        <time>2024-06-19T10:19:13Z</time>
      </trkpt>
      <trkpt lat="43.64494" lon="1.39309">
        <ele>133</ele>
        <time>2024-06-19T10:19:14Z</time>
      </trkpt>
      <trkpt lat="43.64494" lon="1.39309">
        <ele>133</ele>
        <time>2024-06-19T10:19:15Z</time>
      </trkpt>
      <trkpt lat="43.64489" lon="1.39309">
        <ele>134</ele>
        <time>2024-06-19T10:19:16Z</time>
      </trkpt>
      <trkpt lat="43.64487" lon="1.39309">
        <ele>134</ele>
        <time>2024-06-19T10:19:17Z</time>
      </trkpt>
      <trkpt lat="43.64484" lon="1.3931">
        <ele>134</ele>
        <time>2024-06-19T10:19:18Z</time>
      </trkpt>
      <trkpt lat="43.64482" lon="1.3931">
        <ele>134</ele>
        <time>2024-06-19T10:19:19Z</time>
      </trkpt>
      <trkpt lat="43.6448" lon="1.3931">
        <ele>134</ele>
        <time>2024-06-19T10:19:20Z</time>
      </trkpt>
      <trkpt lat="43.64477" lon="1.3931">
        <ele>134</ele>
        <time>2024-06-19T10:19:21Z</time>
      </trkpt>
      <trkpt lat="43.64475" lon="1.3931">
        <ele>134</ele>
        <time>2024-06-19T10:19:22Z</time>
      </trkpt>
      <trkpt lat="43.64472" lon="1.3931">
        <ele>134</ele>
        <time>2024-06-19T10:19:23Z</time>
      </trkpt>
      <trkpt lat="43.64469" lon="1.3931">
        <ele>134</ele>
        <time>2024-06-19T10:19:24Z</time>
      </trkpt>
      <trkpt lat="43.64467" lon="1.39311">
        <ele>134</ele>
        <time>2024-06-19T10:19:25Z</time>
      </trkpt>
      <trkpt lat="43.64465" lon="1.39312">
        <ele>134</ele>
        <time>2024-06-19T10:19:26Z</time>
      </trkpt>
      <trkpt lat="43.64464" lon="1.39314">
        <ele>134</ele>
        <time>2024-06-19T10:19:27Z</time>
      </trkpt>
      <trkpt lat="43.64464" lon="1.39314">
        <ele>135</ele>
        <time>2024-06-19T10:19:28Z</time>
      </trkpt>
      <trkpt lat="43.64465" lon="1.39322">
        <ele>135</ele>
        <time>2024-06-19T10:19:29Z</time>
      </trkpt>
      <trkpt lat="43.64466" lon="1.39325">
        <ele>135</ele>
        <time>2024-06-19T10:19:30Z</time>
      </trkpt>
      <trkpt lat="43.64467" lon="1.39329">
        <ele>135</ele>
        <time>2024-06-19T10:19:31Z</time>
      </trkpt>
      <trkpt lat="43.64468" lon="1.39332">
        <ele>135</ele>
        <time>2024-06-19T10:19:32Z</time>
      </trkpt>
      <trkpt lat="43.64469" lon="1.39336">
        <ele>135</ele>
        <time>2024-06-19T10:19:33Z</time>
      </trkpt>
      <trkpt lat="43.64469" lon="1.39336">
        <ele>135</ele>
        <time>2024-06-19T10:19:34Z</time>
      </trkpt>
      <trkpt lat="43.6447" lon="1.39343">
        <ele>135</ele>
        <time>2024-06-19T10:19:35Z</time>
      </trkpt>
      <trkpt lat="43.64471" lon="1.39346">
        <ele>135</ele>
        <time>2024-06-19T10:19:36Z</time>
      </trkpt>
      <trkpt lat="43.64472" lon="1.39349">
        <ele>135</ele>
        <time>2024-06-19T10:19:37Z</time>
      </trkpt>
      <trkpt lat="43.64473" lon="1.39353">
        <ele>135</ele>
        <time>2024-06-19T10:19:38Z</time>
      </trkpt>
      <trkpt lat="43.64474" lon="1.39356">
        <ele>135</ele>
        <time>2024-06-19T10:19:39Z</time>
      </trkpt>
      <trkpt lat="43.64474" lon="1.3936">
        <ele>135</ele>
        <time>2024-06-19T10:19:40Z</time>
      </trkpt>
      <trkpt lat="43.64475" lon="1.39363">
        <ele>135</ele>
        <time>2024-06-19T10:19:41Z</time>
      </trkpt>
      <trkpt lat="43.64476" lon="1.39367">
        <ele>135</ele>
        <time>2024-06-19T10:19:42Z</time>
      </trkpt>
      <trkpt lat="43.64476" lon="1.3937">
        <ele>135</ele>
        <time>2024-06-19T10:19:43Z</time>
      </trkpt>
      <trkpt lat="43.64476" lon="1.39374">
        <ele>135</ele>
        <time>2024-06-19T10:19:44Z</time>
      </trkpt>
      <trkpt lat="43.64477" lon="1.39377">
        <ele>135</ele>
        <time>2024-06-19T10:19:45Z</time>
      </trkpt>
      <trkpt lat="43.64478" lon="1.39381">
        <ele>135</ele>
        <time>2024-06-19T10:19:46Z</time>
      </trkpt>
      <trkpt lat="43.64478" lon="1.39384">
        <ele>135</ele>
        <time>2024-06-19T10:19:47Z</time>
      </trkpt>
      <trkpt lat="43.64478" lon="1.39388">
        <ele>135</ele>
        <time>2024-06-19T10:19:48Z</time>
      </trkpt>
      <trkpt lat="43.64479" lon="1.39391">
        <ele>135</ele>
        <time>2024-06-19T10:19:49Z</time>
      </trkpt>
      <trkpt lat="43.64479" lon="1.39395">
        <ele>135</ele>
        <time>2024-06-19T10:19:50Z</time>
      </trkpt>
      <trkpt lat="43.6448" lon="1.39399">
        <ele>135</ele>
        <time>2024-06-19T10:19:51Z</time>
      </trkpt>
      <trkpt lat="43.6448" lon="1.39402">
        <ele>135</ele>
        <time>2024-06-19T10:19:52Z</time>
      </trkpt>
      <trkpt lat="43.6448" lon="1.39402">
        <ele>135</ele>
        <time>2024-06-19T10:19:53Z</time>
      </trkpt>
      <trkpt lat="43.6448" lon="1.39409">
        <ele>135</ele>
        <time>2024-06-19T10:19:54Z</time>
      </trkpt>
      <trkpt lat="43.64481" lon="1.39412">
        <ele>135</ele>
        <time>2024-06-19T10:19:55Z</time>
      </trkpt>
      <trkpt lat="43.64481" lon="1.39416">
        <ele>135</ele>
        <time>2024-06-19T10:19:56Z</time>
      </trkpt>
      <trkpt lat="43.64481" lon="1.39419">
        <ele>135</ele>
        <time>2024-06-19T10:19:57Z</time>
      </trkpt>
      <trkpt lat="43.64481" lon="1.39423">
        <ele>135</ele>
        <time>2024-06-19T10:19:58Z</time>
      </trkpt>
      <trkpt lat="43.64482" lon="1.39426">
        <ele>135</ele>
        <time>2024-06-19T10:19:59Z</time>
      </trkpt>
      <trkpt lat="43.64483" lon="1.3943">
        <ele>135</ele>
        <time>2024-06-19T10:20:00Z</time>
      </trkpt>
      <trkpt lat="43.64483" lon="1.39433">
        <ele>135</ele>
        <time>2024-06-19T10:20:01Z</time>
      </trkpt>
      <trkpt lat="43.64483" lon="1.39437">
        <ele>135</ele>
        <time>2024-06-19T10:20:02Z</time>
      </trkpt>
      <trkpt lat="43.64484" lon="1.3944">
        <ele>135</ele>
        <time>2024-06-19T10:20:03Z</time>
      </trkpt>
      <trkpt lat="43.64485" lon="1.39444">
        <ele>135</ele>
        <time>2024-06-19T10:20:04Z</time>
      </trkpt>
      <trkpt lat="43.64485" lon="1.39447">
        <ele>135</ele>
        <time>2024-06-19T10:20:05Z</time>
      </trkpt>
      <trkpt lat="43.64486" lon="1.39451">
        <ele>135</ele>
        <time>2024-06-19T10:20:06Z</time>
      </trkpt>
      <trkpt lat="43.64486" lon="1.39451">
        <ele>135</ele>
        <time>2024-06-19T10:20:07Z</time>
      </trkpt>
      <trkpt lat="43.64486" lon="1.39458">
        <ele>135</ele>
        <time>2024-06-19T10:20:08Z</time>
      </trkpt>
      <trkpt lat="43.64487" lon="1.39461">
        <ele>135</ele>
        <time>2024-06-19T10:20:09Z</time>
      </trkpt>
      <trkpt lat="43.64488" lon="1.39465">
        <ele>135</ele>
        <time>2024-06-19T10:20:10Z</time>
      </trkpt>
      <trkpt lat="43.64488" lon="1.39468">
        <ele>135</ele>
        <time>2024-06-19T10:20:11Z</time>
      </trkpt>
      <trkpt lat="43.64488" lon="1.39468">
        <ele>135</ele>
        <time>2024-06-19T10:20:12Z</time>
      </trkpt>
      <trkpt lat="43.6449" lon="1.39474">
        <ele>135</ele>
        <time>2024-06-19T10:20:13Z</time>
      </trkpt>
      <trkpt lat="43.64491" lon="1.39478">
        <ele>135</ele>
        <time>2024-06-19T10:20:14Z</time>
      </trkpt>
      <trkpt lat="43.64491" lon="1.39482">
        <ele>135</ele>
        <time>2024-06-19T10:20:15Z</time>
      </trkpt>
      <trkpt lat="43.64491" lon="1.39485">
        <ele>135</ele>
        <time>2024-06-19T10:20:16Z</time>
      </trkpt>
      <trkpt lat="43.64492" lon="1.39489">
        <ele>135</ele>
        <time>2024-06-19T10:20:17Z</time>
      </trkpt>
      <trkpt lat="43.64492" lon="1.39492">
        <ele>135</ele>
        <time>2024-06-19T10:20:18Z</time>
      </trkpt>
      <trkpt lat="43.64492" lon="1.39496">
        <ele>135</ele>
        <time>2024-06-19T10:20:19Z</time>
      </trkpt>
      <trkpt lat="43.64493" lon="1.39499">
        <ele>135</ele>
        <time>2024-06-19T10:20:20Z</time>
      </trkpt>
      <trkpt lat="43.64494" lon="1.39503">
        <ele>135</ele>
        <time>2024-06-19T10:20:21Z</time>
      </trkpt>
      <trkpt lat="43.64494" lon="1.39506">
        <ele>135</ele>
        <time>2024-06-19T10:20:22Z</time>
      </trkpt>
      <trkpt lat="43.64495" lon="1.39509">
        <ele>135</ele>
        <time>2024-06-19T10:20:23Z</time>
      </trkpt>
      <trkpt lat="43.64495" lon="1.39513">
        <ele>135</ele>
        <time>2024-06-19T10:20:24Z</time>
      </trkpt>
      <trkpt lat="43.64496" lon="1.39517">
        <ele>135</ele>
        <time>2024-06-19T10:20:25Z</time>
      </trkpt>
      <trkpt lat="43.64496" lon="1.39517">
        <ele>135</ele>
        <time>2024-06-19T10:20:26Z</time>
      </trkpt>
      <trkpt lat="43.64497" lon="1.39524">
        <ele>135</ele>
        <time>2024-06-19T10:20:27Z</time>
      </trkpt>
      <trkpt lat="43.64497" lon="1.39527">
        <ele>135</ele>
        <time>2024-06-19T10:20:28Z</time>
      </trkpt>
      <trkpt lat="43.64498" lon="1.39531">
        <ele>135</ele>
        <time>2024-06-19T10:20:29Z</time>
      </trkpt>
      <trkpt lat="43.64498" lon="1.39535">
        <ele>135</ele>
        <time>2024-06-19T10:20:30Z</time>
      </trkpt>
      <trkpt lat="43.64497" lon="1.39539">
        <ele>135</ele>
        <time>2024-06-19T10:20:31Z</time>
      </trkpt>
      <trkpt lat="43.64497" lon="1.39542">
        <ele>135</ele>
        <time>2024-06-19T10:20:32Z</time>
      </trkpt>
      <trkpt lat="43.64498" lon="1.39546">
        <ele>135</ele>
        <time>2024-06-19T10:20:33Z</time>
      </trkpt>
      <trkpt lat="43.64498" lon="1.3955">
        <ele>135</ele>
        <time>2024-06-19T10:20:34Z</time>
      </trkpt>
      <trkpt lat="43.64499" lon="1.39554">
        <ele>135</ele>
        <time>2024-06-19T10:20:35Z</time>
      </trkpt>
      <trkpt lat="43.64499" lon="1.39556">
        <ele>135</ele>
        <time>2024-06-19T10:20:36Z</time>
      </trkpt>
      <trkpt lat="43.645" lon="1.3956">
        <ele>135</ele>
        <time>2024-06-19T10:20:37Z</time>
      </trkpt>
      <trkpt lat="43.64501" lon="1.39563">
        <ele>135</ele>
        <time>2024-06-19T10:20:38Z</time>
      </trkpt>
      <trkpt lat="43.64501" lon="1.39566">
        <ele>135</ele>
        <time>2024-06-19T10:20:39Z</time>
      </trkpt>
      <trkpt lat="43.64502" lon="1.3957">
        <ele>135</ele>
        <time>2024-06-19T10:20:40Z</time>
      </trkpt>
      <trkpt lat="43.64502" lon="1.39573">
        <ele>135</ele>
        <time>2024-06-19T10:20:41Z</time>
      </trkpt>
      <trkpt lat="43.64502" lon="1.39577">
        <ele>136</ele>
        <time>2024-06-19T10:20:42Z</time>
      </trkpt>
      <trkpt lat="43.64503" lon="1.3958">
        <ele>136</ele>
        <time>2024-06-19T10:20:43Z</time>
      </trkpt>
      <trkpt lat="43.64503" lon="1.39584">
        <ele>135</ele>
        <time>2024-06-19T10:20:44Z</time>
      </trkpt>
      <trkpt lat="43.64503" lon="1.39584">
        <ele>135</ele>
        <time>2024-06-19T10:20:45Z</time>
      </trkpt>
      <trkpt lat="43.64504" lon="1.39591">
        <ele>135</ele>
        <time>2024-06-19T10:20:46Z</time>
      </trkpt>
      <trkpt lat="43.64504" lon="1.39594">
        <ele>136</ele>
        <time>2024-06-19T10:20:47Z</time>
      </trkpt>
      <trkpt lat="43.64504" lon="1.39598">
        <ele>136</ele>
        <time>2024-06-19T10:20:48Z</time>
      </trkpt>
      <trkpt lat="43.64504" lon="1.39601">
        <ele>136</ele>
        <time>2024-06-19T10:20:49Z</time>
      </trkpt>
      <trkpt lat="43.64504" lon="1.39605">
        <ele>135</ele>
        <time>2024-06-19T10:20:50Z</time>
      </trkpt>
      <trkpt lat="43.64505" lon="1.39609">
        <ele>135</ele>
        <time>2024-06-19T10:20:51Z</time>
      </trkpt>
      <trkpt lat="43.64505" lon="1.39612">
        <ele>135</ele>
        <time>2024-06-19T10:20:52Z</time>
      </trkpt>
      <trkpt lat="43.64505" lon="1.39616">
        <ele>135</ele>
        <time>2024-06-19T10:20:53Z</time>
      </trkpt>
      <trkpt lat="43.64505" lon="1.39619">
        <ele>135</ele>
        <time>2024-06-19T10:20:54Z</time>
      </trkpt>
      <trkpt lat="43.64505" lon="1.39623">
        <ele>135</ele>
        <time>2024-06-19T10:20:55Z</time>
      </trkpt>
      <trkpt lat="43.64505" lon="1.39627">
        <ele>135</ele>
        <time>2024-06-19T10:20:56Z</time>
      </trkpt>
      <trkpt lat="43.64505" lon="1.39631">
        <ele>135</ele>
        <time>2024-06-19T10:20:57Z</time>
      </trkpt>
      <trkpt lat="43.64505" lon="1.39634">
        <ele>135</ele>
        <time>2024-06-19T10:20:58Z</time>
      </trkpt>
      <trkpt lat="43.64506" lon="1.39637">
        <ele>135</ele>
        <time>2024-06-19T10:20:59Z</time>
      </trkpt>
      <trkpt lat="43.64506" lon="1.39641">
        <ele>136</ele>
        <time>2024-06-19T10:21:00Z</time>
      </trkpt>
      <trkpt lat="43.64506" lon="1.39644">
        <ele>135</ele>
        <time>2024-06-19T10:21:01Z</time>
      </trkpt>
      <trkpt lat="43.64506" lon="1.39648">
        <ele>135</ele>
        <time>2024-06-19T10:21:02Z</time>
      </trkpt>
      <trkpt lat="43.64506" lon="1.39652">
        <ele>135</ele>
        <time>2024-06-19T10:21:03Z</time>
      </trkpt>
      <trkpt lat="43.64506" lon="1.39655">
        <ele>135</ele>
        <time>2024-06-19T10:21:04Z</time>
      </trkpt>
      <trkpt lat="43.64506" lon="1.39659">
        <ele>135</ele>
        <time>2024-06-19T10:21:05Z</time>
      </trkpt>
      <trkpt lat="43.64506" lon="1.39663">
        <ele>135</ele>
        <time>2024-06-19T10:21:06Z</time>
      </trkpt>
      <trkpt lat="43.64506" lon="1.39666">
        <ele>135</ele>
        <time>2024-06-19T10:21:07Z</time>
      </trkpt>
      <trkpt lat="43.64505" lon="1.3967">
        <ele>135</ele>
        <time>2024-06-19T10:21:08Z</time>
      </trkpt>
      <trkpt lat="43.64505" lon="1.39674">
        <ele>135</ele>
        <time>2024-06-19T10:21:09Z</time>
      </trkpt>
      <trkpt lat="43.64506" lon="1.39678">
        <ele>135</ele>
        <time>2024-06-19T10:21:10Z</time>
      </trkpt>
      <trkpt lat="43.64506" lon="1.39682">
        <ele>135</ele>
        <time>2024-06-19T10:21:11Z</time>
      </trkpt>
      <trkpt lat="43.64506" lon="1.39685">
        <ele>135</ele>
        <time>2024-06-19T10:21:12Z</time>
      </trkpt>
      <trkpt lat="43.64506" lon="1.39689">
        <ele>135</ele>
        <time>2024-06-19T10:21:13Z</time>
      </trkpt>
      <trkpt lat="43.64506" lon="1.39693">
        <ele>135</ele>
        <time>2024-06-19T10:21:14Z</time>
      </trkpt>
      <trkpt lat="43.64506" lon="1.39696">
        <ele>135</ele>
        <time>2024-06-19T10:21:15Z</time>
      </trkpt>
      <trkpt lat="43.64506" lon="1.397">
        <ele>135</ele>
        <time>2024-06-19T10:21:16Z</time>
      </trkpt>
      <trkpt lat="43.64506" lon="1.39703">
        <ele>135</ele>
        <time>2024-06-19T10:21:17Z</time>
      </trkpt>
      <trkpt lat="43.64506" lon="1.39707">
        <ele>135</ele>
        <time>2024-06-19T10:21:18Z</time>
      </trkpt>
      <trkpt lat="43.64505" lon="1.39711">
        <ele>135</ele>
        <time>2024-06-19T10:21:19Z</time>
      </trkpt>
      <trkpt lat="43.64505" lon="1.39714">
        <ele>135</ele>
        <time>2024-06-19T10:21:20Z</time>
      </trkpt>
      <trkpt lat="43.64506" lon="1.39718">
        <ele>135</ele>
        <time>2024-06-19T10:21:21Z</time>
      </trkpt>
      <trkpt lat="43.64506" lon="1.39721">
        <ele>135</ele>
        <time>2024-06-19T10:21:22Z</time>
      </trkpt>
      <trkpt lat="43.64506" lon="1.39721">
        <ele>135</ele>
        <time>2024-06-19T10:21:23Z</time>
      </trkpt>
      <trkpt lat="43.64505" lon="1.39728">
        <ele>135</ele>
        <time>2024-06-19T10:21:24Z</time>
      </trkpt>
      <trkpt lat="43.64506" lon="1.39732">
        <ele>135</ele>
        <time>2024-06-19T10:21:25Z</time>
      </trkpt>
      <trkpt lat="43.64506" lon="1.39735">
        <ele>135</ele>
        <time>2024-06-19T10:21:26Z</time>
      </trkpt>
      <trkpt lat="43.64506" lon="1.39739">
        <ele>135</ele>
        <time>2024-06-19T10:21:27Z</time>
      </trkpt>
      <trkpt lat="43.64506" lon="1.39742">
        <ele>135</ele>
        <time>2024-06-19T10:21:28Z</time>
      </trkpt>
      <trkpt lat="43.64506" lon="1.39746">
        <ele>135</ele>
        <time>2024-06-19T10:21:29Z</time>
      </trkpt>
      <trkpt lat="43.64506" lon="1.39749">
        <ele>135</ele>
        <time>2024-06-19T10:21:30Z</time>
      </trkpt>
      <trkpt lat="43.64506" lon="1.39752">
        <ele>135</ele>
        <time>2024-06-19T10:21:31Z</time>
      </trkpt>
      <trkpt lat="43.64506" lon="1.39756">
        <ele>135</ele>
        <time>2024-06-19T10:21:32Z</time>
      </trkpt>
      <trkpt lat="43.64506" lon="1.39759">
        <ele>135</ele>
        <time>2024-06-19T10:21:33Z</time>
      </trkpt>
      <trkpt lat="43.64506" lon="1.39763">
        <ele>135</ele>
        <time>2024-06-19T10:21:34Z</time>
      </trkpt>
      <trkpt lat="43.64505" lon="1.39767">
        <ele>135</ele>
        <time>2024-06-19T10:21:35Z</time>
      </trkpt>
      <trkpt lat="43.64505" lon="1.39771">
        <ele>135</ele>
        <time>2024-06-19T10:21:36Z</time>
      </trkpt>
      <trkpt lat="43.64505" lon="1.39774">
        <ele>135</ele>
        <time>2024-06-19T10:21:37Z</time>
      </trkpt>
      <trkpt lat="43.64505" lon="1.39778">
        <ele>135</ele>
        <time>2024-06-19T10:21:38Z</time>
      </trkpt>
      <trkpt lat="43.64505" lon="1.39782">
        <ele>135</ele>
        <time>2024-06-19T10:21:39Z</time>
      </trkpt>
      <trkpt lat="43.64505" lon="1.39785">
        <ele>135</ele>
        <time>2024-06-19T10:21:40Z</time>
      </trkpt>
      <trkpt lat="43.64505" lon="1.39789">
        <ele>135</ele>
        <time>2024-06-19T10:21:41Z</time>
      </trkpt>
      <trkpt lat="43.64505" lon="1.39789">
        <ele>135</ele>
        <time>2024-06-19T10:21:42Z</time>
      </trkpt>
      <trkpt lat="43.64505" lon="1.39796">
        <ele>135</ele>
        <time>2024-06-19T10:21:43Z</time>
      </trkpt>
      <trkpt lat="43.64505" lon="1.398">
        <ele>135</ele>
        <time>2024-06-19T10:21:44Z</time>
      </trkpt>
      <trkpt lat="43.64505" lon="1.39803">
        <ele>135</ele>
        <time>2024-06-19T10:21:45Z</time>
      </trkpt>
      <trkpt lat="43.64505" lon="1.39807">
        <ele>136</ele>
        <time>2024-06-19T10:21:46Z</time>
      </trkpt>
      <trkpt lat="43.64505" lon="1.39807">
        <ele>136</ele>
        <time>2024-06-19T10:21:47Z</time>
      </trkpt>
      <trkpt lat="43.64504" lon="1.39814">
        <ele>135</ele>
        <time>2024-06-19T10:21:48Z</time>
      </trkpt>
      <trkpt lat="43.64504" lon="1.39818">
        <ele>135</ele>
        <time>2024-06-19T10:21:49Z</time>
      </trkpt>
      <trkpt lat="43.64504" lon="1.39821">
        <ele>135</ele>
        <time>2024-06-19T10:21:50Z</time>
      </trkpt>
      <trkpt lat="43.64504" lon="1.39825">
        <ele>135</ele>
        <time>2024-06-19T10:21:51Z</time>
      </trkpt>
      <trkpt lat="43.64504" lon="1.39829">
        <ele>135</ele>
        <time>2024-06-19T10:21:52Z</time>
      </trkpt>
      <trkpt lat="43.64503" lon="1.39833">
        <ele>135</ele>
        <time>2024-06-19T10:21:53Z</time>
      </trkpt>
      <trkpt lat="43.64503" lon="1.39837">
        <ele>135</ele>
        <time>2024-06-19T10:21:54Z</time>
      </trkpt>
      <trkpt lat="43.64503" lon="1.3984">
        <ele>135</ele>
        <time>2024-06-19T10:21:55Z</time>
      </trkpt>
      <trkpt lat="43.64503" lon="1.39844">
        <ele>135</ele>
        <time>2024-06-19T10:21:56Z</time>
      </trkpt>
      <trkpt lat="43.64503" lon="1.39848">
        <ele>135</ele>
        <time>2024-06-19T10:21:57Z</time>
      </trkpt>
      <trkpt lat="43.64503" lon="1.39851">
        <ele>135</ele>
        <time>2024-06-19T10:21:58Z</time>
      </trkpt>
      <trkpt lat="43.64503" lon="1.39855">
        <ele>135</ele>
        <time>2024-06-19T10:21:59Z</time>
      </trkpt>
      <trkpt lat="43.64502" lon="1.39858">
        <ele>135</ele>
        <time>2024-06-19T10:22:00Z</time>
      </trkpt>
      <trkpt lat="43.64503" lon="1.39862">
        <ele>135</ele>
        <time>2024-06-19T10:22:01Z</time>
      </trkpt>
      <trkpt lat="43.64503" lon="1.39866">
        <ele>135</ele>
        <time>2024-06-19T10:22:02Z</time>
      </trkpt>
      <trkpt lat="43.64502" lon="1.3987">
        <ele>135</ele>
        <time>2024-06-19T10:22:03Z</time>
      </trkpt>
      <trkpt lat="43.64502" lon="1.39873">
        <ele>135</ele>
        <time>2024-06-19T10:22:04Z</time>
      </trkpt>
      <trkpt lat="43.64502" lon="1.39877">
        <ele>135</ele>
        <time>2024-06-19T10:22:05Z</time>
      </trkpt>
      <trkpt lat="43.64502" lon="1.3988">
        <ele>135</ele>
        <time>2024-06-19T10:22:06Z</time>
      </trkpt>
      <trkpt lat="43.64502" lon="1.39884">
        <ele>134</ele>
        <time>2024-06-19T10:22:07Z</time>
      </trkpt>
      <trkpt lat="43.64501" lon="1.39888">
        <ele>134</ele>
        <time>2024-06-19T10:22:08Z</time>
      </trkpt>
      <trkpt lat="43.64501" lon="1.39892">
        <ele>135</ele>
        <time>2024-06-19T10:22:09Z</time>
      </trkpt>
      <trkpt lat="43.64501" lon="1.39895">
        <ele>135</ele>
        <time>2024-06-19T10:22:10Z</time>
      </trkpt>
      <trkpt lat="43.64501" lon="1.39899">
        <ele>134</ele>
        <time>2024-06-19T10:22:11Z</time>
      </trkpt>
      <trkpt lat="43.64501" lon="1.39902">
        <ele>134</ele>
        <time>2024-06-19T10:22:12Z</time>
      </trkpt>
      <trkpt lat="43.64501" lon="1.39906">
        <ele>134</ele>
        <time>2024-06-19T10:22:13Z</time>
      </trkpt>
      <trkpt lat="43.64501" lon="1.39909">
        <ele>134</ele>
        <time>2024-06-19T10:22:14Z</time>
      </trkpt>
      <trkpt lat="43.64502" lon="1.39913">
        <ele>134</ele>
        <time>2024-06-19T10:22:15Z</time>
      </trkpt>
      <trkpt lat="43.64502" lon="1.39916">
        <ele>134</ele>
        <time>2024-06-19T10:22:16Z</time>
      </trkpt>
      <trkpt lat="43.64503" lon="1.3992">
        <ele>134</ele>
        <time>2024-06-19T10:22:17Z</time>
      </trkpt>
      <trkpt lat="43.64504" lon="1.39923">
        <ele>134</ele>
        <time>2024-06-19T10:22:18Z</time>
      </trkpt>
      <trkpt lat="43.64506" lon="1.39926">
        <ele>134</ele>
        <time>2024-06-19T10:22:19Z</time>
      </trkpt>
      <trkpt lat="43.64506" lon="1.39926">
        <ele>134</ele>
        <time>2024-06-19T10:22:20Z</time>
      </trkpt>
      <trkpt lat="43.64509" lon="1.39931">
        <ele>135</ele>
        <time>2024-06-19T10:22:21Z</time>
      </trkpt>
      <trkpt lat="43.64511" lon="1.39935">
        <ele>135</ele>
        <time>2024-06-19T10:22:22Z</time>
      </trkpt>
      <trkpt lat="43.64511" lon="1.39939">
        <ele>135</ele>
        <time>2024-06-19T10:22:23Z</time>
      </trkpt>
      <trkpt lat="43.64511" lon="1.39942">
        <ele>135</ele>
        <time>2024-06-19T10:22:24Z</time>
      </trkpt>
      <trkpt lat="43.64511" lon="1.39945">
        <ele>135</ele>
        <time>2024-06-19T10:22:25Z</time>
      </trkpt>
      <trkpt lat="43.64509" lon="1.39948">
        <ele>134</ele>
        <time>2024-06-19T10:22:26Z</time>
      </trkpt>
      <trkpt lat="43.64508" lon="1.3995">
        <ele>134</ele>
        <time>2024-06-19T10:22:27Z</time>
      </trkpt>
      <trkpt lat="43.64505" lon="1.39952">
        <ele>134</ele>
        <time>2024-06-19T10:22:28Z</time>
      </trkpt>
      <trkpt lat="43.64503" lon="1.39953">
        <ele>134</ele>
        <time>2024-06-19T10:22:29Z</time>
      </trkpt>
      <trkpt lat="43.645" lon="1.39953">
        <ele>134</ele>
        <time>2024-06-19T10:22:30Z</time>
      </trkpt>
      <trkpt lat="43.64497" lon="1.39954">
        <ele>134</ele>
        <time>2024-06-19T10:22:31Z</time>
      </trkpt>
      <trkpt lat="43.64494" lon="1.39955">
        <ele>134</ele>
        <time>2024-06-19T10:22:32Z</time>
      </trkpt>
      <trkpt lat="43.64492" lon="1.39956">
        <ele>134</ele>
        <time>2024-06-19T10:22:33Z</time>
      </trkpt>
      <trkpt lat="43.6449" lon="1.39957">
        <ele>134</ele>
        <time>2024-06-19T10:22:34Z</time>
      </trkpt>
      <trkpt lat="43.64487" lon="1.39958">
        <ele>134</ele>
        <time>2024-06-19T10:22:35Z</time>
      </trkpt>
      <trkpt lat="43.64484" lon="1.39959">
        <ele>134</ele>
        <time>2024-06-19T10:22:36Z</time>
      </trkpt>
      <trkpt lat="43.64481" lon="1.3996">
        <ele>134</ele>
        <time>2024-06-19T10:22:37Z</time>
      </trkpt>
      <trkpt lat="43.64477" lon="1.3996">
        <ele>134</ele>
        <time>2024-06-19T10:22:38Z</time>
      </trkpt>
      <trkpt lat="43.64477" lon="1.3996">
        <ele>134</ele>
        <time>2024-06-19T10:22:39Z</time>
      </trkpt>
      <trkpt lat="43.64471" lon="1.39962">
        <ele>133</ele>
        <time>2024-06-19T10:22:40Z</time>
      </trkpt>
      <trkpt lat="43.64468" lon="1.39962">
        <ele>133</ele>
        <time>2024-06-19T10:22:41Z</time>
      </trkpt>
      <trkpt lat="43.64465" lon="1.39963">
        <ele>133</ele>
        <time>2024-06-19T10:22:42Z</time>
      </trkpt>
      <trkpt lat="43.64462" lon="1.39963">
        <ele>133</ele>
        <time>2024-06-19T10:22:43Z</time>
      </trkpt>
      <trkpt lat="43.64459" lon="1.39963">
        <ele>133</ele>
        <time>2024-06-19T10:22:44Z</time>
      </trkpt>
      <trkpt lat="43.64456" lon="1.39963">
        <ele>133</ele>
        <time>2024-06-19T10:22:45Z</time>
      </trkpt>
      <trkpt lat="43.64453" lon="1.39964">
        <ele>133</ele>
        <time>2024-06-19T10:22:46Z</time>
      </trkpt>
      <trkpt lat="43.64451" lon="1.39964">
        <ele>133</ele>
        <time>2024-06-19T10:22:47Z</time>
      </trkpt>
      <trkpt lat="43.64448" lon="1.39963">
        <ele>132</ele>
        <time>2024-06-19T10:22:48Z</time>
      </trkpt>
      <trkpt lat="43.64445" lon="1.39964">
        <ele>133</ele>
        <time>2024-06-19T10:22:49Z</time>
      </trkpt>
      <trkpt lat="43.64443" lon="1.39964">
        <ele>133</ele>
        <time>2024-06-19T10:22:50Z</time>
      </trkpt>
      <trkpt lat="43.64439" lon="1.39964">
        <ele>133</ele>
        <time>2024-06-19T10:22:51Z</time>
      </trkpt>
      <trkpt lat="43.64437" lon="1.39964">
        <ele>132</ele>
        <time>2024-06-19T10:22:52Z</time>
      </trkpt>
      <trkpt lat="43.64434" lon="1.39964">
        <ele>132</ele>
        <time>2024-06-19T10:22:53Z</time>
      </trkpt>
      <trkpt lat="43.64432" lon="1.39964">
        <ele>132</ele>
        <time>2024-06-19T10:22:54Z</time>
      </trkpt>
      <trkpt lat="43.64429" lon="1.39963">
        <ele>132</ele>
        <time>2024-06-19T10:22:55Z</time>
      </trkpt>
      <trkpt lat="43.64426" lon="1.39963">
        <ele>132</ele>
        <time>2024-06-19T10:22:56Z</time>
      </trkpt>
      <trkpt lat="43.64423" lon="1.39963">
        <ele>132</ele>
        <time>2024-06-19T10:22:57Z</time>
      </trkpt>
      <trkpt lat="43.64421" lon="1.39963">
        <ele>132</ele>
        <time>2024-06-19T10:22:58Z</time>
      </trkpt>
      <trkpt lat="43.64418" lon="1.39963">
        <ele>132</ele>
        <time>2024-06-19T10:22:59Z</time>
      </trkpt>
      <trkpt lat="43.64415" lon="1.39963">
        <ele>132</ele>
        <time>2024-06-19T10:23:00Z</time>
      </trkpt>
      <trkpt lat="43.64412" lon="1.39962">
        <ele>132</ele>
        <time>2024-06-19T10:23:01Z</time>
      </trkpt>
      <trkpt lat="43.6441" lon="1.39962">
        <ele>132</ele>
        <time>2024-06-19T10:23:02Z</time>
      </trkpt>
      <trkpt lat="43.6441" lon="1.39962">
        <ele>132</ele>
        <time>2024-06-19T10:23:03Z</time>
      </trkpt>
      <trkpt lat="43.64404" lon="1.39962">
        <ele>132</ele>
        <time>2024-06-19T10:23:04Z</time>
      </trkpt>
      <trkpt lat="43.64402" lon="1.39961">
        <ele>132</ele>
        <time>2024-06-19T10:23:05Z</time>
      </trkpt>
      <trkpt lat="43.64399" lon="1.39961">
        <ele>132</ele>
        <time>2024-06-19T10:23:06Z</time>
      </trkpt>
      <trkpt lat="43.64397" lon="1.39961">
        <ele>132</ele>
        <time>2024-06-19T10:23:07Z</time>
      </trkpt>
      <trkpt lat="43.64394" lon="1.3996">
        <ele>132</ele>
        <time>2024-06-19T10:23:08Z</time>
      </trkpt>
      <trkpt lat="43.64391" lon="1.3996">
        <ele>132</ele>
        <time>2024-06-19T10:23:09Z</time>
      </trkpt>
      <trkpt lat="43.64389" lon="1.3996">
        <ele>132</ele>
        <time>2024-06-19T10:23:10Z</time>
      </trkpt>
      <trkpt lat="43.64386" lon="1.39959">
        <ele>132</ele>
        <time>2024-06-19T10:23:11Z</time>
      </trkpt>
      <trkpt lat="43.64384" lon="1.39959">
        <ele>132</ele>
        <time>2024-06-19T10:23:12Z</time>
      </trkpt>
      <trkpt lat="43.64382" lon="1.39959">
        <ele>132</ele>
        <time>2024-06-19T10:23:13Z</time>
      </trkpt>
      <trkpt lat="43.64379" lon="1.39959">
        <ele>132</ele>
        <time>2024-06-19T10:23:14Z</time>
      </trkpt>
      <trkpt lat="43.64379" lon="1.39959">
        <ele>133</ele>
        <time>2024-06-19T10:23:15Z</time>
      </trkpt>
      <trkpt lat="43.64374" lon="1.39958">
        <ele>133</ele>
        <time>2024-06-19T10:23:16Z</time>
      </trkpt>
      <trkpt lat="43.64372" lon="1.39959">
        <ele>132</ele>
        <time>2024-06-19T10:23:17Z</time>
      </trkpt>
      <trkpt lat="43.64369" lon="1.39958">
        <ele>132</ele>
        <time>2024-06-19T10:23:18Z</time>
      </trkpt>
      <trkpt lat="43.64367" lon="1.39958">
        <ele>132</ele>
        <time>2024-06-19T10:23:19Z</time>
      </trkpt>
      <trkpt lat="43.64365" lon="1.39958">
        <ele>132</ele>
        <time>2024-06-19T10:23:20Z</time>
      </trkpt>
      <trkpt lat="43.64362" lon="1.39957">
        <ele>132</ele>
        <time>2024-06-19T10:23:21Z</time>
      </trkpt>
      <trkpt lat="43.6436" lon="1.39956">
        <ele>133</ele>
        <time>2024-06-19T10:23:22Z</time>
      </trkpt>
      <trkpt lat="43.64357" lon="1.39955">
        <ele>133</ele>
        <time>2024-06-19T10:23:23Z</time>
      </trkpt>
      <trkpt lat="43.64354" lon="1.39955">
        <ele>133</ele>
        <time>2024-06-19T10:23:24Z</time>
      </trkpt>
      <trkpt lat="43.64351" lon="1.39954">
        <ele>132</ele>
        <time>2024-06-19T10:23:25Z</time>
      </trkpt>
      <trkpt lat="43.64348" lon="1.39953">
        <ele>132</ele>
        <time>2024-06-19T10:23:26Z</time>
      </trkpt>
      <trkpt lat="43.64345" lon="1.39952">
        <ele>132</ele>
        <time>2024-06-19T10:23:27Z</time>
      </trkpt>
      <trkpt lat="43.64342" lon="1.39951">
        <ele>132</ele>
        <time>2024-06-19T10:23:28Z</time>
      </trkpt>
      <trkpt lat="43.64339" lon="1.39951">
        <ele>132</ele>
        <time>2024-06-19T10:23:29Z</time>
      </trkpt>
      <trkpt lat="43.64337" lon="1.3995">
        <ele>132</ele>
        <time>2024-06-19T10:23:30Z</time>
      </trkpt>
      <trkpt lat="43.64334" lon="1.39949">
        <ele>132</ele>
        <time>2024-06-19T10:23:31Z</time>
      </trkpt>
      <trkpt lat="43.64331" lon="1.39949">
        <ele>132</ele>
        <time>2024-06-19T10:23:32Z</time>
      </trkpt>
      <trkpt lat="43.64329" lon="1.39949">
        <ele>133</ele>
        <time>2024-06-19T10:23:33Z</time>
      </trkpt>
      <trkpt lat="43.64329" lon="1.39949">
        <ele>133</ele>
        <time>2024-06-19T10:23:34Z</time>
      </trkpt>
      <trkpt lat="43.64322" lon="1.39949">
        <ele>133</ele>
        <time>2024-06-19T10:23:35Z</time>
      </trkpt>
      <trkpt lat="43.64319" lon="1.39949">
        <ele>133</ele>
        <time>2024-06-19T10:23:36Z</time>
      </trkpt>
      <trkpt lat="43.64317" lon="1.39948">
        <ele>133</ele>
        <time>2024-06-19T10:23:37Z</time>
      </trkpt>
      <trkpt lat="43.64314" lon="1.39947">
        <ele>133</ele>
        <time>2024-06-19T10:23:38Z</time>
      </trkpt>
      <trkpt lat="43.64311" lon="1.39946">
        <ele>133</ele>
        <time>2024-06-19T10:23:39Z</time>
      </trkpt>
      <trkpt lat="43.64308" lon="1.39946">
        <ele>133</ele>
        <time>2024-06-19T10:23:40Z</time>
      </trkpt>
      <trkpt lat="43.64308" lon="1.39946">
        <ele>133</ele>
        <time>2024-06-19T10:23:41Z</time>
      </trkpt>
      <trkpt lat="43.64303" lon="1.39944">
        <ele>133</ele>
        <time>2024-06-19T10:23:42Z</time>
      </trkpt>
      <trkpt lat="43.643" lon="1.39943">
        <ele>133</ele>
        <time>2024-06-19T10:23:43Z</time>
      </trkpt>
      <trkpt lat="43.64298" lon="1.39943">
        <ele>133</ele>
        <time>2024-06-19T10:23:44Z</time>
      </trkpt>
      <trkpt lat="43.64296" lon="1.39942">
        <ele>133</ele>
        <time>2024-06-19T10:23:45Z</time>
      </trkpt>
      <trkpt lat="43.64294" lon="1.39941">
        <ele>133</ele>
        <time>2024-06-19T10:23:46Z</time>
      </trkpt>
      <trkpt lat="43.64293" lon="1.3994">
        <ele>133</ele>
        <time>2024-06-19T10:23:47Z</time>
      </trkpt>
      <trkpt lat="43.64291" lon="1.39938">
        <ele>133</ele>
        <time>2024-06-19T10:23:48Z</time>
      </trkpt>
      <trkpt lat="43.64288" lon="1.39938">
        <ele>133</ele>
        <time>2024-06-19T10:23:49Z</time>
      </trkpt>
      <trkpt lat="43.64285" lon="1.39937">
        <ele>133</ele>
        <time>2024-06-19T10:23:50Z</time>
      </trkpt>
      <trkpt lat="43.64282" lon="1.39936">
        <ele>133</ele>
        <time>2024-06-19T10:23:51Z</time>
      </trkpt>
      <trkpt lat="43.6428" lon="1.39935">
        <ele>133</ele>
        <time>2024-06-19T10:23:52Z</time>
      </trkpt>
      <trkpt lat="43.64277" lon="1.39934">
        <ele>133</ele>
        <time>2024-06-19T10:23:53Z</time>
      </trkpt>
      <trkpt lat="43.64274" lon="1.39933">
        <ele>133</ele>
        <time>2024-06-19T10:23:54Z</time>
      </trkpt>
      <trkpt lat="43.64271" lon="1.39933">
        <ele>133</ele>
        <time>2024-06-19T10:23:55Z</time>
      </trkpt>
      <trkpt lat="43.64269" lon="1.39933">
        <ele>133</ele>
        <time>2024-06-19T10:23:56Z</time>
      </trkpt>
      <trkpt lat="43.64266" lon="1.39932">
        <ele>133</ele>
        <time>2024-06-19T10:23:57Z</time>
      </trkpt>
      <trkpt lat="43.64263" lon="1.39932">
        <ele>133</ele>
        <time>2024-06-19T10:23:58Z</time>
      </trkpt>
      <trkpt lat="43.6426" lon="1.39931">
        <ele>133</ele>
        <time>2024-06-19T10:23:59Z</time>
      </trkpt>
      <trkpt lat="43.6426" lon="1.39931">
        <ele>133</ele>
        <time>2024-06-19T10:24:00Z</time>
      </trkpt>
      <trkpt lat="43.64255" lon="1.39931">
        <ele>133</ele>
        <time>2024-06-19T10:24:01Z</time>
      </trkpt>
      <trkpt lat="43.64252" lon="1.39931">
        <ele>133</ele>
        <time>2024-06-19T10:24:02Z</time>
      </trkpt>
      <trkpt lat="43.6425" lon="1.39931">
        <ele>133</ele>
        <time>2024-06-19T10:24:03Z</time>
      </trkpt>
      <trkpt lat="43.64248" lon="1.39931">
        <ele>133</ele>
        <time>2024-06-19T10:24:04Z</time>
      </trkpt>
      <trkpt lat="43.64245" lon="1.39931">
        <ele>133</ele>
        <time>2024-06-19T10:24:05Z</time>
      </trkpt>
      <trkpt lat="43.64243" lon="1.39931">
        <ele>133</ele>
        <time>2024-06-19T10:24:06Z</time>
      </trkpt>
      <trkpt lat="43.6424" lon="1.39931">
        <ele>133</ele>
        <time>2024-06-19T10:24:07Z</time>
      </trkpt>
      <trkpt lat="43.64238" lon="1.39931">
        <ele>133</ele>
        <time>2024-06-19T10:24:08Z</time>
      </trkpt>
      <trkpt lat="43.64238" lon="1.39931">
        <ele>133</ele>
        <time>2024-06-19T10:24:09Z</time>
      </trkpt>
      <trkpt lat="43.64235" lon="1.39932">
        <ele>133</ele>
        <time>2024-06-19T10:24:10Z</time>
      </trkpt>
      <trkpt lat="43.64233" lon="1.39933">
        <ele>133</ele>
        <time>2024-06-19T10:24:11Z</time>
      </trkpt>
      <trkpt lat="43.64233" lon="1.39933">
        <ele>133</ele>
        <time>2024-06-19T10:24:12Z</time>
      </trkpt>
      <trkpt lat="43.64229" lon="1.39936">
        <ele>133</ele>
        <time>2024-06-19T10:24:13Z</time>
      </trkpt>
      <trkpt lat="43.64227" lon="1.39938">
        <ele>133</ele>
        <time>2024-06-19T10:24:14Z</time>
      </trkpt>
      <trkpt lat="43.64224" lon="1.3994">
        <ele>133</ele>
        <time>2024-06-19T10:24:15Z</time>
      </trkpt>
      <trkpt lat="43.64222" lon="1.39942">
        <ele>133</ele>
        <time>2024-06-19T10:24:16Z</time>
      </trkpt>
      <trkpt lat="43.6422" lon="1.39945">
        <ele>133</ele>
        <time>2024-06-19T10:24:17Z</time>
      </trkpt>
      <trkpt lat="43.64218" lon="1.39947">
        <ele>133</ele>
        <time>2024-06-19T10:24:18Z</time>
      </trkpt>
      <trkpt lat="43.64216" lon="1.39949">
        <ele>132</ele>
        <time>2024-06-19T10:24:19Z</time>
      </trkpt>
      <trkpt lat="43.64215" lon="1.39951">
        <ele>132</ele>
        <time>2024-06-19T10:24:20Z</time>
      </trkpt>
      <trkpt lat="43.64213" lon="1.39953">
        <ele>132</ele>
        <time>2024-06-19T10:24:21Z</time>
      </trkpt>
      <trkpt lat="43.64211" lon="1.39955">
        <ele>132</ele>
        <time>2024-06-19T10:24:22Z</time>
      </trkpt>
      <trkpt lat="43.64209" lon="1.39958">
        <ele>132</ele>
        <time>2024-06-19T10:24:23Z</time>
      </trkpt>
      <trkpt lat="43.64206" lon="1.3996">
        <ele>133</ele>
        <time>2024-06-19T10:24:24Z</time>
      </trkpt>
      <trkpt lat="43.64204" lon="1.39962">
        <ele>133</ele>
        <time>2024-06-19T10:24:25Z</time>
      </trkpt>
      <trkpt lat="43.64202" lon="1.39964">
        <ele>133</ele>
        <time>2024-06-19T10:24:26Z</time>
      </trkpt>
      <trkpt lat="43.642" lon="1.39965">
        <ele>133</ele>
        <time>2024-06-19T10:24:27Z</time>
      </trkpt>
      <trkpt lat="43.64197" lon="1.39966">
        <ele>133</ele>
        <time>2024-06-19T10:24:28Z</time>
      </trkpt>
      <trkpt lat="43.64195" lon="1.39967">
        <ele>133</ele>
        <time>2024-06-19T10:24:29Z</time>
      </trkpt>
      <trkpt lat="43.64192" lon="1.39968">
        <ele>133</ele>
        <time>2024-06-19T10:24:30Z</time>
      </trkpt>
      <trkpt lat="43.64189" lon="1.3997">
        <ele>133</ele>
        <time>2024-06-19T10:24:31Z</time>
      </trkpt>
      <trkpt lat="43.64189" lon="1.3997">
        <ele>132</ele>
        <time>2024-06-19T10:24:32Z</time>
      </trkpt>
      <trkpt lat="43.64184" lon="1.39972">
        <ele>132</ele>
        <time>2024-06-19T10:24:33Z</time>
      </trkpt>
      <trkpt lat="43.64181" lon="1.39973">
        <ele>132</ele>
        <time>2024-06-19T10:24:34Z</time>
      </trkpt>
      <trkpt lat="43.64178" lon="1.39973">
        <ele>132</ele>
        <time>2024-06-19T10:24:35Z</time>
      </trkpt>
      <trkpt lat="43.64176" lon="1.39974">
        <ele>132</ele>
        <time>2024-06-19T10:24:36Z</time>
      </trkpt>
      <trkpt lat="43.64173" lon="1.39975">
        <ele>132</ele>
        <time>2024-06-19T10:24:37Z</time>
      </trkpt>
      <trkpt lat="43.6417" lon="1.39975">
        <ele>132</ele>
        <time>2024-06-19T10:24:38Z</time>
      </trkpt>
      <trkpt lat="43.64168" lon="1.39976">
        <ele>132</ele>
        <time>2024-06-19T10:24:39Z</time>
      </trkpt>
      <trkpt lat="43.64166" lon="1.39977">
        <ele>132</ele>
        <time>2024-06-19T10:24:40Z</time>
      </trkpt>
      <trkpt lat="43.64163" lon="1.39978">
        <ele>132</ele>
        <time>2024-06-19T10:24:41Z</time>
      </trkpt>
      <trkpt lat="43.64161" lon="1.39979">
        <ele>132</ele>
        <time>2024-06-19T10:24:42Z</time>
      </trkpt>
      <trkpt lat="43.64158" lon="1.39982">
        <ele>132</ele>
        <time>2024-06-19T10:24:43Z</time>
      </trkpt>
      <trkpt lat="43.64156" lon="1.39984">
        <ele>132</ele>
        <time>2024-06-19T10:24:44Z</time>
      </trkpt>
      <trkpt lat="43.64155" lon="1.39987">
        <ele>132</ele>
        <time>2024-06-19T10:24:45Z</time>
      </trkpt>
      <trkpt lat="43.64154" lon="1.39991">
        <ele>132</ele>
        <time>2024-06-19T10:24:46Z</time>
      </trkpt>
      <trkpt lat="43.64154" lon="1.39994">
        <ele>132</ele>
        <time>2024-06-19T10:24:47Z</time>
      </trkpt>
      <trkpt lat="43.64154" lon="1.39999">
        <ele>132</ele>
        <time>2024-06-19T10:24:48Z</time>
      </trkpt>
      <trkpt lat="43.64154" lon="1.40002">
        <ele>132</ele>
        <time>2024-06-19T10:24:49Z</time>
      </trkpt>
      <trkpt lat="43.64154" lon="1.40002">
        <ele>132</ele>
        <time>2024-06-19T10:24:50Z</time>
      </trkpt>
      <trkpt lat="43.64154" lon="1.40011">
        <ele>132</ele>
        <time>2024-06-19T10:24:51Z</time>
      </trkpt>
      <trkpt lat="43.64154" lon="1.40016">
        <ele>131</ele>
        <time>2024-06-19T10:24:52Z</time>
      </trkpt>
      <trkpt lat="43.64153" lon="1.4002">
        <ele>131</ele>
        <time>2024-06-19T10:24:53Z</time>
      </trkpt>
      <trkpt lat="43.64153" lon="1.40024">
        <ele>131</ele>
        <time>2024-06-19T10:24:54Z</time>
      </trkpt>
      <trkpt lat="43.64153" lon="1.40028">
        <ele>131</ele>
        <time>2024-06-19T10:24:55Z</time>
      </trkpt>
      <trkpt lat="43.64152" lon="1.40032">
        <ele>131</ele>
        <time>2024-06-19T10:24:56Z</time>
      </trkpt>
      <trkpt lat="43.64152" lon="1.40035">
        <ele>131</ele>
        <time>2024-06-19T10:24:57Z</time>
      </trkpt>
      <trkpt lat="43.64152" lon="1.40039">
        <ele>131</ele>
        <time>2024-06-19T10:24:58Z</time>
      </trkpt>
      <trkpt lat="43.64151" lon="1.40042">
        <ele>131</ele>
        <time>2024-06-19T10:24:59Z</time>
      </trkpt>
      <trkpt lat="43.64151" lon="1.40046">
        <ele>130</ele>
        <time>2024-06-19T10:25:00Z</time>
      </trkpt>
      <trkpt lat="43.64151" lon="1.40049">
        <ele>130</ele>
        <time>2024-06-19T10:25:01Z</time>
      </trkpt>
      <trkpt lat="43.6415" lon="1.40053">
        <ele>130</ele>
        <time>2024-06-19T10:25:02Z</time>
      </trkpt>
      <trkpt lat="43.6415" lon="1.40057">
        <ele>130</ele>
        <time>2024-06-19T10:25:03Z</time>
      </trkpt>
      <trkpt lat="43.6415" lon="1.4006">
        <ele>130</ele>
        <time>2024-06-19T10:25:04Z</time>
      </trkpt>
      <trkpt lat="43.64149" lon="1.40064">
        <ele>130</ele>
        <time>2024-06-19T10:25:05Z</time>
      </trkpt>
      <trkpt lat="43.64149" lon="1.40067">
        <ele>130</ele>
        <time>2024-06-19T10:25:06Z</time>
      </trkpt>
      <trkpt lat="43.64149" lon="1.4007">
        <ele>130</ele>
        <time>2024-06-19T10:25:07Z</time>
      </trkpt>
      <trkpt lat="43.64149" lon="1.40074">
        <ele>130</ele>
        <time>2024-06-19T10:25:08Z</time>
      </trkpt>
      <trkpt lat="43.64149" lon="1.40078">
        <ele>130</ele>
        <time>2024-06-19T10:25:09Z</time>
      </trkpt>
      <trkpt lat="43.64149" lon="1.40081">
        <ele>130</ele>
        <time>2024-06-19T10:25:10Z</time>
      </trkpt>
      <trkpt lat="43.64149" lon="1.40084">
        <ele>130</ele>
        <time>2024-06-19T10:25:11Z</time>
      </trkpt>
      <trkpt lat="43.64149" lon="1.40088">
        <ele>130</ele>
        <time>2024-06-19T10:25:12Z</time>
      </trkpt>
      <trkpt lat="43.64149" lon="1.40091">
        <ele>130</ele>
        <time>2024-06-19T10:25:13Z</time>
      </trkpt>
      <trkpt lat="43.64149" lon="1.40095">
        <ele>130</ele>
        <time>2024-06-19T10:25:14Z</time>
      </trkpt>
      <trkpt lat="43.64149" lon="1.40099">
        <ele>131</ele>
        <time>2024-06-19T10:25:15Z</time>
      </trkpt>
      <trkpt lat="43.64149" lon="1.40099">
        <ele>131</ele>
        <time>2024-06-19T10:25:16Z</time>
      </trkpt>
      <trkpt lat="43.6415" lon="1.40105">
        <ele>131</ele>
        <time>2024-06-19T10:25:17Z</time>
      </trkpt>
      <trkpt lat="43.6415" lon="1.40108">
        <ele>131</ele>
        <time>2024-06-19T10:25:18Z</time>
      </trkpt>
      <trkpt lat="43.6415" lon="1.40112">
        <ele>131</ele>
        <time>2024-06-19T10:25:19Z</time>
      </trkpt>
      <trkpt lat="43.6415" lon="1.40116">
        <ele>131</ele>
        <time>2024-06-19T10:25:20Z</time>
      </trkpt>
      <trkpt lat="43.64149" lon="1.4012">
        <ele>131</ele>
        <time>2024-06-19T10:25:21Z</time>
      </trkpt>
      <trkpt lat="43.64148" lon="1.40125">
        <ele>131</ele>
        <time>2024-06-19T10:25:22Z</time>
      </trkpt>
      <trkpt lat="43.64147" lon="1.40128">
        <ele>130</ele>
        <time>2024-06-19T10:25:23Z</time>
      </trkpt>
      <trkpt lat="43.64146" lon="1.40132">
        <ele>130</ele>
        <time>2024-06-19T10:25:24Z</time>
      </trkpt>
      <trkpt lat="43.64144" lon="1.40135">
        <ele>130</ele>
        <time>2024-06-19T10:25:25Z</time>
      </trkpt>
      <trkpt lat="43.64142" lon="1.40138">
        <ele>129</ele>
        <time>2024-06-19T10:25:26Z</time>
      </trkpt>
      <trkpt lat="43.6414" lon="1.4014">
        <ele>129</ele>
        <time>2024-06-19T10:25:27Z</time>
      </trkpt>
      <trkpt lat="43.64138" lon="1.40142">
        <ele>129</ele>
        <time>2024-06-19T10:25:28Z</time>
      </trkpt>
      <trkpt lat="43.64135" lon="1.40144">
        <ele>129</ele>
        <time>2024-06-19T10:25:29Z</time>
      </trkpt>
      <trkpt lat="43.64133" lon="1.40146">
        <ele>129</ele>
        <time>2024-06-19T10:25:30Z</time>
      </trkpt>
      <trkpt lat="43.64131" lon="1.40148">
        <ele>129</ele>
        <time>2024-06-19T10:25:31Z</time>
      </trkpt>
      <trkpt lat="43.64128" lon="1.4015">
        <ele>129</ele>
        <time>2024-06-19T10:25:32Z</time>
      </trkpt>
      <trkpt lat="43.64126" lon="1.40151">
        <ele>129</ele>
        <time>2024-06-19T10:25:33Z</time>
      </trkpt>
      <trkpt lat="43.64124" lon="1.40152">
        <ele>129</ele>
        <time>2024-06-19T10:25:34Z</time>
      </trkpt>
      <trkpt lat="43.64122" lon="1.40153">
        <ele>129</ele>
        <time>2024-06-19T10:25:35Z</time>
      </trkpt>
      <trkpt lat="43.6412" lon="1.40154">
        <ele>129</ele>
        <time>2024-06-19T10:25:36Z</time>
      </trkpt>
      <trkpt lat="43.64117" lon="1.40156">
        <ele>129</ele>
        <time>2024-06-19T10:25:37Z</time>
      </trkpt>
      <trkpt lat="43.64115" lon="1.40157">
        <ele>129</ele>
        <time>2024-06-19T10:25:38Z</time>
      </trkpt>
      <trkpt lat="43.64113" lon="1.40159">
        <ele>129</ele>
        <time>2024-06-19T10:25:39Z</time>
      </trkpt>
      <trkpt lat="43.6411" lon="1.4016">
        <ele>129</ele>
        <time>2024-06-19T10:25:40Z</time>
      </trkpt>
      <trkpt lat="43.64107" lon="1.40162">
        <ele>129</ele>
        <time>2024-06-19T10:25:41Z</time>
      </trkpt>
      <trkpt lat="43.64105" lon="1.40164">
        <ele>129</ele>
        <time>2024-06-19T10:25:42Z</time>
      </trkpt>
      <trkpt lat="43.64103" lon="1.40165">
        <ele>129</ele>
        <time>2024-06-19T10:25:43Z</time>
      </trkpt>
      <trkpt lat="43.641" lon="1.40167">
        <ele>129</ele>
        <time>2024-06-19T10:25:44Z</time>
      </trkpt>
      <trkpt lat="43.64098" lon="1.40169">
        <ele>129</ele>
        <time>2024-06-19T10:25:45Z</time>
      </trkpt>
      <trkpt lat="43.64096" lon="1.40171">
        <ele>130</ele>
        <time>2024-06-19T10:25:46Z</time>
      </trkpt>
      <trkpt lat="43.64094" lon="1.40172">
        <ele>130</ele>
        <time>2024-06-19T10:25:47Z</time>
      </trkpt>
      <trkpt lat="43.64092" lon="1.40174">
        <ele>130</ele>
        <time>2024-06-19T10:25:48Z</time>
      </trkpt>
      <trkpt lat="43.6409" lon="1.40175">
        <ele>129</ele>
        <time>2024-06-19T10:25:49Z</time>
      </trkpt>
      <trkpt lat="43.64087" lon="1.40176">
        <ele>130</ele>
        <time>2024-06-19T10:25:50Z</time>
      </trkpt>
      <trkpt lat="43.64085" lon="1.40177">
        <ele>130</ele>
        <time>2024-06-19T10:25:51Z</time>
      </trkpt>
      <trkpt lat="43.64083" lon="1.40179">
        <ele>130</ele>
        <time>2024-06-19T10:25:52Z</time>
      </trkpt>
      <trkpt lat="43.6408" lon="1.4018">
        <ele>130</ele>
        <time>2024-06-19T10:25:53Z</time>
      </trkpt>
      <trkpt lat="43.64078" lon="1.4018">
        <ele>130</ele>
        <time>2024-06-19T10:25:54Z</time>
      </trkpt>
      <trkpt lat="43.64075" lon="1.4018">
        <ele>130</ele>
        <time>2024-06-19T10:25:55Z</time>
      </trkpt>
      <trkpt lat="43.64075" lon="1.4018">
        <ele>130</ele>
        <time>2024-06-19T10:25:56Z</time>
      </trkpt>
      <trkpt lat="43.64069" lon="1.40182">
        <ele>130</ele>
        <time>2024-06-19T10:25:57Z</time>
      </trkpt>
      <trkpt lat="43.64068" lon="1.40182">
        <ele>129</ele>
        <time>2024-06-19T10:25:58Z</time>
      </trkpt>
      <trkpt lat="43.64068" lon="1.40182">
        <ele>129</ele>
        <time>2024-06-19T10:25:59Z</time>
      </trkpt>
      <trkpt lat="43.64063" lon="1.40184">
        <ele>129</ele>
        <time>2024-06-19T10:26:00Z</time>
      </trkpt>
      <trkpt lat="43.6406" lon="1.40184">
        <ele>129</ele>
        <time>2024-06-19T10:26:01Z</time>
      </trkpt>
      <trkpt lat="43.6406" lon="1.40184">
        <ele>129</ele>
        <time>2024-06-19T10:26:02Z</time>
      </trkpt>
      <trkpt lat="43.64052" lon="1.40184">
        <ele>129</ele>
        <time>2024-06-19T10:26:03Z</time>
      </trkpt>
      <trkpt lat="43.64051" lon="1.40184">
        <ele>129</ele>
        <time>2024-06-19T10:26:04Z</time>
      </trkpt>
      <trkpt lat="43.64051" lon="1.40184">
        <ele>129</ele>
        <time>2024-06-19T10:26:05Z</time>
      </trkpt>
      <trkpt lat="43.64042" lon="1.40184">
        <ele>129</ele>
        <time>2024-06-19T10:26:06Z</time>
      </trkpt>
      <trkpt lat="43.64041" lon="1.40184">
        <ele>129</ele>
        <time>2024-06-19T10:26:07Z</time>
      </trkpt>
      <trkpt lat="43.64038" lon="1.40183">
        <ele>129</ele>
        <time>2024-06-19T10:26:08Z</time>
      </trkpt>
      <trkpt lat="43.64035" lon="1.40182">
        <ele>129</ele>
        <time>2024-06-19T10:26:09Z</time>
      </trkpt>
      <trkpt lat="43.64033" lon="1.40182">
        <ele>130</ele>
        <time>2024-06-19T10:26:10Z</time>
      </trkpt>
      <trkpt lat="43.6403" lon="1.40181">
        <ele>130</ele>
        <time>2024-06-19T10:26:11Z</time>
      </trkpt>
      <trkpt lat="43.64027" lon="1.40182">
        <ele>130</ele>
        <time>2024-06-19T10:26:12Z</time>
      </trkpt>
      <trkpt lat="43.64027" lon="1.40182">
        <ele>130</ele>
        <time>2024-06-19T10:26:13Z</time>
      </trkpt>
      <trkpt lat="43.64025" lon="1.40183">
        <ele>130</ele>
        <time>2024-06-19T10:26:14Z</time>
      </trkpt>
      <trkpt lat="43.64022" lon="1.40186">
        <ele>130</ele>
        <time>2024-06-19T10:26:15Z</time>
      </trkpt>
      <trkpt lat="43.64021" lon="1.40188">
        <ele>130</ele>
        <time>2024-06-19T10:26:16Z</time>
      </trkpt>
      <trkpt lat="43.64019" lon="1.4019">
        <ele>130</ele>
        <time>2024-06-19T10:26:17Z</time>
      </trkpt>
      <trkpt lat="43.64017" lon="1.40192">
        <ele>130</ele>
        <time>2024-06-19T10:26:18Z</time>
      </trkpt>
      <trkpt lat="43.64014" lon="1.40195">
        <ele>129</ele>
        <time>2024-06-19T10:26:19Z</time>
      </trkpt>
      <trkpt lat="43.64012" lon="1.40196">
        <ele>129</ele>
        <time>2024-06-19T10:26:20Z</time>
      </trkpt>
      <trkpt lat="43.6401" lon="1.40198">
        <ele>129</ele>
        <time>2024-06-19T10:26:21Z</time>
      </trkpt>
      <trkpt lat="43.64007" lon="1.402">
        <ele>129</ele>
        <time>2024-06-19T10:26:22Z</time>
      </trkpt>
      <trkpt lat="43.64005" lon="1.40202">
        <ele>129</ele>
        <time>2024-06-19T10:26:23Z</time>
      </trkpt>
      <trkpt lat="43.64002" lon="1.40204">
        <ele>129</ele>
        <time>2024-06-19T10:26:24Z</time>
      </trkpt>
      <trkpt lat="43.63999" lon="1.40206">
        <ele>129</ele>
        <time>2024-06-19T10:26:25Z</time>
      </trkpt>
      <trkpt lat="43.63997" lon="1.40208">
        <ele>129</ele>
        <time>2024-06-19T10:26:26Z</time>
      </trkpt>
      <trkpt lat="43.63995" lon="1.4021">
        <ele>129</ele>
        <time>2024-06-19T10:26:27Z</time>
      </trkpt>
      <trkpt lat="43.63992" lon="1.40212">
        <ele>129</ele>
        <time>2024-06-19T10:26:28Z</time>
      </trkpt>
      <trkpt lat="43.6399" lon="1.40214">
        <ele>129</ele>
        <time>2024-06-19T10:26:29Z</time>
      </trkpt>
      <trkpt lat="43.63988" lon="1.40215">
        <ele>129</ele>
        <time>2024-06-19T10:26:30Z</time>
      </trkpt>
      <trkpt lat="43.63985" lon="1.40218">
        <ele>129</ele>
        <time>2024-06-19T10:26:31Z</time>
      </trkpt>
      <trkpt lat="43.63983" lon="1.4022">
        <ele>129</ele>
        <time>2024-06-19T10:26:32Z</time>
      </trkpt>
      <trkpt lat="43.6398" lon="1.40222">
        <ele>129</ele>
        <time>2024-06-19T10:26:33Z</time>
      </trkpt>
      <trkpt lat="43.63978" lon="1.40225">
        <ele>129</ele>
        <time>2024-06-19T10:26:34Z</time>
      </trkpt>
      <trkpt lat="43.63975" lon="1.40226">
        <ele>129</ele>
        <time>2024-06-19T10:26:35Z</time>
      </trkpt>
      <trkpt lat="43.63973" lon="1.40228">
        <ele>129</ele>
        <time>2024-06-19T10:26:36Z</time>
      </trkpt>
      <trkpt lat="43.6397" lon="1.40229">
        <ele>129</ele>
        <time>2024-06-19T10:26:37Z</time>
      </trkpt>
      <trkpt lat="43.63968" lon="1.40231">
        <ele>129</ele>
        <time>2024-06-19T10:26:38Z</time>
      </trkpt>
      <trkpt lat="43.63966" lon="1.40232">
        <ele>129</ele>
        <time>2024-06-19T10:26:39Z</time>
      </trkpt>
      <trkpt lat="43.63963" lon="1.40233">
        <ele>128</ele>
        <time>2024-06-19T10:26:40Z</time>
      </trkpt>
      <trkpt lat="43.63961" lon="1.40234">
        <ele>128</ele>
        <time>2024-06-19T10:26:41Z</time>
      </trkpt>
      <trkpt lat="43.63958" lon="1.40235">
        <ele>128</ele>
        <time>2024-06-19T10:26:42Z</time>
      </trkpt>
      <trkpt lat="43.63956" lon="1.40235">
        <ele>128</ele>
        <time>2024-06-19T10:26:43Z</time>
      </trkpt>
      <trkpt lat="43.63953" lon="1.40236">
        <ele>128</ele>
        <time>2024-06-19T10:26:44Z</time>
      </trkpt>
      <trkpt lat="43.6395" lon="1.40236">
        <ele>129</ele>
        <time>2024-06-19T10:26:45Z</time>
      </trkpt>
      <trkpt lat="43.63948" lon="1.40237">
        <ele>129</ele>
        <time>2024-06-19T10:26:46Z</time>
      </trkpt>
      <trkpt lat="43.63945" lon="1.40238">
        <ele>129</ele>
        <time>2024-06-19T10:26:47Z</time>
      </trkpt>
      <trkpt lat="43.63943" lon="1.40239">
        <ele>129</ele>
        <time>2024-06-19T10:26:48Z</time>
      </trkpt>
      <trkpt lat="43.63941" lon="1.4024">
        <ele>129</ele>
        <time>2024-06-19T10:26:49Z</time>
      </trkpt>
      <trkpt lat="43.63939" lon="1.40241">
        <ele>129</ele>
        <time>2024-06-19T10:26:50Z</time>
      </trkpt>
      <trkpt lat="43.63939" lon="1.40241">
        <ele>129</ele>
        <time>2024-06-19T10:26:51Z</time>
      </trkpt>
      <trkpt lat="43.63934" lon="1.40242">
        <ele>129</ele>
        <time>2024-06-19T10:26:52Z</time>
      </trkpt>
      <trkpt lat="43.63931" lon="1.40242">
        <ele>129</ele>
        <time>2024-06-19T10:26:53Z</time>
      </trkpt>
      <trkpt lat="43.63928" lon="1.40242">
        <ele>129</ele>
        <time>2024-06-19T10:26:54Z</time>
      </trkpt>
      <trkpt lat="43.63926" lon="1.40243">
        <ele>129</ele>
        <time>2024-06-19T10:26:55Z</time>
      </trkpt>
      <trkpt lat="43.63923" lon="1.40244">
        <ele>129</ele>
        <time>2024-06-19T10:26:56Z</time>
      </trkpt>
      <trkpt lat="43.63921" lon="1.40245">
        <ele>129</ele>
        <time>2024-06-19T10:26:57Z</time>
      </trkpt>
      <trkpt lat="43.63919" lon="1.40247">
        <ele>129</ele>
        <time>2024-06-19T10:26:58Z</time>
      </trkpt>
      <trkpt lat="43.63917" lon="1.40249">
        <ele>129</ele>
        <time>2024-06-19T10:26:59Z</time>
      </trkpt>
      <trkpt lat="43.63914" lon="1.40251">
        <ele>128</ele>
        <time>2024-06-19T10:27:00Z</time>
      </trkpt>
      <trkpt lat="43.63912" lon="1.40252">
        <ele>128</ele>
        <time>2024-06-19T10:27:01Z</time>
      </trkpt>
      <trkpt lat="43.63909" lon="1.40254">
        <ele>128</ele>
        <time>2024-06-19T10:27:02Z</time>
      </trkpt>
      <trkpt lat="43.63907" lon="1.40255">
        <ele>128</ele>
        <time>2024-06-19T10:27:03Z</time>
      </trkpt>
      <trkpt lat="43.63905" lon="1.40256">
        <ele>128</ele>
        <time>2024-06-19T10:27:04Z</time>
      </trkpt>
      <trkpt lat="43.63903" lon="1.40256">
        <ele>128</ele>
        <time>2024-06-19T10:27:05Z</time>
      </trkpt>
      <trkpt lat="43.63901" lon="1.40257">
        <ele>128</ele>
        <time>2024-06-19T10:27:06Z</time>
      </trkpt>
      <trkpt lat="43.63899" lon="1.40257">
        <ele>128</ele>
        <time>2024-06-19T10:27:07Z</time>
      </trkpt>
      <trkpt lat="43.63896" lon="1.40258">
        <ele>128</ele>
        <time>2024-06-19T10:27:08Z</time>
      </trkpt>
      <trkpt lat="43.63893" lon="1.40258">
        <ele>128</ele>
        <time>2024-06-19T10:27:09Z</time>
      </trkpt>
      <trkpt lat="43.63893" lon="1.40258">
        <ele>128</ele>
        <time>2024-06-19T10:27:10Z</time>
      </trkpt>
      <trkpt lat="43.63887" lon="1.40259">
        <ele>128</ele>
        <time>2024-06-19T10:27:11Z</time>
      </trkpt>
      <trkpt lat="43.63884" lon="1.4026">
        <ele>128</ele>
        <time>2024-06-19T10:27:12Z</time>
      </trkpt>
      <trkpt lat="43.63881" lon="1.4026">
        <ele>128</ele>
        <time>2024-06-19T10:27:13Z</time>
      </trkpt>
      <trkpt lat="43.63878" lon="1.4026">
        <ele>128</ele>
        <time>2024-06-19T10:27:14Z</time>
      </trkpt>
      <trkpt lat="43.63875" lon="1.40261">
        <ele>128</ele>
        <time>2024-06-19T10:27:15Z</time>
      </trkpt>
      <trkpt lat="43.63872" lon="1.40262">
        <ele>128</ele>
        <time>2024-06-19T10:27:16Z</time>
      </trkpt>
      <trkpt lat="43.63869" lon="1.40263">
        <ele>128</ele>
        <time>2024-06-19T10:27:17Z</time>
      </trkpt>
      <trkpt lat="43.63867" lon="1.40264">
        <ele>128</ele>
        <time>2024-06-19T10:27:18Z</time>
      </trkpt>
      <trkpt lat="43.63864" lon="1.40265">
        <ele>128</ele>
        <time>2024-06-19T10:27:19Z</time>
      </trkpt>
      <trkpt lat="43.63861" lon="1.40267">
        <ele>128</ele>
        <time>2024-06-19T10:27:20Z</time>
      </trkpt>
      <trkpt lat="43.63859" lon="1.40268">
        <ele>128</ele>
        <time>2024-06-19T10:27:21Z</time>
      </trkpt>
      <trkpt lat="43.63856" lon="1.4027">
        <ele>128</ele>
        <time>2024-06-19T10:27:22Z</time>
      </trkpt>
      <trkpt lat="43.63854" lon="1.40271">
        <ele>128</ele>
        <time>2024-06-19T10:27:23Z</time>
      </trkpt>
      <trkpt lat="43.63851" lon="1.40272">
        <ele>128</ele>
        <time>2024-06-19T10:27:24Z</time>
      </trkpt>
      <trkpt lat="43.63848" lon="1.40273">
        <ele>128</ele>
        <time>2024-06-19T10:27:25Z</time>
      </trkpt>
      <trkpt lat="43.63845" lon="1.40274">
        <ele>128</ele>
        <time>2024-06-19T10:27:26Z</time>
      </trkpt>
      <trkpt lat="43.63842" lon="1.40275">
        <ele>128</ele>
        <time>2024-06-19T10:27:27Z</time>
      </trkpt>
      <trkpt lat="43.63839" lon="1.40275">
        <ele>128</ele>
        <time>2024-06-19T10:27:28Z</time>
      </trkpt>
      <trkpt lat="43.63839" lon="1.40275">
        <ele>128</ele>
        <time>2024-06-19T10:27:29Z</time>
      </trkpt>
      <trkpt lat="43.63832" lon="1.40276">
        <ele>128</ele>
        <time>2024-06-19T10:27:30Z</time>
      </trkpt>
      <trkpt lat="43.63831" lon="1.40277">
        <ele>128</ele>
        <time>2024-06-19T10:27:31Z</time>
      </trkpt>
      <trkpt lat="43.63829" lon="1.40277">
        <ele>128</ele>
        <time>2024-06-19T10:27:32Z</time>
      </trkpt>
      <trkpt lat="43.63826" lon="1.40278">
        <ele>129</ele>
        <time>2024-06-19T10:27:33Z</time>
      </trkpt>
      <trkpt lat="43.63823" lon="1.40279">
        <ele>129</ele>
        <time>2024-06-19T10:27:34Z</time>
      </trkpt>
      <trkpt lat="43.6382" lon="1.40279">
        <ele>129</ele>
        <time>2024-06-19T10:27:35Z</time>
      </trkpt>
      <trkpt lat="43.63817" lon="1.40279">
        <ele>129</ele>
        <time>2024-06-19T10:27:36Z</time>
      </trkpt>
      <trkpt lat="43.63815" lon="1.40279">
        <ele>129</ele>
        <time>2024-06-19T10:27:37Z</time>
      </trkpt>
      <trkpt lat="43.63815" lon="1.40279">
        <ele>129</ele>
        <time>2024-06-19T10:27:38Z</time>
      </trkpt>
      <trkpt lat="43.63809" lon="1.40279">
        <ele>129</ele>
        <time>2024-06-19T10:27:39Z</time>
      </trkpt>
      <trkpt lat="43.63806" lon="1.4028">
        <ele>129</ele>
        <time>2024-06-19T10:27:40Z</time>
      </trkpt>
      <trkpt lat="43.63804" lon="1.4028">
        <ele>129</ele>
        <time>2024-06-19T10:27:41Z</time>
      </trkpt>
      <trkpt lat="43.63801" lon="1.4028">
        <ele>129</ele>
        <time>2024-06-19T10:27:42Z</time>
      </trkpt>
      <trkpt lat="43.63799" lon="1.40279">
        <ele>129</ele>
        <time>2024-06-19T10:27:43Z</time>
      </trkpt>
      <trkpt lat="43.63796" lon="1.4028">
        <ele>129</ele>
        <time>2024-06-19T10:27:44Z</time>
      </trkpt>
      <trkpt lat="43.63793" lon="1.40281">
        <ele>129</ele>
        <time>2024-06-19T10:27:45Z</time>
      </trkpt>
      <trkpt lat="43.6379" lon="1.40281">
        <ele>129</ele>
        <time>2024-06-19T10:27:46Z</time>
      </trkpt>
      <trkpt lat="43.63788" lon="1.40282">
        <ele>129</ele>
        <time>2024-06-19T10:27:47Z</time>
      </trkpt>
      <trkpt lat="43.63788" lon="1.40282">
        <ele>129</ele>
        <time>2024-06-19T10:27:48Z</time>
      </trkpt>
      <trkpt lat="43.63782" lon="1.40282">
        <ele>129</ele>
        <time>2024-06-19T10:27:49Z</time>
      </trkpt>
      <trkpt lat="43.63779" lon="1.40282">
        <ele>129</ele>
        <time>2024-06-19T10:27:50Z</time>
      </trkpt>
      <trkpt lat="43.63777" lon="1.40282">
        <ele>129</ele>
        <time>2024-06-19T10:27:51Z</time>
      </trkpt>
      <trkpt lat="43.63775" lon="1.40281">
        <ele>129</ele>
        <time>2024-06-19T10:27:52Z</time>
      </trkpt>
      <trkpt lat="43.63772" lon="1.40281">
        <ele>129</ele>
        <time>2024-06-19T10:27:53Z</time>
      </trkpt>
      <trkpt lat="43.6377" lon="1.40282">
        <ele>129</ele>
        <time>2024-06-19T10:27:54Z</time>
      </trkpt>
      <trkpt lat="43.63767" lon="1.40283">
        <ele>129</ele>
        <time>2024-06-19T10:27:55Z</time>
      </trkpt>
      <trkpt lat="43.63764" lon="1.40284">
        <ele>129</ele>
        <time>2024-06-19T10:27:56Z</time>
      </trkpt>
      <trkpt lat="43.63761" lon="1.40285">
        <ele>129</ele>
        <time>2024-06-19T10:27:57Z</time>
      </trkpt>
      <trkpt lat="43.63759" lon="1.40286">
        <ele>129</ele>
        <time>2024-06-19T10:27:58Z</time>
      </trkpt>
      <trkpt lat="43.63757" lon="1.40286">
        <ele>129</ele>
        <time>2024-06-19T10:27:59Z</time>
      </trkpt>
      <trkpt lat="43.63754" lon="1.40286">
        <ele>129</ele>
        <time>2024-06-19T10:28:00Z</time>
      </trkpt>
      <trkpt lat="43.63752" lon="1.40286">
        <ele>129</ele>
        <time>2024-06-19T10:28:01Z</time>
      </trkpt>
      <trkpt lat="43.6375" lon="1.40287">
        <ele>129</ele>
        <time>2024-06-19T10:28:02Z</time>
      </trkpt>
      <trkpt lat="43.63748" lon="1.40287">
        <ele>129</ele>
        <time>2024-06-19T10:28:03Z</time>
      </trkpt>
      <trkpt lat="43.63745" lon="1.40288">
        <ele>129</ele>
        <time>2024-06-19T10:28:04Z</time>
      </trkpt>
      <trkpt lat="43.63743" lon="1.40289">
        <ele>129</ele>
        <time>2024-06-19T10:28:05Z</time>
      </trkpt>
      <trkpt lat="43.6374" lon="1.4029">
        <ele>129</ele>
        <time>2024-06-19T10:28:06Z</time>
      </trkpt>
      <trkpt lat="43.6374" lon="1.4029">
        <ele>129</ele>
        <time>2024-06-19T10:28:07Z</time>
      </trkpt>
      <trkpt lat="43.63734" lon="1.4029">
        <ele>129</ele>
        <time>2024-06-19T10:28:08Z</time>
      </trkpt>
      <trkpt lat="43.63731" lon="1.40289">
        <ele>129</ele>
        <time>2024-06-19T10:28:09Z</time>
      </trkpt>
      <trkpt lat="43.63728" lon="1.40289">
        <ele>129</ele>
        <time>2024-06-19T10:28:10Z</time>
      </trkpt>
      <trkpt lat="43.63725" lon="1.40288">
        <ele>129</ele>
        <time>2024-06-19T10:28:11Z</time>
      </trkpt>
      <trkpt lat="43.63722" lon="1.40288">
        <ele>129</ele>
        <time>2024-06-19T10:28:12Z</time>
      </trkpt>
      <trkpt lat="43.6372" lon="1.40289">
        <ele>129</ele>
        <time>2024-06-19T10:28:13Z</time>
      </trkpt>
      <trkpt lat="43.63717" lon="1.40289">
        <ele>129</ele>
        <time>2024-06-19T10:28:14Z</time>
      </trkpt>
      <trkpt lat="43.63717" lon="1.40289">
        <ele>129</ele>
        <time>2024-06-19T10:28:15Z</time>
      </trkpt>
      <trkpt lat="43.63712" lon="1.4029">
        <ele>129</ele>
        <time>2024-06-19T10:28:16Z</time>
      </trkpt>
      <trkpt lat="43.6371" lon="1.40291">
        <ele>129</ele>
        <time>2024-06-19T10:28:17Z</time>
      </trkpt>
      <trkpt lat="43.63707" lon="1.40293">
        <ele>129</ele>
        <time>2024-06-19T10:28:18Z</time>
      </trkpt>
      <trkpt lat="43.63704" lon="1.40294">
        <ele>129</ele>
        <time>2024-06-19T10:28:19Z</time>
      </trkpt>
      <trkpt lat="43.63702" lon="1.40295">
        <ele>129</ele>
        <time>2024-06-19T10:28:20Z</time>
      </trkpt>
      <trkpt lat="43.63699" lon="1.40296">
        <ele>128</ele>
        <time>2024-06-19T10:28:21Z</time>
      </trkpt>
      <trkpt lat="43.63696" lon="1.40297">
        <ele>128</ele>
        <time>2024-06-19T10:28:22Z</time>
      </trkpt>
      <trkpt lat="43.63693" lon="1.40297">
        <ele>128</ele>
        <time>2024-06-19T10:28:23Z</time>
      </trkpt>
      <trkpt lat="43.6369" lon="1.40297">
        <ele>128</ele>
        <time>2024-06-19T10:28:24Z</time>
      </trkpt>
      <trkpt lat="43.63687" lon="1.40296">
        <ele>128</ele>
        <time>2024-06-19T10:28:25Z</time>
      </trkpt>
      <trkpt lat="43.63685" lon="1.40296">
        <ele>128</ele>
        <time>2024-06-19T10:28:26Z</time>
      </trkpt>
      <trkpt lat="43.63683" lon="1.40295">
        <ele>128</ele>
        <time>2024-06-19T10:28:27Z</time>
      </trkpt>
      <trkpt lat="43.63681" lon="1.40293">
        <ele>128</ele>
        <time>2024-06-19T10:28:28Z</time>
      </trkpt>
      <trkpt lat="43.63679" lon="1.40292">
        <ele>128</ele>
        <time>2024-06-19T10:28:29Z</time>
      </trkpt>
      <trkpt lat="43.63677" lon="1.40291">
        <ele>129</ele>
        <time>2024-06-19T10:28:30Z</time>
      </trkpt>
      <trkpt lat="43.63675" lon="1.4029">
        <ele>129</ele>
        <time>2024-06-19T10:28:31Z</time>
      </trkpt>
      <trkpt lat="43.63672" lon="1.40289">
        <ele>130</ele>
        <time>2024-06-19T10:28:32Z</time>
      </trkpt>
      <trkpt lat="43.63669" lon="1.40288">
        <ele>130</ele>
        <time>2024-06-19T10:28:33Z</time>
      </trkpt>
      <trkpt lat="43.63669" lon="1.40288">
        <ele>131</ele>
        <time>2024-06-19T10:28:34Z</time>
      </trkpt>
      <trkpt lat="43.63663" lon="1.40287">
        <ele>131</ele>
        <time>2024-06-19T10:28:35Z</time>
      </trkpt>
      <trkpt lat="43.63659" lon="1.40286">
        <ele>131</ele>
        <time>2024-06-19T10:28:36Z</time>
      </trkpt>
      <trkpt lat="43.63656" lon="1.40285">
        <ele>131</ele>
        <time>2024-06-19T10:28:37Z</time>
      </trkpt>
      <trkpt lat="43.63654" lon="1.40285">
        <ele>132</ele>
        <time>2024-06-19T10:28:38Z</time>
      </trkpt>
      <trkpt lat="43.63651" lon="1.40284">
        <ele>132</ele>
        <time>2024-06-19T10:28:39Z</time>
      </trkpt>
      <trkpt lat="43.63648" lon="1.40284">
        <ele>133</ele>
        <time>2024-06-19T10:28:40Z</time>
      </trkpt>
      <trkpt lat="43.63645" lon="1.40284">
        <ele>133</ele>
        <time>2024-06-19T10:28:41Z</time>
      </trkpt>
      <trkpt lat="43.63642" lon="1.40284">
        <ele>133</ele>
        <time>2024-06-19T10:28:42Z</time>
      </trkpt>
      <trkpt lat="43.63639" lon="1.40284">
        <ele>133</ele>
        <time>2024-06-19T10:28:43Z</time>
      </trkpt>
      <trkpt lat="43.63636" lon="1.40284">
        <ele>133</ele>
        <time>2024-06-19T10:28:44Z</time>
      </trkpt>
      <trkpt lat="43.63636" lon="1.40284">
        <ele>133</ele>
        <time>2024-06-19T10:28:45Z</time>
      </trkpt>
      <trkpt lat="43.6363" lon="1.40285">
        <ele>133</ele>
        <time>2024-06-19T10:28:46Z</time>
      </trkpt>
      <trkpt lat="43.63627" lon="1.40285">
        <ele>133</ele>
        <time>2024-06-19T10:28:47Z</time>
      </trkpt>
      <trkpt lat="43.63625" lon="1.40285">
        <ele>133</ele>
        <time>2024-06-19T10:28:48Z</time>
      </trkpt>
      <trkpt lat="43.63622" lon="1.40285">
        <ele>133</ele>
        <time>2024-06-19T10:28:49Z</time>
      </trkpt>
      <trkpt lat="43.63619" lon="1.40285">
        <ele>133</ele>
        <time>2024-06-19T10:28:50Z</time>
      </trkpt>
      <trkpt lat="43.63617" lon="1.40285">
        <ele>133</ele>
        <time>2024-06-19T10:28:51Z</time>
      </trkpt>
      <trkpt lat="43.63614" lon="1.40285">
        <ele>133</ele>
        <time>2024-06-19T10:28:52Z</time>
      </trkpt>
      <trkpt lat="43.63612" lon="1.40285">
        <ele>133</ele>
        <time>2024-06-19T10:28:53Z</time>
      </trkpt>
      <trkpt lat="43.63609" lon="1.40284">
        <ele>133</ele>
        <time>2024-06-19T10:28:54Z</time>
      </trkpt>
      <trkpt lat="43.63607" lon="1.40284">
        <ele>133</ele>
        <time>2024-06-19T10:28:55Z</time>
      </trkpt>
      <trkpt lat="43.63604" lon="1.40284">
        <ele>133</ele>
        <time>2024-06-19T10:28:56Z</time>
      </trkpt>
      <trkpt lat="43.63601" lon="1.40284">
        <ele>133</ele>
        <time>2024-06-19T10:28:57Z</time>
      </trkpt>
      <trkpt lat="43.63598" lon="1.40283">
        <ele>133</ele>
        <time>2024-06-19T10:28:58Z</time>
      </trkpt>
      <trkpt lat="43.63595" lon="1.40284">
        <ele>133</ele>
        <time>2024-06-19T10:28:59Z</time>
      </trkpt>
      <trkpt lat="43.63592" lon="1.40284">
        <ele>133</ele>
        <time>2024-06-19T10:29:00Z</time>
      </trkpt>
      <trkpt lat="43.6359" lon="1.40285">
        <ele>133</ele>
        <time>2024-06-19T10:29:01Z</time>
      </trkpt>
      <trkpt lat="43.63587" lon="1.40285">
        <ele>133</ele>
        <time>2024-06-19T10:29:02Z</time>
      </trkpt>
      <trkpt lat="43.63584" lon="1.40285">
        <ele>132</ele>
        <time>2024-06-19T10:29:03Z</time>
      </trkpt>
      <trkpt lat="43.63582" lon="1.40284">
        <ele>132</ele>
        <time>2024-06-19T10:29:04Z</time>
      </trkpt>
      <trkpt lat="43.63579" lon="1.40284">
        <ele>133</ele>
        <time>2024-06-19T10:29:05Z</time>
      </trkpt>
      <trkpt lat="43.63576" lon="1.40283">
        <ele>133</ele>
        <time>2024-06-19T10:29:06Z</time>
      </trkpt>
      <trkpt lat="43.63574" lon="1.40283">
        <ele>132</ele>
        <time>2024-06-19T10:29:07Z</time>
      </trkpt>
      <trkpt lat="43.63571" lon="1.40282">
        <ele>132</ele>
        <time>2024-06-19T10:29:08Z</time>
      </trkpt>
      <trkpt lat="43.63569" lon="1.40281">
        <ele>132</ele>
        <time>2024-06-19T10:29:09Z</time>
      </trkpt>
      <trkpt lat="43.63566" lon="1.4028">
        <ele>132</ele>
        <time>2024-06-19T10:29:10Z</time>
      </trkpt>
      <trkpt lat="43.63563" lon="1.4028">
        <ele>132</ele>
        <time>2024-06-19T10:29:11Z</time>
      </trkpt>
      <trkpt lat="43.63561" lon="1.4028">
        <ele>132</ele>
        <time>2024-06-19T10:29:12Z</time>
      </trkpt>
      <trkpt lat="43.63558" lon="1.40279">
        <ele>132</ele>
        <time>2024-06-19T10:29:13Z</time>
      </trkpt>
      <trkpt lat="43.63556" lon="1.40279">
        <ele>132</ele>
        <time>2024-06-19T10:29:14Z</time>
      </trkpt>
      <trkpt lat="43.63554" lon="1.40279">
        <ele>133</ele>
        <time>2024-06-19T10:29:15Z</time>
      </trkpt>
      <trkpt lat="43.63551" lon="1.40278">
        <ele>133</ele>
        <time>2024-06-19T10:29:16Z</time>
      </trkpt>
      <trkpt lat="43.63548" lon="1.40278">
        <ele>132</ele>
        <time>2024-06-19T10:29:17Z</time>
      </trkpt>
      <trkpt lat="43.63546" lon="1.40278">
        <ele>132</ele>
        <time>2024-06-19T10:29:18Z</time>
      </trkpt>
      <trkpt lat="43.63543" lon="1.40277">
        <ele>132</ele>
        <time>2024-06-19T10:29:19Z</time>
      </trkpt>
      <trkpt lat="43.6354" lon="1.40277">
        <ele>132</ele>
        <time>2024-06-19T10:29:20Z</time>
      </trkpt>
      <trkpt lat="43.63537" lon="1.40276">
        <ele>132</ele>
        <time>2024-06-19T10:29:21Z</time>
      </trkpt>
      <trkpt lat="43.63534" lon="1.40275">
        <ele>132</ele>
        <time>2024-06-19T10:29:22Z</time>
      </trkpt>
      <trkpt lat="43.63534" lon="1.40275">
        <ele>132</ele>
        <time>2024-06-19T10:29:23Z</time>
      </trkpt>
      <trkpt lat="43.63529" lon="1.40274">
        <ele>133</ele>
        <time>2024-06-19T10:29:24Z</time>
      </trkpt>
      <trkpt lat="43.63526" lon="1.40273">
        <ele>133</ele>
        <time>2024-06-19T10:29:25Z</time>
      </trkpt>
      <trkpt lat="43.63523" lon="1.40272">
        <ele>132</ele>
        <time>2024-06-19T10:29:26Z</time>
      </trkpt>
      <trkpt lat="43.6352" lon="1.40271">
        <ele>132</ele>
        <time>2024-06-19T10:29:27Z</time>
      </trkpt>
      <trkpt lat="43.63517" lon="1.4027">
        <ele>132</ele>
        <time>2024-06-19T10:29:28Z</time>
      </trkpt>
      <trkpt lat="43.63514" lon="1.4027">
        <ele>132</ele>
        <time>2024-06-19T10:29:29Z</time>
      </trkpt>
      <trkpt lat="43.63511" lon="1.40268">
        <ele>132</ele>
        <time>2024-06-19T10:29:30Z</time>
      </trkpt>
      <trkpt lat="43.63508" lon="1.40268">
        <ele>132</ele>
        <time>2024-06-19T10:29:31Z</time>
      </trkpt>
      <trkpt lat="43.63506" lon="1.40268">
        <ele>132</ele>
        <time>2024-06-19T10:29:32Z</time>
      </trkpt>
      <trkpt lat="43.63503" lon="1.40267">
        <ele>132</ele>
        <time>2024-06-19T10:29:33Z</time>
      </trkpt>
      <trkpt lat="43.63501" lon="1.40266">
        <ele>132</ele>
        <time>2024-06-19T10:29:34Z</time>
      </trkpt>
      <trkpt lat="43.63499" lon="1.40265">
        <ele>132</ele>
        <time>2024-06-19T10:29:35Z</time>
      </trkpt>
      <trkpt lat="43.63496" lon="1.40264">
        <ele>132</ele>
        <time>2024-06-19T10:29:36Z</time>
      </trkpt>
      <trkpt lat="43.63494" lon="1.40264">
        <ele>132</ele>
        <time>2024-06-19T10:29:37Z</time>
      </trkpt>
      <trkpt lat="43.63492" lon="1.40263">
        <ele>132</ele>
        <time>2024-06-19T10:29:38Z</time>
      </trkpt>
      <trkpt lat="43.63489" lon="1.40262">
        <ele>132</ele>
        <time>2024-06-19T10:29:39Z</time>
      </trkpt>
      <trkpt lat="43.63486" lon="1.40262">
        <ele>132</ele>
        <time>2024-06-19T10:29:40Z</time>
      </trkpt>
      <trkpt lat="43.63483" lon="1.40261">
        <ele>132</ele>
        <time>2024-06-19T10:29:41Z</time>
      </trkpt>
      <trkpt lat="43.63483" lon="1.40261">
        <ele>132</ele>
        <time>2024-06-19T10:29:42Z</time>
      </trkpt>
      <trkpt lat="43.63477" lon="1.4026">
        <ele>133</ele>
        <time>2024-06-19T10:29:43Z</time>
      </trkpt>
      <trkpt lat="43.63475" lon="1.40259">
        <ele>133</ele>
        <time>2024-06-19T10:29:44Z</time>
      </trkpt>
      <trkpt lat="43.63472" lon="1.40258">
        <ele>133</ele>
        <time>2024-06-19T10:29:45Z</time>
      </trkpt>
      <trkpt lat="43.63472" lon="1.40258">
        <ele>133</ele>
        <time>2024-06-19T10:29:46Z</time>
      </trkpt>
      <trkpt lat="43.63467" lon="1.40256">
        <ele>133</ele>
        <time>2024-06-19T10:29:47Z</time>
      </trkpt>
      <trkpt lat="43.63464" lon="1.40255">
        <ele>133</ele>
        <time>2024-06-19T10:29:48Z</time>
      </trkpt>
      <trkpt lat="43.63462" lon="1.40254">
        <ele>133</ele>
        <time>2024-06-19T10:29:49Z</time>
      </trkpt>
      <trkpt lat="43.63459" lon="1.40253">
        <ele>133</ele>
        <time>2024-06-19T10:29:50Z</time>
      </trkpt>
      <trkpt lat="43.63456" lon="1.40253">
        <ele>133</ele>
        <time>2024-06-19T10:29:51Z</time>
      </trkpt>
      <trkpt lat="43.63454" lon="1.40253">
        <ele>133</ele>
        <time>2024-06-19T10:29:52Z</time>
      </trkpt>
      <trkpt lat="43.63451" lon="1.40252">
        <ele>132</ele>
        <time>2024-06-19T10:29:53Z</time>
      </trkpt>
      <trkpt lat="43.63448" lon="1.40252">
        <ele>132</ele>
        <time>2024-06-19T10:29:54Z</time>
      </trkpt>
      <trkpt lat="43.63445" lon="1.40251">
        <ele>132</ele>
        <time>2024-06-19T10:29:55Z</time>
      </trkpt>
      <trkpt lat="43.63442" lon="1.4025">
        <ele>132</ele>
        <time>2024-06-19T10:29:56Z</time>
      </trkpt>
      <trkpt lat="43.63439" lon="1.4025">
        <ele>132</ele>
        <time>2024-06-19T10:29:57Z</time>
      </trkpt>
      <trkpt lat="43.63436" lon="1.4025">
        <ele>132</ele>
        <time>2024-06-19T10:29:58Z</time>
      </trkpt>
      <trkpt lat="43.63433" lon="1.40249">
        <ele>132</ele>
        <time>2024-06-19T10:29:59Z</time>
      </trkpt>
      <trkpt lat="43.6343" lon="1.40248">
        <ele>132</ele>
        <time>2024-06-19T10:30:00Z</time>
      </trkpt>
      <trkpt lat="43.6343" lon="1.40248">
        <ele>132</ele>
        <time>2024-06-19T10:30:01Z</time>
      </trkpt>
      <trkpt lat="43.63424" lon="1.40246">
        <ele>132</ele>
        <time>2024-06-19T10:30:02Z</time>
      </trkpt>
      <trkpt lat="43.63421" lon="1.40246">
        <ele>132</ele>
        <time>2024-06-19T10:30:03Z</time>
      </trkpt>
      <trkpt lat="43.63421" lon="1.40246">
        <ele>132</ele>
        <time>2024-06-19T10:30:04Z</time>
      </trkpt>
      <trkpt lat="43.63416" lon="1.40244">
        <ele>132</ele>
        <time>2024-06-19T10:30:05Z</time>
      </trkpt>
      <trkpt lat="43.63413" lon="1.40243">
        <ele>132</ele>
        <time>2024-06-19T10:30:06Z</time>
      </trkpt>
      <trkpt lat="43.6341" lon="1.40242">
        <ele>132</ele>
        <time>2024-06-19T10:30:07Z</time>
      </trkpt>
      <trkpt lat="43.63408" lon="1.40242">
        <ele>132</ele>
        <time>2024-06-19T10:30:08Z</time>
      </trkpt>
      <trkpt lat="43.63405" lon="1.40241">
        <ele>132</ele>
        <time>2024-06-19T10:30:09Z</time>
      </trkpt>
      <trkpt lat="43.63403" lon="1.40241">
        <ele>131</ele>
        <time>2024-06-19T10:30:10Z</time>
      </trkpt>
      <trkpt lat="43.63403" lon="1.40241">
        <ele>131</ele>
        <time>2024-06-19T10:30:11Z</time>
      </trkpt>
      <trkpt lat="43.634" lon="1.40242">
        <ele>131</ele>
        <time>2024-06-19T10:30:12Z</time>
      </trkpt>
      <trkpt lat="43.634" lon="1.40242">
        <ele>131</ele>
        <time>2024-06-19T10:30:13Z</time>
      </trkpt>
      <trkpt lat="43.63399" lon="1.4024">
        <ele>131</ele>
        <time>2024-06-19T10:30:14Z</time>
      </trkpt>
      <trkpt lat="43.63397" lon="1.40239">
        <ele>131</ele>
        <time>2024-06-19T10:30:15Z</time>
      </trkpt>
      <trkpt lat="43.63396" lon="1.40238">
        <ele>131</ele>
        <time>2024-06-19T10:30:16Z</time>
      </trkpt>
      <trkpt lat="43.63394" lon="1.40236">
        <ele>131</ele>
        <time>2024-06-19T10:30:17Z</time>
      </trkpt>
      <trkpt lat="43.63391" lon="1.40235">
        <ele>131</ele>
        <time>2024-06-19T10:30:18Z</time>
      </trkpt>
      <trkpt lat="43.63388" lon="1.40235">
        <ele>131</ele>
        <time>2024-06-19T10:30:19Z</time>
      </trkpt>
      <trkpt lat="43.63385" lon="1.40235">
        <ele>131</ele>
        <time>2024-06-19T10:30:20Z</time>
      </trkpt>
      <trkpt lat="43.63383" lon="1.40235">
        <ele>131</ele>
        <time>2024-06-19T10:30:21Z</time>
      </trkpt>
      <trkpt lat="43.63381" lon="1.40235">
        <ele>131</ele>
        <time>2024-06-19T10:30:22Z</time>
      </trkpt>
      <trkpt lat="43.63378" lon="1.40235">
        <ele>131</ele>
        <time>2024-06-19T10:30:23Z</time>
      </trkpt>
      <trkpt lat="43.63375" lon="1.40234">
        <ele>131</ele>
        <time>2024-06-19T10:30:24Z</time>
      </trkpt>
      <trkpt lat="43.63373" lon="1.40233">
        <ele>131</ele>
        <time>2024-06-19T10:30:25Z</time>
      </trkpt>
      <trkpt lat="43.63373" lon="1.40233">
        <ele>130</ele>
        <time>2024-06-19T10:30:26Z</time>
      </trkpt>
      <trkpt lat="43.63367" lon="1.40232">
        <ele>130</ele>
        <time>2024-06-19T10:30:27Z</time>
      </trkpt>
      <trkpt lat="43.63364" lon="1.40231">
        <ele>130</ele>
        <time>2024-06-19T10:30:28Z</time>
      </trkpt>
      <trkpt lat="43.63361" lon="1.4023">
        <ele>129</ele>
        <time>2024-06-19T10:30:29Z</time>
      </trkpt>
      <trkpt lat="43.63358" lon="1.40229">
        <ele>129</ele>
        <time>2024-06-19T10:30:30Z</time>
      </trkpt>
      <trkpt lat="43.63356" lon="1.40228">
        <ele>129</ele>
        <time>2024-06-19T10:30:31Z</time>
      </trkpt>
      <trkpt lat="43.63353" lon="1.40228">
        <ele>129</ele>
        <time>2024-06-19T10:30:32Z</time>
      </trkpt>
      <trkpt lat="43.6335" lon="1.40227">
        <ele>129</ele>
        <time>2024-06-19T10:30:33Z</time>
      </trkpt>
      <trkpt lat="43.63347" lon="1.40226">
        <ele>129</ele>
        <time>2024-06-19T10:30:34Z</time>
      </trkpt>
      <trkpt lat="43.63344" lon="1.40225">
        <ele>128</ele>
        <time>2024-06-19T10:30:35Z</time>
      </trkpt>
      <trkpt lat="43.63341" lon="1.40224">
        <ele>128</ele>
        <time>2024-06-19T10:30:36Z</time>
      </trkpt>
      <trkpt lat="43.63338" lon="1.40224">
        <ele>128</ele>
        <time>2024-06-19T10:30:37Z</time>
      </trkpt>
      <trkpt lat="43.63335" lon="1.40223">
        <ele>128</ele>
        <time>2024-06-19T10:30:38Z</time>
      </trkpt>
      <trkpt lat="43.63335" lon="1.40223">
        <ele>128</ele>
        <time>2024-06-19T10:30:39Z</time>
      </trkpt>
      <trkpt lat="43.6333" lon="1.4022">
        <ele>128</ele>
        <time>2024-06-19T10:30:40Z</time>
      </trkpt>
      <trkpt lat="43.63327" lon="1.4022">
        <ele>128</ele>
        <time>2024-06-19T10:30:41Z</time>
      </trkpt>
      <trkpt lat="43.63325" lon="1.40219">
        <ele>128</ele>
        <time>2024-06-19T10:30:42Z</time>
      </trkpt>
      <trkpt lat="43.63325" lon="1.40219">
        <ele>128</ele>
        <time>2024-06-19T10:30:43Z</time>
      </trkpt>
      <trkpt lat="43.6332" lon="1.40217">
        <ele>128</ele>
        <time>2024-06-19T10:30:44Z</time>
      </trkpt>
      <trkpt lat="43.63318" lon="1.40216">
        <ele>128</ele>
        <time>2024-06-19T10:30:45Z</time>
      </trkpt>
      <trkpt lat="43.63316" lon="1.40215">
        <ele>128</ele>
        <time>2024-06-19T10:30:46Z</time>
      </trkpt>
      <trkpt lat="43.63314" lon="1.40214">
        <ele>128</ele>
        <time>2024-06-19T10:30:47Z</time>
      </trkpt>
      <trkpt lat="43.63311" lon="1.40212">
        <ele>128</ele>
        <time>2024-06-19T10:30:48Z</time>
      </trkpt>
      <trkpt lat="43.63309" lon="1.4021">
        <ele>128</ele>
        <time>2024-06-19T10:30:49Z</time>
      </trkpt>
      <trkpt lat="43.63307" lon="1.40208">
        <ele>128</ele>
        <time>2024-06-19T10:30:50Z</time>
      </trkpt>
      <trkpt lat="43.63305" lon="1.40206">
        <ele>129</ele>
        <time>2024-06-19T10:30:51Z</time>
      </trkpt>
      <trkpt lat="43.63302" lon="1.40205">
        <ele>129</ele>
        <time>2024-06-19T10:30:52Z</time>
      </trkpt>
      <trkpt lat="43.63298" lon="1.40204">
        <ele>129</ele>
        <time>2024-06-19T10:30:53Z</time>
      </trkpt>
      <trkpt lat="43.63295" lon="1.40202">
        <ele>129</ele>
        <time>2024-06-19T10:30:54Z</time>
      </trkpt>
      <trkpt lat="43.63292" lon="1.40201">
        <ele>129</ele>
        <time>2024-06-19T10:30:55Z</time>
      </trkpt>
      <trkpt lat="43.63289" lon="1.402">
        <ele>128</ele>
        <time>2024-06-19T10:30:56Z</time>
      </trkpt>
      <trkpt lat="43.63287" lon="1.40199">
        <ele>128</ele>
        <time>2024-06-19T10:30:57Z</time>
      </trkpt>
      <trkpt lat="43.63284" lon="1.40198">
        <ele>129</ele>
        <time>2024-06-19T10:30:58Z</time>
      </trkpt>
      <trkpt lat="43.63281" lon="1.40196">
        <ele>129</ele>
        <time>2024-06-19T10:30:59Z</time>
      </trkpt>
      <trkpt lat="43.63278" lon="1.40196">
        <ele>129</ele>
        <time>2024-06-19T10:31:00Z</time>
      </trkpt>
      <trkpt lat="43.63275" lon="1.40195">
        <ele>129</ele>
        <time>2024-06-19T10:31:01Z</time>
      </trkpt>
      <trkpt lat="43.63273" lon="1.40195">
        <ele>129</ele>
        <time>2024-06-19T10:31:02Z</time>
      </trkpt>
      <trkpt lat="43.6327" lon="1.40194">
        <ele>129</ele>
        <time>2024-06-19T10:31:03Z</time>
      </trkpt>
      <trkpt lat="43.63267" lon="1.40193">
        <ele>129</ele>
        <time>2024-06-19T10:31:04Z</time>
      </trkpt>
      <trkpt lat="43.63264" lon="1.40192">
        <ele>129</ele>
        <time>2024-06-19T10:31:05Z</time>
      </trkpt>
      <trkpt lat="43.63261" lon="1.40191">
        <ele>129</ele>
        <time>2024-06-19T10:31:06Z</time>
      </trkpt>
      <trkpt lat="43.63259" lon="1.4019">
        <ele>129</ele>
        <time>2024-06-19T10:31:07Z</time>
      </trkpt>
      <trkpt lat="43.63256" lon="1.40189">
        <ele>129</ele>
        <time>2024-06-19T10:31:08Z</time>
      </trkpt>
      <trkpt lat="43.63253" lon="1.40188">
        <ele>129</ele>
        <time>2024-06-19T10:31:09Z</time>
      </trkpt>
      <trkpt lat="43.6325" lon="1.40187">
        <ele>129</ele>
        <time>2024-06-19T10:31:10Z</time>
      </trkpt>
      <trkpt lat="43.63247" lon="1.40186">
        <ele>129</ele>
        <time>2024-06-19T10:31:11Z</time>
      </trkpt>
      <trkpt lat="43.63244" lon="1.40186">
        <ele>129</ele>
        <time>2024-06-19T10:31:12Z</time>
      </trkpt>
      <trkpt lat="43.63242" lon="1.40184">
        <ele>129</ele>
        <time>2024-06-19T10:31:13Z</time>
      </trkpt>
      <trkpt lat="43.63239" lon="1.40183">
        <ele>129</ele>
        <time>2024-06-19T10:31:14Z</time>
      </trkpt>
      <trkpt lat="43.63236" lon="1.40182">
        <ele>129</ele>
        <time>2024-06-19T10:31:15Z</time>
      </trkpt>
      <trkpt lat="43.63233" lon="1.40181">
        <ele>129</ele>
        <time>2024-06-19T10:31:16Z</time>
      </trkpt>
      <trkpt lat="43.6323" lon="1.40179">
        <ele>129</ele>
        <time>2024-06-19T10:31:17Z</time>
      </trkpt>
      <trkpt lat="43.6323" lon="1.40179">
        <ele>129</ele>
        <time>2024-06-19T10:31:18Z</time>
      </trkpt>
      <trkpt lat="43.63225" lon="1.40177">
        <ele>129</ele>
        <time>2024-06-19T10:31:19Z</time>
      </trkpt>
      <trkpt lat="43.63223" lon="1.40176">
        <ele>129</ele>
        <time>2024-06-19T10:31:20Z</time>
      </trkpt>
      <trkpt lat="43.6322" lon="1.40176">
        <ele>129</ele>
        <time>2024-06-19T10:31:21Z</time>
      </trkpt>
      <trkpt lat="43.63217" lon="1.40175">
        <ele>129</ele>
        <time>2024-06-19T10:31:22Z</time>
      </trkpt>
      <trkpt lat="43.63215" lon="1.40176">
        <ele>129</ele>
        <time>2024-06-19T10:31:23Z</time>
      </trkpt>
      <trkpt lat="43.63212" lon="1.40175">
        <ele>129</ele>
        <time>2024-06-19T10:31:24Z</time>
      </trkpt>
      <trkpt lat="43.6321" lon="1.40175">
        <ele>129</ele>
        <time>2024-06-19T10:31:25Z</time>
      </trkpt>
      <trkpt lat="43.63207" lon="1.40173">
        <ele>129</ele>
        <time>2024-06-19T10:31:26Z</time>
      </trkpt>
      <trkpt lat="43.63205" lon="1.40171">
        <ele>130</ele>
        <time>2024-06-19T10:31:27Z</time>
      </trkpt>
      <trkpt lat="43.63203" lon="1.40168">
        <ele>130</ele>
        <time>2024-06-19T10:31:28Z</time>
      </trkpt>
      <trkpt lat="43.63203" lon="1.40168">
        <ele>130</ele>
        <time>2024-06-19T10:31:29Z</time>
      </trkpt>
      <trkpt lat="43.63199" lon="1.40167">
        <ele>130</ele>
        <time>2024-06-19T10:31:30Z</time>
      </trkpt>
      <trkpt lat="43.63197" lon="1.40168">
        <ele>130</ele>
        <time>2024-06-19T10:31:31Z</time>
      </trkpt>
      <trkpt lat="43.63194" lon="1.40169">
        <ele>131</ele>
        <time>2024-06-19T10:31:32Z</time>
      </trkpt>
      <trkpt lat="43.63191" lon="1.40169">
        <ele>131</ele>
        <time>2024-06-19T10:31:33Z</time>
      </trkpt>
      <trkpt lat="43.63189" lon="1.40169">
        <ele>131</ele>
        <time>2024-06-19T10:31:34Z</time>
      </trkpt>
      <trkpt lat="43.63186" lon="1.40168">
        <ele>131</ele>
        <time>2024-06-19T10:31:35Z</time>
      </trkpt>
      <trkpt lat="43.63186" lon="1.40168">
        <ele>130</ele>
        <time>2024-06-19T10:31:36Z</time>
      </trkpt>
      <trkpt lat="43.63184" lon="1.40166">
        <ele>129</ele>
        <time>2024-06-19T10:31:37Z</time>
      </trkpt>
      <trkpt lat="43.63178" lon="1.40163">
        <ele>129</ele>
        <time>2024-06-19T10:31:38Z</time>
      </trkpt>
      <trkpt lat="43.63176" lon="1.40161">
        <ele>129</ele>
        <time>2024-06-19T10:31:39Z</time>
      </trkpt>
      <trkpt lat="43.63173" lon="1.40159">
        <ele>129</ele>
        <time>2024-06-19T10:31:40Z</time>
      </trkpt>
      <trkpt lat="43.6317" lon="1.40158">
        <ele>129</ele>
        <time>2024-06-19T10:31:41Z</time>
      </trkpt>
      <trkpt lat="43.63167" lon="1.40156">
        <ele>129</ele>
        <time>2024-06-19T10:31:42Z</time>
      </trkpt>
      <trkpt lat="43.63165" lon="1.40155">
        <ele>129</ele>
        <time>2024-06-19T10:31:43Z</time>
      </trkpt>
      <trkpt lat="43.63162" lon="1.40153">
        <ele>129</ele>
        <time>2024-06-19T10:31:44Z</time>
      </trkpt>
      <trkpt lat="43.63159" lon="1.40152">
        <ele>129</ele>
        <time>2024-06-19T10:31:45Z</time>
      </trkpt>
      <trkpt lat="43.63156" lon="1.4015">
        <ele>129</ele>
        <time>2024-06-19T10:31:46Z</time>
      </trkpt>
      <trkpt lat="43.63154" lon="1.40148">
        <ele>130</ele>
        <time>2024-06-19T10:31:47Z</time>
      </trkpt>
      <trkpt lat="43.63152" lon="1.40146">
        <ele>130</ele>
        <time>2024-06-19T10:31:48Z</time>
      </trkpt>
      <trkpt lat="43.6315" lon="1.40145">
        <ele>129</ele>
        <time>2024-06-19T10:31:49Z</time>
      </trkpt>
      <trkpt lat="43.63148" lon="1.40144">
        <ele>129</ele>
        <time>2024-06-19T10:31:50Z</time>
      </trkpt>
      <trkpt lat="43.63146" lon="1.40142">
        <ele>129</ele>
        <time>2024-06-19T10:31:51Z</time>
      </trkpt>
      <trkpt lat="43.63143" lon="1.40141">
        <ele>129</ele>
        <time>2024-06-19T10:31:52Z</time>
      </trkpt>
      <trkpt lat="43.6314" lon="1.4014">
        <ele>129</ele>
        <time>2024-06-19T10:31:53Z</time>
      </trkpt>
      <trkpt lat="43.63138" lon="1.40139">
        <ele>129</ele>
        <time>2024-06-19T10:31:54Z</time>
      </trkpt>
      <trkpt lat="43.63134" lon="1.40138">
        <ele>130</ele>
        <time>2024-06-19T10:31:56Z</time>
      </trkpt>
      <trkpt lat="43.63132" lon="1.40136">
        <ele>130</ele>
        <time>2024-06-19T10:31:57Z</time>
      </trkpt>
      <trkpt lat="43.6313" lon="1.40135">
        <ele>130</ele>
        <time>2024-06-19T10:31:58Z</time>
      </trkpt>
      <trkpt lat="43.63127" lon="1.40134">
        <ele>130</ele>
        <time>2024-06-19T10:31:59Z</time>
      </trkpt>
      <trkpt lat="43.63125" lon="1.40133">
        <ele>130</ele>
        <time>2024-06-19T10:32:00Z</time>
      </trkpt>
      <trkpt lat="43.63123" lon="1.40132">
        <ele>130</ele>
        <time>2024-06-19T10:32:01Z</time>
      </trkpt>
      <trkpt lat="43.63123" lon="1.40132">
        <ele>130</ele>
        <time>2024-06-19T10:32:02Z</time>
      </trkpt>
      <trkpt lat="43.63115" lon="1.4013">
        <ele>130</ele>
        <time>2024-06-19T10:32:03Z</time>
      </trkpt>
      <trkpt lat="43.63113" lon="1.4013">
        <ele>129</ele>
        <time>2024-06-19T10:32:04Z</time>
      </trkpt>
      <trkpt lat="43.63111" lon="1.40128">
        <ele>129</ele>
        <time>2024-06-19T10:32:05Z</time>
      </trkpt>
      <trkpt lat="43.63111" lon="1.40128">
        <ele>129</ele>
        <time>2024-06-19T10:32:06Z</time>
      </trkpt>
      <trkpt lat="43.63107" lon="1.40128">
        <ele>129</ele>
        <time>2024-06-19T10:32:07Z</time>
      </trkpt>
      <trkpt lat="43.63104" lon="1.40127">
        <ele>129</ele>
        <time>2024-06-19T10:32:08Z</time>
      </trkpt>
      <trkpt lat="43.63101" lon="1.40127">
        <ele>130</ele>
        <time>2024-06-19T10:32:09Z</time>
      </trkpt>
      <trkpt lat="43.63097" lon="1.40127">
        <ele>130</ele>
        <time>2024-06-19T10:32:10Z</time>
      </trkpt>
      <trkpt lat="43.63096" lon="1.40126">
        <ele>130</ele>
        <time>2024-06-19T10:32:11Z</time>
      </trkpt>
      <trkpt lat="43.6309" lon="1.40123">
        <ele>130</ele>
        <time>2024-06-19T10:32:12Z</time>
      </trkpt>
      <trkpt lat="43.63088" lon="1.40122">
        <ele>130</ele>
        <time>2024-06-19T10:32:13Z</time>
      </trkpt>
      <trkpt lat="43.63088" lon="1.40122">
        <ele>130</ele>
        <time>2024-06-19T10:32:14Z</time>
      </trkpt>
      <trkpt lat="43.63083" lon="1.40119">
        <ele>130</ele>
        <time>2024-06-19T10:32:15Z</time>
      </trkpt>
      <trkpt lat="43.6308" lon="1.40118">
        <ele>130</ele>
        <time>2024-06-19T10:32:16Z</time>
      </trkpt>
      <trkpt lat="43.63077" lon="1.40117">
        <ele>131</ele>
        <time>2024-06-19T10:32:17Z</time>
      </trkpt>
      <trkpt lat="43.63075" lon="1.40116">
        <ele>131</ele>
        <time>2024-06-19T10:32:18Z</time>
      </trkpt>
      <trkpt lat="43.63072" lon="1.40115">
        <ele>131</ele>
        <time>2024-06-19T10:32:19Z</time>
      </trkpt>
      <trkpt lat="43.6307" lon="1.40114">
        <ele>132</ele>
        <time>2024-06-19T10:32:20Z</time>
      </trkpt>
      <trkpt lat="43.63067" lon="1.40113">
        <ele>132</ele>
        <time>2024-06-19T10:32:21Z</time>
      </trkpt>
      <trkpt lat="43.63065" lon="1.40112">
        <ele>131</ele>
        <time>2024-06-19T10:32:22Z</time>
      </trkpt>
      <trkpt lat="43.63062" lon="1.40111">
        <ele>131</ele>
        <time>2024-06-19T10:32:23Z</time>
      </trkpt>
      <trkpt lat="43.63058" lon="1.4011">
        <ele>131</ele>
        <time>2024-06-19T10:32:24Z</time>
      </trkpt>
      <trkpt lat="43.63055" lon="1.40109">
        <ele>131</ele>
        <time>2024-06-19T10:32:25Z</time>
      </trkpt>
      <trkpt lat="43.63052" lon="1.40108">
        <ele>131</ele>
        <time>2024-06-19T10:32:26Z</time>
      </trkpt>
      <trkpt lat="43.6305" lon="1.40107">
        <ele>131</ele>
        <time>2024-06-19T10:32:27Z</time>
      </trkpt>
      <trkpt lat="43.63047" lon="1.40106">
        <ele>131</ele>
        <time>2024-06-19T10:32:28Z</time>
      </trkpt>
      <trkpt lat="43.63044" lon="1.40105">
        <ele>131</ele>
        <time>2024-06-19T10:32:29Z</time>
      </trkpt>
      <trkpt lat="43.63042" lon="1.40104">
        <ele>131</ele>
        <time>2024-06-19T10:32:30Z</time>
      </trkpt>
      <trkpt lat="43.63039" lon="1.40104">
        <ele>131</ele>
        <time>2024-06-19T10:32:31Z</time>
      </trkpt>
      <trkpt lat="43.63036" lon="1.40103">
        <ele>131</ele>
        <time>2024-06-19T10:32:32Z</time>
      </trkpt>
      <trkpt lat="43.63034" lon="1.40103">
        <ele>131</ele>
        <time>2024-06-19T10:32:33Z</time>
      </trkpt>
      <trkpt lat="43.63032" lon="1.40103">
        <ele>131</ele>
        <time>2024-06-19T10:32:34Z</time>
      </trkpt>
      <trkpt lat="43.63029" lon="1.40102">
        <ele>131</ele>
        <time>2024-06-19T10:32:35Z</time>
      </trkpt>
      <trkpt lat="43.63026" lon="1.40102">
        <ele>131</ele>
        <time>2024-06-19T10:32:36Z</time>
      </trkpt>
      <trkpt lat="43.63024" lon="1.40102">
        <ele>131</ele>
        <time>2024-06-19T10:32:37Z</time>
      </trkpt>
      <trkpt lat="43.6302" lon="1.40101">
        <ele>131</ele>
        <time>2024-06-19T10:32:38Z</time>
      </trkpt>
      <trkpt lat="43.63016" lon="1.401">
        <ele>131</ele>
        <time>2024-06-19T10:32:39Z</time>
      </trkpt>
      <trkpt lat="43.63013" lon="1.40099">
        <ele>130</ele>
        <time>2024-06-19T10:32:40Z</time>
      </trkpt>
      <trkpt lat="43.63009" lon="1.40099">
        <ele>131</ele>
        <time>2024-06-19T10:32:41Z</time>
      </trkpt>
      <trkpt lat="43.63006" lon="1.40099">
        <ele>131</ele>
        <time>2024-06-19T10:32:42Z</time>
      </trkpt>
      <trkpt lat="43.63004" lon="1.40098">
        <ele>131</ele>
        <time>2024-06-19T10:32:43Z</time>
      </trkpt>
      <trkpt lat="43.63001" lon="1.40098">
        <ele>131</ele>
        <time>2024-06-19T10:32:44Z</time>
      </trkpt>
      <trkpt lat="43.62999" lon="1.40098">
        <ele>131</ele>
        <time>2024-06-19T10:32:45Z</time>
      </trkpt>
      <trkpt lat="43.62997" lon="1.40098">
        <ele>131</ele>
        <time>2024-06-19T10:32:46Z</time>
      </trkpt>
      <trkpt lat="43.62995" lon="1.40099">
        <ele>131</ele>
        <time>2024-06-19T10:32:47Z</time>
      </trkpt>
      <trkpt lat="43.62991" lon="1.40099">
        <ele>130</ele>
        <time>2024-06-19T10:32:48Z</time>
      </trkpt>
      <trkpt lat="43.62991" lon="1.40099">
        <ele>130</ele>
        <time>2024-06-19T10:32:49Z</time>
      </trkpt>
      <trkpt lat="43.62985" lon="1.40098">
        <ele>130</ele>
        <time>2024-06-19T10:32:50Z</time>
      </trkpt>
      <trkpt lat="43.62982" lon="1.40097">
        <ele>130</ele>
        <time>2024-06-19T10:32:51Z</time>
      </trkpt>
      <trkpt lat="43.6298" lon="1.40096">
        <ele>130</ele>
        <time>2024-06-19T10:32:52Z</time>
      </trkpt>
      <trkpt lat="43.62977" lon="1.40094">
        <ele>130</ele>
        <time>2024-06-19T10:32:53Z</time>
      </trkpt>
      <trkpt lat="43.62974" lon="1.40093">
        <ele>130</ele>
        <time>2024-06-19T10:32:54Z</time>
      </trkpt>
      <trkpt lat="43.62971" lon="1.40092">
        <ele>129</ele>
        <time>2024-06-19T10:32:55Z</time>
      </trkpt>
      <trkpt lat="43.62968" lon="1.40091">
        <ele>129</ele>
        <time>2024-06-19T10:32:56Z</time>
      </trkpt>
      <trkpt lat="43.62965" lon="1.4009">
        <ele>129</ele>
        <time>2024-06-19T10:32:57Z</time>
      </trkpt>
      <trkpt lat="43.62962" lon="1.40089">
        <ele>129</ele>
        <time>2024-06-19T10:32:58Z</time>
      </trkpt>
      <trkpt lat="43.62959" lon="1.40088">
        <ele>130</ele>
        <time>2024-06-19T10:32:59Z</time>
      </trkpt>
      <trkpt lat="43.62957" lon="1.40088">
        <ele>130</ele>
        <time>2024-06-19T10:33:00Z</time>
      </trkpt>
      <trkpt lat="43.62955" lon="1.40086">
        <ele>130</ele>
        <time>2024-06-19T10:33:01Z</time>
      </trkpt>
      <trkpt lat="43.62952" lon="1.40085">
        <ele>130</ele>
        <time>2024-06-19T10:33:02Z</time>
      </trkpt>
      <trkpt lat="43.6295" lon="1.40084">
        <ele>130</ele>
        <time>2024-06-19T10:33:03Z</time>
      </trkpt>
      <trkpt lat="43.62949" lon="1.40082">
        <ele>130</ele>
        <time>2024-06-19T10:33:04Z</time>
      </trkpt>
      <trkpt lat="43.62949" lon="1.40082">
        <ele>130</ele>
        <time>2024-06-19T10:33:05Z</time>
      </trkpt>
      <trkpt lat="43.62945" lon="1.4008">
        <ele>130</ele>
        <time>2024-06-19T10:33:06Z</time>
      </trkpt>
      <trkpt lat="43.62945" lon="1.4008">
        <ele>130</ele>
        <time>2024-06-19T10:33:07Z</time>
      </trkpt>
      <trkpt lat="43.62938" lon="1.40079">
        <ele>130</ele>
        <time>2024-06-19T10:33:08Z</time>
      </trkpt>
      <trkpt lat="43.62935" lon="1.40077">
        <ele>131</ele>
        <time>2024-06-19T10:33:09Z</time>
      </trkpt>
      <trkpt lat="43.62932" lon="1.40076">
        <ele>131</ele>
        <time>2024-06-19T10:33:10Z</time>
      </trkpt>
      <trkpt lat="43.62932" lon="1.40076">
        <ele>131</ele>
        <time>2024-06-19T10:33:11Z</time>
      </trkpt>
      <trkpt lat="43.62926" lon="1.40075">
        <ele>130</ele>
        <time>2024-06-19T10:33:12Z</time>
      </trkpt>
      <trkpt lat="43.62924" lon="1.40073">
        <ele>130</ele>
        <time>2024-06-19T10:33:13Z</time>
      </trkpt>
      <trkpt lat="43.62921" lon="1.40072">
        <ele>130</ele>
        <time>2024-06-19T10:33:14Z</time>
      </trkpt>
      <trkpt lat="43.62918" lon="1.40071">
        <ele>131</ele>
        <time>2024-06-19T10:33:15Z</time>
      </trkpt>
      <trkpt lat="43.62914" lon="1.40071">
        <ele>131</ele>
        <time>2024-06-19T10:33:16Z</time>
      </trkpt>
      <trkpt lat="43.62911" lon="1.4007">
        <ele>131</ele>
        <time>2024-06-19T10:33:17Z</time>
      </trkpt>
      <trkpt lat="43.62907" lon="1.4007">
        <ele>131</ele>
        <time>2024-06-19T10:33:18Z</time>
      </trkpt>
      <trkpt lat="43.62904" lon="1.40069">
        <ele>131</ele>
        <time>2024-06-19T10:33:19Z</time>
      </trkpt>
      <trkpt lat="43.629" lon="1.40068">
        <ele>131</ele>
        <time>2024-06-19T10:33:20Z</time>
      </trkpt>
      <trkpt lat="43.62898" lon="1.40067">
        <ele>130</ele>
        <time>2024-06-19T10:33:21Z</time>
      </trkpt>
      <trkpt lat="43.62895" lon="1.40065">
        <ele>130</ele>
        <time>2024-06-19T10:33:22Z</time>
      </trkpt>
      <trkpt lat="43.62893" lon="1.40064">
        <ele>131</ele>
        <time>2024-06-19T10:33:23Z</time>
      </trkpt>
      <trkpt lat="43.6289" lon="1.40063">
        <ele>131</ele>
        <time>2024-06-19T10:33:24Z</time>
      </trkpt>
      <trkpt lat="43.62887" lon="1.40062">
        <ele>131</ele>
        <time>2024-06-19T10:33:25Z</time>
      </trkpt>
      <trkpt lat="43.62884" lon="1.40061">
        <ele>131</ele>
        <time>2024-06-19T10:33:26Z</time>
      </trkpt>
      <trkpt lat="43.62882" lon="1.40061">
        <ele>131</ele>
        <time>2024-06-19T10:33:27Z</time>
      </trkpt>
      <trkpt lat="43.62879" lon="1.4006">
        <ele>132</ele>
        <time>2024-06-19T10:33:28Z</time>
      </trkpt>
      <trkpt lat="43.62876" lon="1.40059">
        <ele>132</ele>
        <time>2024-06-19T10:33:29Z</time>
      </trkpt>
      <trkpt lat="43.62873" lon="1.40057">
        <ele>132</ele>
        <time>2024-06-19T10:33:30Z</time>
      </trkpt>
      <trkpt lat="43.62869" lon="1.40056">
        <ele>131</ele>
        <time>2024-06-19T10:34:36Z</time>
      </trkpt>
      <trkpt lat="43.62866" lon="1.40054">
        <ele>132</ele>
        <time>2024-06-19T10:34:37Z</time>
      </trkpt>
      <trkpt lat="43.62863" lon="1.40053">
        <ele>132</ele>
        <time>2024-06-19T10:34:38Z</time>
      </trkpt>
      <trkpt lat="43.62859" lon="1.40051">
        <ele>132</ele>
        <time>2024-06-19T10:34:39Z</time>
      </trkpt>
      <trkpt lat="43.62856" lon="1.4005">
        <ele>132</ele>
        <time>2024-06-19T10:34:40Z</time>
      </trkpt>
      <trkpt lat="43.62859" lon="1.4005">
        <ele>132</ele>
        <time>2024-06-19T10:34:41Z</time>
      </trkpt>
      <trkpt lat="43.62861" lon="1.40051">
        <ele>132</ele>
        <time>2024-06-19T10:34:42Z</time>
      </trkpt>
      <trkpt lat="43.62863" lon="1.40052">
        <ele>131</ele>
        <time>2024-06-19T10:34:43Z</time>
      </trkpt>
      <trkpt lat="43.62866" lon="1.40053">
        <ele>132</ele>
        <time>2024-06-19T10:34:44Z</time>
      </trkpt>
      <trkpt lat="43.62869" lon="1.40053">
        <ele>132</ele>
        <time>2024-06-19T10:34:45Z</time>
      </trkpt>
      <trkpt lat="43.62872" lon="1.40053">
        <ele>132</ele>
        <time>2024-06-19T10:34:46Z</time>
      </trkpt>
      <trkpt lat="43.62874" lon="1.40054">
        <ele>131</ele>
        <time>2024-06-19T10:34:47Z</time>
      </trkpt>
      <trkpt lat="43.62877" lon="1.40054">
        <ele>131</ele>
        <time>2024-06-19T10:34:48Z</time>
      </trkpt>
      <trkpt lat="43.6288" lon="1.40055">
        <ele>131</ele>
        <time>2024-06-19T10:34:49Z</time>
      </trkpt>
      <trkpt lat="43.62883" lon="1.40056">
        <ele>131</ele>
        <time>2024-06-19T10:34:50Z</time>
      </trkpt>
      <trkpt lat="43.62886" lon="1.40057">
        <ele>131</ele>
        <time>2024-06-19T10:34:51Z</time>
      </trkpt>
      <trkpt lat="43.62889" lon="1.40058">
        <ele>131</ele>
        <time>2024-06-19T10:34:52Z</time>
      </trkpt>
      <trkpt lat="43.62892" lon="1.40059">
        <ele>131</ele>
        <time>2024-06-19T10:34:53Z</time>
      </trkpt>
      <trkpt lat="43.62896" lon="1.4006">
        <ele>131</ele>
        <time>2024-06-19T10:34:54Z</time>
      </trkpt>
      <trkpt lat="43.62899" lon="1.4006">
        <ele>131</ele>
        <time>2024-06-19T10:34:55Z</time>
      </trkpt>
      <trkpt lat="43.62902" lon="1.40061">
        <ele>131</ele>
        <time>2024-06-19T10:34:56Z</time>
      </trkpt>
      <trkpt lat="43.62905" lon="1.40061">
        <ele>131</ele>
        <time>2024-06-19T10:34:57Z</time>
      </trkpt>
      <trkpt lat="43.62908" lon="1.40062">
        <ele>131</ele>
        <time>2024-06-19T10:34:58Z</time>
      </trkpt>
      <trkpt lat="43.62911" lon="1.40063">
        <ele>131</ele>
        <time>2024-06-19T10:34:59Z</time>
      </trkpt>
      <trkpt lat="43.62914" lon="1.40063">
        <ele>131</ele>
        <time>2024-06-19T10:35:00Z</time>
      </trkpt>
      <trkpt lat="43.62918" lon="1.40064">
        <ele>131</ele>
        <time>2024-06-19T10:35:01Z</time>
      </trkpt>
      <trkpt lat="43.6292" lon="1.40065">
        <ele>131</ele>
        <time>2024-06-19T10:35:02Z</time>
      </trkpt>
      <trkpt lat="43.62923" lon="1.40066">
        <ele>131</ele>
        <time>2024-06-19T10:35:03Z</time>
      </trkpt>
      <trkpt lat="43.62926" lon="1.40067">
        <ele>131</ele>
        <time>2024-06-19T10:35:04Z</time>
      </trkpt>
      <trkpt lat="43.62928" lon="1.40068">
        <ele>130</ele>
        <time>2024-06-19T10:35:05Z</time>
      </trkpt>
      <trkpt lat="43.62931" lon="1.40069">
        <ele>130</ele>
        <time>2024-06-19T10:35:06Z</time>
      </trkpt>
      <trkpt lat="43.62933" lon="1.40071">
        <ele>130</ele>
        <time>2024-06-19T10:35:07Z</time>
      </trkpt>
      <trkpt lat="43.62935" lon="1.40072">
        <ele>130</ele>
        <time>2024-06-19T10:35:08Z</time>
      </trkpt>
      <trkpt lat="43.62938" lon="1.40073">
        <ele>130</ele>
        <time>2024-06-19T10:35:09Z</time>
      </trkpt>
      <trkpt lat="43.62942" lon="1.40075">
        <ele>130</ele>
        <time>2024-06-19T10:35:10Z</time>
      </trkpt>
      <trkpt lat="43.62946" lon="1.40077">
        <ele>130</ele>
        <time>2024-06-19T10:35:11Z</time>
      </trkpt>
      <trkpt lat="43.6295" lon="1.40079">
        <ele>130</ele>
        <time>2024-06-19T10:35:12Z</time>
      </trkpt>
      <trkpt lat="43.62953" lon="1.4008">
        <ele>130</ele>
        <time>2024-06-19T10:35:13Z</time>
      </trkpt>
      <trkpt lat="43.62956" lon="1.40081">
        <ele>130</ele>
        <time>2024-06-19T10:35:14Z</time>
      </trkpt>
      <trkpt lat="43.62959" lon="1.40083">
        <ele>130</ele>
        <time>2024-06-19T10:35:15Z</time>
      </trkpt>
      <trkpt lat="43.62961" lon="1.40084">
        <ele>130</ele>
        <time>2024-06-19T10:35:16Z</time>
      </trkpt>
      <trkpt lat="43.62965" lon="1.40086">
        <ele>129</ele>
        <time>2024-06-19T10:35:17Z</time>
      </trkpt>
      <trkpt lat="43.62968" lon="1.40088">
        <ele>129</ele>
        <time>2024-06-19T10:35:18Z</time>
      </trkpt>
      <trkpt lat="43.62971" lon="1.40089">
        <ele>129</ele>
        <time>2024-06-19T10:35:19Z</time>
      </trkpt>
      <trkpt lat="43.62974" lon="1.4009">
        <ele>129</ele>
        <time>2024-06-19T10:35:20Z</time>
      </trkpt>
      <trkpt lat="43.62977" lon="1.40091">
        <ele>129</ele>
        <time>2024-06-19T10:35:21Z</time>
      </trkpt>
      <trkpt lat="43.6298" lon="1.40092">
        <ele>129</ele>
        <time>2024-06-19T10:35:22Z</time>
      </trkpt>
      <trkpt lat="43.62982" lon="1.40093">
        <ele>129</ele>
        <time>2024-06-19T10:35:23Z</time>
      </trkpt>
      <trkpt lat="43.62984" lon="1.40092">
        <ele>129</ele>
        <time>2024-06-19T10:35:24Z</time>
      </trkpt>
      <trkpt lat="43.62986" lon="1.40092">
        <ele>129</ele>
        <time>2024-06-19T10:35:25Z</time>
      </trkpt>
      <trkpt lat="43.62987" lon="1.40091">
        <ele>129</ele>
        <time>2024-06-19T10:35:26Z</time>
      </trkpt>
      <trkpt lat="43.62989" lon="1.40091">
        <ele>129</ele>
        <time>2024-06-19T10:35:27Z</time>
      </trkpt>
      <trkpt lat="43.6299" lon="1.4009">
        <ele>129</ele>
        <time>2024-06-19T10:35:28Z</time>
      </trkpt>
      <trkpt lat="43.62992" lon="1.40089">
        <ele>129</ele>
        <time>2024-06-19T10:35:29Z</time>
      </trkpt>
      <trkpt lat="43.62995" lon="1.40089">
        <ele>129</ele>
        <time>2024-06-19T10:35:30Z</time>
      </trkpt>
      <trkpt lat="43.62997" lon="1.40089">
        <ele>130</ele>
        <time>2024-06-19T10:35:31Z</time>
      </trkpt>
      <trkpt lat="43.63" lon="1.40089">
        <ele>130</ele>
        <time>2024-06-19T10:35:32Z</time>
      </trkpt>
      <trkpt lat="43.63002" lon="1.40089">
        <ele>130</ele>
        <time>2024-06-19T10:35:33Z</time>
      </trkpt>
      <trkpt lat="43.63005" lon="1.4009">
        <ele>130</ele>
        <time>2024-06-19T10:35:34Z</time>
      </trkpt>
      <trkpt lat="43.63009" lon="1.40091">
        <ele>130</ele>
        <time>2024-06-19T10:35:35Z</time>
      </trkpt>
      <trkpt lat="43.63012" lon="1.40093">
        <ele>130</ele>
        <time>2024-06-19T10:35:36Z</time>
      </trkpt>
      <trkpt lat="43.63014" lon="1.40093">
        <ele>130</ele>
        <time>2024-06-19T10:35:37Z</time>
      </trkpt>
      <trkpt lat="43.63017" lon="1.40094">
        <ele>130</ele>
        <time>2024-06-19T10:35:38Z</time>
      </trkpt>
      <trkpt lat="43.63019" lon="1.40095">
        <ele>130</ele>
        <time>2024-06-19T10:35:39Z</time>
      </trkpt>
      <trkpt lat="43.63022" lon="1.40096">
        <ele>130</ele>
        <time>2024-06-19T10:35:40Z</time>
      </trkpt>
      <trkpt lat="43.63025" lon="1.40098">
        <ele>130</ele>
        <time>2024-06-19T10:35:41Z</time>
      </trkpt>
      <trkpt lat="43.63029" lon="1.401">
        <ele>130</ele>
        <time>2024-06-19T10:35:42Z</time>
      </trkpt>
      <trkpt lat="43.63032" lon="1.40102">
        <ele>130</ele>
        <time>2024-06-19T10:35:43Z</time>
      </trkpt>
      <trkpt lat="43.63035" lon="1.40103">
        <ele>130</ele>
        <time>2024-06-19T10:35:44Z</time>
      </trkpt>
      <trkpt lat="43.63038" lon="1.40103">
        <ele>130</ele>
        <time>2024-06-19T10:35:45Z</time>
      </trkpt>
      <trkpt lat="43.63041" lon="1.40104">
        <ele>130</ele>
        <time>2024-06-19T10:35:46Z</time>
      </trkpt>
      <trkpt lat="43.63044" lon="1.40105">
        <ele>130</ele>
        <time>2024-06-19T10:35:47Z</time>
      </trkpt>
      <trkpt lat="43.63046" lon="1.40105">
        <ele>130</ele>
        <time>2024-06-19T10:35:48Z</time>
      </trkpt>
      <trkpt lat="43.63049" lon="1.40106">
        <ele>130</ele>
        <time>2024-06-19T10:35:49Z</time>
      </trkpt>
      <trkpt lat="43.63051" lon="1.40106">
        <ele>130</ele>
        <time>2024-06-19T10:35:50Z</time>
      </trkpt>
      <trkpt lat="43.63054" lon="1.40107">
        <ele>130</ele>
        <time>2024-06-19T10:35:51Z</time>
      </trkpt>
      <trkpt lat="43.63056" lon="1.40108">
        <ele>130</ele>
        <time>2024-06-19T10:35:52Z</time>
      </trkpt>
      <trkpt lat="43.63059" lon="1.40108">
        <ele>130</ele>
        <time>2024-06-19T10:35:53Z</time>
      </trkpt>
      <trkpt lat="43.63061" lon="1.40109">
        <ele>130</ele>
        <time>2024-06-19T10:35:54Z</time>
      </trkpt>
      <trkpt lat="43.63064" lon="1.4011">
        <ele>130</ele>
        <time>2024-06-19T10:35:55Z</time>
      </trkpt>
      <trkpt lat="43.63067" lon="1.40111">
        <ele>131</ele>
        <time>2024-06-19T10:35:56Z</time>
      </trkpt>
      <trkpt lat="43.63071" lon="1.40112">
        <ele>131</ele>
        <time>2024-06-19T10:35:57Z</time>
      </trkpt>
      <trkpt lat="43.63074" lon="1.40113">
        <ele>131</ele>
        <time>2024-06-19T10:35:58Z</time>
      </trkpt>
      <trkpt lat="43.63077" lon="1.40115">
        <ele>131</ele>
        <time>2024-06-19T10:35:59Z</time>
      </trkpt>
      <trkpt lat="43.63081" lon="1.40117">
        <ele>131</ele>
        <time>2024-06-19T10:36:00Z</time>
      </trkpt>
      <trkpt lat="43.63084" lon="1.40119">
        <ele>130</ele>
        <time>2024-06-19T10:36:01Z</time>
      </trkpt>
      <trkpt lat="43.63087" lon="1.40119">
        <ele>130</ele>
        <time>2024-06-19T10:36:02Z</time>
      </trkpt>
      <trkpt lat="43.6309" lon="1.4012">
        <ele>130</ele>
        <time>2024-06-19T10:36:03Z</time>
      </trkpt>
      <trkpt lat="43.63093" lon="1.40121">
        <ele>130</ele>
        <time>2024-06-19T10:36:04Z</time>
      </trkpt>
      <trkpt lat="43.63096" lon="1.40121">
        <ele>130</ele>
        <time>2024-06-19T10:36:05Z</time>
      </trkpt>
      <trkpt lat="43.63099" lon="1.40121">
        <ele>130</ele>
        <time>2024-06-19T10:36:06Z</time>
      </trkpt>
      <trkpt lat="43.63102" lon="1.40121">
        <ele>130</ele>
        <time>2024-06-19T10:36:07Z</time>
      </trkpt>
      <trkpt lat="43.63104" lon="1.40121">
        <ele>130</ele>
        <time>2024-06-19T10:36:08Z</time>
      </trkpt>
      <trkpt lat="43.63107" lon="1.40121">
        <ele>129</ele>
        <time>2024-06-19T10:36:09Z</time>
      </trkpt>
      <trkpt lat="43.63109" lon="1.40122">
        <ele>129</ele>
        <time>2024-06-19T10:36:10Z</time>
      </trkpt>
      <trkpt lat="43.63112" lon="1.40122">
        <ele>129</ele>
        <time>2024-06-19T10:36:11Z</time>
      </trkpt>
      <trkpt lat="43.63114" lon="1.40124">
        <ele>129</ele>
        <time>2024-06-19T10:36:12Z</time>
      </trkpt>
      <trkpt lat="43.63117" lon="1.40125">
        <ele>129</ele>
        <time>2024-06-19T10:36:13Z</time>
      </trkpt>
      <trkpt lat="43.63119" lon="1.40127">
        <ele>129</ele>
        <time>2024-06-19T10:36:14Z</time>
      </trkpt>
      <trkpt lat="43.63122" lon="1.40129">
        <ele>129</ele>
        <time>2024-06-19T10:36:15Z</time>
      </trkpt>
      <trkpt lat="43.63124" lon="1.4013">
        <ele>129</ele>
        <time>2024-06-19T10:36:16Z</time>
      </trkpt>
      <trkpt lat="43.63125" lon="1.40131">
        <ele>129</ele>
        <time>2024-06-19T10:36:17Z</time>
      </trkpt>
      <trkpt lat="43.63127" lon="1.40133">
        <ele>129</ele>
        <time>2024-06-19T10:36:18Z</time>
      </trkpt>
      <trkpt lat="43.63128" lon="1.40134">
        <ele>129</ele>
        <time>2024-06-19T10:36:19Z</time>
      </trkpt>
      <trkpt lat="43.6313" lon="1.40135">
        <ele>129</ele>
        <time>2024-06-19T10:36:20Z</time>
      </trkpt>
      <trkpt lat="43.63131" lon="1.40137">
        <ele>129</ele>
        <time>2024-06-19T10:36:21Z</time>
      </trkpt>
      <trkpt lat="43.63133" lon="1.40139">
        <ele>129</ele>
        <time>2024-06-19T10:36:22Z</time>
      </trkpt>
      <trkpt lat="43.63136" lon="1.40141">
        <ele>129</ele>
        <time>2024-06-19T10:36:23Z</time>
      </trkpt>
      <trkpt lat="43.63138" lon="1.40143">
        <ele>129</ele>
        <time>2024-06-19T10:36:24Z</time>
      </trkpt>
      <trkpt lat="43.6314" lon="1.40145">
        <ele>129</ele>
        <time>2024-06-19T10:36:25Z</time>
      </trkpt>
      <trkpt lat="43.63144" lon="1.40147">
        <ele>129</ele>
        <time>2024-06-19T10:36:26Z</time>
      </trkpt>
      <trkpt lat="43.63147" lon="1.40149">
        <ele>129</ele>
        <time>2024-06-19T10:36:27Z</time>
      </trkpt>
      <trkpt lat="43.63151" lon="1.4015">
        <ele>129</ele>
        <time>2024-06-19T10:36:28Z</time>
      </trkpt>
      <trkpt lat="43.63153" lon="1.40151">
        <ele>129</ele>
        <time>2024-06-19T10:36:29Z</time>
      </trkpt>
      <trkpt lat="43.63155" lon="1.40151">
        <ele>129</ele>
        <time>2024-06-19T10:36:30Z</time>
      </trkpt>
      <trkpt lat="43.63157" lon="1.40152">
        <ele>129</ele>
        <time>2024-06-19T10:36:31Z</time>
      </trkpt>
      <trkpt lat="43.63166" lon="1.40155">
        <ele>129</ele>
        <time>2024-06-19T10:36:32Z</time>
      </trkpt>
      <trkpt lat="43.63169" lon="1.40157">
        <ele>129</ele>
        <time>2024-06-19T10:36:33Z</time>
      </trkpt>
      <trkpt lat="43.63173" lon="1.40159">
        <ele>128</ele>
        <time>2024-06-19T10:36:34Z</time>
      </trkpt>
      <trkpt lat="43.63176" lon="1.4016">
        <ele>128</ele>
        <time>2024-06-19T10:36:35Z</time>
      </trkpt>
      <trkpt lat="43.63178" lon="1.40161">
        <ele>128</ele>
        <time>2024-06-19T10:36:36Z</time>
      </trkpt>
      <trkpt lat="43.63181" lon="1.40163">
        <ele>128</ele>
        <time>2024-06-19T10:36:37Z</time>
      </trkpt>
      <trkpt lat="43.63184" lon="1.40164">
        <ele>128</ele>
        <time>2024-06-19T10:36:38Z</time>
      </trkpt>
      <trkpt lat="43.63187" lon="1.40163">
        <ele>128</ele>
        <time>2024-06-19T10:36:39Z</time>
      </trkpt>
      <trkpt lat="43.63189" lon="1.40162">
        <ele>129</ele>
        <time>2024-06-19T10:36:40Z</time>
      </trkpt>
      <trkpt lat="43.63192" lon="1.40161">
        <ele>130</ele>
        <time>2024-06-19T10:36:41Z</time>
      </trkpt>
      <trkpt lat="43.63195" lon="1.4016">
        <ele>130</ele>
        <time>2024-06-19T10:36:42Z</time>
      </trkpt>
      <trkpt lat="43.63197" lon="1.40161">
        <ele>130</ele>
        <time>2024-06-19T10:36:43Z</time>
      </trkpt>
      <trkpt lat="43.63199" lon="1.40163">
        <ele>130</ele>
        <time>2024-06-19T10:36:44Z</time>
      </trkpt>
      <trkpt lat="43.63201" lon="1.40164">
        <ele>130</ele>
        <time>2024-06-19T10:36:45Z</time>
      </trkpt>
      <trkpt lat="43.63204" lon="1.40166">
        <ele>130</ele>
        <time>2024-06-19T10:36:46Z</time>
      </trkpt>
      <trkpt lat="43.63206" lon="1.40166">
        <ele>129</ele>
        <time>2024-06-19T10:36:47Z</time>
      </trkpt>
      <trkpt lat="43.63208" lon="1.40167">
        <ele>129</ele>
        <time>2024-06-19T10:36:48Z</time>
      </trkpt>
      <trkpt lat="43.6321" lon="1.40168">
        <ele>129</ele>
        <time>2024-06-19T10:36:49Z</time>
      </trkpt>
      <trkpt lat="43.63212" lon="1.40168">
        <ele>129</ele>
        <time>2024-06-19T10:36:50Z</time>
      </trkpt>
      <trkpt lat="43.63215" lon="1.40169">
        <ele>129</ele>
        <time>2024-06-19T10:36:51Z</time>
      </trkpt>
      <trkpt lat="43.63218" lon="1.4017">
        <ele>129</ele>
        <time>2024-06-19T10:36:52Z</time>
      </trkpt>
      <trkpt lat="43.6322" lon="1.4017">
        <ele>128</ele>
        <time>2024-06-19T10:36:53Z</time>
      </trkpt>
      <trkpt lat="43.63223" lon="1.40171">
        <ele>128</ele>
        <time>2024-06-19T10:36:54Z</time>
      </trkpt>
      <trkpt lat="43.63226" lon="1.40173">
        <ele>128</ele>
        <time>2024-06-19T10:36:55Z</time>
      </trkpt>
      <trkpt lat="43.63229" lon="1.40174">
        <ele>128</ele>
        <time>2024-06-19T10:36:56Z</time>
      </trkpt>
      <trkpt lat="43.63233" lon="1.40176">
        <ele>128</ele>
        <time>2024-06-19T10:36:57Z</time>
      </trkpt>
      <trkpt lat="43.63236" lon="1.40177">
        <ele>128</ele>
        <time>2024-06-19T10:36:58Z</time>
      </trkpt>
      <trkpt lat="43.63239" lon="1.40178">
        <ele>128</ele>
        <time>2024-06-19T10:36:59Z</time>
      </trkpt>
      <trkpt lat="43.63243" lon="1.40179">
        <ele>128</ele>
        <time>2024-06-19T10:37:00Z</time>
      </trkpt>
      <trkpt lat="43.63245" lon="1.4018">
        <ele>128</ele>
        <time>2024-06-19T10:37:01Z</time>
      </trkpt>
      <trkpt lat="43.63248" lon="1.40181">
        <ele>128</ele>
        <time>2024-06-19T10:37:02Z</time>
      </trkpt>
      <trkpt lat="43.6325" lon="1.40183">
        <ele>128</ele>
        <time>2024-06-19T10:37:03Z</time>
      </trkpt>
      <trkpt lat="43.63253" lon="1.40184">
        <ele>128</ele>
        <time>2024-06-19T10:37:04Z</time>
      </trkpt>
      <trkpt lat="43.63253" lon="1.40184">
        <ele>128</ele>
        <time>2024-06-19T10:37:05Z</time>
      </trkpt>
      <trkpt lat="43.63253" lon="1.40184">
        <ele>128</ele>
        <time>2024-06-19T10:37:06Z</time>
      </trkpt>
      <trkpt lat="43.63263" lon="1.40187">
        <ele>128</ele>
        <time>2024-06-19T10:37:07Z</time>
      </trkpt>
      <trkpt lat="43.63263" lon="1.40187">
        <ele>128</ele>
        <time>2024-06-19T10:37:09Z</time>
      </trkpt>
      <trkpt lat="43.63273" lon="1.40189">
        <ele>128</ele>
        <time>2024-06-19T10:37:10Z</time>
      </trkpt>
      <trkpt lat="43.63273" lon="1.40189">
        <ele>128</ele>
        <time>2024-06-19T10:37:11Z</time>
      </trkpt>
      <trkpt lat="43.63276" lon="1.40189">
        <ele>128</ele>
        <time>2024-06-19T10:37:12Z</time>
      </trkpt>
      <trkpt lat="43.6328" lon="1.4019">
        <ele>128</ele>
        <time>2024-06-19T10:37:13Z</time>
      </trkpt>
      <trkpt lat="43.63283" lon="1.40191">
        <ele>128</ele>
        <time>2024-06-19T10:37:14Z</time>
      </trkpt>
      <trkpt lat="43.63286" lon="1.40192">
        <ele>129</ele>
        <time>2024-06-19T10:37:15Z</time>
      </trkpt>
      <trkpt lat="43.63289" lon="1.40193">
        <ele>129</ele>
        <time>2024-06-19T10:37:16Z</time>
      </trkpt>
      <trkpt lat="43.63292" lon="1.40195">
        <ele>129</ele>
        <time>2024-06-19T10:37:17Z</time>
      </trkpt>
      <trkpt lat="43.63294" lon="1.40196">
        <ele>129</ele>
        <time>2024-06-19T10:37:18Z</time>
      </trkpt>
      <trkpt lat="43.63297" lon="1.40197">
        <ele>129</ele>
        <time>2024-06-19T10:37:19Z</time>
      </trkpt>
      <trkpt lat="43.63299" lon="1.40199">
        <ele>128</ele>
        <time>2024-06-19T10:37:20Z</time>
      </trkpt>
      <trkpt lat="43.63302" lon="1.402">
        <ele>128</ele>
        <time>2024-06-19T10:37:21Z</time>
      </trkpt>
      <trkpt lat="43.63304" lon="1.40202">
        <ele>128</ele>
        <time>2024-06-19T10:37:22Z</time>
      </trkpt>
      <trkpt lat="43.63306" lon="1.40204">
        <ele>128</ele>
        <time>2024-06-19T10:37:23Z</time>
      </trkpt>
      <trkpt lat="43.63308" lon="1.40205">
        <ele>128</ele>
        <time>2024-06-19T10:37:24Z</time>
      </trkpt>
      <trkpt lat="43.6331" lon="1.40207">
        <ele>128</ele>
        <time>2024-06-19T10:37:25Z</time>
      </trkpt>
      <trkpt lat="43.63313" lon="1.40209">
        <ele>128</ele>
        <time>2024-06-19T10:37:26Z</time>
      </trkpt>
      <trkpt lat="43.63315" lon="1.4021">
        <ele>127</ele>
        <time>2024-06-19T10:37:27Z</time>
      </trkpt>
      <trkpt lat="43.63318" lon="1.40211">
        <ele>127</ele>
        <time>2024-06-19T10:37:28Z</time>
      </trkpt>
      <trkpt lat="43.6332" lon="1.40213">
        <ele>127</ele>
        <time>2024-06-19T10:37:29Z</time>
      </trkpt>
      <trkpt lat="43.63323" lon="1.40214">
        <ele>128</ele>
        <time>2024-06-19T10:37:30Z</time>
      </trkpt>
      <trkpt lat="43.63326" lon="1.40214">
        <ele>128</ele>
        <time>2024-06-19T10:37:31Z</time>
      </trkpt>
      <trkpt lat="43.6333" lon="1.40215">
        <ele>128</ele>
        <time>2024-06-19T10:37:32Z</time>
      </trkpt>
      <trkpt lat="43.63332" lon="1.40216">
        <ele>128</ele>
        <time>2024-06-19T10:37:33Z</time>
      </trkpt>
      <trkpt lat="43.63335" lon="1.40217">
        <ele>128</ele>
        <time>2024-06-19T10:37:34Z</time>
      </trkpt>
      <trkpt lat="43.63337" lon="1.40218">
        <ele>128</ele>
        <time>2024-06-19T10:37:35Z</time>
      </trkpt>
      <trkpt lat="43.6334" lon="1.40219">
        <ele>128</ele>
        <time>2024-06-19T10:37:36Z</time>
      </trkpt>
      <trkpt lat="43.63342" lon="1.4022">
        <ele>128</ele>
        <time>2024-06-19T10:37:37Z</time>
      </trkpt>
      <trkpt lat="43.63344" lon="1.40221">
        <ele>128</ele>
        <time>2024-06-19T10:37:38Z</time>
      </trkpt>
      <trkpt lat="43.63347" lon="1.40222">
        <ele>128</ele>
        <time>2024-06-19T10:37:39Z</time>
      </trkpt>
      <trkpt lat="43.63349" lon="1.40223">
        <ele>128</ele>
        <time>2024-06-19T10:37:40Z</time>
      </trkpt>
      <trkpt lat="43.63351" lon="1.40223">
        <ele>128</ele>
        <time>2024-06-19T10:37:41Z</time>
      </trkpt>
      <trkpt lat="43.63353" lon="1.40224">
        <ele>128</ele>
        <time>2024-06-19T10:37:42Z</time>
      </trkpt>
      <trkpt lat="43.63356" lon="1.40225">
        <ele>128</ele>
        <time>2024-06-19T10:37:43Z</time>
      </trkpt>
      <trkpt lat="43.63358" lon="1.40225">
        <ele>128</ele>
        <time>2024-06-19T10:37:44Z</time>
      </trkpt>
      <trkpt lat="43.6336" lon="1.40226">
        <ele>128</ele>
        <time>2024-06-19T10:37:45Z</time>
      </trkpt>
      <trkpt lat="43.63363" lon="1.40227">
        <ele>128</ele>
        <time>2024-06-19T10:37:46Z</time>
      </trkpt>
      <trkpt lat="43.63365" lon="1.40228">
        <ele>128</ele>
        <time>2024-06-19T10:37:47Z</time>
      </trkpt>
      <trkpt lat="43.63368" lon="1.40229">
        <ele>128</ele>
        <time>2024-06-19T10:37:48Z</time>
      </trkpt>
      <trkpt lat="43.6337" lon="1.40229">
        <ele>128</ele>
        <time>2024-06-19T10:37:49Z</time>
      </trkpt>
      <trkpt lat="43.63372" lon="1.40229">
        <ele>128</ele>
        <time>2024-06-19T10:37:50Z</time>
      </trkpt>
      <trkpt lat="43.63375" lon="1.40229">
        <ele>129</ele>
        <time>2024-06-19T10:37:51Z</time>
      </trkpt>
      <trkpt lat="43.63377" lon="1.40228">
        <ele>129</ele>
        <time>2024-06-19T10:37:52Z</time>
      </trkpt>
      <trkpt lat="43.63379" lon="1.40228">
        <ele>129</ele>
        <time>2024-06-19T10:37:53Z</time>
      </trkpt>
      <trkpt lat="43.63383" lon="1.4023">
        <ele>130</ele>
        <time>2024-06-19T10:37:54Z</time>
      </trkpt>
      <trkpt lat="43.63386" lon="1.40231">
        <ele>130</ele>
        <time>2024-06-19T10:37:55Z</time>
      </trkpt>
      <trkpt lat="43.6339" lon="1.40232">
        <ele>130</ele>
        <time>2024-06-19T10:37:56Z</time>
      </trkpt>
      <trkpt lat="43.63392" lon="1.40234">
        <ele>130</ele>
        <time>2024-06-19T10:37:57Z</time>
      </trkpt>
      <trkpt lat="43.63394" lon="1.40235">
        <ele>130</ele>
        <time>2024-06-19T10:37:58Z</time>
      </trkpt>
      <trkpt lat="43.63397" lon="1.40236">
        <ele>130</ele>
        <time>2024-06-19T10:37:59Z</time>
      </trkpt>
      <trkpt lat="43.63399" lon="1.40237">
        <ele>130</ele>
        <time>2024-06-19T10:38:00Z</time>
      </trkpt>
      <trkpt lat="43.63399" lon="1.40237">
        <ele>130</ele>
        <time>2024-06-19T10:38:01Z</time>
      </trkpt>
      <trkpt lat="43.63399" lon="1.40237">
        <ele>130</ele>
        <time>2024-06-19T10:38:02Z</time>
      </trkpt>
      <trkpt lat="43.63399" lon="1.40237">
        <ele>130</ele>
        <time>2024-06-19T10:38:03Z</time>
      </trkpt>
      <trkpt lat="43.63408" lon="1.40237">
        <ele>130</ele>
        <time>2024-06-19T10:38:04Z</time>
      </trkpt>
      <trkpt lat="43.63408" lon="1.40237">
        <ele>130</ele>
        <time>2024-06-19T10:38:06Z</time>
      </trkpt>
      <trkpt lat="43.63412" lon="1.40238">
        <ele>130</ele>
        <time>2024-06-19T10:38:07Z</time>
      </trkpt>
      <trkpt lat="43.63415" lon="1.4024">
        <ele>130</ele>
        <time>2024-06-19T10:38:08Z</time>
      </trkpt>
      <trkpt lat="43.63419" lon="1.40241">
        <ele>131</ele>
        <time>2024-06-19T10:38:09Z</time>
      </trkpt>
      <trkpt lat="43.63422" lon="1.40242">
        <ele>131</ele>
        <time>2024-06-19T10:38:10Z</time>
      </trkpt>
      <trkpt lat="43.63425" lon="1.40243">
        <ele>131</ele>
        <time>2024-06-19T10:38:11Z</time>
      </trkpt>
      <trkpt lat="43.63429" lon="1.40244">
        <ele>131</ele>
        <time>2024-06-19T10:38:12Z</time>
      </trkpt>
      <trkpt lat="43.63432" lon="1.40245">
        <ele>131</ele>
        <time>2024-06-19T10:38:13Z</time>
      </trkpt>
      <trkpt lat="43.63435" lon="1.40246">
        <ele>131</ele>
        <time>2024-06-19T10:38:14Z</time>
      </trkpt>
      <trkpt lat="43.63438" lon="1.40247">
        <ele>131</ele>
        <time>2024-06-19T10:38:15Z</time>
      </trkpt>
      <trkpt lat="43.6344" lon="1.40247">
        <ele>132</ele>
        <time>2024-06-19T10:38:16Z</time>
      </trkpt>
      <trkpt lat="43.63443" lon="1.40248">
        <ele>132</ele>
        <time>2024-06-19T10:38:17Z</time>
      </trkpt>
      <trkpt lat="43.63445" lon="1.40248">
        <ele>132</ele>
        <time>2024-06-19T10:38:18Z</time>
      </trkpt>
      <trkpt lat="43.63448" lon="1.40249">
        <ele>132</ele>
        <time>2024-06-19T10:38:19Z</time>
      </trkpt>
      <trkpt lat="43.63451" lon="1.40249">
        <ele>132</ele>
        <time>2024-06-19T10:38:20Z</time>
      </trkpt>
      <trkpt lat="43.63455" lon="1.40249">
        <ele>132</ele>
        <time>2024-06-19T10:38:21Z</time>
      </trkpt>
      <trkpt lat="43.63458" lon="1.4025">
        <ele>132</ele>
        <time>2024-06-19T10:38:22Z</time>
      </trkpt>
      <trkpt lat="43.63462" lon="1.4025">
        <ele>132</ele>
        <time>2024-06-19T10:38:23Z</time>
      </trkpt>
      <trkpt lat="43.63465" lon="1.4025">
        <ele>132</ele>
        <time>2024-06-19T10:38:24Z</time>
      </trkpt>
      <trkpt lat="43.63468" lon="1.40251">
        <ele>132</ele>
        <time>2024-06-19T10:38:25Z</time>
      </trkpt>
      <trkpt lat="43.63468" lon="1.40251">
        <ele>132</ele>
        <time>2024-06-19T10:38:26Z</time>
      </trkpt>
      <trkpt lat="43.63471" lon="1.40251">
        <ele>132</ele>
        <time>2024-06-19T10:38:27Z</time>
      </trkpt>
      <trkpt lat="43.63474" lon="1.40251">
        <ele>132</ele>
        <time>2024-06-19T10:38:28Z</time>
      </trkpt>
      <trkpt lat="43.63477" lon="1.40251">
        <ele>132</ele>
        <time>2024-06-19T10:38:29Z</time>
      </trkpt>
      <trkpt lat="43.6348" lon="1.40252">
        <ele>132</ele>
        <time>2024-06-19T10:38:30Z</time>
      </trkpt>
      <trkpt lat="43.63483" lon="1.40252">
        <ele>132</ele>
        <time>2024-06-19T10:38:31Z</time>
      </trkpt>
      <trkpt lat="43.63486" lon="1.40253">
        <ele>132</ele>
        <time>2024-06-19T10:38:32Z</time>
      </trkpt>
      <trkpt lat="43.63489" lon="1.40253">
        <ele>132</ele>
        <time>2024-06-19T10:38:33Z</time>
      </trkpt>
      <trkpt lat="43.63492" lon="1.40253">
        <ele>132</ele>
        <time>2024-06-19T10:38:34Z</time>
      </trkpt>
      <trkpt lat="43.63495" lon="1.40254">
        <ele>132</ele>
        <time>2024-06-19T10:38:35Z</time>
      </trkpt>
      <trkpt lat="43.63498" lon="1.40254">
        <ele>132</ele>
        <time>2024-06-19T10:38:36Z</time>
      </trkpt>
      <trkpt lat="43.63501" lon="1.40255">
        <ele>132</ele>
        <time>2024-06-19T10:38:37Z</time>
      </trkpt>
      <trkpt lat="43.63503" lon="1.40256">
        <ele>132</ele>
        <time>2024-06-19T10:38:38Z</time>
      </trkpt>
      <trkpt lat="43.63506" lon="1.40257">
        <ele>132</ele>
        <time>2024-06-19T10:38:39Z</time>
      </trkpt>
      <trkpt lat="43.63508" lon="1.40258">
        <ele>132</ele>
        <time>2024-06-19T10:38:40Z</time>
      </trkpt>
      <trkpt lat="43.63511" lon="1.40259">
        <ele>131</ele>
        <time>2024-06-19T10:38:41Z</time>
      </trkpt>
      <trkpt lat="43.63513" lon="1.4026">
        <ele>131</ele>
        <time>2024-06-19T10:38:42Z</time>
      </trkpt>
      <trkpt lat="43.63516" lon="1.4026">
        <ele>131</ele>
        <time>2024-06-19T10:38:43Z</time>
      </trkpt>
      <trkpt lat="43.63518" lon="1.40261">
        <ele>131</ele>
        <time>2024-06-19T10:38:44Z</time>
      </trkpt>
      <trkpt lat="43.63521" lon="1.40262">
        <ele>131</ele>
        <time>2024-06-19T10:38:45Z</time>
      </trkpt>
      <trkpt lat="43.63523" lon="1.40263">
        <ele>131</ele>
        <time>2024-06-19T10:38:46Z</time>
      </trkpt>
      <trkpt lat="43.63525" lon="1.40263">
        <ele>131</ele>
        <time>2024-06-19T10:38:47Z</time>
      </trkpt>
      <trkpt lat="43.63528" lon="1.40263">
        <ele>131</ele>
        <time>2024-06-19T10:38:48Z</time>
      </trkpt>
      <trkpt lat="43.6353" lon="1.40264">
        <ele>131</ele>
        <time>2024-06-19T10:38:49Z</time>
      </trkpt>
      <trkpt lat="43.63533" lon="1.40265">
        <ele>131</ele>
        <time>2024-06-19T10:38:50Z</time>
      </trkpt>
      <trkpt lat="43.63535" lon="1.40265">
        <ele>131</ele>
        <time>2024-06-19T10:38:51Z</time>
      </trkpt>
      <trkpt lat="43.63538" lon="1.40266">
        <ele>131</ele>
        <time>2024-06-19T10:38:52Z</time>
      </trkpt>
      <trkpt lat="43.63541" lon="1.40267">
        <ele>131</ele>
        <time>2024-06-19T10:38:53Z</time>
      </trkpt>
      <trkpt lat="43.63543" lon="1.40268">
        <ele>131</ele>
        <time>2024-06-19T10:38:54Z</time>
      </trkpt>
      <trkpt lat="43.63545" lon="1.40268">
        <ele>131</ele>
        <time>2024-06-19T10:38:55Z</time>
      </trkpt>
      <trkpt lat="43.63548" lon="1.40269">
        <ele>131</ele>
        <time>2024-06-19T10:38:56Z</time>
      </trkpt>
      <trkpt lat="43.6355" lon="1.4027">
        <ele>131</ele>
        <time>2024-06-19T10:38:57Z</time>
      </trkpt>
      <trkpt lat="43.63552" lon="1.4027">
        <ele>131</ele>
        <time>2024-06-19T10:38:58Z</time>
      </trkpt>
      <trkpt lat="43.63555" lon="1.4027">
        <ele>131</ele>
        <time>2024-06-19T10:38:59Z</time>
      </trkpt>
      <trkpt lat="43.63558" lon="1.4027">
        <ele>131</ele>
        <time>2024-06-19T10:39:00Z</time>
      </trkpt>
      <trkpt lat="43.6356" lon="1.40271">
        <ele>131</ele>
        <time>2024-06-19T10:39:01Z</time>
      </trkpt>
      <trkpt lat="43.63563" lon="1.4027">
        <ele>131</ele>
        <time>2024-06-19T10:39:02Z</time>
      </trkpt>
      <trkpt lat="43.63565" lon="1.4027">
        <ele>131</ele>
        <time>2024-06-19T10:39:03Z</time>
      </trkpt>
      <trkpt lat="43.63567" lon="1.4027">
        <ele>131</ele>
        <time>2024-06-19T10:39:04Z</time>
      </trkpt>
      <trkpt lat="43.6357" lon="1.4027">
        <ele>131</ele>
        <time>2024-06-19T10:39:05Z</time>
      </trkpt>
      <trkpt lat="43.63573" lon="1.4027">
        <ele>131</ele>
        <time>2024-06-19T10:39:06Z</time>
      </trkpt>
      <trkpt lat="43.63575" lon="1.40271">
        <ele>131</ele>
        <time>2024-06-19T10:39:07Z</time>
      </trkpt>
      <trkpt lat="43.63578" lon="1.40271">
        <ele>131</ele>
        <time>2024-06-19T10:39:08Z</time>
      </trkpt>
      <trkpt lat="43.63581" lon="1.40271">
        <ele>131</ele>
        <time>2024-06-19T10:39:09Z</time>
      </trkpt>
      <trkpt lat="43.63584" lon="1.40272">
        <ele>131</ele>
        <time>2024-06-19T10:39:10Z</time>
      </trkpt>
      <trkpt lat="43.63587" lon="1.40272">
        <ele>131</ele>
        <time>2024-06-19T10:39:11Z</time>
      </trkpt>
      <trkpt lat="43.6359" lon="1.40273">
        <ele>131</ele>
        <time>2024-06-19T10:39:12Z</time>
      </trkpt>
      <trkpt lat="43.63594" lon="1.40273">
        <ele>131</ele>
        <time>2024-06-19T10:39:13Z</time>
      </trkpt>
      <trkpt lat="43.63597" lon="1.40273">
        <ele>131</ele>
        <time>2024-06-19T10:39:14Z</time>
      </trkpt>
      <trkpt lat="43.63601" lon="1.40273">
        <ele>131</ele>
        <time>2024-06-19T10:39:15Z</time>
      </trkpt>
      <trkpt lat="43.63604" lon="1.40274">
        <ele>132</ele>
        <time>2024-06-19T10:39:16Z</time>
      </trkpt>
      <trkpt lat="43.63607" lon="1.40274">
        <ele>132</ele>
        <time>2024-06-19T10:39:17Z</time>
      </trkpt>
      <trkpt lat="43.6361" lon="1.40275">
        <ele>132</ele>
        <time>2024-06-19T10:39:18Z</time>
      </trkpt>
      <trkpt lat="43.63613" lon="1.40275">
        <ele>132</ele>
        <time>2024-06-19T10:39:19Z</time>
      </trkpt>
      <trkpt lat="43.63616" lon="1.40275">
        <ele>133</ele>
        <time>2024-06-19T10:39:20Z</time>
      </trkpt>
      <trkpt lat="43.63619" lon="1.40275">
        <ele>133</ele>
        <time>2024-06-19T10:39:21Z</time>
      </trkpt>
      <trkpt lat="43.63622" lon="1.40275">
        <ele>132</ele>
        <time>2024-06-19T10:39:22Z</time>
      </trkpt>
      <trkpt lat="43.63625" lon="1.40275">
        <ele>132</ele>
        <time>2024-06-19T10:39:23Z</time>
      </trkpt>
      <trkpt lat="43.63627" lon="1.40276">
        <ele>132</ele>
        <time>2024-06-19T10:39:24Z</time>
      </trkpt>
      <trkpt lat="43.6363" lon="1.40276">
        <ele>132</ele>
        <time>2024-06-19T10:39:25Z</time>
      </trkpt>
      <trkpt lat="43.63633" lon="1.40277">
        <ele>132</ele>
        <time>2024-06-19T10:39:26Z</time>
      </trkpt>
      <trkpt lat="43.63635" lon="1.40278">
        <ele>132</ele>
        <time>2024-06-19T10:39:27Z</time>
      </trkpt>
      <trkpt lat="43.63638" lon="1.40278">
        <ele>132</ele>
        <time>2024-06-19T10:39:28Z</time>
      </trkpt>
      <trkpt lat="43.63641" lon="1.40278">
        <ele>132</ele>
        <time>2024-06-19T10:39:29Z</time>
      </trkpt>
      <trkpt lat="43.63643" lon="1.40279">
        <ele>132</ele>
        <time>2024-06-19T10:39:30Z</time>
      </trkpt>
      <trkpt lat="43.63646" lon="1.40279">
        <ele>132</ele>
        <time>2024-06-19T10:39:31Z</time>
      </trkpt>
      <trkpt lat="43.63649" lon="1.4028">
        <ele>132</ele>
        <time>2024-06-19T10:39:32Z</time>
      </trkpt>
      <trkpt lat="43.63652" lon="1.4028">
        <ele>132</ele>
        <time>2024-06-19T10:39:33Z</time>
      </trkpt>
      <trkpt lat="43.63655" lon="1.40281">
        <ele>132</ele>
        <time>2024-06-19T10:39:34Z</time>
      </trkpt>
      <trkpt lat="43.63658" lon="1.40282">
        <ele>132</ele>
        <time>2024-06-19T10:39:35Z</time>
      </trkpt>
      <trkpt lat="43.63661" lon="1.40283">
        <ele>132</ele>
        <time>2024-06-19T10:39:36Z</time>
      </trkpt>
      <trkpt lat="43.63664" lon="1.40284">
        <ele>132</ele>
        <time>2024-06-19T10:39:37Z</time>
      </trkpt>
      <trkpt lat="43.63667" lon="1.40285">
        <ele>132</ele>
        <time>2024-06-19T10:39:38Z</time>
      </trkpt>
      <trkpt lat="43.6367" lon="1.40287">
        <ele>131</ele>
        <time>2024-06-19T10:39:39Z</time>
      </trkpt>
      <trkpt lat="43.63673" lon="1.40288">
        <ele>131</ele>
        <time>2024-06-19T10:39:40Z</time>
      </trkpt>
      <trkpt lat="43.63676" lon="1.4029">
        <ele>131</ele>
        <time>2024-06-19T10:39:41Z</time>
      </trkpt>
      <trkpt lat="43.63678" lon="1.40291">
        <ele>131</ele>
        <time>2024-06-19T10:39:42Z</time>
      </trkpt>
      <trkpt lat="43.6368" lon="1.40292">
        <ele>131</ele>
        <time>2024-06-19T10:39:43Z</time>
      </trkpt>
      <trkpt lat="43.63682" lon="1.40293">
        <ele>128</ele>
        <time>2024-06-19T10:39:44Z</time>
      </trkpt>
      <trkpt lat="43.63685" lon="1.40295">
        <ele>127</ele>
        <time>2024-06-19T10:39:45Z</time>
      </trkpt>
      <trkpt lat="43.63687" lon="1.40294">
        <ele>127</ele>
        <time>2024-06-19T10:39:46Z</time>
      </trkpt>
      <trkpt lat="43.6369" lon="1.40294">
        <ele>127</ele>
        <time>2024-06-19T10:39:47Z</time>
      </trkpt>
      <trkpt lat="43.63693" lon="1.40294">
        <ele>127</ele>
        <time>2024-06-19T10:39:48Z</time>
      </trkpt>
      <trkpt lat="43.63695" lon="1.40294">
        <ele>127</ele>
        <time>2024-06-19T10:39:49Z</time>
      </trkpt>
      <trkpt lat="43.63697" lon="1.40292">
        <ele>127</ele>
        <time>2024-06-19T10:39:50Z</time>
      </trkpt>
      <trkpt lat="43.63699" lon="1.40291">
        <ele>127</ele>
        <time>2024-06-19T10:39:51Z</time>
      </trkpt>
      <trkpt lat="43.63701" lon="1.40289">
        <ele>127</ele>
        <time>2024-06-19T10:39:52Z</time>
      </trkpt>
      <trkpt lat="43.63703" lon="1.40288">
        <ele>127</ele>
        <time>2024-06-19T10:39:53Z</time>
      </trkpt>
      <trkpt lat="43.63706" lon="1.40287">
        <ele>127</ele>
        <time>2024-06-19T10:39:54Z</time>
      </trkpt>
      <trkpt lat="43.63708" lon="1.40287">
        <ele>127</ele>
        <time>2024-06-19T10:39:55Z</time>
      </trkpt>
      <trkpt lat="43.6371" lon="1.40286">
        <ele>127</ele>
        <time>2024-06-19T10:39:56Z</time>
      </trkpt>
      <trkpt lat="43.63712" lon="1.40286">
        <ele>127</ele>
        <time>2024-06-19T10:39:57Z</time>
      </trkpt>
      <trkpt lat="43.63715" lon="1.40286">
        <ele>127</ele>
        <time>2024-06-19T10:39:58Z</time>
      </trkpt>
      <trkpt lat="43.63719" lon="1.40286">
        <ele>127</ele>
        <time>2024-06-19T10:39:59Z</time>
      </trkpt>
      <trkpt lat="43.63722" lon="1.40286">
        <ele>127</ele>
        <time>2024-06-19T10:40:00Z</time>
      </trkpt>
      <trkpt lat="43.63724" lon="1.40286">
        <ele>127</ele>
        <time>2024-06-19T10:40:01Z</time>
      </trkpt>
      <trkpt lat="43.63727" lon="1.40286">
        <ele>127</ele>
        <time>2024-06-19T10:40:02Z</time>
      </trkpt>
      <trkpt lat="43.6373" lon="1.40285">
        <ele>128</ele>
        <time>2024-06-19T10:40:03Z</time>
      </trkpt>
      <trkpt lat="43.63733" lon="1.40285">
        <ele>128</ele>
        <time>2024-06-19T10:40:04Z</time>
      </trkpt>
      <trkpt lat="43.63735" lon="1.40285">
        <ele>128</ele>
        <time>2024-06-19T10:40:05Z</time>
      </trkpt>
      <trkpt lat="43.63737" lon="1.40285">
        <ele>128</ele>
        <time>2024-06-19T10:40:06Z</time>
      </trkpt>
      <trkpt lat="43.6374" lon="1.40284">
        <ele>127</ele>
        <time>2024-06-19T10:40:07Z</time>
      </trkpt>
      <trkpt lat="43.63742" lon="1.40284">
        <ele>127</ele>
        <time>2024-06-19T10:40:08Z</time>
      </trkpt>
      <trkpt lat="43.63745" lon="1.40283">
        <ele>127</ele>
        <time>2024-06-19T10:40:09Z</time>
      </trkpt>
      <trkpt lat="43.63747" lon="1.40282">
        <ele>127</ele>
        <time>2024-06-19T10:40:10Z</time>
      </trkpt>
      <trkpt lat="43.63749" lon="1.40281">
        <ele>127</ele>
        <time>2024-06-19T10:40:11Z</time>
      </trkpt>
      <trkpt lat="43.63751" lon="1.40281">
        <ele>127</ele>
        <time>2024-06-19T10:40:12Z</time>
      </trkpt>
      <trkpt lat="43.63755" lon="1.4028">
        <ele>127</ele>
        <time>2024-06-19T10:40:13Z</time>
      </trkpt>
      <trkpt lat="43.63758" lon="1.4028">
        <ele>127</ele>
        <time>2024-06-19T10:40:14Z</time>
      </trkpt>
      <trkpt lat="43.63761" lon="1.40279">
        <ele>128</ele>
        <time>2024-06-19T10:40:15Z</time>
      </trkpt>
      <trkpt lat="43.63766" lon="1.4028">
        <ele>128</ele>
        <time>2024-06-19T10:40:16Z</time>
      </trkpt>
      <trkpt lat="43.63771" lon="1.4028">
        <ele>128</ele>
        <time>2024-06-19T10:40:17Z</time>
      </trkpt>
      <trkpt lat="43.63776" lon="1.4028">
        <ele>128</ele>
        <time>2024-06-19T10:40:18Z</time>
      </trkpt>
      <trkpt lat="43.6378" lon="1.40281">
        <ele>128</ele>
        <time>2024-06-19T10:40:19Z</time>
      </trkpt>
      <trkpt lat="43.63783" lon="1.4028">
        <ele>128</ele>
        <time>2024-06-19T10:40:20Z</time>
      </trkpt>
      <trkpt lat="43.63786" lon="1.40279">
        <ele>128</ele>
        <time>2024-06-19T10:40:21Z</time>
      </trkpt>
      <trkpt lat="43.63789" lon="1.40278">
        <ele>128</ele>
        <time>2024-06-19T10:40:22Z</time>
      </trkpt>
      <trkpt lat="43.63792" lon="1.40277">
        <ele>128</ele>
        <time>2024-06-19T10:40:23Z</time>
      </trkpt>
      <trkpt lat="43.63795" lon="1.40276">
        <ele>128</ele>
        <time>2024-06-19T10:40:24Z</time>
      </trkpt>
      <trkpt lat="43.63795" lon="1.40276">
        <ele>128</ele>
        <time>2024-06-19T10:40:25Z</time>
      </trkpt>
      <trkpt lat="43.63801" lon="1.40277">
        <ele>128</ele>
        <time>2024-06-19T10:40:26Z</time>
      </trkpt>
      <trkpt lat="43.63804" lon="1.40277">
        <ele>128</ele>
        <time>2024-06-19T10:40:27Z</time>
      </trkpt>
      <trkpt lat="43.63806" lon="1.40278">
        <ele>128</ele>
        <time>2024-06-19T10:40:28Z</time>
      </trkpt>
      <trkpt lat="43.63808" lon="1.40278">
        <ele>128</ele>
        <time>2024-06-19T10:40:29Z</time>
      </trkpt>
      <trkpt lat="43.6381" lon="1.40278">
        <ele>128</ele>
        <time>2024-06-19T10:40:30Z</time>
      </trkpt>
      <trkpt lat="43.63812" lon="1.40278">
        <ele>128</ele>
        <time>2024-06-19T10:40:31Z</time>
      </trkpt>
      <trkpt lat="43.63812" lon="1.40278">
        <ele>128</ele>
        <time>2024-06-19T10:40:32Z</time>
      </trkpt>
      <trkpt lat="43.63819" lon="1.40277">
        <ele>128</ele>
        <time>2024-06-19T10:40:33Z</time>
      </trkpt>
      <trkpt lat="43.63819" lon="1.40277">
        <ele>128</ele>
        <time>2024-06-19T10:40:34Z</time>
      </trkpt>
      <trkpt lat="43.63825" lon="1.40274">
        <ele>128</ele>
        <time>2024-06-19T10:40:35Z</time>
      </trkpt>
      <trkpt lat="43.63827" lon="1.40274">
        <ele>127</ele>
        <time>2024-06-19T10:40:36Z</time>
      </trkpt>
      <trkpt lat="43.63827" lon="1.40274">
        <ele>127</ele>
        <time>2024-06-19T10:40:37Z</time>
      </trkpt>
      <trkpt lat="43.63833" lon="1.40271">
        <ele>127</ele>
        <time>2024-06-19T10:40:38Z</time>
      </trkpt>
      <trkpt lat="43.63836" lon="1.4027">
        <ele>127</ele>
        <time>2024-06-19T10:40:39Z</time>
      </trkpt>
      <trkpt lat="43.63839" lon="1.40269">
        <ele>127</ele>
        <time>2024-06-19T10:40:40Z</time>
      </trkpt>
      <trkpt lat="43.63842" lon="1.40268">
        <ele>127</ele>
        <time>2024-06-19T10:40:41Z</time>
      </trkpt>
      <trkpt lat="43.63842" lon="1.40268">
        <ele>127</ele>
        <time>2024-06-19T10:40:42Z</time>
      </trkpt>
      <trkpt lat="43.63844" lon="1.40267">
        <ele>127</ele>
        <time>2024-06-19T10:40:43Z</time>
      </trkpt>
      <trkpt lat="43.63846" lon="1.40266">
        <ele>127</ele>
        <time>2024-06-19T10:40:44Z</time>
      </trkpt>
      <trkpt lat="43.63847" lon="1.40264">
        <ele>127</ele>
        <time>2024-06-19T10:40:45Z</time>
      </trkpt>
      <trkpt lat="43.63851" lon="1.40262">
        <ele>127</ele>
        <time>2024-06-19T10:40:46Z</time>
      </trkpt>
      <trkpt lat="43.63854" lon="1.40262">
        <ele>127</ele>
        <time>2024-06-19T10:40:47Z</time>
      </trkpt>
      <trkpt lat="43.63856" lon="1.40262">
        <ele>127</ele>
        <time>2024-06-19T10:40:48Z</time>
      </trkpt>
      <trkpt lat="43.63859" lon="1.40261">
        <ele>127</ele>
        <time>2024-06-19T10:40:49Z</time>
      </trkpt>
      <trkpt lat="43.63862" lon="1.40261">
        <ele>127</ele>
        <time>2024-06-19T10:40:50Z</time>
      </trkpt>
      <trkpt lat="43.63862" lon="1.40261">
        <ele>127</ele>
        <time>2024-06-19T10:40:51Z</time>
      </trkpt>
      <trkpt lat="43.63865" lon="1.4026">
        <ele>127</ele>
        <time>2024-06-19T10:40:52Z</time>
      </trkpt>
      <trkpt lat="43.63869" lon="1.4026">
        <ele>127</ele>
        <time>2024-06-19T10:40:53Z</time>
      </trkpt>
      <trkpt lat="43.63872" lon="1.4026">
        <ele>127</ele>
        <time>2024-06-19T10:40:54Z</time>
      </trkpt>
      <trkpt lat="43.63875" lon="1.40259">
        <ele>127</ele>
        <time>2024-06-19T10:40:55Z</time>
      </trkpt>
      <trkpt lat="43.63878" lon="1.40259">
        <ele>127</ele>
        <time>2024-06-19T10:40:56Z</time>
      </trkpt>
      <trkpt lat="43.63881" lon="1.40258">
        <ele>127</ele>
        <time>2024-06-19T10:40:57Z</time>
      </trkpt>
      <trkpt lat="43.63883" lon="1.40257">
        <ele>127</ele>
        <time>2024-06-19T10:40:58Z</time>
      </trkpt>
      <trkpt lat="43.63886" lon="1.40256">
        <ele>127</ele>
        <time>2024-06-19T10:40:59Z</time>
      </trkpt>
      <trkpt lat="43.63888" lon="1.40255">
        <ele>127</ele>
        <time>2024-06-19T10:41:00Z</time>
      </trkpt>
      <trkpt lat="43.6389" lon="1.40254">
        <ele>127</ele>
        <time>2024-06-19T10:41:01Z</time>
      </trkpt>
      <trkpt lat="43.63893" lon="1.40253">
        <ele>127</ele>
        <time>2024-06-19T10:41:02Z</time>
      </trkpt>
      <trkpt lat="43.63896" lon="1.40252">
        <ele>127</ele>
        <time>2024-06-19T10:41:03Z</time>
      </trkpt>
      <trkpt lat="43.63898" lon="1.40251">
        <ele>127</ele>
        <time>2024-06-19T10:41:04Z</time>
      </trkpt>
      <trkpt lat="43.63901" lon="1.40249">
        <ele>127</ele>
        <time>2024-06-19T10:41:05Z</time>
      </trkpt>
      <trkpt lat="43.63903" lon="1.40247">
        <ele>127</ele>
        <time>2024-06-19T10:41:06Z</time>
      </trkpt>
      <trkpt lat="43.63905" lon="1.40246">
        <ele>127</ele>
        <time>2024-06-19T10:41:07Z</time>
      </trkpt>
      <trkpt lat="43.63908" lon="1.40244">
        <ele>127</ele>
        <time>2024-06-19T10:41:08Z</time>
      </trkpt>
      <trkpt lat="43.6391" lon="1.40242">
        <ele>127</ele>
        <time>2024-06-19T10:41:09Z</time>
      </trkpt>
      <trkpt lat="43.63913" lon="1.40241">
        <ele>127</ele>
        <time>2024-06-19T10:41:10Z</time>
      </trkpt>
      <trkpt lat="43.63915" lon="1.4024">
        <ele>127</ele>
        <time>2024-06-19T10:41:11Z</time>
      </trkpt>
      <trkpt lat="43.63918" lon="1.40239">
        <ele>127</ele>
        <time>2024-06-19T10:41:12Z</time>
      </trkpt>
      <trkpt lat="43.63921" lon="1.40238">
        <ele>127</ele>
        <time>2024-06-19T10:41:13Z</time>
      </trkpt>
      <trkpt lat="43.63923" lon="1.40237">
        <ele>127</ele>
        <time>2024-06-19T10:41:14Z</time>
      </trkpt>
      <trkpt lat="43.63926" lon="1.40236">
        <ele>127</ele>
        <time>2024-06-19T10:41:15Z</time>
      </trkpt>
      <trkpt lat="43.63929" lon="1.40235">
        <ele>127</ele>
        <time>2024-06-19T10:41:16Z</time>
      </trkpt>
      <trkpt lat="43.63932" lon="1.40234">
        <ele>127</ele>
        <time>2024-06-19T10:41:17Z</time>
      </trkpt>
      <trkpt lat="43.63935" lon="1.40233">
        <ele>127</ele>
        <time>2024-06-19T10:41:18Z</time>
      </trkpt>
      <trkpt lat="43.63938" lon="1.40232">
        <ele>127</ele>
        <time>2024-06-19T10:41:19Z</time>
      </trkpt>
      <trkpt lat="43.63941" lon="1.40232">
        <ele>127</ele>
        <time>2024-06-19T10:41:20Z</time>
      </trkpt>
      <trkpt lat="43.63944" lon="1.4023">
        <ele>127</ele>
        <time>2024-06-19T10:41:21Z</time>
      </trkpt>
      <trkpt lat="43.63947" lon="1.40229">
        <ele>127</ele>
        <time>2024-06-19T10:41:22Z</time>
      </trkpt>
      <trkpt lat="43.6395" lon="1.40228">
        <ele>127</ele>
        <time>2024-06-19T10:41:23Z</time>
      </trkpt>
      <trkpt lat="43.63954" lon="1.40226">
        <ele>127</ele>
        <time>2024-06-19T10:41:24Z</time>
      </trkpt>
      <trkpt lat="43.63958" lon="1.40223">
        <ele>127</ele>
        <time>2024-06-19T10:41:25Z</time>
      </trkpt>
      <trkpt lat="43.63961" lon="1.40221">
        <ele>127</ele>
        <time>2024-06-19T10:41:26Z</time>
      </trkpt>
      <trkpt lat="43.63964" lon="1.4022">
        <ele>127</ele>
        <time>2024-06-19T10:41:27Z</time>
      </trkpt>
      <trkpt lat="43.63967" lon="1.40218">
        <ele>127</ele>
        <time>2024-06-19T10:41:28Z</time>
      </trkpt>
      <trkpt lat="43.63967" lon="1.40218">
        <ele>127</ele>
        <time>2024-06-19T10:41:29Z</time>
      </trkpt>
      <trkpt lat="43.63969" lon="1.40217">
        <ele>127</ele>
        <time>2024-06-19T10:41:30Z</time>
      </trkpt>
      <trkpt lat="43.63971" lon="1.40215">
        <ele>127</ele>
        <time>2024-06-19T10:41:31Z</time>
      </trkpt>
      <trkpt lat="43.63973" lon="1.40213">
        <ele>127</ele>
        <time>2024-06-19T10:41:32Z</time>
      </trkpt>
      <trkpt lat="43.63976" lon="1.40211">
        <ele>127</ele>
        <time>2024-06-19T10:41:33Z</time>
      </trkpt>
      <trkpt lat="43.63979" lon="1.4021">
        <ele>127</ele>
        <time>2024-06-19T10:41:34Z</time>
      </trkpt>
      <trkpt lat="43.63981" lon="1.40208">
        <ele>127</ele>
        <time>2024-06-19T10:41:35Z</time>
      </trkpt>
      <trkpt lat="43.63984" lon="1.40206">
        <ele>127</ele>
        <time>2024-06-19T10:41:36Z</time>
      </trkpt>
      <trkpt lat="43.63985" lon="1.40205">
        <ele>127</ele>
        <time>2024-06-19T10:41:37Z</time>
      </trkpt>
      <trkpt lat="43.63988" lon="1.40203">
        <ele>127</ele>
        <time>2024-06-19T10:41:38Z</time>
      </trkpt>
      <trkpt lat="43.63991" lon="1.402">
        <ele>127</ele>
        <time>2024-06-19T10:41:39Z</time>
      </trkpt>
      <trkpt lat="43.63995" lon="1.40197">
        <ele>127</ele>
        <time>2024-06-19T10:41:40Z</time>
      </trkpt>
      <trkpt lat="43.63998" lon="1.40194">
        <ele>127</ele>
        <time>2024-06-19T10:41:41Z</time>
      </trkpt>
      <trkpt lat="43.64001" lon="1.40193">
        <ele>127</ele>
        <time>2024-06-19T10:41:42Z</time>
      </trkpt>
      <trkpt lat="43.64004" lon="1.40191">
        <ele>127</ele>
        <time>2024-06-19T10:41:43Z</time>
      </trkpt>
      <trkpt lat="43.64006" lon="1.40189">
        <ele>127</ele>
        <time>2024-06-19T10:41:44Z</time>
      </trkpt>
      <trkpt lat="43.64009" lon="1.40187">
        <ele>127</ele>
        <time>2024-06-19T10:41:45Z</time>
      </trkpt>
      <trkpt lat="43.6401" lon="1.40184">
        <ele>127</ele>
        <time>2024-06-19T10:41:46Z</time>
      </trkpt>
      <trkpt lat="43.64012" lon="1.40182">
        <ele>127</ele>
        <time>2024-06-19T10:41:47Z</time>
      </trkpt>
      <trkpt lat="43.64014" lon="1.40179">
        <ele>127</ele>
        <time>2024-06-19T10:41:48Z</time>
      </trkpt>
      <trkpt lat="43.64016" lon="1.40176">
        <ele>127</ele>
        <time>2024-06-19T10:41:49Z</time>
      </trkpt>
      <trkpt lat="43.64018" lon="1.40173">
        <ele>127</ele>
        <time>2024-06-19T10:41:50Z</time>
      </trkpt>
      <trkpt lat="43.6402" lon="1.40171">
        <ele>127</ele>
        <time>2024-06-19T10:41:51Z</time>
      </trkpt>
      <trkpt lat="43.64023" lon="1.40171">
        <ele>127</ele>
        <time>2024-06-19T10:41:52Z</time>
      </trkpt>
      <trkpt lat="43.64023" lon="1.40171">
        <ele>127</ele>
        <time>2024-06-19T10:41:53Z</time>
      </trkpt>
      <trkpt lat="43.64029" lon="1.40174">
        <ele>128</ele>
        <time>2024-06-19T10:41:54Z</time>
      </trkpt>
      <trkpt lat="43.64032" lon="1.40175">
        <ele>128</ele>
        <time>2024-06-19T10:41:55Z</time>
      </trkpt>
      <trkpt lat="43.64032" lon="1.40175">
        <ele>128</ele>
        <time>2024-06-19T10:41:56Z</time>
      </trkpt>
      <trkpt lat="43.64035" lon="1.40176">
        <ele>127</ele>
        <time>2024-06-19T10:41:57Z</time>
      </trkpt>
      <trkpt lat="43.64037" lon="1.40177">
        <ele>127</ele>
        <time>2024-06-19T10:41:58Z</time>
      </trkpt>
      <trkpt lat="43.6404" lon="1.40179">
        <ele>127</ele>
        <time>2024-06-19T10:41:59Z</time>
      </trkpt>
      <trkpt lat="43.64042" lon="1.4018">
        <ele>127</ele>
        <time>2024-06-19T10:42:00Z</time>
      </trkpt>
      <trkpt lat="43.64044" lon="1.4018">
        <ele>127</ele>
        <time>2024-06-19T10:42:01Z</time>
      </trkpt>
      <trkpt lat="43.64046" lon="1.4018">
        <ele>127</ele>
        <time>2024-06-19T10:42:02Z</time>
      </trkpt>
      <trkpt lat="43.64048" lon="1.4018">
        <ele>127</ele>
        <time>2024-06-19T10:42:03Z</time>
      </trkpt>
      <trkpt lat="43.6405" lon="1.40181">
        <ele>128</ele>
        <time>2024-06-19T10:42:04Z</time>
      </trkpt>
      <trkpt lat="43.64052" lon="1.40181">
        <ele>128</ele>
        <time>2024-06-19T10:42:05Z</time>
      </trkpt>
      <trkpt lat="43.64054" lon="1.4018">
        <ele>128</ele>
        <time>2024-06-19T10:42:06Z</time>
      </trkpt>
      <trkpt lat="43.64056" lon="1.4018">
        <ele>128</ele>
        <time>2024-06-19T10:42:07Z</time>
      </trkpt>
      <trkpt lat="43.64058" lon="1.4018">
        <ele>128</ele>
        <time>2024-06-19T10:42:08Z</time>
      </trkpt>
      <trkpt lat="43.6406" lon="1.40179">
        <ele>128</ele>
        <time>2024-06-19T10:42:09Z</time>
      </trkpt>
      <trkpt lat="43.64062" lon="1.40179">
        <ele>128</ele>
        <time>2024-06-19T10:42:10Z</time>
      </trkpt>
      <trkpt lat="43.64065" lon="1.40178">
        <ele>128</ele>
        <time>2024-06-19T10:42:11Z</time>
      </trkpt>
      <trkpt lat="43.64067" lon="1.40176">
        <ele>127</ele>
        <time>2024-06-19T10:42:12Z</time>
      </trkpt>
      <trkpt lat="43.6407" lon="1.40175">
        <ele>127</ele>
        <time>2024-06-19T10:42:13Z</time>
      </trkpt>
      <trkpt lat="43.64072" lon="1.40174">
        <ele>127</ele>
        <time>2024-06-19T10:42:14Z</time>
      </trkpt>
      <trkpt lat="43.64075" lon="1.40172">
        <ele>127</ele>
        <time>2024-06-19T10:42:15Z</time>
      </trkpt>
      <trkpt lat="43.64078" lon="1.4017">
        <ele>127</ele>
        <time>2024-06-19T10:42:16Z</time>
      </trkpt>
      <trkpt lat="43.64081" lon="1.40168">
        <ele>127</ele>
        <time>2024-06-19T10:42:17Z</time>
      </trkpt>
      <trkpt lat="43.64083" lon="1.40166">
        <ele>127</ele>
        <time>2024-06-19T10:42:18Z</time>
      </trkpt>
      <trkpt lat="43.64087" lon="1.40164">
        <ele>127</ele>
        <time>2024-06-19T10:42:19Z</time>
      </trkpt>
      <trkpt lat="43.64091" lon="1.40162">
        <ele>127</ele>
        <time>2024-06-19T10:42:20Z</time>
      </trkpt>
      <trkpt lat="43.64094" lon="1.40159">
        <ele>127</ele>
        <time>2024-06-19T10:42:21Z</time>
      </trkpt>
      <trkpt lat="43.64098" lon="1.40157">
        <ele>127</ele>
        <time>2024-06-19T10:42:22Z</time>
      </trkpt>
      <trkpt lat="43.64101" lon="1.40156">
        <ele>127</ele>
        <time>2024-06-19T10:42:23Z</time>
      </trkpt>
      <trkpt lat="43.64104" lon="1.40154">
        <ele>127</ele>
        <time>2024-06-19T10:42:24Z</time>
      </trkpt>
      <trkpt lat="43.64107" lon="1.40152">
        <ele>127</ele>
        <time>2024-06-19T10:42:25Z</time>
      </trkpt>
      <trkpt lat="43.64109" lon="1.4015">
        <ele>127</ele>
        <time>2024-06-19T10:42:26Z</time>
      </trkpt>
      <trkpt lat="43.64112" lon="1.40148">
        <ele>127</ele>
        <time>2024-06-19T10:42:27Z</time>
      </trkpt>
      <trkpt lat="43.64116" lon="1.40146">
        <ele>127</ele>
        <time>2024-06-19T10:42:28Z</time>
      </trkpt>
      <trkpt lat="43.64119" lon="1.40144">
        <ele>127</ele>
        <time>2024-06-19T10:42:29Z</time>
      </trkpt>
      <trkpt lat="43.64123" lon="1.40142">
        <ele>127</ele>
        <time>2024-06-19T10:42:30Z</time>
      </trkpt>
      <trkpt lat="43.64127" lon="1.40139">
        <ele>127</ele>
        <time>2024-06-19T10:42:31Z</time>
      </trkpt>
      <trkpt lat="43.64131" lon="1.40135">
        <ele>127</ele>
        <time>2024-06-19T10:42:32Z</time>
      </trkpt>
      <trkpt lat="43.64134" lon="1.40133">
        <ele>127</ele>
        <time>2024-06-19T10:42:33Z</time>
      </trkpt>
      <trkpt lat="43.64136" lon="1.4013">
        <ele>127</ele>
        <time>2024-06-19T10:42:34Z</time>
      </trkpt>
      <trkpt lat="43.64137" lon="1.40127">
        <ele>127</ele>
        <time>2024-06-19T10:42:35Z</time>
      </trkpt>
      <trkpt lat="43.64139" lon="1.40124">
        <ele>127</ele>
        <time>2024-06-19T10:42:36Z</time>
      </trkpt>
      <trkpt lat="43.6414" lon="1.4012">
        <ele>127</ele>
        <time>2024-06-19T10:42:37Z</time>
      </trkpt>
      <trkpt lat="43.6414" lon="1.40117">
        <ele>127</ele>
        <time>2024-06-19T10:42:38Z</time>
      </trkpt>
      <trkpt lat="43.64141" lon="1.40113">
        <ele>127</ele>
        <time>2024-06-19T10:42:39Z</time>
      </trkpt>
      <trkpt lat="43.64141" lon="1.4011">
        <ele>127</ele>
        <time>2024-06-19T10:42:40Z</time>
      </trkpt>
      <trkpt lat="43.64142" lon="1.40106">
        <ele>127</ele>
        <time>2024-06-19T10:42:41Z</time>
      </trkpt>
      <trkpt lat="43.64142" lon="1.40102">
        <ele>127</ele>
        <time>2024-06-19T10:42:42Z</time>
      </trkpt>
      <trkpt lat="43.64142" lon="1.40098">
        <ele>128</ele>
        <time>2024-06-19T10:42:43Z</time>
      </trkpt>
      <trkpt lat="43.64142" lon="1.40095">
        <ele>128</ele>
        <time>2024-06-19T10:42:44Z</time>
      </trkpt>
      <trkpt lat="43.64142" lon="1.40091">
        <ele>129</ele>
        <time>2024-06-19T10:42:45Z</time>
      </trkpt>
      <trkpt lat="43.64141" lon="1.40087">
        <ele>129</ele>
        <time>2024-06-19T10:42:46Z</time>
      </trkpt>
      <trkpt lat="43.64141" lon="1.40083">
        <ele>129</ele>
        <time>2024-06-19T10:42:47Z</time>
      </trkpt>
      <trkpt lat="43.64141" lon="1.40079">
        <ele>129</ele>
        <time>2024-06-19T10:42:48Z</time>
      </trkpt>
      <trkpt lat="43.6414" lon="1.40075">
        <ele>129</ele>
        <time>2024-06-19T10:42:49Z</time>
      </trkpt>
      <trkpt lat="43.6414" lon="1.40075">
        <ele>129</ele>
        <time>2024-06-19T10:42:50Z</time>
      </trkpt>
      <trkpt lat="43.6414" lon="1.40066">
        <ele>128</ele>
        <time>2024-06-19T10:42:51Z</time>
      </trkpt>
      <trkpt lat="43.6414" lon="1.40062">
        <ele>128</ele>
        <time>2024-06-19T10:42:52Z</time>
      </trkpt>
      <trkpt lat="43.64141" lon="1.40058">
        <ele>128</ele>
        <time>2024-06-19T10:42:53Z</time>
      </trkpt>
      <trkpt lat="43.64142" lon="1.40054">
        <ele>128</ele>
        <time>2024-06-19T10:42:54Z</time>
      </trkpt>
      <trkpt lat="43.64143" lon="1.4005">
        <ele>128</ele>
        <time>2024-06-19T10:42:55Z</time>
      </trkpt>
      <trkpt lat="43.64144" lon="1.40047">
        <ele>128</ele>
        <time>2024-06-19T10:42:56Z</time>
      </trkpt>
      <trkpt lat="43.64145" lon="1.40043">
        <ele>128</ele>
        <time>2024-06-19T10:42:57Z</time>
      </trkpt>
      <trkpt lat="43.64145" lon="1.40039">
        <ele>128</ele>
        <time>2024-06-19T10:42:58Z</time>
      </trkpt>
      <trkpt lat="43.64146" lon="1.40036">
        <ele>128</ele>
        <time>2024-06-19T10:42:59Z</time>
      </trkpt>
      <trkpt lat="43.64146" lon="1.40032">
        <ele>128</ele>
        <time>2024-06-19T10:43:00Z</time>
      </trkpt>
      <trkpt lat="43.64147" lon="1.40028">
        <ele>128</ele>
        <time>2024-06-19T10:43:01Z</time>
      </trkpt>
      <trkpt lat="43.64148" lon="1.40024">
        <ele>128</ele>
        <time>2024-06-19T10:43:02Z</time>
      </trkpt>
      <trkpt lat="43.64149" lon="1.40021">
        <ele>128</ele>
        <time>2024-06-19T10:43:03Z</time>
      </trkpt>
      <trkpt lat="43.64149" lon="1.40017">
        <ele>128</ele>
        <time>2024-06-19T10:43:04Z</time>
      </trkpt>
      <trkpt lat="43.6415" lon="1.40013">
        <ele>128</ele>
        <time>2024-06-19T10:43:05Z</time>
      </trkpt>
      <trkpt lat="43.6415" lon="1.40009">
        <ele>128</ele>
        <time>2024-06-19T10:43:06Z</time>
      </trkpt>
      <trkpt lat="43.6415" lon="1.40005">
        <ele>128</ele>
        <time>2024-06-19T10:43:07Z</time>
      </trkpt>
      <trkpt lat="43.64151" lon="1.40001">
        <ele>128</ele>
        <time>2024-06-19T10:43:08Z</time>
      </trkpt>
      <trkpt lat="43.64151" lon="1.39997">
        <ele>128</ele>
        <time>2024-06-19T10:43:09Z</time>
      </trkpt>
      <trkpt lat="43.64151" lon="1.39994">
        <ele>128</ele>
        <time>2024-06-19T10:43:10Z</time>
      </trkpt>
      <trkpt lat="43.64151" lon="1.3999">
        <ele>128</ele>
        <time>2024-06-19T10:43:11Z</time>
      </trkpt>
      <trkpt lat="43.64152" lon="1.39986">
        <ele>129</ele>
        <time>2024-06-19T10:43:12Z</time>
      </trkpt>
      <trkpt lat="43.64153" lon="1.39983">
        <ele>129</ele>
        <time>2024-06-19T10:43:13Z</time>
      </trkpt>
      <trkpt lat="43.64155" lon="1.3998">
        <ele>129</ele>
        <time>2024-06-19T10:43:14Z</time>
      </trkpt>
      <trkpt lat="43.64157" lon="1.39977">
        <ele>129</ele>
        <time>2024-06-19T10:43:15Z</time>
      </trkpt>
      <trkpt lat="43.64161" lon="1.39976">
        <ele>129</ele>
        <time>2024-06-19T10:43:16Z</time>
      </trkpt>
      <trkpt lat="43.64163" lon="1.39975">
        <ele>129</ele>
        <time>2024-06-19T10:43:17Z</time>
      </trkpt>
      <trkpt lat="43.64167" lon="1.39973">
        <ele>129</ele>
        <time>2024-06-19T10:43:18Z</time>
      </trkpt>
      <trkpt lat="43.6417" lon="1.39973">
        <ele>129</ele>
        <time>2024-06-19T10:43:19Z</time>
      </trkpt>
      <trkpt lat="43.64173" lon="1.39972">
        <ele>129</ele>
        <time>2024-06-19T10:43:20Z</time>
      </trkpt>
      <trkpt lat="43.64173" lon="1.39972">
        <ele>129</ele>
        <time>2024-06-19T10:43:21Z</time>
      </trkpt>
      <trkpt lat="43.64179" lon="1.39971">
        <ele>129</ele>
        <time>2024-06-19T10:43:22Z</time>
      </trkpt>
      <trkpt lat="43.64181" lon="1.39971">
        <ele>129</ele>
        <time>2024-06-19T10:43:23Z</time>
      </trkpt>
      <trkpt lat="43.64184" lon="1.3997">
        <ele>129</ele>
        <time>2024-06-19T10:43:24Z</time>
      </trkpt>
      <trkpt lat="43.64187" lon="1.39969">
        <ele>130</ele>
        <time>2024-06-19T10:43:25Z</time>
      </trkpt>
      <trkpt lat="43.6419" lon="1.39968">
        <ele>130</ele>
        <time>2024-06-19T10:43:26Z</time>
      </trkpt>
      <trkpt lat="43.64192" lon="1.39967">
        <ele>130</ele>
        <time>2024-06-19T10:43:27Z</time>
      </trkpt>
      <trkpt lat="43.64195" lon="1.39966">
        <ele>130</ele>
        <time>2024-06-19T10:43:28Z</time>
      </trkpt>
      <trkpt lat="43.64198" lon="1.39964">
        <ele>130</ele>
        <time>2024-06-19T10:43:29Z</time>
      </trkpt>
      <trkpt lat="43.642" lon="1.39962">
        <ele>130</ele>
        <time>2024-06-19T10:43:30Z</time>
      </trkpt>
      <trkpt lat="43.64203" lon="1.3996">
        <ele>130</ele>
        <time>2024-06-19T10:43:31Z</time>
      </trkpt>
      <trkpt lat="43.64205" lon="1.39957">
        <ele>129</ele>
        <time>2024-06-19T10:43:32Z</time>
      </trkpt>
      <trkpt lat="43.64207" lon="1.39955">
        <ele>129</ele>
        <time>2024-06-19T10:43:33Z</time>
      </trkpt>
      <trkpt lat="43.64209" lon="1.39953">
        <ele>129</ele>
        <time>2024-06-19T10:43:34Z</time>
      </trkpt>
      <trkpt lat="43.64212" lon="1.3995">
        <ele>129</ele>
        <time>2024-06-19T10:43:35Z</time>
      </trkpt>
      <trkpt lat="43.64214" lon="1.39948">
        <ele>129</ele>
        <time>2024-06-19T10:43:36Z</time>
      </trkpt>
      <trkpt lat="43.64216" lon="1.39945">
        <ele>129</ele>
        <time>2024-06-19T10:43:37Z</time>
      </trkpt>
      <trkpt lat="43.64216" lon="1.39945">
        <ele>129</ele>
        <time>2024-06-19T10:43:38Z</time>
      </trkpt>
      <trkpt lat="43.64221" lon="1.3994">
        <ele>129</ele>
        <time>2024-06-19T10:43:39Z</time>
      </trkpt>
      <trkpt lat="43.64223" lon="1.39938">
        <ele>129</ele>
        <time>2024-06-19T10:43:40Z</time>
      </trkpt>
      <trkpt lat="43.64225" lon="1.39936">
        <ele>129</ele>
        <time>2024-06-19T10:43:41Z</time>
      </trkpt>
      <trkpt lat="43.64228" lon="1.39934">
        <ele>129</ele>
        <time>2024-06-19T10:43:42Z</time>
      </trkpt>
      <trkpt lat="43.6423" lon="1.39932">
        <ele>129</ele>
        <time>2024-06-19T10:43:43Z</time>
      </trkpt>
      <trkpt lat="43.64233" lon="1.39931">
        <ele>129</ele>
        <time>2024-06-19T10:43:44Z</time>
      </trkpt>
      <trkpt lat="43.64235" lon="1.3993">
        <ele>129</ele>
        <time>2024-06-19T10:43:45Z</time>
      </trkpt>
      <trkpt lat="43.64238" lon="1.39928">
        <ele>129</ele>
        <time>2024-06-19T10:43:46Z</time>
      </trkpt>
      <trkpt lat="43.64238" lon="1.39928">
        <ele>129</ele>
        <time>2024-06-19T10:43:47Z</time>
      </trkpt>
      <trkpt lat="43.64243" lon="1.39926">
        <ele>129</ele>
        <time>2024-06-19T10:43:48Z</time>
      </trkpt>
      <trkpt lat="43.64246" lon="1.39925">
        <ele>129</ele>
        <time>2024-06-19T10:43:49Z</time>
      </trkpt>
      <trkpt lat="43.64249" lon="1.39925">
        <ele>129</ele>
        <time>2024-06-19T10:43:50Z</time>
      </trkpt>
      <trkpt lat="43.64252" lon="1.39924">
        <ele>129</ele>
        <time>2024-06-19T10:43:51Z</time>
      </trkpt>
      <trkpt lat="43.64255" lon="1.39924">
        <ele>129</ele>
        <time>2024-06-19T10:43:52Z</time>
      </trkpt>
      <trkpt lat="43.64258" lon="1.39924">
        <ele>129</ele>
        <time>2024-06-19T10:43:53Z</time>
      </trkpt>
      <trkpt lat="43.64261" lon="1.39924">
        <ele>129</ele>
        <time>2024-06-19T10:43:54Z</time>
      </trkpt>
      <trkpt lat="43.64264" lon="1.39924">
        <ele>129</ele>
        <time>2024-06-19T10:43:55Z</time>
      </trkpt>
      <trkpt lat="43.64267" lon="1.39924">
        <ele>129</ele>
        <time>2024-06-19T10:43:56Z</time>
      </trkpt>
      <trkpt lat="43.6427" lon="1.39924">
        <ele>129</ele>
        <time>2024-06-19T10:43:57Z</time>
      </trkpt>
      <trkpt lat="43.64273" lon="1.39924">
        <ele>129</ele>
        <time>2024-06-19T10:43:58Z</time>
      </trkpt>
      <trkpt lat="43.64275" lon="1.39924">
        <ele>129</ele>
        <time>2024-06-19T10:43:59Z</time>
      </trkpt>
      <trkpt lat="43.64278" lon="1.39924">
        <ele>129</ele>
        <time>2024-06-19T10:44:00Z</time>
      </trkpt>
      <trkpt lat="43.6428" lon="1.39925">
        <ele>129</ele>
        <time>2024-06-19T10:44:01Z</time>
      </trkpt>
      <trkpt lat="43.64283" lon="1.39926">
        <ele>129</ele>
        <time>2024-06-19T10:44:02Z</time>
      </trkpt>
      <trkpt lat="43.64285" lon="1.39927">
        <ele>129</ele>
        <time>2024-06-19T10:44:03Z</time>
      </trkpt>
      <trkpt lat="43.64287" lon="1.39928">
        <ele>129</ele>
        <time>2024-06-19T10:44:04Z</time>
      </trkpt>
      <trkpt lat="43.6429" lon="1.3993">
        <ele>129</ele>
        <time>2024-06-19T10:44:05Z</time>
      </trkpt>
      <trkpt lat="43.6429" lon="1.3993">
        <ele>129</ele>
        <time>2024-06-19T10:44:06Z</time>
      </trkpt>
      <trkpt lat="43.64296" lon="1.39933">
        <ele>128</ele>
        <time>2024-06-19T10:44:07Z</time>
      </trkpt>
      <trkpt lat="43.64299" lon="1.39934">
        <ele>128</ele>
        <time>2024-06-19T10:44:08Z</time>
      </trkpt>
      <trkpt lat="43.64302" lon="1.39935">
        <ele>128</ele>
        <time>2024-06-19T10:44:09Z</time>
      </trkpt>
      <trkpt lat="43.64306" lon="1.39936">
        <ele>128</ele>
        <time>2024-06-19T10:44:10Z</time>
      </trkpt>
      <trkpt lat="43.64309" lon="1.39938">
        <ele>128</ele>
        <time>2024-06-19T10:44:11Z</time>
      </trkpt>
      <trkpt lat="43.64311" lon="1.39939">
        <ele>128</ele>
        <time>2024-06-19T10:44:12Z</time>
      </trkpt>
      <trkpt lat="43.64311" lon="1.39939">
        <ele>128</ele>
        <time>2024-06-19T10:44:13Z</time>
      </trkpt>
      <trkpt lat="43.64317" lon="1.39941">
        <ele>128</ele>
        <time>2024-06-19T10:44:14Z</time>
      </trkpt>
      <trkpt lat="43.64317" lon="1.39941">
        <ele>128</ele>
        <time>2024-06-19T10:44:15Z</time>
      </trkpt>
      <trkpt lat="43.64321" lon="1.39942">
        <ele>128</ele>
        <time>2024-06-19T10:44:16Z</time>
      </trkpt>
      <trkpt lat="43.64325" lon="1.39943">
        <ele>128</ele>
        <time>2024-06-19T10:44:17Z</time>
      </trkpt>
      <trkpt lat="43.64329" lon="1.39945">
        <ele>128</ele>
        <time>2024-06-19T10:44:18Z</time>
      </trkpt>
      <trkpt lat="43.64332" lon="1.39945">
        <ele>128</ele>
        <time>2024-06-19T10:44:19Z</time>
      </trkpt>
      <trkpt lat="43.64335" lon="1.39946">
        <ele>128</ele>
        <time>2024-06-19T10:44:20Z</time>
      </trkpt>
      <trkpt lat="43.64337" lon="1.39947">
        <ele>128</ele>
        <time>2024-06-19T10:44:21Z</time>
      </trkpt>
      <trkpt lat="43.6434" lon="1.39948">
        <ele>128</ele>
        <time>2024-06-19T10:44:22Z</time>
      </trkpt>
      <trkpt lat="43.64343" lon="1.39948">
        <ele>128</ele>
        <time>2024-06-19T10:44:23Z</time>
      </trkpt>
      <trkpt lat="43.64346" lon="1.39949">
        <ele>128</ele>
        <time>2024-06-19T10:44:24Z</time>
      </trkpt>
      <trkpt lat="43.64346" lon="1.39949">
        <ele>128</ele>
        <time>2024-06-19T10:44:25Z</time>
      </trkpt>
      <trkpt lat="43.64352" lon="1.39951">
        <ele>128</ele>
        <time>2024-06-19T10:44:26Z</time>
      </trkpt>
      <trkpt lat="43.64354" lon="1.39952">
        <ele>128</ele>
        <time>2024-06-19T10:44:27Z</time>
      </trkpt>
      <trkpt lat="43.64357" lon="1.39953">
        <ele>128</ele>
        <time>2024-06-19T10:44:28Z</time>
      </trkpt>
      <trkpt lat="43.64359" lon="1.39954">
        <ele>128</ele>
        <time>2024-06-19T10:44:29Z</time>
      </trkpt>
      <trkpt lat="43.64359" lon="1.39954">
        <ele>128</ele>
        <time>2024-06-19T10:44:30Z</time>
      </trkpt>
      <trkpt lat="43.64363" lon="1.39954">
        <ele>128</ele>
        <time>2024-06-19T10:44:31Z</time>
      </trkpt>
      <trkpt lat="43.64365" lon="1.39955">
        <ele>128</ele>
        <time>2024-06-19T10:44:32Z</time>
      </trkpt>
      <trkpt lat="43.64367" lon="1.39955">
        <ele>128</ele>
        <time>2024-06-19T10:44:33Z</time>
      </trkpt>
      <trkpt lat="43.6437" lon="1.39956">
        <ele>128</ele>
        <time>2024-06-19T10:44:34Z</time>
      </trkpt>
      <trkpt lat="43.64373" lon="1.39956">
        <ele>128</ele>
        <time>2024-06-19T10:44:35Z</time>
      </trkpt>
      <trkpt lat="43.64376" lon="1.39957">
        <ele>128</ele>
        <time>2024-06-19T10:44:36Z</time>
      </trkpt>
      <trkpt lat="43.64379" lon="1.39957">
        <ele>128</ele>
        <time>2024-06-19T10:44:37Z</time>
      </trkpt>
      <trkpt lat="43.64382" lon="1.39957">
        <ele>128</ele>
        <time>2024-06-19T10:44:38Z</time>
      </trkpt>
      <trkpt lat="43.64384" lon="1.39957">
        <ele>129</ele>
        <time>2024-06-19T10:44:39Z</time>
      </trkpt>
      <trkpt lat="43.64387" lon="1.39957">
        <ele>129</ele>
        <time>2024-06-19T10:44:40Z</time>
      </trkpt>
      <trkpt lat="43.6439" lon="1.39958">
        <ele>129</ele>
        <time>2024-06-19T10:44:41Z</time>
      </trkpt>
      <trkpt lat="43.64393" lon="1.39958">
        <ele>129</ele>
        <time>2024-06-19T10:44:42Z</time>
      </trkpt>
      <trkpt lat="43.64396" lon="1.39958">
        <ele>129</ele>
        <time>2024-06-19T10:44:43Z</time>
      </trkpt>
      <trkpt lat="43.64396" lon="1.39958">
        <ele>129</ele>
        <time>2024-06-19T10:44:44Z</time>
      </trkpt>
      <trkpt lat="43.644" lon="1.39958">
        <ele>129</ele>
        <time>2024-06-19T10:44:45Z</time>
      </trkpt>
      <trkpt lat="43.64407" lon="1.3996">
        <ele>129</ele>
        <time>2024-06-19T10:44:46Z</time>
      </trkpt>
      <trkpt lat="43.64409" lon="1.3996">
        <ele>129</ele>
        <time>2024-06-19T10:44:47Z</time>
      </trkpt>
      <trkpt lat="43.64409" lon="1.3996">
        <ele>129</ele>
        <time>2024-06-19T10:44:48Z</time>
      </trkpt>
      <trkpt lat="43.64415" lon="1.3996">
        <ele>129</ele>
        <time>2024-06-19T10:44:49Z</time>
      </trkpt>
      <trkpt lat="43.64417" lon="1.3996">
        <ele>129</ele>
        <time>2024-06-19T10:44:50Z</time>
      </trkpt>
      <trkpt lat="43.6442" lon="1.3996">
        <ele>129</ele>
        <time>2024-06-19T10:44:51Z</time>
      </trkpt>
      <trkpt lat="43.64423" lon="1.3996">
        <ele>129</ele>
        <time>2024-06-19T10:44:52Z</time>
      </trkpt>
      <trkpt lat="43.64426" lon="1.3996">
        <ele>129</ele>
        <time>2024-06-19T10:44:53Z</time>
      </trkpt>
      <trkpt lat="43.64428" lon="1.3996">
        <ele>129</ele>
        <time>2024-06-19T10:44:54Z</time>
      </trkpt>
      <trkpt lat="43.64432" lon="1.3996">
        <ele>129</ele>
        <time>2024-06-19T10:44:55Z</time>
      </trkpt>
      <trkpt lat="43.64435" lon="1.39959">
        <ele>128</ele>
        <time>2024-06-19T10:44:56Z</time>
      </trkpt>
      <trkpt lat="43.64438" lon="1.39959">
        <ele>128</ele>
        <time>2024-06-19T10:44:57Z</time>
      </trkpt>
      <trkpt lat="43.6444" lon="1.39959">
        <ele>128</ele>
        <time>2024-06-19T10:44:58Z</time>
      </trkpt>
      <trkpt lat="43.6444" lon="1.39959">
        <ele>128</ele>
        <time>2024-06-19T10:44:59Z</time>
      </trkpt>
      <trkpt lat="43.64445" lon="1.39959">
        <ele>129</ele>
        <time>2024-06-19T10:45:00Z</time>
      </trkpt>
      <trkpt lat="43.64448" lon="1.39959">
        <ele>129</ele>
        <time>2024-06-19T10:45:01Z</time>
      </trkpt>
      <trkpt lat="43.64451" lon="1.39959">
        <ele>128</ele>
        <time>2024-06-19T10:45:02Z</time>
      </trkpt>
      <trkpt lat="43.64451" lon="1.39959">
        <ele>128</ele>
        <time>2024-06-19T10:45:03Z</time>
      </trkpt>
      <trkpt lat="43.64458" lon="1.39959">
        <ele>128</ele>
        <time>2024-06-19T10:45:04Z</time>
      </trkpt>
      <trkpt lat="43.64458" lon="1.39959">
        <ele>128</ele>
        <time>2024-06-19T10:45:05Z</time>
      </trkpt>
      <trkpt lat="43.64464" lon="1.39959">
        <ele>129</ele>
        <time>2024-06-19T10:45:06Z</time>
      </trkpt>
      <trkpt lat="43.64467" lon="1.39958">
        <ele>129</ele>
        <time>2024-06-19T10:45:07Z</time>
      </trkpt>
      <trkpt lat="43.6447" lon="1.39957">
        <ele>129</ele>
        <time>2024-06-19T10:45:08Z</time>
      </trkpt>
      <trkpt lat="43.64473" lon="1.39956">
        <ele>129</ele>
        <time>2024-06-19T10:45:09Z</time>
      </trkpt>
      <trkpt lat="43.64475" lon="1.39955">
        <ele>129</ele>
        <time>2024-06-19T10:45:10Z</time>
      </trkpt>
      <trkpt lat="43.64478" lon="1.39954">
        <ele>129</ele>
        <time>2024-06-19T10:45:11Z</time>
      </trkpt>
      <trkpt lat="43.64481" lon="1.39954">
        <ele>129</ele>
        <time>2024-06-19T10:45:12Z</time>
      </trkpt>
      <trkpt lat="43.64484" lon="1.39953">
        <ele>129</ele>
        <time>2024-06-19T10:45:13Z</time>
      </trkpt>
      <trkpt lat="43.64487" lon="1.39952">
        <ele>130</ele>
        <time>2024-06-19T10:45:14Z</time>
      </trkpt>
      <trkpt lat="43.6449" lon="1.39951">
        <ele>130</ele>
        <time>2024-06-19T10:45:15Z</time>
      </trkpt>
      <trkpt lat="43.64493" lon="1.3995">
        <ele>130</ele>
        <time>2024-06-19T10:45:16Z</time>
      </trkpt>
      <trkpt lat="43.64495" lon="1.3995">
        <ele>130</ele>
        <time>2024-06-19T10:45:17Z</time>
      </trkpt>
      <trkpt lat="43.64498" lon="1.39948">
        <ele>130</ele>
        <time>2024-06-19T10:45:18Z</time>
      </trkpt>
      <trkpt lat="43.64501" lon="1.39947">
        <ele>130</ele>
        <time>2024-06-19T10:45:19Z</time>
      </trkpt>
      <trkpt lat="43.64504" lon="1.39945">
        <ele>130</ele>
        <time>2024-06-19T10:45:20Z</time>
      </trkpt>
      <trkpt lat="43.64506" lon="1.39942">
        <ele>130</ele>
        <time>2024-06-19T10:45:21Z</time>
      </trkpt>
      <trkpt lat="43.64507" lon="1.39935">
        <ele>131</ele>
        <time>2024-06-19T10:45:23Z</time>
      </trkpt>
      <trkpt lat="43.64507" lon="1.39931">
        <ele>131</ele>
        <time>2024-06-19T10:45:24Z</time>
      </trkpt>
      <trkpt lat="43.64505" lon="1.39928">
        <ele>130</ele>
        <time>2024-06-19T10:45:25Z</time>
      </trkpt>
      <trkpt lat="43.64504" lon="1.39925">
        <ele>130</ele>
        <time>2024-06-19T10:45:26Z</time>
      </trkpt>
      <trkpt lat="43.64502" lon="1.39922">
        <ele>130</ele>
        <time>2024-06-19T10:45:27Z</time>
      </trkpt>
      <trkpt lat="43.64499" lon="1.3992">
        <ele>130</ele>
        <time>2024-06-19T10:45:28Z</time>
      </trkpt>
      <trkpt lat="43.64498" lon="1.39916">
        <ele>130</ele>
        <time>2024-06-19T10:45:29Z</time>
      </trkpt>
      <trkpt lat="43.64497" lon="1.39912">
        <ele>130</ele>
        <time>2024-06-19T10:45:30Z</time>
      </trkpt>
      <trkpt lat="43.64497" lon="1.39907">
        <ele>130</ele>
        <time>2024-06-19T10:45:31Z</time>
      </trkpt>
      <trkpt lat="43.64497" lon="1.39903">
        <ele>130</ele>
        <time>2024-06-19T10:45:32Z</time>
      </trkpt>
      <trkpt lat="43.64497" lon="1.39899">
        <ele>130</ele>
        <time>2024-06-19T10:45:33Z</time>
      </trkpt>
      <trkpt lat="43.64496" lon="1.39895">
        <ele>130</ele>
        <time>2024-06-19T10:45:34Z</time>
      </trkpt>
      <trkpt lat="43.64497" lon="1.39891">
        <ele>130</ele>
        <time>2024-06-19T10:45:35Z</time>
      </trkpt>
      <trkpt lat="43.64497" lon="1.39887">
        <ele>130</ele>
        <time>2024-06-19T10:45:36Z</time>
      </trkpt>
      <trkpt lat="43.64497" lon="1.39883">
        <ele>130</ele>
        <time>2024-06-19T10:45:37Z</time>
      </trkpt>
      <trkpt lat="43.64497" lon="1.39879">
        <ele>130</ele>
        <time>2024-06-19T10:45:38Z</time>
      </trkpt>
      <trkpt lat="43.64497" lon="1.39875">
        <ele>130</ele>
        <time>2024-06-19T10:45:39Z</time>
      </trkpt>
      <trkpt lat="43.64498" lon="1.39871">
        <ele>130</ele>
        <time>2024-06-19T10:45:40Z</time>
      </trkpt>
      <trkpt lat="43.64498" lon="1.39867">
        <ele>130</ele>
        <time>2024-06-19T10:45:41Z</time>
      </trkpt>
      <trkpt lat="43.64498" lon="1.39863">
        <ele>130</ele>
        <time>2024-06-19T10:45:42Z</time>
      </trkpt>
      <trkpt lat="43.64498" lon="1.39859">
        <ele>130</ele>
        <time>2024-06-19T10:45:43Z</time>
      </trkpt>
      <trkpt lat="43.64498" lon="1.39856">
        <ele>130</ele>
        <time>2024-06-19T10:45:44Z</time>
      </trkpt>
      <trkpt lat="43.64498" lon="1.39852">
        <ele>130</ele>
        <time>2024-06-19T10:45:45Z</time>
      </trkpt>
      <trkpt lat="43.64498" lon="1.39848">
        <ele>130</ele>
        <time>2024-06-19T10:45:46Z</time>
      </trkpt>
      <trkpt lat="43.64498" lon="1.39844">
        <ele>130</ele>
        <time>2024-06-19T10:45:47Z</time>
      </trkpt>
      <trkpt lat="43.64498" lon="1.39839">
        <ele>130</ele>
        <time>2024-06-19T10:45:48Z</time>
      </trkpt>
      <trkpt lat="43.64498" lon="1.39835">
        <ele>130</ele>
        <time>2024-06-19T10:45:49Z</time>
      </trkpt>
      <trkpt lat="43.64498" lon="1.39831">
        <ele>130</ele>
        <time>2024-06-19T10:45:50Z</time>
      </trkpt>
      <trkpt lat="43.64498" lon="1.39827">
        <ele>130</ele>
        <time>2024-06-19T10:45:51Z</time>
      </trkpt>
      <trkpt lat="43.64498" lon="1.39824">
        <ele>130</ele>
        <time>2024-06-19T10:45:52Z</time>
      </trkpt>
      <trkpt lat="43.64498" lon="1.3982">
        <ele>130</ele>
        <time>2024-06-19T10:45:53Z</time>
      </trkpt>
      <trkpt lat="43.64498" lon="1.39816">
        <ele>130</ele>
        <time>2024-06-19T10:45:54Z</time>
      </trkpt>
      <trkpt lat="43.64498" lon="1.39812">
        <ele>130</ele>
        <time>2024-06-19T10:45:55Z</time>
      </trkpt>
      <trkpt lat="43.64498" lon="1.39808">
        <ele>130</ele>
        <time>2024-06-19T10:45:56Z</time>
      </trkpt>
      <trkpt lat="43.64498" lon="1.39804">
        <ele>130</ele>
        <time>2024-06-19T10:45:57Z</time>
      </trkpt>
      <trkpt lat="43.64498" lon="1.398">
        <ele>130</ele>
        <time>2024-06-19T10:45:58Z</time>
      </trkpt>
      <trkpt lat="43.64498" lon="1.39796">
        <ele>130</ele>
        <time>2024-06-19T10:45:59Z</time>
      </trkpt>
      <trkpt lat="43.64498" lon="1.39796">
        <ele>130</ele>
        <time>2024-06-19T10:46:00Z</time>
      </trkpt>
      <trkpt lat="43.64498" lon="1.39788">
        <ele>131</ele>
        <time>2024-06-19T10:46:01Z</time>
      </trkpt>
      <trkpt lat="43.64498" lon="1.39784">
        <ele>131</ele>
        <time>2024-06-19T10:46:02Z</time>
      </trkpt>
      <trkpt lat="43.64498" lon="1.3978">
        <ele>131</ele>
        <time>2024-06-19T10:46:03Z</time>
      </trkpt>
      <trkpt lat="43.64498" lon="1.39776">
        <ele>131</ele>
        <time>2024-06-19T10:46:04Z</time>
      </trkpt>
      <trkpt lat="43.64499" lon="1.39772">
        <ele>131</ele>
        <time>2024-06-19T10:46:05Z</time>
      </trkpt>
      <trkpt lat="43.64499" lon="1.39768">
        <ele>131</ele>
        <time>2024-06-19T10:46:06Z</time>
      </trkpt>
      <trkpt lat="43.64499" lon="1.39765">
        <ele>131</ele>
        <time>2024-06-19T10:46:07Z</time>
      </trkpt>
      <trkpt lat="43.64499" lon="1.39761">
        <ele>131</ele>
        <time>2024-06-19T10:46:08Z</time>
      </trkpt>
      <trkpt lat="43.64499" lon="1.39757">
        <ele>130</ele>
        <time>2024-06-19T10:46:09Z</time>
      </trkpt>
      <trkpt lat="43.64499" lon="1.39753">
        <ele>130</ele>
        <time>2024-06-19T10:46:10Z</time>
      </trkpt>
      <trkpt lat="43.64499" lon="1.39749">
        <ele>130</ele>
        <time>2024-06-19T10:46:11Z</time>
      </trkpt>
      <trkpt lat="43.64499" lon="1.39746">
        <ele>130</ele>
        <time>2024-06-19T10:46:12Z</time>
      </trkpt>
      <trkpt lat="43.64499" lon="1.39742">
        <ele>130</ele>
        <time>2024-06-19T10:46:13Z</time>
      </trkpt>
      <trkpt lat="43.64499" lon="1.39737">
        <ele>130</ele>
        <time>2024-06-19T10:46:14Z</time>
      </trkpt>
      <trkpt lat="43.64499" lon="1.39737">
        <ele>130</ele>
        <time>2024-06-19T10:46:15Z</time>
      </trkpt>
      <trkpt lat="43.64499" lon="1.3973">
        <ele>130</ele>
        <time>2024-06-19T10:46:16Z</time>
      </trkpt>
      <trkpt lat="43.64499" lon="1.39726">
        <ele>130</ele>
        <time>2024-06-19T10:46:17Z</time>
      </trkpt>
      <trkpt lat="43.64499" lon="1.39722">
        <ele>130</ele>
        <time>2024-06-19T10:46:18Z</time>
      </trkpt>
      <trkpt lat="43.64499" lon="1.39719">
        <ele>130</ele>
        <time>2024-06-19T10:46:19Z</time>
      </trkpt>
      <trkpt lat="43.64499" lon="1.39715">
        <ele>130</ele>
        <time>2024-06-19T10:46:20Z</time>
      </trkpt>
      <trkpt lat="43.64499" lon="1.3971">
        <ele>130</ele>
        <time>2024-06-19T10:46:21Z</time>
      </trkpt>
      <trkpt lat="43.645" lon="1.39707">
        <ele>130</ele>
        <time>2024-06-19T10:46:22Z</time>
      </trkpt>
      <trkpt lat="43.645" lon="1.39703">
        <ele>130</ele>
        <time>2024-06-19T10:46:23Z</time>
      </trkpt>
      <trkpt lat="43.645" lon="1.39699">
        <ele>130</ele>
        <time>2024-06-19T10:46:24Z</time>
      </trkpt>
      <trkpt lat="43.645" lon="1.39695">
        <ele>130</ele>
        <time>2024-06-19T10:46:25Z</time>
      </trkpt>
      <trkpt lat="43.645" lon="1.39691">
        <ele>130</ele>
        <time>2024-06-19T10:46:26Z</time>
      </trkpt>
      <trkpt lat="43.645" lon="1.39687">
        <ele>131</ele>
        <time>2024-06-19T10:46:27Z</time>
      </trkpt>
      <trkpt lat="43.645" lon="1.39684">
        <ele>131</ele>
        <time>2024-06-19T10:46:28Z</time>
      </trkpt>
      <trkpt lat="43.645" lon="1.3968">
        <ele>130</ele>
        <time>2024-06-19T10:46:29Z</time>
      </trkpt>
      <trkpt lat="43.645" lon="1.39676">
        <ele>130</ele>
        <time>2024-06-19T10:46:30Z</time>
      </trkpt>
      <trkpt lat="43.645" lon="1.39672">
        <ele>131</ele>
        <time>2024-06-19T10:46:31Z</time>
      </trkpt>
      <trkpt lat="43.64501" lon="1.39669">
        <ele>131</ele>
        <time>2024-06-19T10:46:32Z</time>
      </trkpt>
      <trkpt lat="43.64501" lon="1.39665">
        <ele>130</ele>
        <time>2024-06-19T10:46:33Z</time>
      </trkpt>
      <trkpt lat="43.64501" lon="1.39661">
        <ele>130</ele>
        <time>2024-06-19T10:46:34Z</time>
      </trkpt>
      <trkpt lat="43.64501" lon="1.39657">
        <ele>130</ele>
        <time>2024-06-19T10:46:35Z</time>
      </trkpt>
      <trkpt lat="43.64501" lon="1.39653">
        <ele>130</ele>
        <time>2024-06-19T10:46:36Z</time>
      </trkpt>
      <trkpt lat="43.64502" lon="1.39649">
        <ele>130</ele>
        <time>2024-06-19T10:46:37Z</time>
      </trkpt>
      <trkpt lat="43.64502" lon="1.39649">
        <ele>130</ele>
        <time>2024-06-19T10:46:38Z</time>
      </trkpt>
      <trkpt lat="43.64502" lon="1.39641">
        <ele>130</ele>
        <time>2024-06-19T10:46:39Z</time>
      </trkpt>
      <trkpt lat="43.64502" lon="1.39637">
        <ele>130</ele>
        <time>2024-06-19T10:46:40Z</time>
      </trkpt>
      <trkpt lat="43.64502" lon="1.39633">
        <ele>130</ele>
        <time>2024-06-19T10:46:41Z</time>
      </trkpt>
      <trkpt lat="43.64502" lon="1.39629">
        <ele>130</ele>
        <time>2024-06-19T10:46:42Z</time>
      </trkpt>
      <trkpt lat="43.64502" lon="1.39625">
        <ele>130</ele>
        <time>2024-06-19T10:46:43Z</time>
      </trkpt>
      <trkpt lat="43.64502" lon="1.39621">
        <ele>131</ele>
        <time>2024-06-19T10:46:44Z</time>
      </trkpt>
      <trkpt lat="43.64502" lon="1.39617">
        <ele>131</ele>
        <time>2024-06-19T10:46:45Z</time>
      </trkpt>
      <trkpt lat="43.64502" lon="1.39613">
        <ele>131</ele>
        <time>2024-06-19T10:46:46Z</time>
      </trkpt>
      <trkpt lat="43.64501" lon="1.3961">
        <ele>131</ele>
        <time>2024-06-19T10:46:47Z</time>
      </trkpt>
      <trkpt lat="43.64501" lon="1.39606">
        <ele>131</ele>
        <time>2024-06-19T10:46:48Z</time>
      </trkpt>
      <trkpt lat="43.64501" lon="1.39602">
        <ele>131</ele>
        <time>2024-06-19T10:46:49Z</time>
      </trkpt>
      <trkpt lat="43.64501" lon="1.39598">
        <ele>131</ele>
        <time>2024-06-19T10:46:50Z</time>
      </trkpt>
      <trkpt lat="43.64501" lon="1.39595">
        <ele>131</ele>
        <time>2024-06-19T10:46:51Z</time>
      </trkpt>
      <trkpt lat="43.645" lon="1.39591">
        <ele>131</ele>
        <time>2024-06-19T10:46:52Z</time>
      </trkpt>
      <trkpt lat="43.645" lon="1.39587">
        <ele>131</ele>
        <time>2024-06-19T10:46:53Z</time>
      </trkpt>
      <trkpt lat="43.64499" lon="1.39583">
        <ele>131</ele>
        <time>2024-06-19T10:46:54Z</time>
      </trkpt>
      <trkpt lat="43.64499" lon="1.39579">
        <ele>131</ele>
        <time>2024-06-19T10:46:55Z</time>
      </trkpt>
      <trkpt lat="43.64499" lon="1.39575">
        <ele>131</ele>
        <time>2024-06-19T10:46:56Z</time>
      </trkpt>
      <trkpt lat="43.64499" lon="1.39571">
        <ele>131</ele>
        <time>2024-06-19T10:46:57Z</time>
      </trkpt>
      <trkpt lat="43.64498" lon="1.39567">
        <ele>131</ele>
        <time>2024-06-19T10:46:58Z</time>
      </trkpt>
      <trkpt lat="43.64498" lon="1.39564">
        <ele>131</ele>
        <time>2024-06-19T10:46:59Z</time>
      </trkpt>
      <trkpt lat="43.64498" lon="1.3956">
        <ele>131</ele>
        <time>2024-06-19T10:47:00Z</time>
      </trkpt>
      <trkpt lat="43.64498" lon="1.39556">
        <ele>131</ele>
        <time>2024-06-19T10:47:01Z</time>
      </trkpt>
      <trkpt lat="43.64497" lon="1.39552">
        <ele>131</ele>
        <time>2024-06-19T10:47:02Z</time>
      </trkpt>
      <trkpt lat="43.64497" lon="1.39548">
        <ele>131</ele>
        <time>2024-06-19T10:47:03Z</time>
      </trkpt>
      <trkpt lat="43.64497" lon="1.39544">
        <ele>131</ele>
        <time>2024-06-19T10:47:04Z</time>
      </trkpt>
      <trkpt lat="43.64496" lon="1.3954">
        <ele>131</ele>
        <time>2024-06-19T10:47:05Z</time>
      </trkpt>
      <trkpt lat="43.64496" lon="1.39536">
        <ele>131</ele>
        <time>2024-06-19T10:47:06Z</time>
      </trkpt>
      <trkpt lat="43.64495" lon="1.39532">
        <ele>131</ele>
        <time>2024-06-19T10:47:07Z</time>
      </trkpt>
      <trkpt lat="43.64495" lon="1.39532">
        <ele>132</ele>
        <time>2024-06-19T10:47:08Z</time>
      </trkpt>
      <trkpt lat="43.64494" lon="1.39524">
        <ele>132</ele>
        <time>2024-06-19T10:47:09Z</time>
      </trkpt>
      <trkpt lat="43.64494" lon="1.3952">
        <ele>131</ele>
        <time>2024-06-19T10:47:10Z</time>
      </trkpt>
      <trkpt lat="43.64494" lon="1.3952">
        <ele>131</ele>
        <time>2024-06-19T10:47:11Z</time>
      </trkpt>
      <trkpt lat="43.64493" lon="1.39512">
        <ele>131</ele>
        <time>2024-06-19T10:47:12Z</time>
      </trkpt>
      <trkpt lat="43.64493" lon="1.39508">
        <ele>131</ele>
        <time>2024-06-19T10:47:13Z</time>
      </trkpt>
      <trkpt lat="43.64492" lon="1.39504">
        <ele>131</ele>
        <time>2024-06-19T10:47:14Z</time>
      </trkpt>
      <trkpt lat="43.64491" lon="1.395">
        <ele>131</ele>
        <time>2024-06-19T10:47:15Z</time>
      </trkpt>
      <trkpt lat="43.64491" lon="1.39496">
        <ele>131</ele>
        <time>2024-06-19T10:47:16Z</time>
      </trkpt>
      <trkpt lat="43.6449" lon="1.39492">
        <ele>131</ele>
        <time>2024-06-19T10:47:17Z</time>
      </trkpt>
      <trkpt lat="43.64489" lon="1.39489">
        <ele>131</ele>
        <time>2024-06-19T10:47:18Z</time>
      </trkpt>
      <trkpt lat="43.64489" lon="1.39485">
        <ele>131</ele>
        <time>2024-06-19T10:47:19Z</time>
      </trkpt>
      <trkpt lat="43.64488" lon="1.39481">
        <ele>131</ele>
        <time>2024-06-19T10:47:20Z</time>
      </trkpt>
      <trkpt lat="43.64487" lon="1.39478">
        <ele>131</ele>
        <time>2024-06-19T10:47:21Z</time>
      </trkpt>
      <trkpt lat="43.64487" lon="1.39474">
        <ele>131</ele>
        <time>2024-06-19T10:47:22Z</time>
      </trkpt>
      <trkpt lat="43.64487" lon="1.3947">
        <ele>131</ele>
        <time>2024-06-19T10:47:23Z</time>
      </trkpt>
      <trkpt lat="43.64486" lon="1.39466">
        <ele>131</ele>
        <time>2024-06-19T10:47:24Z</time>
      </trkpt>
      <trkpt lat="43.64485" lon="1.39462">
        <ele>131</ele>
        <time>2024-06-19T10:47:25Z</time>
      </trkpt>
      <trkpt lat="43.64485" lon="1.39458">
        <ele>131</ele>
        <time>2024-06-19T10:47:26Z</time>
      </trkpt>
      <trkpt lat="43.64484" lon="1.39455">
        <ele>131</ele>
        <time>2024-06-19T10:47:27Z</time>
      </trkpt>
      <trkpt lat="43.64483" lon="1.39451">
        <ele>131</ele>
        <time>2024-06-19T10:47:28Z</time>
      </trkpt>
      <trkpt lat="43.64483" lon="1.39448">
        <ele>131</ele>
        <time>2024-06-19T10:47:29Z</time>
      </trkpt>
      <trkpt lat="43.64482" lon="1.39444">
        <ele>131</ele>
        <time>2024-06-19T10:47:30Z</time>
      </trkpt>
      <trkpt lat="43.64482" lon="1.39441">
        <ele>131</ele>
        <time>2024-06-19T10:47:31Z</time>
      </trkpt>
      <trkpt lat="43.64481" lon="1.39437">
        <ele>131</ele>
        <time>2024-06-19T10:47:32Z</time>
      </trkpt>
      <trkpt lat="43.6448" lon="1.39434">
        <ele>131</ele>
        <time>2024-06-19T10:47:33Z</time>
      </trkpt>
      <trkpt lat="43.6448" lon="1.3943">
        <ele>131</ele>
        <time>2024-06-19T10:47:34Z</time>
      </trkpt>
      <trkpt lat="43.64479" lon="1.39426">
        <ele>131</ele>
        <time>2024-06-19T10:47:35Z</time>
      </trkpt>
      <trkpt lat="43.64478" lon="1.39423">
        <ele>131</ele>
        <time>2024-06-19T10:47:36Z</time>
      </trkpt>
      <trkpt lat="43.64478" lon="1.39419">
        <ele>131</ele>
        <time>2024-06-19T10:47:37Z</time>
      </trkpt>
      <trkpt lat="43.64477" lon="1.39415">
        <ele>131</ele>
        <time>2024-06-19T10:47:38Z</time>
      </trkpt>
      <trkpt lat="43.64476" lon="1.39411">
        <ele>131</ele>
        <time>2024-06-19T10:47:39Z</time>
      </trkpt>
      <trkpt lat="43.64476" lon="1.39408">
        <ele>131</ele>
        <time>2024-06-19T10:47:40Z</time>
      </trkpt>
      <trkpt lat="43.64475" lon="1.39404">
        <ele>131</ele>
        <time>2024-06-19T10:47:41Z</time>
      </trkpt>
      <trkpt lat="43.64475" lon="1.394">
        <ele>131</ele>
        <time>2024-06-19T10:47:42Z</time>
      </trkpt>
      <trkpt lat="43.64474" lon="1.39396">
        <ele>131</ele>
        <time>2024-06-19T10:47:43Z</time>
      </trkpt>
      <trkpt lat="43.64474" lon="1.39396">
        <ele>131</ele>
        <time>2024-06-19T10:47:44Z</time>
      </trkpt>
      <trkpt lat="43.64473" lon="1.39389">
        <ele>131</ele>
        <time>2024-06-19T10:47:45Z</time>
      </trkpt>
      <trkpt lat="43.64473" lon="1.39385">
        <ele>131</ele>
        <time>2024-06-19T10:47:46Z</time>
      </trkpt>
      <trkpt lat="43.64472" lon="1.39381">
        <ele>131</ele>
        <time>2024-06-19T10:47:47Z</time>
      </trkpt>
      <trkpt lat="43.64472" lon="1.39378">
        <ele>131</ele>
        <time>2024-06-19T10:47:48Z</time>
      </trkpt>
      <trkpt lat="43.64471" lon="1.39374">
        <ele>131</ele>
        <time>2024-06-19T10:47:49Z</time>
      </trkpt>
      <trkpt lat="43.64471" lon="1.39371">
        <ele>131</ele>
        <time>2024-06-19T10:47:50Z</time>
      </trkpt>
      <trkpt lat="43.6447" lon="1.39367">
        <ele>131</ele>
        <time>2024-06-19T10:47:51Z</time>
      </trkpt>
      <trkpt lat="43.64469" lon="1.39363">
        <ele>131</ele>
        <time>2024-06-19T10:47:52Z</time>
      </trkpt>
      <trkpt lat="43.64469" lon="1.39359">
        <ele>131</ele>
        <time>2024-06-19T10:47:53Z</time>
      </trkpt>
      <trkpt lat="43.64469" lon="1.39359">
        <ele>131</ele>
        <time>2024-06-19T10:47:54Z</time>
      </trkpt>
      <trkpt lat="43.64468" lon="1.39351">
        <ele>131</ele>
        <time>2024-06-19T10:47:55Z</time>
      </trkpt>
      <trkpt lat="43.64467" lon="1.39347">
        <ele>131</ele>
        <time>2024-06-19T10:47:56Z</time>
      </trkpt>
      <trkpt lat="43.64466" lon="1.39343">
        <ele>131</ele>
        <time>2024-06-19T10:47:57Z</time>
      </trkpt>
      <trkpt lat="43.64466" lon="1.3934">
        <ele>131</ele>
        <time>2024-06-19T10:47:58Z</time>
      </trkpt>
      <trkpt lat="43.64465" lon="1.39336">
        <ele>131</ele>
        <time>2024-06-19T10:47:59Z</time>
      </trkpt>
      <trkpt lat="43.64464" lon="1.39332">
        <ele>131</ele>
        <time>2024-06-19T10:48:00Z</time>
      </trkpt>
      <trkpt lat="43.64463" lon="1.39329">
        <ele>131</ele>
        <time>2024-06-19T10:48:01Z</time>
      </trkpt>
      <trkpt lat="43.64463" lon="1.39329">
        <ele>131</ele>
        <time>2024-06-19T10:48:02Z</time>
      </trkpt>
      <trkpt lat="43.64462" lon="1.39321">
        <ele>131</ele>
        <time>2024-06-19T10:48:03Z</time>
      </trkpt>
      <trkpt lat="43.64462" lon="1.39316">
        <ele>131</ele>
        <time>2024-06-19T10:48:04Z</time>
      </trkpt>
      <trkpt lat="43.64462" lon="1.39312">
        <ele>131</ele>
        <time>2024-06-19T10:48:05Z</time>
      </trkpt>
      <trkpt lat="43.64464" lon="1.39309">
        <ele>131</ele>
        <time>2024-06-19T10:48:06Z</time>
      </trkpt>
      <trkpt lat="43.64467" lon="1.39307">
        <ele>131</ele>
        <time>2024-06-19T10:48:07Z</time>
      </trkpt>
      <trkpt lat="43.6447" lon="1.39307">
        <ele>131</ele>
        <time>2024-06-19T10:48:08Z</time>
      </trkpt>
      <trkpt lat="43.64473" lon="1.39308">
        <ele>131</ele>
        <time>2024-06-19T10:48:09Z</time>
      </trkpt>
      <trkpt lat="43.64476" lon="1.39308">
        <ele>131</ele>
        <time>2024-06-19T10:48:10Z</time>
      </trkpt>
      <trkpt lat="43.64479" lon="1.39309">
        <ele>131</ele>
        <time>2024-06-19T10:48:11Z</time>
      </trkpt>
      <trkpt lat="43.64481" lon="1.39309">
        <ele>130</ele>
        <time>2024-06-19T10:48:12Z</time>
      </trkpt>
      <trkpt lat="43.64481" lon="1.39309">
        <ele>130</ele>
        <time>2024-06-19T10:48:13Z</time>
      </trkpt>
      <trkpt lat="43.64487" lon="1.39309">
        <ele>130</ele>
        <time>2024-06-19T10:48:14Z</time>
      </trkpt>
      <trkpt lat="43.6449" lon="1.39309">
        <ele>130</ele>
        <time>2024-06-19T10:48:15Z</time>
      </trkpt>
      <trkpt lat="43.64493" lon="1.39309">
        <ele>130</ele>
        <time>2024-06-19T10:48:16Z</time>
      </trkpt>
      <trkpt lat="43.64497" lon="1.39309">
        <ele>130</ele>
        <time>2024-06-19T10:48:17Z</time>
      </trkpt>
      <trkpt lat="43.645" lon="1.39308">
        <ele>130</ele>
        <time>2024-06-19T10:48:18Z</time>
      </trkpt>
      <trkpt lat="43.64504" lon="1.39308">
        <ele>130</ele>
        <time>2024-06-19T10:48:19Z</time>
      </trkpt>
      <trkpt lat="43.64507" lon="1.39308">
        <ele>130</ele>
        <time>2024-06-19T10:48:20Z</time>
      </trkpt>
      <trkpt lat="43.6451" lon="1.39308">
        <ele>130</ele>
        <time>2024-06-19T10:48:21Z</time>
      </trkpt>
      <trkpt lat="43.64514" lon="1.39307">
        <ele>130</ele>
        <time>2024-06-19T10:48:22Z</time>
      </trkpt>
      <trkpt lat="43.64517" lon="1.39306">
        <ele>129</ele>
        <time>2024-06-19T10:48:23Z</time>
      </trkpt>
      <trkpt lat="43.6452" lon="1.39306">
        <ele>129</ele>
        <time>2024-06-19T10:48:24Z</time>
      </trkpt>
      <trkpt lat="43.64523" lon="1.39305">
        <ele>129</ele>
        <time>2024-06-19T10:48:25Z</time>
      </trkpt>
      <trkpt lat="43.64527" lon="1.39304">
        <ele>129</ele>
        <time>2024-06-19T10:48:26Z</time>
      </trkpt>
      <trkpt lat="43.6453" lon="1.39303">
        <ele>129</ele>
        <time>2024-06-19T10:48:27Z</time>
      </trkpt>
      <trkpt lat="43.64533" lon="1.39302">
        <ele>129</ele>
        <time>2024-06-19T10:48:28Z</time>
      </trkpt>
      <trkpt lat="43.64536" lon="1.39301">
        <ele>129</ele>
        <time>2024-06-19T10:48:29Z</time>
      </trkpt>
      <trkpt lat="43.64539" lon="1.393">
        <ele>129</ele>
        <time>2024-06-19T10:48:30Z</time>
      </trkpt>
      <trkpt lat="43.64542" lon="1.39299">
        <ele>129</ele>
        <time>2024-06-19T10:48:31Z</time>
      </trkpt>
      <trkpt lat="43.64544" lon="1.39298">
        <ele>129</ele>
        <time>2024-06-19T10:48:32Z</time>
      </trkpt>
      <trkpt lat="43.64547" lon="1.39297">
        <ele>129</ele>
        <time>2024-06-19T10:48:33Z</time>
      </trkpt>
      <trkpt lat="43.64551" lon="1.39296">
        <ele>129</ele>
        <time>2024-06-19T10:48:34Z</time>
      </trkpt>
      <trkpt lat="43.64553" lon="1.39296">
        <ele>129</ele>
        <time>2024-06-19T10:48:35Z</time>
      </trkpt>
      <trkpt lat="43.64556" lon="1.39295">
        <ele>129</ele>
        <time>2024-06-19T10:48:36Z</time>
      </trkpt>
      <trkpt lat="43.64559" lon="1.39294">
        <ele>129</ele>
        <time>2024-06-19T10:48:37Z</time>
      </trkpt>
      <trkpt lat="43.64563" lon="1.39293">
        <ele>129</ele>
        <time>2024-06-19T10:48:38Z</time>
      </trkpt>
      <trkpt lat="43.64566" lon="1.39292">
        <ele>129</ele>
        <time>2024-06-19T10:48:39Z</time>
      </trkpt>
      <trkpt lat="43.64569" lon="1.39291">
        <ele>129</ele>
        <time>2024-06-19T10:48:40Z</time>
      </trkpt>
      <trkpt lat="43.64571" lon="1.3929">
        <ele>129</ele>
        <time>2024-06-19T10:48:41Z</time>
      </trkpt>
      <trkpt lat="43.64574" lon="1.39289">
        <ele>128</ele>
        <time>2024-06-19T10:48:42Z</time>
      </trkpt>
      <trkpt lat="43.64577" lon="1.39289">
        <ele>128</ele>
        <time>2024-06-19T10:48:43Z</time>
      </trkpt>
      <trkpt lat="43.6458" lon="1.39288">
        <ele>128</ele>
        <time>2024-06-19T10:48:44Z</time>
      </trkpt>
      <trkpt lat="43.64583" lon="1.39287">
        <ele>128</ele>
        <time>2024-06-19T10:48:45Z</time>
      </trkpt>
      <trkpt lat="43.64586" lon="1.39286">
        <ele>128</ele>
        <time>2024-06-19T10:48:46Z</time>
      </trkpt>
      <trkpt lat="43.64589" lon="1.39285">
        <ele>128</ele>
        <time>2024-06-19T10:48:47Z</time>
      </trkpt>
      <trkpt lat="43.64591" lon="1.39283">
        <ele>128</ele>
        <time>2024-06-19T10:48:48Z</time>
      </trkpt>
      <trkpt lat="43.64594" lon="1.39282">
        <ele>128</ele>
        <time>2024-06-19T10:48:49Z</time>
      </trkpt>
      <trkpt lat="43.64597" lon="1.39281">
        <ele>129</ele>
        <time>2024-06-19T10:48:50Z</time>
      </trkpt>
      <trkpt lat="43.64602" lon="1.39279">
        <ele>130</ele>
        <time>2024-06-19T10:48:52Z</time>
      </trkpt>
      <trkpt lat="43.64605" lon="1.39278">
        <ele>130</ele>
        <time>2024-06-19T10:48:53Z</time>
      </trkpt>
      <trkpt lat="43.64608" lon="1.39277">
        <ele>130</ele>
        <time>2024-06-19T10:48:54Z</time>
      </trkpt>
      <trkpt lat="43.64611" lon="1.39276">
        <ele>129</ele>
        <time>2024-06-19T10:48:55Z</time>
      </trkpt>
      <trkpt lat="43.64614" lon="1.39275">
        <ele>129</ele>
        <time>2024-06-19T10:48:56Z</time>
      </trkpt>
      <trkpt lat="43.64616" lon="1.39274">
        <ele>129</ele>
        <time>2024-06-19T10:48:57Z</time>
      </trkpt>
      <trkpt lat="43.64619" lon="1.39273">
        <ele>129</ele>
        <time>2024-06-19T10:48:58Z</time>
      </trkpt>
      <trkpt lat="43.64622" lon="1.39271">
        <ele>129</ele>
        <time>2024-06-19T10:48:59Z</time>
      </trkpt>
      <trkpt lat="43.64625" lon="1.39269">
        <ele>128</ele>
        <time>2024-06-19T10:49:00Z</time>
      </trkpt>
      <trkpt lat="43.64627" lon="1.39268">
        <ele>128</ele>
        <time>2024-06-19T10:49:01Z</time>
      </trkpt>
      <trkpt lat="43.6463" lon="1.39267">
        <ele>128</ele>
        <time>2024-06-19T10:49:02Z</time>
      </trkpt>
      <trkpt lat="43.64633" lon="1.39266">
        <ele>128</ele>
        <time>2024-06-19T10:49:03Z</time>
      </trkpt>
      <trkpt lat="43.64635" lon="1.39264">
        <ele>127</ele>
        <time>2024-06-19T10:49:04Z</time>
      </trkpt>
      <trkpt lat="43.64638" lon="1.39263">
        <ele>127</ele>
        <time>2024-06-19T10:49:05Z</time>
      </trkpt>
      <trkpt lat="43.6464" lon="1.39262">
        <ele>127</ele>
        <time>2024-06-19T10:49:06Z</time>
      </trkpt>
      <trkpt lat="43.64643" lon="1.39261">
        <ele>127</ele>
        <time>2024-06-19T10:49:07Z</time>
      </trkpt>
      <trkpt lat="43.64646" lon="1.39259">
        <ele>127</ele>
        <time>2024-06-19T10:49:08Z</time>
      </trkpt>
      <trkpt lat="43.64649" lon="1.39258">
        <ele>128</ele>
        <time>2024-06-19T10:49:09Z</time>
      </trkpt>
      <trkpt lat="43.64652" lon="1.39256">
        <ele>128</ele>
        <time>2024-06-19T10:49:10Z</time>
      </trkpt>
      <trkpt lat="43.64654" lon="1.39255">
        <ele>128</ele>
        <time>2024-06-19T10:49:11Z</time>
      </trkpt>
      <trkpt lat="43.64657" lon="1.39253">
        <ele>128</ele>
        <time>2024-06-19T10:49:12Z</time>
      </trkpt>
      <trkpt lat="43.6466" lon="1.39252">
        <ele>128</ele>
        <time>2024-06-19T10:49:13Z</time>
      </trkpt>
      <trkpt lat="43.64662" lon="1.3925">
        <ele>128</ele>
        <time>2024-06-19T10:49:14Z</time>
      </trkpt>
      <trkpt lat="43.64665" lon="1.39248">
        <ele>128</ele>
        <time>2024-06-19T10:49:15Z</time>
      </trkpt>
      <trkpt lat="43.64668" lon="1.39247">
        <ele>128</ele>
        <time>2024-06-19T10:49:16Z</time>
      </trkpt>
      <trkpt lat="43.64671" lon="1.39246">
        <ele>128</ele>
        <time>2024-06-19T10:49:17Z</time>
      </trkpt>
      <trkpt lat="43.64674" lon="1.39244">
        <ele>128</ele>
        <time>2024-06-19T10:49:18Z</time>
      </trkpt>
      <trkpt lat="43.64677" lon="1.39243">
        <ele>128</ele>
        <time>2024-06-19T10:49:19Z</time>
      </trkpt>
      <trkpt lat="43.64679" lon="1.39241">
        <ele>128</ele>
        <time>2024-06-19T10:49:20Z</time>
      </trkpt>
      <trkpt lat="43.64682" lon="1.39239">
        <ele>128</ele>
        <time>2024-06-19T10:49:21Z</time>
      </trkpt>
      <trkpt lat="43.64685" lon="1.39238">
        <ele>127</ele>
        <time>2024-06-19T10:49:22Z</time>
      </trkpt>
      <trkpt lat="43.64687" lon="1.39236">
        <ele>127</ele>
        <time>2024-06-19T10:49:23Z</time>
      </trkpt>
      <trkpt lat="43.6469" lon="1.39234">
        <ele>128</ele>
        <time>2024-06-19T10:49:24Z</time>
      </trkpt>
      <trkpt lat="43.64692" lon="1.39232">
        <ele>128</ele>
        <time>2024-06-19T10:49:25Z</time>
      </trkpt>
      <trkpt lat="43.64695" lon="1.3923">
        <ele>127</ele>
        <time>2024-06-19T10:49:26Z</time>
      </trkpt>
      <trkpt lat="43.64697" lon="1.39229">
        <ele>128</ele>
        <time>2024-06-19T10:49:27Z</time>
      </trkpt>
      <trkpt lat="43.647" lon="1.39227">
        <ele>128</ele>
        <time>2024-06-19T10:49:28Z</time>
      </trkpt>
      <trkpt lat="43.64702" lon="1.39225">
        <ele>128</ele>
        <time>2024-06-19T10:49:29Z</time>
      </trkpt>
      <trkpt lat="43.64705" lon="1.39224">
        <ele>127</ele>
        <time>2024-06-19T10:49:30Z</time>
      </trkpt>
      <trkpt lat="43.64707" lon="1.39221">
        <ele>127</ele>
        <time>2024-06-19T10:49:31Z</time>
      </trkpt>
      <trkpt lat="43.6471" lon="1.3922">
        <ele>127</ele>
        <time>2024-06-19T10:49:32Z</time>
      </trkpt>
      <trkpt lat="43.64712" lon="1.39218">
        <ele>127</ele>
        <time>2024-06-19T10:49:33Z</time>
      </trkpt>
      <trkpt lat="43.64715" lon="1.39216">
        <ele>127</ele>
        <time>2024-06-19T10:49:34Z</time>
      </trkpt>
      <trkpt lat="43.64718" lon="1.39215">
        <ele>127</ele>
        <time>2024-06-19T10:49:35Z</time>
      </trkpt>
      <trkpt lat="43.6472" lon="1.39213">
        <ele>127</ele>
        <time>2024-06-19T10:49:36Z</time>
      </trkpt>
      <trkpt lat="43.64723" lon="1.39211">
        <ele>127</ele>
        <time>2024-06-19T10:49:37Z</time>
      </trkpt>
      <trkpt lat="43.64726" lon="1.39209">
        <ele>127</ele>
        <time>2024-06-19T10:49:38Z</time>
      </trkpt>
      <trkpt lat="43.64728" lon="1.39208">
        <ele>127</ele>
        <time>2024-06-19T10:49:39Z</time>
      </trkpt>
      <trkpt lat="43.64731" lon="1.39206">
        <ele>127</ele>
        <time>2024-06-19T10:49:40Z</time>
      </trkpt>
      <trkpt lat="43.64734" lon="1.39204">
        <ele>127</ele>
        <time>2024-06-19T10:49:41Z</time>
      </trkpt>
      <trkpt lat="43.64736" lon="1.39203">
        <ele>127</ele>
        <time>2024-06-19T10:49:42Z</time>
      </trkpt>
      <trkpt lat="43.64738" lon="1.39201">
        <ele>127</ele>
        <time>2024-06-19T10:49:43Z</time>
      </trkpt>
      <trkpt lat="43.64741" lon="1.39199">
        <ele>127</ele>
        <time>2024-06-19T10:49:44Z</time>
      </trkpt>
      <trkpt lat="43.64743" lon="1.39198">
        <ele>127</ele>
        <time>2024-06-19T10:49:45Z</time>
      </trkpt>
      <trkpt lat="43.64746" lon="1.39196">
        <ele>127</ele>
        <time>2024-06-19T10:49:46Z</time>
      </trkpt>
      <trkpt lat="43.64749" lon="1.39194">
        <ele>127</ele>
        <time>2024-06-19T10:49:47Z</time>
      </trkpt>
      <trkpt lat="43.64749" lon="1.39194">
        <ele>127</ele>
        <time>2024-06-19T10:49:48Z</time>
      </trkpt>
      <trkpt lat="43.64753" lon="1.39191">
        <ele>127</ele>
        <time>2024-06-19T10:49:49Z</time>
      </trkpt>
      <trkpt lat="43.64756" lon="1.3919">
        <ele>127</ele>
        <time>2024-06-19T10:49:50Z</time>
      </trkpt>
      <trkpt lat="43.64758" lon="1.39189">
        <ele>127</ele>
        <time>2024-06-19T10:49:51Z</time>
      </trkpt>
      <trkpt lat="43.64761" lon="1.39187">
        <ele>127</ele>
        <time>2024-06-19T10:49:52Z</time>
      </trkpt>
      <trkpt lat="43.64763" lon="1.39185">
        <ele>127</ele>
        <time>2024-06-19T10:49:53Z</time>
      </trkpt>
      <trkpt lat="43.64765" lon="1.39184">
        <ele>127</ele>
        <time>2024-06-19T10:49:54Z</time>
      </trkpt>
      <trkpt lat="43.64768" lon="1.39182">
        <ele>127</ele>
        <time>2024-06-19T10:49:55Z</time>
      </trkpt>
      <trkpt lat="43.64771" lon="1.3918">
        <ele>127</ele>
        <time>2024-06-19T10:49:56Z</time>
      </trkpt>
      <trkpt lat="43.64773" lon="1.39179">
        <ele>127</ele>
        <time>2024-06-19T10:49:57Z</time>
      </trkpt>
      <trkpt lat="43.64776" lon="1.39177">
        <ele>127</ele>
        <time>2024-06-19T10:49:58Z</time>
      </trkpt>
      <trkpt lat="43.64778" lon="1.39176">
        <ele>127</ele>
        <time>2024-06-19T10:49:59Z</time>
      </trkpt>
      <trkpt lat="43.6478" lon="1.39174">
        <ele>127</ele>
        <time>2024-06-19T10:50:00Z</time>
      </trkpt>
      <trkpt lat="43.64783" lon="1.39173">
        <ele>127</ele>
        <time>2024-06-19T10:50:01Z</time>
      </trkpt>
      <trkpt lat="43.64786" lon="1.39171">
        <ele>128</ele>
        <time>2024-06-19T10:50:02Z</time>
      </trkpt>
      <trkpt lat="43.64789" lon="1.3917">
        <ele>128</ele>
        <time>2024-06-19T10:50:03Z</time>
      </trkpt>
      <trkpt lat="43.64792" lon="1.39168">
        <ele>128</ele>
        <time>2024-06-19T10:50:04Z</time>
      </trkpt>
      <trkpt lat="43.64794" lon="1.39166">
        <ele>128</ele>
        <time>2024-06-19T10:50:05Z</time>
      </trkpt>
      <trkpt lat="43.64797" lon="1.39165">
        <ele>128</ele>
        <time>2024-06-19T10:50:06Z</time>
      </trkpt>
      <trkpt lat="43.64797" lon="1.39165">
        <ele>128</ele>
        <time>2024-06-19T10:50:07Z</time>
      </trkpt>
      <trkpt lat="43.64803" lon="1.39161">
        <ele>128</ele>
        <time>2024-06-19T10:50:08Z</time>
      </trkpt>
      <trkpt lat="43.64806" lon="1.39159">
        <ele>128</ele>
        <time>2024-06-19T10:50:09Z</time>
      </trkpt>
      <trkpt lat="43.64809" lon="1.39158">
        <ele>128</ele>
        <time>2024-06-19T10:50:10Z</time>
      </trkpt>
      <trkpt lat="43.64812" lon="1.39156">
        <ele>128</ele>
        <time>2024-06-19T10:50:11Z</time>
      </trkpt>
      <trkpt lat="43.64815" lon="1.39154">
        <ele>128</ele>
        <time>2024-06-19T10:50:12Z</time>
      </trkpt>
      <trkpt lat="43.64817" lon="1.39152">
        <ele>128</ele>
        <time>2024-06-19T10:50:13Z</time>
      </trkpt>
      <trkpt lat="43.6482" lon="1.3915">
        <ele>128</ele>
        <time>2024-06-19T10:50:14Z</time>
      </trkpt>
      <trkpt lat="43.64823" lon="1.39148">
        <ele>128</ele>
        <time>2024-06-19T10:50:15Z</time>
      </trkpt>
      <trkpt lat="43.64825" lon="1.39146">
        <ele>128</ele>
        <time>2024-06-19T10:50:16Z</time>
      </trkpt>
      <trkpt lat="43.64825" lon="1.39146">
        <ele>128</ele>
        <time>2024-06-19T10:50:17Z</time>
      </trkpt>
      <trkpt lat="43.6483" lon="1.39142">
        <ele>127</ele>
        <time>2024-06-19T10:50:18Z</time>
      </trkpt>
      <trkpt lat="43.64833" lon="1.3914">
        <ele>127</ele>
        <time>2024-06-19T10:50:19Z</time>
      </trkpt>
      <trkpt lat="43.64836" lon="1.39138">
        <ele>127</ele>
        <time>2024-06-19T10:50:20Z</time>
      </trkpt>
      <trkpt lat="43.64839" lon="1.39136">
        <ele>127</ele>
        <time>2024-06-19T10:50:21Z</time>
      </trkpt>
      <trkpt lat="43.64842" lon="1.39135">
        <ele>127</ele>
        <time>2024-06-19T10:50:22Z</time>
      </trkpt>
      <trkpt lat="43.64845" lon="1.39133">
        <ele>127</ele>
        <time>2024-06-19T10:50:23Z</time>
      </trkpt>
      <trkpt lat="43.64848" lon="1.39132">
        <ele>127</ele>
        <time>2024-06-19T10:50:24Z</time>
      </trkpt>
      <trkpt lat="43.64851" lon="1.3913">
        <ele>127</ele>
        <time>2024-06-19T10:50:25Z</time>
      </trkpt>
      <trkpt lat="43.64854" lon="1.3913">
        <ele>127</ele>
        <time>2024-06-19T10:50:26Z</time>
      </trkpt>
      <trkpt lat="43.64857" lon="1.39129">
        <ele>128</ele>
        <time>2024-06-19T10:50:27Z</time>
      </trkpt>
      <trkpt lat="43.6486" lon="1.39128">
        <ele>128</ele>
        <time>2024-06-19T10:50:28Z</time>
      </trkpt>
      <trkpt lat="43.64863" lon="1.39126">
        <ele>128</ele>
        <time>2024-06-19T10:50:29Z</time>
      </trkpt>
      <trkpt lat="43.64865" lon="1.39125">
        <ele>128</ele>
        <time>2024-06-19T10:50:30Z</time>
      </trkpt>
      <trkpt lat="43.64868" lon="1.39125">
        <ele>127</ele>
        <time>2024-06-19T10:50:31Z</time>
      </trkpt>
      <trkpt lat="43.64871" lon="1.39124">
        <ele>127</ele>
        <time>2024-06-19T10:50:32Z</time>
      </trkpt>
      <trkpt lat="43.64871" lon="1.39124">
        <ele>127</ele>
        <time>2024-06-19T10:50:33Z</time>
      </trkpt>
      <trkpt lat="43.64877" lon="1.39123">
        <ele>127</ele>
        <time>2024-06-19T10:50:34Z</time>
      </trkpt>
      <trkpt lat="43.6488" lon="1.39122">
        <ele>127</ele>
        <time>2024-06-19T10:50:35Z</time>
      </trkpt>
      <trkpt lat="43.64883" lon="1.39122">
        <ele>127</ele>
        <time>2024-06-19T10:50:36Z</time>
      </trkpt>
      <trkpt lat="43.64886" lon="1.39121">
        <ele>127</ele>
        <time>2024-06-19T10:50:37Z</time>
      </trkpt>
      <trkpt lat="43.64889" lon="1.3912">
        <ele>127</ele>
        <time>2024-06-19T10:50:38Z</time>
      </trkpt>
      <trkpt lat="43.64892" lon="1.3912">
        <ele>127</ele>
        <time>2024-06-19T10:50:39Z</time>
      </trkpt>
      <trkpt lat="43.64894" lon="1.39119">
        <ele>127</ele>
        <time>2024-06-19T10:50:40Z</time>
      </trkpt>
      <trkpt lat="43.64897" lon="1.39118">
        <ele>127</ele>
        <time>2024-06-19T10:50:41Z</time>
      </trkpt>
      <trkpt lat="43.649" lon="1.39118">
        <ele>127</ele>
        <time>2024-06-19T10:50:42Z</time>
      </trkpt>
      <trkpt lat="43.64903" lon="1.39118">
        <ele>127</ele>
        <time>2024-06-19T10:50:43Z</time>
      </trkpt>
      <trkpt lat="43.64906" lon="1.39117">
        <ele>127</ele>
        <time>2024-06-19T10:50:44Z</time>
      </trkpt>
      <trkpt lat="43.64906" lon="1.39117">
        <ele>127</ele>
        <time>2024-06-19T10:50:45Z</time>
      </trkpt>
      <trkpt lat="43.64912" lon="1.39117">
        <ele>127</ele>
        <time>2024-06-19T10:50:46Z</time>
      </trkpt>
      <trkpt lat="43.64914" lon="1.39117">
        <ele>127</ele>
        <time>2024-06-19T10:50:47Z</time>
      </trkpt>
      <trkpt lat="43.64918" lon="1.39117">
        <ele>127</ele>
        <time>2024-06-19T10:50:48Z</time>
      </trkpt>
      <trkpt lat="43.6492" lon="1.39117">
        <ele>127</ele>
        <time>2024-06-19T10:50:49Z</time>
      </trkpt>
      <trkpt lat="43.64923" lon="1.39117">
        <ele>127</ele>
        <time>2024-06-19T10:50:50Z</time>
      </trkpt>
      <trkpt lat="43.64926" lon="1.39116">
        <ele>127</ele>
        <time>2024-06-19T10:50:51Z</time>
      </trkpt>
      <trkpt lat="43.64929" lon="1.39116">
        <ele>126</ele>
        <time>2024-06-19T10:50:52Z</time>
      </trkpt>
      <trkpt lat="43.64931" lon="1.39116">
        <ele>126</ele>
        <time>2024-06-19T10:50:53Z</time>
      </trkpt>
      <trkpt lat="43.64934" lon="1.39116">
        <ele>126</ele>
        <time>2024-06-19T10:50:54Z</time>
      </trkpt>
      <trkpt lat="43.64937" lon="1.39116">
        <ele>126</ele>
        <time>2024-06-19T10:50:55Z</time>
      </trkpt>
      <trkpt lat="43.6494" lon="1.39117">
        <ele>127</ele>
        <time>2024-06-19T10:50:56Z</time>
      </trkpt>
      <trkpt lat="43.64943" lon="1.39118">
        <ele>127</ele>
        <time>2024-06-19T10:50:57Z</time>
      </trkpt>
      <trkpt lat="43.64946" lon="1.39121">
        <ele>127</ele>
        <time>2024-06-19T10:50:58Z</time>
      </trkpt>
      <trkpt lat="43.64948" lon="1.39124">
        <ele>127</ele>
        <time>2024-06-19T10:50:59Z</time>
      </trkpt>
      <trkpt lat="43.6495" lon="1.39128">
        <ele>127</ele>
        <time>2024-06-19T10:51:00Z</time>
      </trkpt>
      <trkpt lat="43.64951" lon="1.39132">
        <ele>127</ele>
        <time>2024-06-19T10:51:01Z</time>
      </trkpt>
      <trkpt lat="43.64951" lon="1.39136">
        <ele>127</ele>
        <time>2024-06-19T10:51:02Z</time>
      </trkpt>
      <trkpt lat="43.64952" lon="1.3914">
        <ele>127</ele>
        <time>2024-06-19T10:51:03Z</time>
      </trkpt>
      <trkpt lat="43.64953" lon="1.39144">
        <ele>127</ele>
        <time>2024-06-19T10:51:04Z</time>
      </trkpt>
      <trkpt lat="43.64955" lon="1.39148">
        <ele>127</ele>
        <time>2024-06-19T10:51:05Z</time>
      </trkpt>
      <trkpt lat="43.64956" lon="1.39152">
        <ele>127</ele>
        <time>2024-06-19T10:51:06Z</time>
      </trkpt>
      <trkpt lat="43.64956" lon="1.39152">
        <ele>127</ele>
        <time>2024-06-19T10:51:07Z</time>
      </trkpt>
      <trkpt lat="43.6496" lon="1.39158">
        <ele>127</ele>
        <time>2024-06-19T10:51:08Z</time>
      </trkpt>
      <trkpt lat="43.64963" lon="1.3916">
        <ele>126</ele>
        <time>2024-06-19T10:51:09Z</time>
      </trkpt>
      <trkpt lat="43.64965" lon="1.39161">
        <ele>126</ele>
        <time>2024-06-19T10:51:10Z</time>
      </trkpt>
      <trkpt lat="43.64968" lon="1.39161">
        <ele>127</ele>
        <time>2024-06-19T10:51:11Z</time>
      </trkpt>
      <trkpt lat="43.6497" lon="1.39162">
        <ele>127</ele>
        <time>2024-06-19T10:51:12Z</time>
      </trkpt>
      <trkpt lat="43.64973" lon="1.39161">
        <ele>127</ele>
        <time>2024-06-19T10:51:13Z</time>
      </trkpt>
      <trkpt lat="43.64976" lon="1.3916">
        <ele>127</ele>
        <time>2024-06-19T10:51:14Z</time>
      </trkpt>
      <trkpt lat="43.64979" lon="1.3916">
        <ele>126</ele>
        <time>2024-06-19T10:51:15Z</time>
      </trkpt>
      <trkpt lat="43.64982" lon="1.39159">
        <ele>126</ele>
        <time>2024-06-19T10:51:16Z</time>
      </trkpt>
      <trkpt lat="43.64985" lon="1.39158">
        <ele>126</ele>
        <time>2024-06-19T10:51:17Z</time>
      </trkpt>
      <trkpt lat="43.64988" lon="1.39157">
        <ele>126</ele>
        <time>2024-06-19T10:51:18Z</time>
      </trkpt>
      <trkpt lat="43.64991" lon="1.39156">
        <ele>126</ele>
        <time>2024-06-19T10:51:19Z</time>
      </trkpt>
      <trkpt lat="43.64993" lon="1.39156">
        <ele>126</ele>
        <time>2024-06-19T10:51:20Z</time>
      </trkpt>
      <trkpt lat="43.64996" lon="1.39155">
        <ele>126</ele>
        <time>2024-06-19T10:51:21Z</time>
      </trkpt>
      <trkpt lat="43.64999" lon="1.39155">
        <ele>126</ele>
        <time>2024-06-19T10:51:22Z</time>
      </trkpt>
      <trkpt lat="43.64999" lon="1.39155">
        <ele>126</ele>
        <time>2024-06-19T10:51:23Z</time>
      </trkpt>
      <trkpt lat="43.65002" lon="1.39154">
        <ele>126</ele>
        <time>2024-06-19T10:51:24Z</time>
      </trkpt>
      <trkpt lat="43.65007" lon="1.39152">
        <ele>126</ele>
        <time>2024-06-19T10:51:25Z</time>
      </trkpt>
      <trkpt lat="43.6501" lon="1.39151">
        <ele>126</ele>
        <time>2024-06-19T10:51:26Z</time>
      </trkpt>
      <trkpt lat="43.65013" lon="1.3915">
        <ele>126</ele>
        <time>2024-06-19T10:51:27Z</time>
      </trkpt>
      <trkpt lat="43.65016" lon="1.3915">
        <ele>126</ele>
        <time>2024-06-19T10:51:28Z</time>
      </trkpt>
      <trkpt lat="43.65019" lon="1.39149">
        <ele>126</ele>
        <time>2024-06-19T10:51:29Z</time>
      </trkpt>
      <trkpt lat="43.65021" lon="1.39149">
        <ele>126</ele>
        <time>2024-06-19T10:51:30Z</time>
      </trkpt>
      <trkpt lat="43.65024" lon="1.39148">
        <ele>126</ele>
        <time>2024-06-19T10:51:31Z</time>
      </trkpt>
      <trkpt lat="43.65027" lon="1.39148">
        <ele>126</ele>
        <time>2024-06-19T10:51:32Z</time>
      </trkpt>
      <trkpt lat="43.6503" lon="1.39147">
        <ele>126</ele>
        <time>2024-06-19T10:51:33Z</time>
      </trkpt>
      <trkpt lat="43.65033" lon="1.39146">
        <ele>125</ele>
        <time>2024-06-19T10:51:34Z</time>
      </trkpt>
      <trkpt lat="43.65035" lon="1.39145">
        <ele>125</ele>
        <time>2024-06-19T10:51:35Z</time>
      </trkpt>
      <trkpt lat="43.65038" lon="1.39145">
        <ele>125</ele>
        <time>2024-06-19T10:51:36Z</time>
      </trkpt>
      <trkpt lat="43.65041" lon="1.39144">
        <ele>125</ele>
        <time>2024-06-19T10:51:37Z</time>
      </trkpt>
      <trkpt lat="43.65044" lon="1.39143">
        <ele>125</ele>
        <time>2024-06-19T10:51:38Z</time>
      </trkpt>
      <trkpt lat="43.65046" lon="1.39143">
        <ele>125</ele>
        <time>2024-06-19T10:51:39Z</time>
      </trkpt>
      <trkpt lat="43.65049" lon="1.39142">
        <ele>125</ele>
        <time>2024-06-19T10:51:40Z</time>
      </trkpt>
      <trkpt lat="43.65052" lon="1.39141">
        <ele>125</ele>
        <time>2024-06-19T10:51:41Z</time>
      </trkpt>
      <trkpt lat="43.65059" lon="1.39138">
        <ele>125</ele>
        <time>2024-06-19T10:51:43Z</time>
      </trkpt>
      <trkpt lat="43.65062" lon="1.39137">
        <ele>126</ele>
        <time>2024-06-19T10:51:44Z</time>
      </trkpt>
      <trkpt lat="43.65065" lon="1.39135">
        <ele>126</ele>
        <time>2024-06-19T10:51:45Z</time>
      </trkpt>
      <trkpt lat="43.65067" lon="1.39132">
        <ele>126</ele>
        <time>2024-06-19T10:51:46Z</time>
      </trkpt>
      <trkpt lat="43.65069" lon="1.39129">
        <ele>126</ele>
        <time>2024-06-19T10:51:47Z</time>
      </trkpt>
      <trkpt lat="43.65071" lon="1.39126">
        <ele>126</ele>
        <time>2024-06-19T10:51:48Z</time>
      </trkpt>
      <trkpt lat="43.65072" lon="1.39122">
        <ele>126</ele>
        <time>2024-06-19T10:51:49Z</time>
      </trkpt>
      <trkpt lat="43.65073" lon="1.39118">
        <ele>126</ele>
        <time>2024-06-19T10:51:50Z</time>
      </trkpt>
      <trkpt lat="43.65074" lon="1.39114">
        <ele>126</ele>
        <time>2024-06-19T10:51:51Z</time>
      </trkpt>
      <trkpt lat="43.65074" lon="1.3911">
        <ele>126</ele>
        <time>2024-06-19T10:51:52Z</time>
      </trkpt>
      <trkpt lat="43.65074" lon="1.39106">
        <ele>126</ele>
        <time>2024-06-19T10:51:53Z</time>
      </trkpt>
      <trkpt lat="43.65074" lon="1.39102">
        <ele>126</ele>
        <time>2024-06-19T10:51:54Z</time>
      </trkpt>
      <trkpt lat="43.65073" lon="1.39098">
        <ele>126</ele>
        <time>2024-06-19T10:51:55Z</time>
      </trkpt>
      <trkpt lat="43.65073" lon="1.39094">
        <ele>126</ele>
        <time>2024-06-19T10:51:56Z</time>
      </trkpt>
      <trkpt lat="43.65073" lon="1.3909">
        <ele>126</ele>
        <time>2024-06-19T10:51:57Z</time>
      </trkpt>
      <trkpt lat="43.65073" lon="1.3909">
        <ele>126</ele>
        <time>2024-06-19T10:51:58Z</time>
      </trkpt>
      <trkpt lat="43.65072" lon="1.39081">
        <ele>126</ele>
        <time>2024-06-19T10:51:59Z</time>
      </trkpt>
      <trkpt lat="43.65072" lon="1.39077">
        <ele>126</ele>
        <time>2024-06-19T10:52:00Z</time>
      </trkpt>
      <trkpt lat="43.65072" lon="1.39077">
        <ele>126</ele>
        <time>2024-06-19T10:52:01Z</time>
      </trkpt>
      <trkpt lat="43.65071" lon="1.39069">
        <ele>126</ele>
        <time>2024-06-19T10:52:02Z</time>
      </trkpt>
      <trkpt lat="43.6507" lon="1.39065">
        <ele>126</ele>
        <time>2024-06-19T10:52:03Z</time>
      </trkpt>
      <trkpt lat="43.6507" lon="1.39061">
        <ele>126</ele>
        <time>2024-06-19T10:52:04Z</time>
      </trkpt>
      <trkpt lat="43.6507" lon="1.39056">
        <ele>126</ele>
        <time>2024-06-19T10:52:05Z</time>
      </trkpt>
      <trkpt lat="43.6507" lon="1.39052">
        <ele>126</ele>
        <time>2024-06-19T10:52:06Z</time>
      </trkpt>
      <trkpt lat="43.65069" lon="1.39047">
        <ele>126</ele>
        <time>2024-06-19T10:52:07Z</time>
      </trkpt>
      <trkpt lat="43.65069" lon="1.39043">
        <ele>126</ele>
        <time>2024-06-19T10:52:08Z</time>
      </trkpt>
      <trkpt lat="43.65069" lon="1.39039">
        <ele>126</ele>
        <time>2024-06-19T10:52:09Z</time>
      </trkpt>
      <trkpt lat="43.6507" lon="1.39034">
        <ele>126</ele>
        <time>2024-06-19T10:52:10Z</time>
      </trkpt>
      <trkpt lat="43.65072" lon="1.39031">
        <ele>126</ele>
        <time>2024-06-19T10:52:11Z</time>
      </trkpt>
      <trkpt lat="43.65074" lon="1.39028">
        <ele>126</ele>
        <time>2024-06-19T10:52:12Z</time>
      </trkpt>
      <trkpt lat="43.65077" lon="1.39025">
        <ele>126</ele>
        <time>2024-06-19T10:52:13Z</time>
      </trkpt>
      <trkpt lat="43.65079" lon="1.39023">
        <ele>126</ele>
        <time>2024-06-19T10:52:14Z</time>
      </trkpt>
      <trkpt lat="43.65082" lon="1.39021">
        <ele>126</ele>
        <time>2024-06-19T10:52:15Z</time>
      </trkpt>
      <trkpt lat="43.65085" lon="1.3902">
        <ele>126</ele>
        <time>2024-06-19T10:52:16Z</time>
      </trkpt>
      <trkpt lat="43.65087" lon="1.39018">
        <ele>126</ele>
        <time>2024-06-19T10:52:17Z</time>
      </trkpt>
      <trkpt lat="43.6509" lon="1.39016">
        <ele>126</ele>
        <time>2024-06-19T10:52:18Z</time>
      </trkpt>
      <trkpt lat="43.65093" lon="1.39015">
        <ele>126</ele>
        <time>2024-06-19T10:52:19Z</time>
      </trkpt>
      <trkpt lat="43.65093" lon="1.39015">
        <ele>126</ele>
        <time>2024-06-19T10:52:20Z</time>
      </trkpt>
      <trkpt lat="43.65099" lon="1.39014">
        <ele>126</ele>
        <time>2024-06-19T10:52:21Z</time>
      </trkpt>
      <trkpt lat="43.65102" lon="1.39014">
        <ele>126</ele>
        <time>2024-06-19T10:52:22Z</time>
      </trkpt>
      <trkpt lat="43.65105" lon="1.39014">
        <ele>126</ele>
        <time>2024-06-19T10:52:23Z</time>
      </trkpt>
      <trkpt lat="43.65109" lon="1.39015">
        <ele>126</ele>
        <time>2024-06-19T10:52:24Z</time>
      </trkpt>
      <trkpt lat="43.65112" lon="1.39015">
        <ele>126</ele>
        <time>2024-06-19T10:52:25Z</time>
      </trkpt>
      <trkpt lat="43.65115" lon="1.39015">
        <ele>126</ele>
        <time>2024-06-19T10:52:26Z</time>
      </trkpt>
      <trkpt lat="43.65118" lon="1.39016">
        <ele>126</ele>
        <time>2024-06-19T10:52:27Z</time>
      </trkpt>
      <trkpt lat="43.65121" lon="1.39016">
        <ele>126</ele>
        <time>2024-06-19T10:52:28Z</time>
      </trkpt>
      <trkpt lat="43.65124" lon="1.39016">
        <ele>126</ele>
        <time>2024-06-19T10:52:29Z</time>
      </trkpt>
      <trkpt lat="43.65127" lon="1.39016">
        <ele>126</ele>
        <time>2024-06-19T10:52:30Z</time>
      </trkpt>
      <trkpt lat="43.6513" lon="1.39016">
        <ele>126</ele>
        <time>2024-06-19T10:52:31Z</time>
      </trkpt>
      <trkpt lat="43.65134" lon="1.39016">
        <ele>125</ele>
        <time>2024-06-19T10:52:32Z</time>
      </trkpt>
      <trkpt lat="43.65136" lon="1.39016">
        <ele>126</ele>
        <time>2024-06-19T10:52:33Z</time>
      </trkpt>
      <trkpt lat="43.65139" lon="1.39016">
        <ele>126</ele>
        <time>2024-06-19T10:52:34Z</time>
      </trkpt>
      <trkpt lat="43.65142" lon="1.39016">
        <ele>126</ele>
        <time>2024-06-19T10:52:35Z</time>
      </trkpt>
      <trkpt lat="43.65145" lon="1.39016">
        <ele>126</ele>
        <time>2024-06-19T10:52:36Z</time>
      </trkpt>
      <trkpt lat="43.65148" lon="1.39017">
        <ele>126</ele>
        <time>2024-06-19T10:52:37Z</time>
      </trkpt>
      <trkpt lat="43.6515" lon="1.39016">
        <ele>126</ele>
        <time>2024-06-19T10:52:38Z</time>
      </trkpt>
      <trkpt lat="43.6515" lon="1.39016">
        <ele>126</ele>
        <time>2024-06-19T10:52:39Z</time>
      </trkpt>
      <trkpt lat="43.65156" lon="1.39015">
        <ele>126</ele>
        <time>2024-06-19T10:52:40Z</time>
      </trkpt>
      <trkpt lat="43.65159" lon="1.39015">
        <ele>126</ele>
        <time>2024-06-19T10:52:41Z</time>
      </trkpt>
      <trkpt lat="43.65162" lon="1.39014">
        <ele>126</ele>
        <time>2024-06-19T10:52:42Z</time>
      </trkpt>
      <trkpt lat="43.65165" lon="1.39014">
        <ele>126</ele>
        <time>2024-06-19T10:52:43Z</time>
      </trkpt>
      <trkpt lat="43.65168" lon="1.39014">
        <ele>126</ele>
        <time>2024-06-19T10:52:44Z</time>
      </trkpt>
      <trkpt lat="43.65171" lon="1.39014">
        <ele>126</ele>
        <time>2024-06-19T10:52:45Z</time>
      </trkpt>
      <trkpt lat="43.65174" lon="1.39015">
        <ele>126</ele>
        <time>2024-06-19T10:52:46Z</time>
      </trkpt>
      <trkpt lat="43.65177" lon="1.39015">
        <ele>126</ele>
        <time>2024-06-19T10:52:47Z</time>
      </trkpt>
      <trkpt lat="43.6518" lon="1.39015">
        <ele>126</ele>
        <time>2024-06-19T10:52:48Z</time>
      </trkpt>
      <trkpt lat="43.65183" lon="1.39015">
        <ele>126</ele>
        <time>2024-06-19T10:52:49Z</time>
      </trkpt>
      <trkpt lat="43.65186" lon="1.39015">
        <ele>126</ele>
        <time>2024-06-19T10:52:50Z</time>
      </trkpt>
      <trkpt lat="43.65189" lon="1.39015">
        <ele>126</ele>
        <time>2024-06-19T10:52:51Z</time>
      </trkpt>
      <trkpt lat="43.65192" lon="1.39015">
        <ele>126</ele>
        <time>2024-06-19T10:52:52Z</time>
      </trkpt>
      <trkpt lat="43.65195" lon="1.39015">
        <ele>126</ele>
        <time>2024-06-19T10:52:53Z</time>
      </trkpt>
      <trkpt lat="43.65198" lon="1.39015">
        <ele>126</ele>
        <time>2024-06-19T10:52:54Z</time>
      </trkpt>
      <trkpt lat="43.65201" lon="1.39016">
        <ele>125</ele>
        <time>2024-06-19T10:52:55Z</time>
      </trkpt>
      <trkpt lat="43.65203" lon="1.39016">
        <ele>125</ele>
        <time>2024-06-19T10:52:56Z</time>
      </trkpt>
      <trkpt lat="43.65207" lon="1.39016">
        <ele>126</ele>
        <time>2024-06-19T10:52:57Z</time>
      </trkpt>
      <trkpt lat="43.6521" lon="1.39016">
        <ele>126</ele>
        <time>2024-06-19T10:52:58Z</time>
      </trkpt>
      <trkpt lat="43.65213" lon="1.39016">
        <ele>126</ele>
        <time>2024-06-19T10:52:59Z</time>
      </trkpt>
      <trkpt lat="43.65215" lon="1.39016">
        <ele>126</ele>
        <time>2024-06-19T10:53:00Z</time>
      </trkpt>
      <trkpt lat="43.65218" lon="1.39017">
        <ele>125</ele>
        <time>2024-06-19T10:53:01Z</time>
      </trkpt>
      <trkpt lat="43.65222" lon="1.39017">
        <ele>125</ele>
        <time>2024-06-19T10:53:02Z</time>
      </trkpt>
      <trkpt lat="43.65225" lon="1.39018">
        <ele>125</ele>
        <time>2024-06-19T10:53:03Z</time>
      </trkpt>
      <trkpt lat="43.65227" lon="1.3902">
        <ele>125</ele>
        <time>2024-06-19T10:53:04Z</time>
      </trkpt>
      <trkpt lat="43.6523" lon="1.39022">
        <ele>125</ele>
        <time>2024-06-19T10:53:05Z</time>
      </trkpt>
      <trkpt lat="43.65233" lon="1.39024">
        <ele>126</ele>
        <time>2024-06-19T10:53:06Z</time>
      </trkpt>
      <trkpt lat="43.65236" lon="1.39026">
        <ele>126</ele>
        <time>2024-06-19T10:53:07Z</time>
      </trkpt>
      <trkpt lat="43.65238" lon="1.39028">
        <ele>126</ele>
        <time>2024-06-19T10:53:08Z</time>
      </trkpt>
      <trkpt lat="43.65241" lon="1.39031">
        <ele>125</ele>
        <time>2024-06-19T10:53:09Z</time>
      </trkpt>
      <trkpt lat="43.65244" lon="1.39032">
        <ele>125</ele>
        <time>2024-06-19T10:53:10Z</time>
      </trkpt>
      <trkpt lat="43.65247" lon="1.39033">
        <ele>125</ele>
        <time>2024-06-19T10:53:11Z</time>
      </trkpt>
      <trkpt lat="43.6525" lon="1.39034">
        <ele>125</ele>
        <time>2024-06-19T10:53:12Z</time>
      </trkpt>
      <trkpt lat="43.65252" lon="1.39035">
        <ele>125</ele>
        <time>2024-06-19T10:53:13Z</time>
      </trkpt>
      <trkpt lat="43.65255" lon="1.39035">
        <ele>125</ele>
        <time>2024-06-19T10:53:14Z</time>
      </trkpt>
      <trkpt lat="43.65258" lon="1.39034">
        <ele>125</ele>
        <time>2024-06-19T10:53:15Z</time>
      </trkpt>
      <trkpt lat="43.6526" lon="1.39034">
        <ele>125</ele>
        <time>2024-06-19T10:53:16Z</time>
      </trkpt>
      <trkpt lat="43.65263" lon="1.39034">
        <ele>125</ele>
        <time>2024-06-19T10:53:17Z</time>
      </trkpt>
      <trkpt lat="43.65266" lon="1.39033">
        <ele>125</ele>
        <time>2024-06-19T10:53:18Z</time>
      </trkpt>
      <trkpt lat="43.65268" lon="1.39034">
        <ele>125</ele>
        <time>2024-06-19T10:53:19Z</time>
      </trkpt>
      <trkpt lat="43.65271" lon="1.39034">
        <ele>125</ele>
        <time>2024-06-19T10:53:20Z</time>
      </trkpt>
      <trkpt lat="43.65273" lon="1.39034">
        <ele>125</ele>
        <time>2024-06-19T10:53:21Z</time>
      </trkpt>
      <trkpt lat="43.65276" lon="1.39035">
        <ele>125</ele>
        <time>2024-06-19T10:53:22Z</time>
      </trkpt>
      <trkpt lat="43.65278" lon="1.39035">
        <ele>125</ele>
        <time>2024-06-19T10:53:23Z</time>
      </trkpt>
      <trkpt lat="43.65281" lon="1.39036">
        <ele>125</ele>
        <time>2024-06-19T10:53:24Z</time>
      </trkpt>
      <trkpt lat="43.65284" lon="1.39036">
        <ele>125</ele>
        <time>2024-06-19T10:53:25Z</time>
      </trkpt>
      <trkpt lat="43.65287" lon="1.39036">
        <ele>126</ele>
        <time>2024-06-19T10:53:26Z</time>
      </trkpt>
      <trkpt lat="43.6529" lon="1.39036">
        <ele>126</ele>
        <time>2024-06-19T10:53:27Z</time>
      </trkpt>
      <trkpt lat="43.65293" lon="1.39038">
        <ele>125</ele>
        <time>2024-06-19T10:53:28Z</time>
      </trkpt>
      <trkpt lat="43.65295" lon="1.39039">
        <ele>125</ele>
        <time>2024-06-19T10:53:29Z</time>
      </trkpt>
      <trkpt lat="43.65298" lon="1.39039">
        <ele>125</ele>
        <time>2024-06-19T10:53:30Z</time>
      </trkpt>
      <trkpt lat="43.65301" lon="1.39038">
        <ele>125</ele>
        <time>2024-06-19T10:53:31Z</time>
      </trkpt>
      <trkpt lat="43.65304" lon="1.39036">
        <ele>125</ele>
        <time>2024-06-19T10:53:32Z</time>
      </trkpt>
      <trkpt lat="43.65306" lon="1.39033">
        <ele>125</ele>
        <time>2024-06-19T10:53:33Z</time>
      </trkpt>
      <trkpt lat="43.65308" lon="1.39031">
        <ele>125</ele>
        <time>2024-06-19T10:53:34Z</time>
      </trkpt>
      <trkpt lat="43.6531" lon="1.39028">
        <ele>124</ele>
        <time>2024-06-19T10:53:35Z</time>
      </trkpt>
      <trkpt lat="43.65311" lon="1.39025">
        <ele>124</ele>
        <time>2024-06-19T10:53:36Z</time>
      </trkpt>
      <trkpt lat="43.65312" lon="1.39021">
        <ele>125</ele>
        <time>2024-06-19T10:53:37Z</time>
      </trkpt>
      <trkpt lat="43.65314" lon="1.39018">
        <ele>125</ele>
        <time>2024-06-19T10:53:38Z</time>
      </trkpt>
      <trkpt lat="43.65314" lon="1.39018">
        <ele>125</ele>
        <time>2024-06-19T10:53:39Z</time>
      </trkpt>
      <trkpt lat="43.65317" lon="1.3901">
        <ele>125</ele>
        <time>2024-06-19T10:53:40Z</time>
      </trkpt>
      <trkpt lat="43.65318" lon="1.39006">
        <ele>125</ele>
        <time>2024-06-19T10:53:41Z</time>
      </trkpt>
      <trkpt lat="43.6532" lon="1.39003">
        <ele>125</ele>
        <time>2024-06-19T10:53:42Z</time>
      </trkpt>
      <trkpt lat="43.65321" lon="1.39">
        <ele>125</ele>
        <time>2024-06-19T10:53:43Z</time>
      </trkpt>
      <trkpt lat="43.65322" lon="1.38997">
        <ele>125</ele>
        <time>2024-06-19T10:53:44Z</time>
      </trkpt>
      <trkpt lat="43.65323" lon="1.38994">
        <ele>126</ele>
        <time>2024-06-19T10:53:45Z</time>
      </trkpt>
      <trkpt lat="43.65324" lon="1.3899">
        <ele>126</ele>
        <time>2024-06-19T10:53:46Z</time>
      </trkpt>
      <trkpt lat="43.65324" lon="1.38987">
        <ele>127</ele>
        <time>2024-06-19T10:53:47Z</time>
      </trkpt>
      <trkpt lat="43.65324" lon="1.38983">
        <ele>127</ele>
        <time>2024-06-19T10:53:48Z</time>
      </trkpt>
      <trkpt lat="43.65324" lon="1.3898">
        <ele>127</ele>
        <time>2024-06-19T10:53:49Z</time>
      </trkpt>
      <trkpt lat="43.65323" lon="1.38977">
        <ele>127</ele>
        <time>2024-06-19T10:53:50Z</time>
      </trkpt>
      <trkpt lat="43.65323" lon="1.38973">
        <ele>127</ele>
        <time>2024-06-19T10:53:51Z</time>
      </trkpt>
      <trkpt lat="43.65323" lon="1.38969">
        <ele>127</ele>
        <time>2024-06-19T10:53:52Z</time>
      </trkpt>
      <trkpt lat="43.65322" lon="1.38966">
        <ele>128</ele>
        <time>2024-06-19T10:53:53Z</time>
      </trkpt>
      <trkpt lat="43.65321" lon="1.38962">
        <ele>128</ele>
        <time>2024-06-19T10:53:54Z</time>
      </trkpt>
      <trkpt lat="43.65321" lon="1.38962">
        <ele>128</ele>
        <time>2024-06-19T10:53:55Z</time>
      </trkpt>
      <trkpt lat="43.65318" lon="1.38955">
        <ele>129</ele>
        <time>2024-06-19T10:53:56Z</time>
      </trkpt>
      <trkpt lat="43.65317" lon="1.38952">
        <ele>129</ele>
        <time>2024-06-19T10:53:57Z</time>
      </trkpt>
      <trkpt lat="43.65316" lon="1.38948">
        <ele>130</ele>
        <time>2024-06-19T10:53:58Z</time>
      </trkpt>
      <trkpt lat="43.65316" lon="1.38944">
        <ele>130</ele>
        <time>2024-06-19T10:53:59Z</time>
      </trkpt>
      <trkpt lat="43.65315" lon="1.3894">
        <ele>130</ele>
        <time>2024-06-19T10:54:00Z</time>
      </trkpt>
      <trkpt lat="43.65314" lon="1.38937">
        <ele>130</ele>
        <time>2024-06-19T10:54:01Z</time>
      </trkpt>
      <trkpt lat="43.65313" lon="1.38934">
        <ele>130</ele>
        <time>2024-06-19T10:54:02Z</time>
      </trkpt>
      <trkpt lat="43.65311" lon="1.38931">
        <ele>130</ele>
        <time>2024-06-19T10:54:03Z</time>
      </trkpt>
      <trkpt lat="43.65309" lon="1.38929">
        <ele>131</ele>
        <time>2024-06-19T10:54:04Z</time>
      </trkpt>
      <trkpt lat="43.65307" lon="1.38927">
        <ele>131</ele>
        <time>2024-06-19T10:54:05Z</time>
      </trkpt>
      <trkpt lat="43.65304" lon="1.38926">
        <ele>132</ele>
        <time>2024-06-19T10:54:06Z</time>
      </trkpt>
      <trkpt lat="43.65301" lon="1.38925">
        <ele>133</ele>
        <time>2024-06-19T10:54:07Z</time>
      </trkpt>
      <trkpt lat="43.65298" lon="1.38924">
        <ele>133</ele>
        <time>2024-06-19T10:54:08Z</time>
      </trkpt>
      <trkpt lat="43.65296" lon="1.38922">
        <ele>134</ele>
        <time>2024-06-19T10:54:09Z</time>
      </trkpt>
      <trkpt lat="43.65294" lon="1.38921">
        <ele>134</ele>
        <time>2024-06-19T10:54:10Z</time>
      </trkpt>
      <trkpt lat="43.65291" lon="1.3892">
        <ele>135</ele>
        <time>2024-06-19T10:54:11Z</time>
      </trkpt>
      <trkpt lat="43.65289" lon="1.38918">
        <ele>135</ele>
        <time>2024-06-19T10:54:12Z</time>
      </trkpt>
      <trkpt lat="43.65287" lon="1.38916">
        <ele>135</ele>
        <time>2024-06-19T10:54:13Z</time>
      </trkpt>
      <trkpt lat="43.65285" lon="1.38914">
        <ele>135</ele>
        <time>2024-06-19T10:54:14Z</time>
      </trkpt>
      <trkpt lat="43.65282" lon="1.38912">
        <ele>135</ele>
        <time>2024-06-19T10:54:15Z</time>
      </trkpt>
      <trkpt lat="43.65281" lon="1.38909">
        <ele>135</ele>
        <time>2024-06-19T10:54:16Z</time>
      </trkpt>
      <trkpt lat="43.65279" lon="1.38906">
        <ele>135</ele>
        <time>2024-06-19T10:54:17Z</time>
      </trkpt>
      <trkpt lat="43.65277" lon="1.38904">
        <ele>135</ele>
        <time>2024-06-19T10:54:18Z</time>
      </trkpt>
      <trkpt lat="43.65275" lon="1.38902">
        <ele>136</ele>
        <time>2024-06-19T10:54:19Z</time>
      </trkpt>
      <trkpt lat="43.65273" lon="1.38899">
        <ele>136</ele>
        <time>2024-06-19T10:54:20Z</time>
      </trkpt>
      <trkpt lat="43.65272" lon="1.38897">
        <ele>136</ele>
        <time>2024-06-19T10:54:21Z</time>
      </trkpt>
      <trkpt lat="43.6527" lon="1.38894">
        <ele>136</ele>
        <time>2024-06-19T10:54:22Z</time>
      </trkpt>
      <trkpt lat="43.65268" lon="1.38891">
        <ele>136</ele>
        <time>2024-06-19T10:54:23Z</time>
      </trkpt>
      <trkpt lat="43.65266" lon="1.38888">
        <ele>137</ele>
        <time>2024-06-19T10:54:24Z</time>
      </trkpt>
      <trkpt lat="43.65263" lon="1.38885">
        <ele>137</ele>
        <time>2024-06-19T10:54:25Z</time>
      </trkpt>
      <trkpt lat="43.65261" lon="1.38882">
        <ele>137</ele>
        <time>2024-06-19T10:54:26Z</time>
      </trkpt>
      <trkpt lat="43.65259" lon="1.3888">
        <ele>137</ele>
        <time>2024-06-19T10:54:27Z</time>
      </trkpt>
      <trkpt lat="43.65256" lon="1.38878">
        <ele>138</ele>
        <time>2024-06-19T10:54:28Z</time>
      </trkpt>
      <trkpt lat="43.65254" lon="1.38875">
        <ele>138</ele>
        <time>2024-06-19T10:54:29Z</time>
      </trkpt>
      <trkpt lat="43.65252" lon="1.38873">
        <ele>139</ele>
        <time>2024-06-19T10:54:30Z</time>
      </trkpt>
      <trkpt lat="43.6525" lon="1.3887">
        <ele>139</ele>
        <time>2024-06-19T10:54:31Z</time>
      </trkpt>
      <trkpt lat="43.65249" lon="1.38868">
        <ele>139</ele>
        <time>2024-06-19T10:54:32Z</time>
      </trkpt>
      <trkpt lat="43.65247" lon="1.38865">
        <ele>139</ele>
        <time>2024-06-19T10:54:33Z</time>
      </trkpt>
      <trkpt lat="43.65246" lon="1.38862">
        <ele>139</ele>
        <time>2024-06-19T10:54:34Z</time>
      </trkpt>
      <trkpt lat="43.65246" lon="1.38862">
        <ele>139</ele>
        <time>2024-06-19T10:54:35Z</time>
      </trkpt>
      <trkpt lat="43.65242" lon="1.38856">
        <ele>139</ele>
        <time>2024-06-19T10:54:36Z</time>
      </trkpt>
      <trkpt lat="43.6524" lon="1.38853">
        <ele>139</ele>
        <time>2024-06-19T10:54:37Z</time>
      </trkpt>
      <trkpt lat="43.65238" lon="1.3885">
        <ele>139</ele>
        <time>2024-06-19T10:54:38Z</time>
      </trkpt>
      <trkpt lat="43.65236" lon="1.38847">
        <ele>139</ele>
        <time>2024-06-19T10:54:39Z</time>
      </trkpt>
      <trkpt lat="43.65234" lon="1.38844">
        <ele>139</ele>
        <time>2024-06-19T10:54:40Z</time>
      </trkpt>
      <trkpt lat="43.65232" lon="1.38842">
        <ele>140</ele>
        <time>2024-06-19T10:54:41Z</time>
      </trkpt>
      <trkpt lat="43.6523" lon="1.38838">
        <ele>140</ele>
        <time>2024-06-19T10:54:42Z</time>
      </trkpt>
      <trkpt lat="43.65228" lon="1.38835">
        <ele>140</ele>
        <time>2024-06-19T10:54:43Z</time>
      </trkpt>
      <trkpt lat="43.65227" lon="1.38832">
        <ele>140</ele>
        <time>2024-06-19T10:54:44Z</time>
      </trkpt>
      <trkpt lat="43.65224" lon="1.38829">
        <ele>141</ele>
        <time>2024-06-19T10:54:45Z</time>
      </trkpt>
      <trkpt lat="43.65222" lon="1.38826">
        <ele>141</ele>
        <time>2024-06-19T10:54:46Z</time>
      </trkpt>
      <trkpt lat="43.65221" lon="1.38823">
        <ele>141</ele>
        <time>2024-06-19T10:54:47Z</time>
      </trkpt>
      <trkpt lat="43.65219" lon="1.3882">
        <ele>141</ele>
        <time>2024-06-19T10:54:48Z</time>
      </trkpt>
      <trkpt lat="43.65217" lon="1.38817">
        <ele>141</ele>
        <time>2024-06-19T10:54:49Z</time>
      </trkpt>
      <trkpt lat="43.65214" lon="1.38815">
        <ele>141</ele>
        <time>2024-06-19T10:54:50Z</time>
      </trkpt>
      <trkpt lat="43.65213" lon="1.38812">
        <ele>142</ele>
        <time>2024-06-19T10:54:51Z</time>
      </trkpt>
      <trkpt lat="43.65209" lon="1.38806">
        <ele>142</ele>
        <time>2024-06-19T10:54:53Z</time>
      </trkpt>
      <trkpt lat="43.65207" lon="1.38803">
        <ele>142</ele>
        <time>2024-06-19T10:54:54Z</time>
      </trkpt>
      <trkpt lat="43.65205" lon="1.388">
        <ele>142</ele>
        <time>2024-06-19T10:54:55Z</time>
      </trkpt>
      <trkpt lat="43.65203" lon="1.38797">
        <ele>142</ele>
        <time>2024-06-19T10:54:56Z</time>
      </trkpt>
      <trkpt lat="43.65201" lon="1.38794">
        <ele>142</ele>
        <time>2024-06-19T10:54:57Z</time>
      </trkpt>
      <trkpt lat="43.65199" lon="1.38791">
        <ele>142</ele>
        <time>2024-06-19T10:54:58Z</time>
      </trkpt>
      <trkpt lat="43.65197" lon="1.38789">
        <ele>142</ele>
        <time>2024-06-19T10:54:59Z</time>
      </trkpt>
      <trkpt lat="43.65195" lon="1.38786">
        <ele>142</ele>
        <time>2024-06-19T10:55:00Z</time>
      </trkpt>
      <trkpt lat="43.65193" lon="1.38784">
        <ele>142</ele>
        <time>2024-06-19T10:55:01Z</time>
      </trkpt>
      <trkpt lat="43.65191" lon="1.38781">
        <ele>142</ele>
        <time>2024-06-19T10:55:02Z</time>
      </trkpt>
      <trkpt lat="43.65189" lon="1.38779">
        <ele>142</ele>
        <time>2024-06-19T10:55:03Z</time>
      </trkpt>
      <trkpt lat="43.65187" lon="1.38776">
        <ele>142</ele>
        <time>2024-06-19T10:55:04Z</time>
      </trkpt>
      <trkpt lat="43.65185" lon="1.38773">
        <ele>142</ele>
        <time>2024-06-19T10:55:05Z</time>
      </trkpt>
      <trkpt lat="43.65183" lon="1.38769">
        <ele>142</ele>
        <time>2024-06-19T10:55:06Z</time>
      </trkpt>
      <trkpt lat="43.65181" lon="1.38766">
        <ele>142</ele>
        <time>2024-06-19T10:55:07Z</time>
      </trkpt>
      <trkpt lat="43.6518" lon="1.38762">
        <ele>142</ele>
        <time>2024-06-19T10:55:08Z</time>
      </trkpt>
      <trkpt lat="43.6518" lon="1.38762">
        <ele>142</ele>
        <time>2024-06-19T10:55:09Z</time>
      </trkpt>
      <trkpt lat="43.65178" lon="1.38755">
        <ele>142</ele>
        <time>2024-06-19T10:55:10Z</time>
      </trkpt>
      <trkpt lat="43.65176" lon="1.38751">
        <ele>142</ele>
        <time>2024-06-19T10:55:11Z</time>
      </trkpt>
      <trkpt lat="43.65175" lon="1.38747">
        <ele>142</ele>
        <time>2024-06-19T10:55:12Z</time>
      </trkpt>
      <trkpt lat="43.65174" lon="1.38744">
        <ele>142</ele>
        <time>2024-06-19T10:55:13Z</time>
      </trkpt>
      <trkpt lat="43.65173" lon="1.3874">
        <ele>142</ele>
        <time>2024-06-19T10:55:14Z</time>
      </trkpt>
      <trkpt lat="43.65172" lon="1.38737">
        <ele>142</ele>
        <time>2024-06-19T10:55:15Z</time>
      </trkpt>
      <trkpt lat="43.65171" lon="1.38733">
        <ele>142</ele>
        <time>2024-06-19T10:55:16Z</time>
      </trkpt>
      <trkpt lat="43.65171" lon="1.3873">
        <ele>142</ele>
        <time>2024-06-19T10:55:17Z</time>
      </trkpt>
      <trkpt lat="43.6517" lon="1.38726">
        <ele>142</ele>
        <time>2024-06-19T10:55:18Z</time>
      </trkpt>
      <trkpt lat="43.65169" lon="1.38723">
        <ele>142</ele>
        <time>2024-06-19T10:55:19Z</time>
      </trkpt>
      <trkpt lat="43.65168" lon="1.38719">
        <ele>142</ele>
        <time>2024-06-19T10:55:20Z</time>
      </trkpt>
      <trkpt lat="43.65167" lon="1.38715">
        <ele>142</ele>
        <time>2024-06-19T10:55:21Z</time>
      </trkpt>
      <trkpt lat="43.65165" lon="1.38711">
        <ele>142</ele>
        <time>2024-06-19T10:55:22Z</time>
      </trkpt>
      <trkpt lat="43.65164" lon="1.38708">
        <ele>142</ele>
        <time>2024-06-19T10:55:23Z</time>
      </trkpt>
      <trkpt lat="43.65163" lon="1.38704">
        <ele>142</ele>
        <time>2024-06-19T10:55:24Z</time>
      </trkpt>
      <trkpt lat="43.65161" lon="1.387">
        <ele>142</ele>
        <time>2024-06-19T10:55:25Z</time>
      </trkpt>
      <trkpt lat="43.6516" lon="1.38697">
        <ele>142</ele>
        <time>2024-06-19T10:55:26Z</time>
      </trkpt>
      <trkpt lat="43.6516" lon="1.38697">
        <ele>143</ele>
        <time>2024-06-19T10:55:27Z</time>
      </trkpt>
      <trkpt lat="43.65158" lon="1.3869">
        <ele>143</ele>
        <time>2024-06-19T10:55:28Z</time>
      </trkpt>
      <trkpt lat="43.65157" lon="1.38686">
        <ele>143</ele>
        <time>2024-06-19T10:55:29Z</time>
      </trkpt>
      <trkpt lat="43.65157" lon="1.38686">
        <ele>142</ele>
        <time>2024-06-19T10:55:30Z</time>
      </trkpt>
      <trkpt lat="43.65154" lon="1.3868">
        <ele>143</ele>
        <time>2024-06-19T10:55:31Z</time>
      </trkpt>
      <trkpt lat="43.65153" lon="1.38676">
        <ele>143</ele>
        <time>2024-06-19T10:55:32Z</time>
      </trkpt>
      <trkpt lat="43.65153" lon="1.38673">
        <ele>143</ele>
        <time>2024-06-19T10:55:33Z</time>
      </trkpt>
      <trkpt lat="43.65151" lon="1.3867">
        <ele>143</ele>
        <time>2024-06-19T10:55:34Z</time>
      </trkpt>
      <trkpt lat="43.6515" lon="1.38666">
        <ele>143</ele>
        <time>2024-06-19T10:55:35Z</time>
      </trkpt>
      <trkpt lat="43.65148" lon="1.38663">
        <ele>143</ele>
        <time>2024-06-19T10:55:36Z</time>
      </trkpt>
      <trkpt lat="43.65147" lon="1.38659">
        <ele>143</ele>
        <time>2024-06-19T10:55:37Z</time>
      </trkpt>
      <trkpt lat="43.65145" lon="1.38655">
        <ele>143</ele>
        <time>2024-06-19T10:55:38Z</time>
      </trkpt>
      <trkpt lat="43.65144" lon="1.38652">
        <ele>142</ele>
        <time>2024-06-19T10:55:39Z</time>
      </trkpt>
      <trkpt lat="43.65142" lon="1.38649">
        <ele>142</ele>
        <time>2024-06-19T10:55:40Z</time>
      </trkpt>
      <trkpt lat="43.65141" lon="1.38645">
        <ele>142</ele>
        <time>2024-06-19T10:55:41Z</time>
      </trkpt>
      <trkpt lat="43.6514" lon="1.38642">
        <ele>142</ele>
        <time>2024-06-19T10:55:42Z</time>
      </trkpt>
      <trkpt lat="43.65138" lon="1.38638">
        <ele>142</ele>
        <time>2024-06-19T10:55:43Z</time>
      </trkpt>
      <trkpt lat="43.65137" lon="1.38635">
        <ele>142</ele>
        <time>2024-06-19T10:55:44Z</time>
      </trkpt>
      <trkpt lat="43.65137" lon="1.38635">
        <ele>142</ele>
        <time>2024-06-19T10:55:45Z</time>
      </trkpt>
      <trkpt lat="43.65135" lon="1.38628">
        <ele>143</ele>
        <time>2024-06-19T10:55:46Z</time>
      </trkpt>
      <trkpt lat="43.65135" lon="1.38624">
        <ele>143</ele>
        <time>2024-06-19T10:55:47Z</time>
      </trkpt>
      <trkpt lat="43.65134" lon="1.3862">
        <ele>143</ele>
        <time>2024-06-19T10:55:48Z</time>
      </trkpt>
      <trkpt lat="43.65133" lon="1.38616">
        <ele>143</ele>
        <time>2024-06-19T10:55:49Z</time>
      </trkpt>
      <trkpt lat="43.65132" lon="1.38612">
        <ele>142</ele>
        <time>2024-06-19T10:55:50Z</time>
      </trkpt>
      <trkpt lat="43.65132" lon="1.38608">
        <ele>142</ele>
        <time>2024-06-19T10:55:51Z</time>
      </trkpt>
      <trkpt lat="43.65131" lon="1.38603">
        <ele>142</ele>
        <time>2024-06-19T10:55:52Z</time>
      </trkpt>
      <trkpt lat="43.6513" lon="1.38599">
        <ele>142</ele>
        <time>2024-06-19T10:55:53Z</time>
      </trkpt>
      <trkpt lat="43.65129" lon="1.38595">
        <ele>142</ele>
        <time>2024-06-19T10:55:54Z</time>
      </trkpt>
      <trkpt lat="43.65128" lon="1.38591">
        <ele>142</ele>
        <time>2024-06-19T10:55:55Z</time>
      </trkpt>
      <trkpt lat="43.65127" lon="1.38587">
        <ele>142</ele>
        <time>2024-06-19T10:55:56Z</time>
      </trkpt>
      <trkpt lat="43.65127" lon="1.38584">
        <ele>142</ele>
        <time>2024-06-19T10:55:57Z</time>
      </trkpt>
      <trkpt lat="43.65126" lon="1.3858">
        <ele>142</ele>
        <time>2024-06-19T10:55:58Z</time>
      </trkpt>
      <trkpt lat="43.65125" lon="1.38576">
        <ele>142</ele>
        <time>2024-06-19T10:55:59Z</time>
      </trkpt>
      <trkpt lat="43.65124" lon="1.38572">
        <ele>142</ele>
        <time>2024-06-19T10:56:00Z</time>
      </trkpt>
      <trkpt lat="43.65124" lon="1.38568">
        <ele>143</ele>
        <time>2024-06-19T10:56:01Z</time>
      </trkpt>
      <trkpt lat="43.65124" lon="1.38568">
        <ele>143</ele>
        <time>2024-06-19T10:56:02Z</time>
      </trkpt>
      <trkpt lat="43.65122" lon="1.38561">
        <ele>142</ele>
        <time>2024-06-19T10:56:03Z</time>
      </trkpt>
      <trkpt lat="43.65122" lon="1.38557">
        <ele>142</ele>
        <time>2024-06-19T10:56:04Z</time>
      </trkpt>
      <trkpt lat="43.6512" lon="1.38554">
        <ele>142</ele>
        <time>2024-06-19T10:56:05Z</time>
      </trkpt>
      <trkpt lat="43.65118" lon="1.38551">
        <ele>142</ele>
        <time>2024-06-19T10:56:06Z</time>
      </trkpt>
      <trkpt lat="43.65115" lon="1.38549">
        <ele>143</ele>
        <time>2024-06-19T10:56:07Z</time>
      </trkpt>
      <trkpt lat="43.65115" lon="1.38549">
        <ele>143</ele>
        <time>2024-06-19T10:56:08Z</time>
      </trkpt>
      <trkpt lat="43.6511" lon="1.38547">
        <ele>143</ele>
        <time>2024-06-19T10:56:09Z</time>
      </trkpt>
      <trkpt lat="43.65106" lon="1.38546">
        <ele>143</ele>
        <time>2024-06-19T10:56:10Z</time>
      </trkpt>
      <trkpt lat="43.65103" lon="1.38544">
        <ele>143</ele>
        <time>2024-06-19T10:56:11Z</time>
      </trkpt>
      <trkpt lat="43.65101" lon="1.38541">
        <ele>143</ele>
        <time>2024-06-19T10:56:12Z</time>
      </trkpt>
      <trkpt lat="43.65099" lon="1.38536">
        <ele>143</ele>
        <time>2024-06-19T10:56:13Z</time>
      </trkpt>
      <trkpt lat="43.65098" lon="1.38532">
        <ele>143</ele>
        <time>2024-06-19T10:56:14Z</time>
      </trkpt>
      <trkpt lat="43.65099" lon="1.38527">
        <ele>143</ele>
        <time>2024-06-19T10:56:15Z</time>
      </trkpt>
      <trkpt lat="43.65099" lon="1.38523">
        <ele>143</ele>
        <time>2024-06-19T10:56:16Z</time>
      </trkpt>
      <trkpt lat="43.651" lon="1.38519">
        <ele>143</ele>
        <time>2024-06-19T10:56:17Z</time>
      </trkpt>
      <trkpt lat="43.651" lon="1.38519">
        <ele>143</ele>
        <time>2024-06-19T10:56:18Z</time>
      </trkpt>
      <trkpt lat="43.65102" lon="1.38511">
        <ele>143</ele>
        <time>2024-06-19T10:56:19Z</time>
      </trkpt>
      <trkpt lat="43.65102" lon="1.38508">
        <ele>143</ele>
        <time>2024-06-19T10:56:20Z</time>
      </trkpt>
      <trkpt lat="43.65102" lon="1.38504">
        <ele>143</ele>
        <time>2024-06-19T10:56:21Z</time>
      </trkpt>
      <trkpt lat="43.65101" lon="1.385">
        <ele>143</ele>
        <time>2024-06-19T10:56:22Z</time>
      </trkpt>
      <trkpt lat="43.651" lon="1.38497">
        <ele>143</ele>
        <time>2024-06-19T10:56:23Z</time>
      </trkpt>
      <trkpt lat="43.65099" lon="1.38494">
        <ele>142</ele>
        <time>2024-06-19T10:56:24Z</time>
      </trkpt>
      <trkpt lat="43.65098" lon="1.38491">
        <ele>142</ele>
        <time>2024-06-19T10:56:25Z</time>
      </trkpt>
      <trkpt lat="43.65097" lon="1.38487">
        <ele>142</ele>
        <time>2024-06-19T10:56:26Z</time>
      </trkpt>
      <trkpt lat="43.65096" lon="1.38484">
        <ele>143</ele>
        <time>2024-06-19T10:56:27Z</time>
      </trkpt>
      <trkpt lat="43.65095" lon="1.3848">
        <ele>143</ele>
        <time>2024-06-19T10:56:28Z</time>
      </trkpt>
      <trkpt lat="43.65094" lon="1.38476">
        <ele>143</ele>
        <time>2024-06-19T10:56:29Z</time>
      </trkpt>
      <trkpt lat="43.65094" lon="1.38473">
        <ele>143</ele>
        <time>2024-06-19T10:56:30Z</time>
      </trkpt>
      <trkpt lat="43.65093" lon="1.38469">
        <ele>144</ele>
        <time>2024-06-19T10:56:31Z</time>
      </trkpt>
      <trkpt lat="43.65092" lon="1.38465">
        <ele>144</ele>
        <time>2024-06-19T10:56:32Z</time>
      </trkpt>
      <trkpt lat="43.65091" lon="1.38462">
        <ele>144</ele>
        <time>2024-06-19T10:56:33Z</time>
      </trkpt>
      <trkpt lat="43.6509" lon="1.38458">
        <ele>144</ele>
        <time>2024-06-19T10:56:34Z</time>
      </trkpt>
      <trkpt lat="43.65089" lon="1.38454">
        <ele>144</ele>
        <time>2024-06-19T10:56:35Z</time>
      </trkpt>
      <trkpt lat="43.65089" lon="1.38454">
        <ele>144</ele>
        <time>2024-06-19T10:56:36Z</time>
      </trkpt>
      <trkpt lat="43.65087" lon="1.38447">
        <ele>144</ele>
        <time>2024-06-19T10:56:37Z</time>
      </trkpt>
      <trkpt lat="43.65086" lon="1.38444">
        <ele>144</ele>
        <time>2024-06-19T10:56:38Z</time>
      </trkpt>
      <trkpt lat="43.65085" lon="1.3844">
        <ele>144</ele>
        <time>2024-06-19T10:56:39Z</time>
      </trkpt>
      <trkpt lat="43.65083" lon="1.38435">
        <ele>144</ele>
        <time>2024-06-19T10:56:40Z</time>
      </trkpt>
      <trkpt lat="43.65081" lon="1.38431">
        <ele>144</ele>
        <time>2024-06-19T10:56:41Z</time>
      </trkpt>
      <trkpt lat="43.65079" lon="1.38427">
        <ele>144</ele>
        <time>2024-06-19T10:56:42Z</time>
      </trkpt>
      <trkpt lat="43.65078" lon="1.38423">
        <ele>144</ele>
        <time>2024-06-19T10:56:43Z</time>
      </trkpt>
      <trkpt lat="43.65077" lon="1.38419">
        <ele>144</ele>
        <time>2024-06-19T10:56:44Z</time>
      </trkpt>
      <trkpt lat="43.65076" lon="1.38415">
        <ele>144</ele>
        <time>2024-06-19T10:56:45Z</time>
      </trkpt>
      <trkpt lat="43.65076" lon="1.38415">
        <ele>144</ele>
        <time>2024-06-19T10:56:46Z</time>
      </trkpt>
      <trkpt lat="43.65073" lon="1.38407">
        <ele>145</ele>
        <time>2024-06-19T10:56:47Z</time>
      </trkpt>
      <trkpt lat="43.65072" lon="1.38403">
        <ele>145</ele>
        <time>2024-06-19T10:56:48Z</time>
      </trkpt>
      <trkpt lat="43.6507" lon="1.38399">
        <ele>145</ele>
        <time>2024-06-19T10:56:49Z</time>
      </trkpt>
      <trkpt lat="43.65069" lon="1.38395">
        <ele>145</ele>
        <time>2024-06-19T10:56:50Z</time>
      </trkpt>
      <trkpt lat="43.65068" lon="1.38392">
        <ele>145</ele>
        <time>2024-06-19T10:56:51Z</time>
      </trkpt>
      <trkpt lat="43.65067" lon="1.38388">
        <ele>145</ele>
        <time>2024-06-19T10:56:52Z</time>
      </trkpt>
      <trkpt lat="43.65066" lon="1.38384">
        <ele>145</ele>
        <time>2024-06-19T10:56:53Z</time>
      </trkpt>
      <trkpt lat="43.65064" lon="1.3838">
        <ele>145</ele>
        <time>2024-06-19T10:56:54Z</time>
      </trkpt>
      <trkpt lat="43.65062" lon="1.38376">
        <ele>145</ele>
        <time>2024-06-19T10:56:55Z</time>
      </trkpt>
      <trkpt lat="43.6506" lon="1.38372">
        <ele>145</ele>
        <time>2024-06-19T10:56:56Z</time>
      </trkpt>
      <trkpt lat="43.65059" lon="1.38368">
        <ele>145</ele>
        <time>2024-06-19T10:56:57Z</time>
      </trkpt>
      <trkpt lat="43.65058" lon="1.38364">
        <ele>144</ele>
        <time>2024-06-19T10:56:58Z</time>
      </trkpt>
      <trkpt lat="43.65057" lon="1.38361">
        <ele>144</ele>
        <time>2024-06-19T10:56:59Z</time>
      </trkpt>
      <trkpt lat="43.65056" lon="1.38357">
        <ele>145</ele>
        <time>2024-06-19T10:57:00Z</time>
      </trkpt>
      <trkpt lat="43.65055" lon="1.38353">
        <ele>145</ele>
        <time>2024-06-19T10:57:01Z</time>
      </trkpt>
      <trkpt lat="43.65054" lon="1.38349">
        <ele>145</ele>
        <time>2024-06-19T10:57:02Z</time>
      </trkpt>
      <trkpt lat="43.65053" lon="1.38345">
        <ele>145</ele>
        <time>2024-06-19T10:57:03Z</time>
      </trkpt>
      <trkpt lat="43.65051" lon="1.38341">
        <ele>145</ele>
        <time>2024-06-19T10:57:04Z</time>
      </trkpt>
      <trkpt lat="43.6505" lon="1.38337">
        <ele>145</ele>
        <time>2024-06-19T10:57:05Z</time>
      </trkpt>
      <trkpt lat="43.65049" lon="1.38333">
        <ele>145</ele>
        <time>2024-06-19T10:57:06Z</time>
      </trkpt>
      <trkpt lat="43.65048" lon="1.38329">
        <ele>145</ele>
        <time>2024-06-19T10:57:07Z</time>
      </trkpt>
      <trkpt lat="43.65048" lon="1.38329">
        <ele>145</ele>
        <time>2024-06-19T10:57:08Z</time>
      </trkpt>
      <trkpt lat="43.65045" lon="1.38321">
        <ele>145</ele>
        <time>2024-06-19T10:57:09Z</time>
      </trkpt>
      <trkpt lat="43.65044" lon="1.38317">
        <ele>144</ele>
        <time>2024-06-19T10:57:10Z</time>
      </trkpt>
      <trkpt lat="43.65043" lon="1.38313">
        <ele>144</ele>
        <time>2024-06-19T10:57:11Z</time>
      </trkpt>
      <trkpt lat="43.65041" lon="1.38309">
        <ele>145</ele>
        <time>2024-06-19T10:57:12Z</time>
      </trkpt>
      <trkpt lat="43.6504" lon="1.38305">
        <ele>145</ele>
        <time>2024-06-19T10:57:13Z</time>
      </trkpt>
      <trkpt lat="43.65039" lon="1.38302">
        <ele>145</ele>
        <time>2024-06-19T10:57:14Z</time>
      </trkpt>
      <trkpt lat="43.65038" lon="1.38298">
        <ele>145</ele>
        <time>2024-06-19T10:57:15Z</time>
      </trkpt>
      <trkpt lat="43.65037" lon="1.38294">
        <ele>145</ele>
        <time>2024-06-19T10:57:16Z</time>
      </trkpt>
      <trkpt lat="43.65036" lon="1.38291">
        <ele>145</ele>
        <time>2024-06-19T10:57:17Z</time>
      </trkpt>
      <trkpt lat="43.65035" lon="1.38288">
        <ele>146</ele>
        <time>2024-06-19T10:57:18Z</time>
      </trkpt>
      <trkpt lat="43.65034" lon="1.38283">
        <ele>146</ele>
        <time>2024-06-19T10:57:19Z</time>
      </trkpt>
      <trkpt lat="43.65033" lon="1.38279">
        <ele>145</ele>
        <time>2024-06-19T10:57:20Z</time>
      </trkpt>
      <trkpt lat="43.65032" lon="1.38275">
        <ele>145</ele>
        <time>2024-06-19T10:57:21Z</time>
      </trkpt>
      <trkpt lat="43.65031" lon="1.38271">
        <ele>145</ele>
        <time>2024-06-19T10:57:22Z</time>
      </trkpt>
      <trkpt lat="43.6503" lon="1.38268">
        <ele>144</ele>
        <time>2024-06-19T10:57:23Z</time>
      </trkpt>
      <trkpt lat="43.65027" lon="1.38258">
        <ele>145</ele>
        <time>2024-06-19T10:57:25Z</time>
      </trkpt>
      <trkpt lat="43.65027" lon="1.38256">
        <ele>145</ele>
        <time>2024-06-19T10:57:26Z</time>
      </trkpt>
      <trkpt lat="43.65025" lon="1.38252">
        <ele>145</ele>
        <time>2024-06-19T10:57:27Z</time>
      </trkpt>
      <trkpt lat="43.65024" lon="1.38248">
        <ele>145</ele>
        <time>2024-06-19T10:57:28Z</time>
      </trkpt>
      <trkpt lat="43.65024" lon="1.38245">
        <ele>145</ele>
        <time>2024-06-19T10:57:29Z</time>
      </trkpt>
      <trkpt lat="43.65023" lon="1.3824">
        <ele>145</ele>
        <time>2024-06-19T10:57:30Z</time>
      </trkpt>
      <trkpt lat="43.65022" lon="1.38236">
        <ele>145</ele>
        <time>2024-06-19T10:57:31Z</time>
      </trkpt>
      <trkpt lat="43.6502" lon="1.38232">
        <ele>145</ele>
        <time>2024-06-19T10:57:32Z</time>
      </trkpt>
      <trkpt lat="43.65019" lon="1.38228">
        <ele>145</ele>
        <time>2024-06-19T10:57:33Z</time>
      </trkpt>
      <trkpt lat="43.65018" lon="1.38224">
        <ele>145</ele>
        <time>2024-06-19T10:57:34Z</time>
      </trkpt>
      <trkpt lat="43.65017" lon="1.38219">
        <ele>145</ele>
        <time>2024-06-19T10:57:35Z</time>
      </trkpt>
      <trkpt lat="43.65017" lon="1.38215">
        <ele>145</ele>
        <time>2024-06-19T10:57:36Z</time>
      </trkpt>
      <trkpt lat="43.65016" lon="1.38211">
        <ele>145</ele>
        <time>2024-06-19T10:57:37Z</time>
      </trkpt>
      <trkpt lat="43.65014" lon="1.38207">
        <ele>146</ele>
        <time>2024-06-19T10:57:38Z</time>
      </trkpt>
      <trkpt lat="43.65012" lon="1.38203">
        <ele>146</ele>
        <time>2024-06-19T10:57:39Z</time>
      </trkpt>
      <trkpt lat="43.6501" lon="1.38199">
        <ele>146</ele>
        <time>2024-06-19T10:57:40Z</time>
      </trkpt>
      <trkpt lat="43.65008" lon="1.38196">
        <ele>146</ele>
        <time>2024-06-19T10:57:41Z</time>
      </trkpt>
      <trkpt lat="43.65005" lon="1.38193">
        <ele>146</ele>
        <time>2024-06-19T10:57:42Z</time>
      </trkpt>
      <trkpt lat="43.65005" lon="1.38193">
        <ele>146</ele>
        <time>2024-06-19T10:57:43Z</time>
      </trkpt>
      <trkpt lat="43.64999" lon="1.38186">
        <ele>145</ele>
        <time>2024-06-19T10:57:44Z</time>
      </trkpt>
      <trkpt lat="43.64997" lon="1.38182">
        <ele>145</ele>
        <time>2024-06-19T10:57:45Z</time>
      </trkpt>
      <trkpt lat="43.64995" lon="1.38178">
        <ele>145</ele>
        <time>2024-06-19T10:57:46Z</time>
      </trkpt>
      <trkpt lat="43.64995" lon="1.38173">
        <ele>145</ele>
        <time>2024-06-19T10:57:47Z</time>
      </trkpt>
      <trkpt lat="43.64996" lon="1.38169">
        <ele>145</ele>
        <time>2024-06-19T10:57:48Z</time>
      </trkpt>
      <trkpt lat="43.64997" lon="1.38165">
        <ele>145</ele>
        <time>2024-06-19T10:57:49Z</time>
      </trkpt>
      <trkpt lat="43.64997" lon="1.38161">
        <ele>145</ele>
        <time>2024-06-19T10:57:50Z</time>
      </trkpt>
      <trkpt lat="43.64999" lon="1.38157">
        <ele>145</ele>
        <time>2024-06-19T10:57:51Z</time>
      </trkpt>
      <trkpt lat="43.65" lon="1.38153">
        <ele>146</ele>
        <time>2024-06-19T10:57:52Z</time>
      </trkpt>
      <trkpt lat="43.65" lon="1.38149">
        <ele>146</ele>
        <time>2024-06-19T10:57:53Z</time>
      </trkpt>
      <trkpt lat="43.65001" lon="1.38145">
        <ele>145</ele>
        <time>2024-06-19T10:57:54Z</time>
      </trkpt>
      <trkpt lat="43.65001" lon="1.38145">
        <ele>145</ele>
        <time>2024-06-19T10:57:55Z</time>
      </trkpt>
      <trkpt lat="43.65001" lon="1.38137">
        <ele>145</ele>
        <time>2024-06-19T10:57:56Z</time>
      </trkpt>
      <trkpt lat="43.65001" lon="1.38133">
        <ele>145</ele>
        <time>2024-06-19T10:57:57Z</time>
      </trkpt>
      <trkpt lat="43.64999" lon="1.38129">
        <ele>145</ele>
        <time>2024-06-19T10:57:58Z</time>
      </trkpt>
      <trkpt lat="43.64998" lon="1.38125">
        <ele>145</ele>
        <time>2024-06-19T10:57:59Z</time>
      </trkpt>
      <trkpt lat="43.64997" lon="1.38121">
        <ele>145</ele>
        <time>2024-06-19T10:58:00Z</time>
      </trkpt>
      <trkpt lat="43.64995" lon="1.38117">
        <ele>145</ele>
        <time>2024-06-19T10:58:01Z</time>
      </trkpt>
      <trkpt lat="43.64994" lon="1.38113">
        <ele>145</ele>
        <time>2024-06-19T10:58:02Z</time>
      </trkpt>
      <trkpt lat="43.64993" lon="1.38109">
        <ele>145</ele>
        <time>2024-06-19T10:58:03Z</time>
      </trkpt>
      <trkpt lat="43.64991" lon="1.38105">
        <ele>145</ele>
        <time>2024-06-19T10:58:04Z</time>
      </trkpt>
      <trkpt lat="43.6499" lon="1.38101">
        <ele>145</ele>
        <time>2024-06-19T10:58:05Z</time>
      </trkpt>
      <trkpt lat="43.64989" lon="1.38097">
        <ele>145</ele>
        <time>2024-06-19T10:58:06Z</time>
      </trkpt>
      <trkpt lat="43.64988" lon="1.38094">
        <ele>145</ele>
        <time>2024-06-19T10:58:07Z</time>
      </trkpt>
      <trkpt lat="43.64986" lon="1.3809">
        <ele>145</ele>
        <time>2024-06-19T10:58:08Z</time>
      </trkpt>
      <trkpt lat="43.64985" lon="1.38087">
        <ele>145</ele>
        <time>2024-06-19T10:58:09Z</time>
      </trkpt>
      <trkpt lat="43.64983" lon="1.38083">
        <ele>144</ele>
        <time>2024-06-19T10:58:10Z</time>
      </trkpt>
      <trkpt lat="43.64982" lon="1.38079">
        <ele>144</ele>
        <time>2024-06-19T10:58:11Z</time>
      </trkpt>
      <trkpt lat="43.64981" lon="1.38075">
        <ele>145</ele>
        <time>2024-06-19T10:58:12Z</time>
      </trkpt>
      <trkpt lat="43.6498" lon="1.38072">
        <ele>145</ele>
        <time>2024-06-19T10:58:13Z</time>
      </trkpt>
      <trkpt lat="43.64978" lon="1.38068">
        <ele>145</ele>
        <time>2024-06-19T10:58:14Z</time>
      </trkpt>
      <trkpt lat="43.64977" lon="1.38064">
        <ele>145</ele>
        <time>2024-06-19T10:58:15Z</time>
      </trkpt>
      <trkpt lat="43.64976" lon="1.3806">
        <ele>145</ele>
        <time>2024-06-19T10:58:16Z</time>
      </trkpt>
      <trkpt lat="43.64975" lon="1.38056">
        <ele>145</ele>
        <time>2024-06-19T10:58:17Z</time>
      </trkpt>
      <trkpt lat="43.64973" lon="1.38052">
        <ele>145</ele>
        <time>2024-06-19T10:58:18Z</time>
      </trkpt>
      <trkpt lat="43.64971" lon="1.38048">
        <ele>145</ele>
        <time>2024-06-19T10:58:19Z</time>
      </trkpt>
      <trkpt lat="43.6497" lon="1.38044">
        <ele>144</ele>
        <time>2024-06-19T10:58:20Z</time>
      </trkpt>
      <trkpt lat="43.64969" lon="1.3804">
        <ele>144</ele>
        <time>2024-06-19T10:58:21Z</time>
      </trkpt>
      <trkpt lat="43.64968" lon="1.38035">
        <ele>144</ele>
        <time>2024-06-19T10:58:22Z</time>
      </trkpt>
      <trkpt lat="43.64966" lon="1.38031">
        <ele>144</ele>
        <time>2024-06-19T10:58:23Z</time>
      </trkpt>
      <trkpt lat="43.64965" lon="1.38027">
        <ele>144</ele>
        <time>2024-06-19T10:58:24Z</time>
      </trkpt>
      <trkpt lat="43.64964" lon="1.38023">
        <ele>144</ele>
        <time>2024-06-19T10:58:25Z</time>
      </trkpt>
      <trkpt lat="43.64963" lon="1.3802">
        <ele>144</ele>
        <time>2024-06-19T10:58:26Z</time>
      </trkpt>
      <trkpt lat="43.64962" lon="1.38016">
        <ele>144</ele>
        <time>2024-06-19T10:58:27Z</time>
      </trkpt>
      <trkpt lat="43.6496" lon="1.38012">
        <ele>144</ele>
        <time>2024-06-19T10:58:28Z</time>
      </trkpt>
      <trkpt lat="43.64958" lon="1.38008">
        <ele>144</ele>
        <time>2024-06-19T10:58:29Z</time>
      </trkpt>
      <trkpt lat="43.64956" lon="1.38004">
        <ele>144</ele>
        <time>2024-06-19T10:58:30Z</time>
      </trkpt>
      <trkpt lat="43.64953" lon="1.38">
        <ele>144</ele>
        <time>2024-06-19T10:58:31Z</time>
      </trkpt>
      <trkpt lat="43.64951" lon="1.37995">
        <ele>144</ele>
        <time>2024-06-19T10:58:32Z</time>
      </trkpt>
      <trkpt lat="43.64949" lon="1.3799">
        <ele>144</ele>
        <time>2024-06-19T10:58:33Z</time>
      </trkpt>
      <trkpt lat="43.64947" lon="1.37985">
        <ele>144</ele>
        <time>2024-06-19T10:58:34Z</time>
      </trkpt>
      <trkpt lat="43.64946" lon="1.37978">
        <ele>144</ele>
        <time>2024-06-19T10:58:35Z</time>
      </trkpt>
      <trkpt lat="43.64946" lon="1.37972">
        <ele>144</ele>
        <time>2024-06-19T10:58:36Z</time>
      </trkpt>
      <trkpt lat="43.64946" lon="1.37967">
        <ele>144</ele>
        <time>2024-06-19T10:58:37Z</time>
      </trkpt>
      <trkpt lat="43.64945" lon="1.37961">
        <ele>144</ele>
        <time>2024-06-19T10:58:38Z</time>
      </trkpt>
      <trkpt lat="43.64945" lon="1.37956">
        <ele>145</ele>
        <time>2024-06-19T10:58:39Z</time>
      </trkpt>
      <trkpt lat="43.64943" lon="1.37946">
        <ele>144</ele>
        <time>2024-06-19T10:58:41Z</time>
      </trkpt>
      <trkpt lat="43.64942" lon="1.37942">
        <ele>144</ele>
        <time>2024-06-19T10:58:42Z</time>
      </trkpt>
      <trkpt lat="43.64941" lon="1.37938">
        <ele>144</ele>
        <time>2024-06-19T10:58:43Z</time>
      </trkpt>
      <trkpt lat="43.6494" lon="1.37933">
        <ele>144</ele>
        <time>2024-06-19T10:58:44Z</time>
      </trkpt>
      <trkpt lat="43.64939" lon="1.37929">
        <ele>144</ele>
        <time>2024-06-19T10:58:45Z</time>
      </trkpt>
      <trkpt lat="43.64938" lon="1.37924">
        <ele>144</ele>
        <time>2024-06-19T10:58:46Z</time>
      </trkpt>
      <trkpt lat="43.64937" lon="1.3792">
        <ele>145</ele>
        <time>2024-06-19T10:58:47Z</time>
      </trkpt>
      <trkpt lat="43.64935" lon="1.37917">
        <ele>145</ele>
        <time>2024-06-19T10:58:48Z</time>
      </trkpt>
      <trkpt lat="43.64934" lon="1.37912">
        <ele>146</ele>
        <time>2024-06-19T10:58:49Z</time>
      </trkpt>
      <trkpt lat="43.64933" lon="1.37908">
        <ele>146</ele>
        <time>2024-06-19T10:58:50Z</time>
      </trkpt>
      <trkpt lat="43.64932" lon="1.37903">
        <ele>146</ele>
        <time>2024-06-19T10:58:51Z</time>
      </trkpt>
      <trkpt lat="43.64931" lon="1.37899">
        <ele>146</ele>
        <time>2024-06-19T10:58:52Z</time>
      </trkpt>
      <trkpt lat="43.6493" lon="1.37895">
        <ele>146</ele>
        <time>2024-06-19T10:58:53Z</time>
      </trkpt>
      <trkpt lat="43.64929" lon="1.37891">
        <ele>146</ele>
        <time>2024-06-19T10:58:54Z</time>
      </trkpt>
      <trkpt lat="43.64928" lon="1.37886">
        <ele>146</ele>
        <time>2024-06-19T10:58:55Z</time>
      </trkpt>
      <trkpt lat="43.64927" lon="1.37881">
        <ele>146</ele>
        <time>2024-06-19T10:58:56Z</time>
      </trkpt>
      <trkpt lat="43.64926" lon="1.37876">
        <ele>146</ele>
        <time>2024-06-19T10:58:57Z</time>
      </trkpt>
      <trkpt lat="43.64925" lon="1.37872">
        <ele>146</ele>
        <time>2024-06-19T10:58:58Z</time>
      </trkpt>
      <trkpt lat="43.64925" lon="1.37872">
        <ele>146</ele>
        <time>2024-06-19T10:58:59Z</time>
      </trkpt>
      <trkpt lat="43.64923" lon="1.37864">
        <ele>145</ele>
        <time>2024-06-19T10:59:00Z</time>
      </trkpt>
      <trkpt lat="43.64922" lon="1.3786">
        <ele>145</ele>
        <time>2024-06-19T10:59:01Z</time>
      </trkpt>
      <trkpt lat="43.64921" lon="1.37855">
        <ele>145</ele>
        <time>2024-06-19T10:59:02Z</time>
      </trkpt>
      <trkpt lat="43.64921" lon="1.37851">
        <ele>145</ele>
        <time>2024-06-19T10:59:03Z</time>
      </trkpt>
      <trkpt lat="43.6492" lon="1.37846">
        <ele>145</ele>
        <time>2024-06-19T10:59:04Z</time>
      </trkpt>
      <trkpt lat="43.64919" lon="1.37842">
        <ele>145</ele>
        <time>2024-06-19T10:59:05Z</time>
      </trkpt>
      <trkpt lat="43.64918" lon="1.37837">
        <ele>145</ele>
        <time>2024-06-19T10:59:06Z</time>
      </trkpt>
      <trkpt lat="43.64918" lon="1.37837">
        <ele>145</ele>
        <time>2024-06-19T10:59:07Z</time>
      </trkpt>
      <trkpt lat="43.64917" lon="1.37833">
        <ele>146</ele>
        <time>2024-06-19T10:59:08Z</time>
      </trkpt>
      <trkpt lat="43.64916" lon="1.37828">
        <ele>146</ele>
        <time>2024-06-19T10:59:09Z</time>
      </trkpt>
      <trkpt lat="43.64915" lon="1.37824">
        <ele>146</ele>
        <time>2024-06-19T10:59:10Z</time>
      </trkpt>
      <trkpt lat="43.64913" lon="1.37814">
        <ele>146</ele>
        <time>2024-06-19T10:59:11Z</time>
      </trkpt>
      <trkpt lat="43.64913" lon="1.37813">
        <ele>147</ele>
        <time>2024-06-19T10:59:12Z</time>
      </trkpt>
      <trkpt lat="43.64913" lon="1.37809">
        <ele>147</ele>
        <time>2024-06-19T10:59:13Z</time>
      </trkpt>
      <trkpt lat="43.64912" lon="1.37805">
        <ele>147</ele>
        <time>2024-06-19T10:59:14Z</time>
      </trkpt>
      <trkpt lat="43.64912" lon="1.37805">
        <ele>146</ele>
        <time>2024-06-19T10:59:15Z</time>
      </trkpt>
      <trkpt lat="43.64911" lon="1.37801">
        <ele>146</ele>
        <time>2024-06-19T10:59:16Z</time>
      </trkpt>
      <trkpt lat="43.6491" lon="1.37796">
        <ele>147</ele>
        <time>2024-06-19T10:59:17Z</time>
      </trkpt>
      <trkpt lat="43.6491" lon="1.37792">
        <ele>147</ele>
        <time>2024-06-19T10:59:18Z</time>
      </trkpt>
      <trkpt lat="43.64907" lon="1.37782">
        <ele>146</ele>
        <time>2024-06-19T10:59:19Z</time>
      </trkpt>
      <trkpt lat="43.64907" lon="1.3778">
        <ele>146</ele>
        <time>2024-06-19T10:59:20Z</time>
      </trkpt>
      <trkpt lat="43.64906" lon="1.37775">
        <ele>146</ele>
        <time>2024-06-19T10:59:21Z</time>
      </trkpt>
      <trkpt lat="43.64904" lon="1.3777">
        <ele>146</ele>
        <time>2024-06-19T10:59:22Z</time>
      </trkpt>
      <trkpt lat="43.64902" lon="1.37766">
        <ele>146</ele>
        <time>2024-06-19T10:59:23Z</time>
      </trkpt>
      <trkpt lat="43.649" lon="1.37762">
        <ele>146</ele>
        <time>2024-06-19T10:59:24Z</time>
      </trkpt>
      <trkpt lat="43.64899" lon="1.37758">
        <ele>146</ele>
        <time>2024-06-19T10:59:25Z</time>
      </trkpt>
      <trkpt lat="43.64898" lon="1.37754">
        <ele>146</ele>
        <time>2024-06-19T10:59:26Z</time>
      </trkpt>
      <trkpt lat="43.64897" lon="1.37749">
        <ele>147</ele>
        <time>2024-06-19T10:59:27Z</time>
      </trkpt>
      <trkpt lat="43.64897" lon="1.37744">
        <ele>147</ele>
        <time>2024-06-19T10:59:28Z</time>
      </trkpt>
      <trkpt lat="43.64897" lon="1.37744">
        <ele>147</ele>
        <time>2024-06-19T10:59:29Z</time>
      </trkpt>
      <trkpt lat="43.64894" lon="1.37733">
        <ele>147</ele>
        <time>2024-06-19T10:59:30Z</time>
      </trkpt>
      <trkpt lat="43.64893" lon="1.37731">
        <ele>146</ele>
        <time>2024-06-19T10:59:31Z</time>
      </trkpt>
      <trkpt lat="43.64893" lon="1.37726">
        <ele>147</ele>
        <time>2024-06-19T10:59:32Z</time>
      </trkpt>
      <trkpt lat="43.64892" lon="1.37723">
        <ele>147</ele>
        <time>2024-06-19T10:59:33Z</time>
      </trkpt>
      <trkpt lat="43.64892" lon="1.37723">
        <ele>147</ele>
        <time>2024-06-19T10:59:34Z</time>
      </trkpt>
      <trkpt lat="43.64891" lon="1.37718">
        <ele>147</ele>
        <time>2024-06-19T10:59:35Z</time>
      </trkpt>
      <trkpt lat="43.6489" lon="1.37714">
        <ele>147</ele>
        <time>2024-06-19T10:59:36Z</time>
      </trkpt>
      <trkpt lat="43.64889" lon="1.3771">
        <ele>147</ele>
        <time>2024-06-19T10:59:37Z</time>
      </trkpt>
      <trkpt lat="43.64886" lon="1.37699">
        <ele>147</ele>
        <time>2024-06-19T10:59:38Z</time>
      </trkpt>
      <trkpt lat="43.64885" lon="1.37696">
        <ele>147</ele>
        <time>2024-06-19T10:59:39Z</time>
      </trkpt>
      <trkpt lat="43.64884" lon="1.37692">
        <ele>147</ele>
        <time>2024-06-19T10:59:40Z</time>
      </trkpt>
      <trkpt lat="43.64883" lon="1.37688">
        <ele>147</ele>
        <time>2024-06-19T10:59:41Z</time>
      </trkpt>
      <trkpt lat="43.64882" lon="1.37684">
        <ele>147</ele>
        <time>2024-06-19T10:59:42Z</time>
      </trkpt>
      <trkpt lat="43.64882" lon="1.37684">
        <ele>147</ele>
        <time>2024-06-19T10:59:43Z</time>
      </trkpt>
      <trkpt lat="43.64881" lon="1.37679">
        <ele>147</ele>
        <time>2024-06-19T10:59:44Z</time>
      </trkpt>
      <trkpt lat="43.64879" lon="1.37673">
        <ele>147</ele>
        <time>2024-06-19T10:59:45Z</time>
      </trkpt>
      <trkpt lat="43.64878" lon="1.37668">
        <ele>147</ele>
        <time>2024-06-19T10:59:46Z</time>
      </trkpt>
      <trkpt lat="43.64878" lon="1.37664">
        <ele>147</ele>
        <time>2024-06-19T10:59:47Z</time>
      </trkpt>
      <trkpt lat="43.64877" lon="1.3766">
        <ele>147</ele>
        <time>2024-06-19T10:59:48Z</time>
      </trkpt>
      <trkpt lat="43.64877" lon="1.37656">
        <ele>147</ele>
        <time>2024-06-19T10:59:49Z</time>
      </trkpt>
      <trkpt lat="43.64875" lon="1.37653">
        <ele>147</ele>
        <time>2024-06-19T10:59:50Z</time>
      </trkpt>
      <trkpt lat="43.64872" lon="1.3765">
        <ele>148</ele>
        <time>2024-06-19T10:59:51Z</time>
      </trkpt>
      <trkpt lat="43.64869" lon="1.37647">
        <ele>148</ele>
        <time>2024-06-19T10:59:52Z</time>
      </trkpt>
      <trkpt lat="43.64866" lon="1.37645">
        <ele>148</ele>
        <time>2024-06-19T10:59:53Z</time>
      </trkpt>
      <trkpt lat="43.64862" lon="1.37643">
        <ele>148</ele>
        <time>2024-06-19T10:59:54Z</time>
      </trkpt>
      <trkpt lat="43.64859" lon="1.3764">
        <ele>148</ele>
        <time>2024-06-19T10:59:55Z</time>
      </trkpt>
      <trkpt lat="43.64853" lon="1.37636">
        <ele>148</ele>
        <time>2024-06-19T10:59:57Z</time>
      </trkpt>
      <trkpt lat="43.6485" lon="1.37633">
        <ele>148</ele>
        <time>2024-06-19T10:59:58Z</time>
      </trkpt>
      <trkpt lat="43.64847" lon="1.3763">
        <ele>147</ele>
        <time>2024-06-19T10:59:59Z</time>
      </trkpt>
      <trkpt lat="43.64844" lon="1.37627">
        <ele>147</ele>
        <time>2024-06-19T11:00:00Z</time>
      </trkpt>
      <trkpt lat="43.64844" lon="1.37627">
        <ele>147</ele>
        <time>2024-06-19T11:00:01Z</time>
      </trkpt>
      <trkpt lat="43.64841" lon="1.37626">
        <ele>147</ele>
        <time>2024-06-19T11:00:02Z</time>
      </trkpt>
      <trkpt lat="43.64838" lon="1.37625">
        <ele>147</ele>
        <time>2024-06-19T11:00:03Z</time>
      </trkpt>
      <trkpt lat="43.64835" lon="1.37623">
        <ele>147</ele>
        <time>2024-06-19T11:00:04Z</time>
      </trkpt>
      <trkpt lat="43.64833" lon="1.37621">
        <ele>147</ele>
        <time>2024-06-19T11:00:05Z</time>
      </trkpt>
      <trkpt lat="43.6483" lon="1.37618">
        <ele>148</ele>
        <time>2024-06-19T11:00:06Z</time>
      </trkpt>
      <trkpt lat="43.64827" lon="1.37615">
        <ele>148</ele>
        <time>2024-06-19T11:00:07Z</time>
      </trkpt>
      <trkpt lat="43.64816" lon="1.37611">
        <ele>147</ele>
        <time>2024-06-19T11:00:08Z</time>
      </trkpt>
      <trkpt lat="43.64814" lon="1.3761">
        <ele>147</ele>
        <time>2024-06-19T11:00:09Z</time>
      </trkpt>
      <trkpt lat="43.6481" lon="1.37608">
        <ele>147</ele>
        <time>2024-06-19T11:00:10Z</time>
      </trkpt>
      <trkpt lat="43.64806" lon="1.37607">
        <ele>147</ele>
        <time>2024-06-19T11:00:11Z</time>
      </trkpt>
      <trkpt lat="43.64802" lon="1.37605">
        <ele>147</ele>
        <time>2024-06-19T11:00:12Z</time>
      </trkpt>
      <trkpt lat="43.64802" lon="1.37605">
        <ele>147</ele>
        <time>2024-06-19T11:00:13Z</time>
      </trkpt>
      <trkpt lat="43.64795" lon="1.37606">
        <ele>147</ele>
        <time>2024-06-19T11:00:14Z</time>
      </trkpt>
      <trkpt lat="43.64793" lon="1.37607">
        <ele>147</ele>
        <time>2024-06-19T11:00:15Z</time>
      </trkpt>
      <trkpt lat="43.64789" lon="1.37608">
        <ele>147</ele>
        <time>2024-06-19T11:00:16Z</time>
      </trkpt>
      <trkpt lat="43.64785" lon="1.3761">
        <ele>147</ele>
        <time>2024-06-19T11:00:17Z</time>
      </trkpt>
      <trkpt lat="43.64782" lon="1.37611">
        <ele>147</ele>
        <time>2024-06-19T11:00:18Z</time>
      </trkpt>
      <trkpt lat="43.64778" lon="1.37613">
        <ele>147</ele>
        <time>2024-06-19T11:00:19Z</time>
      </trkpt>
      <trkpt lat="43.64774" lon="1.37616">
        <ele>147</ele>
        <time>2024-06-19T11:00:20Z</time>
      </trkpt>
      <trkpt lat="43.6477" lon="1.37618">
        <ele>146</ele>
        <time>2024-06-19T11:00:21Z</time>
      </trkpt>
      <trkpt lat="43.64767" lon="1.37619">
        <ele>146</ele>
        <time>2024-06-19T11:00:22Z</time>
      </trkpt>
      <trkpt lat="43.64767" lon="1.37619">
        <ele>146</ele>
        <time>2024-06-19T11:00:23Z</time>
      </trkpt>
    </trkseg>
  </trk>
</gpx>